<?xml version="1.0" encoding="UTF-8" standalone="no" ?>
<gpx xmlns="http://www.topografix.com/GPX/1/1" xmlns:xsi="http://www.w3.org/2001/XMLSchema-instance" xsi:schemaLocation="http://www.topografix.com/GPX/1/1 http://www.topografix.com/GPX/1/1/gpx.xsd" version="1.1" creator="VisuGPX - https://www.visugpx.com">
  <metadata>
    <name>Balade hivernale</name>
    <desc><![CDATA[Balade effectuée du 9 décembre 2022 au 7 janvier 2023.]]></desc>
  </metadata>
  <trk>
    <name><![CDATA[Plouarzel - Loperhet]]></name>
    <extensions>
      <line xmlns="http://www.topografix.com/GPX/gpx_style/0/2">
        <color>0000FF</color>
        <width>4</width>
      </line>
    </extensions>
    <trkseg>
      <trkpt lat="48.43304" lon="-4.71972">
        <ele>120.671554</ele>
        <time>2022-12-09T14:08:58.452Z</time>
      </trkpt>
      <trkpt lat="48.43298" lon="-4.71983">
        <ele>120.671554</ele>
        <time>2022-12-09T14:09:46.480Z</time>
      </trkpt>
      <trkpt lat="48.43297" lon="-4.71997">
        <ele>120.671554</ele>
        <time>2022-12-09T14:09:50.489Z</time>
      </trkpt>
      <trkpt lat="48.43289" lon="-4.72009">
        <ele>120.671554</ele>
        <time>2022-12-09T14:09:54.484Z</time>
      </trkpt>
      <trkpt lat="48.43284" lon="-4.72025">
        <ele>120.671554</ele>
        <time>2022-12-09T14:09:58.494Z</time>
      </trkpt>
      <trkpt lat="48.43286" lon="-4.72041">
        <ele>120.671554</ele>
        <time>2022-12-09T14:10:01.479Z</time>
      </trkpt>
      <trkpt lat="48.4329" lon="-4.72058">
        <ele>120.671554</ele>
        <time>2022-12-09T14:10:04.481Z</time>
      </trkpt>
      <trkpt lat="48.43295" lon="-4.72073">
        <ele>120.671554</ele>
        <time>2022-12-09T14:10:07.476Z</time>
      </trkpt>
      <trkpt lat="48.43298" lon="-4.72086">
        <ele>120.671554</ele>
        <time>2022-12-09T14:10:10.472Z</time>
      </trkpt>
      <trkpt lat="48.43303" lon="-4.72098">
        <ele>120.746523</ele>
        <time>2022-12-09T14:10:14.490Z</time>
      </trkpt>
      <trkpt lat="48.43313" lon="-4.72094">
        <ele>120.904548</ele>
        <time>2022-12-09T14:10:19.480Z</time>
      </trkpt>
      <trkpt lat="48.43323" lon="-4.72091">
        <ele>121.055562</ele>
        <time>2022-12-09T14:10:23.476Z</time>
      </trkpt>
      <trkpt lat="48.43333" lon="-4.72088">
        <ele>121.205538</ele>
        <time>2022-12-09T14:10:27.503Z</time>
      </trkpt>
      <trkpt lat="48.43342" lon="-4.72082">
        <ele>121.36376</ele>
        <time>2022-12-09T14:10:31.502Z</time>
      </trkpt>
      <trkpt lat="48.43351" lon="-4.72074">
        <ele>121.512446</ele>
        <time>2022-12-09T14:10:35.493Z</time>
      </trkpt>
      <trkpt lat="48.43354" lon="-4.72061">
        <ele>121.652165</ele>
        <time>2022-12-09T14:10:39.481Z</time>
      </trkpt>
      <trkpt lat="48.43363" lon="-4.72052">
        <ele>121.805786</ele>
        <time>2022-12-09T14:10:44.504Z</time>
      </trkpt>
      <trkpt lat="48.43367" lon="-4.72038">
        <ele>121.964665</ele>
        <time>2022-12-09T14:10:50.485Z</time>
      </trkpt>
      <trkpt lat="48.43363" lon="-4.72024">
        <ele>122.115624</ele>
        <time>2022-12-09T14:10:54.494Z</time>
      </trkpt>
      <trkpt lat="48.43359" lon="-4.7201">
        <ele>122.266699</ele>
        <time>2022-12-09T14:10:58.491Z</time>
      </trkpt>
      <trkpt lat="48.43356" lon="-4.71995">
        <ele>122.420384</ele>
        <time>2022-12-09T14:11:02.502Z</time>
      </trkpt>
      <trkpt lat="48.43353" lon="-4.71979">
        <ele>122.581981</ele>
        <time>2022-12-09T14:11:06.499Z</time>
      </trkpt>
      <trkpt lat="48.4335" lon="-4.71963">
        <ele>122.746683</ele>
        <time>2022-12-09T14:11:10.496Z</time>
      </trkpt>
      <trkpt lat="48.43349" lon="-4.71946">
        <ele>122.917468</ele>
        <time>2022-12-09T14:11:14.500Z</time>
      </trkpt>
      <trkpt lat="48.43347" lon="-4.7193">
        <ele>123.086661</ele>
        <time>2022-12-09T14:11:18.502Z</time>
      </trkpt>
      <trkpt lat="48.43347" lon="-4.71912">
        <ele>123.260346</ele>
        <time>2022-12-09T14:11:22.483Z</time>
      </trkpt>
      <trkpt lat="48.43347" lon="-4.71896">
        <ele>123.487989</ele>
        <time>2022-12-09T14:11:26.500Z</time>
      </trkpt>
      <trkpt lat="48.43346" lon="-4.7188">
        <ele>123.859882</ele>
        <time>2022-12-09T14:11:30.500Z</time>
      </trkpt>
      <trkpt lat="48.43345" lon="-4.71866">
        <ele>124.174128</ele>
        <time>2022-12-09T14:11:33.504Z</time>
      </trkpt>
      <trkpt lat="48.43344" lon="-4.71848">
        <ele>124.582329</ele>
        <time>2022-12-09T14:11:37.501Z</time>
      </trkpt>
      <trkpt lat="48.43345" lon="-4.71832">
        <ele>124.953503</ele>
        <time>2022-12-09T14:11:41.495Z</time>
      </trkpt>
      <trkpt lat="48.43345" lon="-4.71817">
        <ele>125.294829</ele>
        <time>2022-12-09T14:11:45.496Z</time>
      </trkpt>
      <trkpt lat="48.43342" lon="-4.71804">
        <ele>125.620902</ele>
        <time>2022-12-09T14:11:50.489Z</time>
      </trkpt>
      <trkpt lat="48.43336" lon="-4.71792">
        <ele>125.962465</ele>
        <time>2022-12-09T14:11:56.481Z</time>
      </trkpt>
      <trkpt lat="48.4334" lon="-4.71778">
        <ele>126.315787</ele>
        <time>2022-12-09T14:12:00.477Z</time>
      </trkpt>
      <trkpt lat="48.43343" lon="-4.71764">
        <ele>126.658163</ele>
        <time>2022-12-09T14:12:04.498Z</time>
      </trkpt>
      <trkpt lat="48.43345" lon="-4.71748">
        <ele>127.026402</ele>
        <time>2022-12-09T14:12:08.482Z</time>
      </trkpt>
      <trkpt lat="48.43347" lon="-4.71732">
        <ele>127.391309</ele>
        <time>2022-12-09T14:12:12.474Z</time>
      </trkpt>
      <trkpt lat="48.43349" lon="-4.71716">
        <ele>127.767788</ele>
        <time>2022-12-09T14:12:16.519Z</time>
      </trkpt>
      <trkpt lat="48.43351" lon="-4.71701">
        <ele>128.113712</ele>
        <time>2022-12-09T14:12:20.502Z</time>
      </trkpt>
      <trkpt lat="48.4335" lon="-4.71687">
        <ele>128.451518</ele>
        <time>2022-12-09T14:12:25.499Z</time>
      </trkpt>
      <trkpt lat="48.43341" lon="-4.71684">
        <ele>128.790835</ele>
        <time>2022-12-09T14:12:29.490Z</time>
      </trkpt>
      <trkpt lat="48.4333" lon="-4.71686">
        <ele>129.169872</ele>
        <time>2022-12-09T14:12:34.487Z</time>
      </trkpt>
      <trkpt lat="48.4332" lon="-4.71686">
        <ele>129.494359</ele>
        <time>2022-12-09T14:12:38.501Z</time>
      </trkpt>
      <trkpt lat="48.43309" lon="-4.71683">
        <ele>129.741437</ele>
        <time>2022-12-09T14:12:42.481Z</time>
      </trkpt>
      <trkpt lat="48.43299" lon="-4.71678">
        <ele>129.943395</ele>
        <time>2022-12-09T14:12:46.487Z</time>
      </trkpt>
      <trkpt lat="48.43291" lon="-4.71668">
        <ele>130.144993</ele>
        <time>2022-12-09T14:12:50.479Z</time>
      </trkpt>
      <trkpt lat="48.43282" lon="-4.7166">
        <ele>130.348573</ele>
        <time>2022-12-09T14:12:54.492Z</time>
      </trkpt>
      <trkpt lat="48.4327" lon="-4.71659">
        <ele>130.576659</ele>
        <time>2022-12-09T14:12:58.492Z</time>
      </trkpt>
      <trkpt lat="48.43261" lon="-4.7166">
        <ele>130.747783</ele>
        <time>2022-12-09T14:13:01.494Z</time>
      </trkpt>
      <trkpt lat="48.43252" lon="-4.71661">
        <ele>130.922616</ele>
        <time>2022-12-09T14:13:04.501Z</time>
      </trkpt>
      <trkpt lat="48.43241" lon="-4.71656">
        <ele>131.13988</ele>
        <time>2022-12-09T14:13:08.483Z</time>
      </trkpt>
      <trkpt lat="48.43235" lon="-4.71644">
        <ele>131.324038</ele>
        <time>2022-12-09T14:13:11.495Z</time>
      </trkpt>
      <trkpt lat="48.43229" lon="-4.71632">
        <ele>131.507602</ele>
        <time>2022-12-09T14:13:14.492Z</time>
      </trkpt>
      <trkpt lat="48.43225" lon="-4.71618">
        <ele>131.705022</ele>
        <time>2022-12-09T14:13:17.503Z</time>
      </trkpt>
      <trkpt lat="48.43222" lon="-4.71603">
        <ele>131.897062</ele>
        <time>2022-12-09T14:13:20.505Z</time>
      </trkpt>
      <trkpt lat="48.43218" lon="-4.71591">
        <ele>132.071664</ele>
        <time>2022-12-09T14:13:23.490Z</time>
      </trkpt>
      <trkpt lat="48.43215" lon="-4.71577">
        <ele>132.26235</ele>
        <time>2022-12-09T14:13:26.509Z</time>
      </trkpt>
      <trkpt lat="48.43211" lon="-4.71563">
        <ele>132.448188</ele>
        <time>2022-12-09T14:13:29.500Z</time>
      </trkpt>
      <trkpt lat="48.43208" lon="-4.71549">
        <ele>132.629209</ele>
        <time>2022-12-09T14:13:32.492Z</time>
      </trkpt>
      <trkpt lat="48.43205" lon="-4.71533">
        <ele>132.836506</ele>
        <time>2022-12-09T14:13:36.496Z</time>
      </trkpt>
      <trkpt lat="48.432" lon="-4.71521">
        <ele>133.01038</ele>
        <time>2022-12-09T14:13:40.482Z</time>
      </trkpt>
      <trkpt lat="48.43189" lon="-4.71516">
        <ele>133.144828</ele>
        <time>2022-12-09T14:13:44.478Z</time>
      </trkpt>
      <trkpt lat="48.43178" lon="-4.7151">
        <ele>133.289644</ele>
        <time>2022-12-09T14:13:48.501Z</time>
      </trkpt>
      <trkpt lat="48.43168" lon="-4.71506">
        <ele>133.403326</ele>
        <time>2022-12-09T14:13:51.487Z</time>
      </trkpt>
      <trkpt lat="48.43159" lon="-4.71501">
        <ele>133.51864</ele>
        <time>2022-12-09T14:13:54.493Z</time>
      </trkpt>
      <trkpt lat="48.43151" lon="-4.71496">
        <ele>133.628903</ele>
        <time>2022-12-09T14:13:57.496Z</time>
      </trkpt>
      <trkpt lat="48.43142" lon="-4.71491">
        <ele>133.744014</ele>
        <time>2022-12-09T14:14:00.501Z</time>
      </trkpt>
      <trkpt lat="48.43132" lon="-4.71486">
        <ele>133.865316</ele>
        <time>2022-12-09T14:14:03.488Z</time>
      </trkpt>
      <trkpt lat="48.43122" lon="-4.71481">
        <ele>133.989918</ele>
        <time>2022-12-09T14:14:06.503Z</time>
      </trkpt>
      <trkpt lat="48.43113" lon="-4.71476">
        <ele>134.113658</ele>
        <time>2022-12-09T14:14:09.495Z</time>
      </trkpt>
      <trkpt lat="48.43103" lon="-4.7147">
        <ele>134.237399</ele>
        <time>2022-12-09T14:14:12.499Z</time>
      </trkpt>
      <trkpt lat="48.43093" lon="-4.71465">
        <ele>134.362873</ele>
        <time>2022-12-09T14:14:15.506Z</time>
      </trkpt>
      <trkpt lat="48.43083" lon="-4.7146">
        <ele>134.486344</ele>
        <time>2022-12-09T14:14:18.501Z</time>
      </trkpt>
      <trkpt lat="48.43074" lon="-4.71455">
        <ele>134.610946</ele>
        <time>2022-12-09T14:14:21.490Z</time>
      </trkpt>
      <trkpt lat="48.43063" lon="-4.7145">
        <ele>134.738948</ele>
        <time>2022-12-09T14:14:24.499Z</time>
      </trkpt>
      <trkpt lat="48.43054" lon="-4.71445">
        <ele>134.863916</ele>
        <time>2022-12-09T14:14:27.502Z</time>
      </trkpt>
      <trkpt lat="48.43044" lon="-4.7144">
        <ele>134.986358</ele>
        <time>2022-12-09T14:14:30.504Z</time>
      </trkpt>
      <trkpt lat="48.43034" lon="-4.71434">
        <ele>135.113743</ele>
        <time>2022-12-09T14:14:33.499Z</time>
      </trkpt>
      <trkpt lat="48.43024" lon="-4.71429">
        <ele>135.060806</ele>
        <time>2022-12-09T14:14:36.489Z</time>
      </trkpt>
      <trkpt lat="48.43015" lon="-4.71423">
        <ele>134.935036</ele>
        <time>2022-12-09T14:14:39.473Z</time>
      </trkpt>
      <trkpt lat="48.43006" lon="-4.71415">
        <ele>134.803753</ele>
        <time>2022-12-09T14:14:42.477Z</time>
      </trkpt>
      <trkpt lat="48.42996" lon="-4.71407">
        <ele>134.665489</ele>
        <time>2022-12-09T14:14:45.494Z</time>
      </trkpt>
      <trkpt lat="48.42987" lon="-4.71397">
        <ele>134.527528</ele>
        <time>2022-12-09T14:14:48.479Z</time>
      </trkpt>
      <trkpt lat="48.42978" lon="-4.71385">
        <ele>134.386783</ele>
        <time>2022-12-09T14:14:51.495Z</time>
      </trkpt>
      <trkpt lat="48.42971" lon="-4.71372">
        <ele>134.246404</ele>
        <time>2022-12-09T14:14:54.477Z</time>
      </trkpt>
      <trkpt lat="48.42964" lon="-4.71358">
        <ele>134.101821</ele>
        <time>2022-12-09T14:14:57.486Z</time>
      </trkpt>
      <trkpt lat="48.42958" lon="-4.71342">
        <ele>133.952401</ele>
        <time>2022-12-09T14:15:00.496Z</time>
      </trkpt>
      <trkpt lat="48.42952" lon="-4.71326">
        <ele>133.801266</ele>
        <time>2022-12-09T14:15:03.499Z</time>
      </trkpt>
      <trkpt lat="48.42946" lon="-4.71309">
        <ele>133.641056</ele>
        <time>2022-12-09T14:15:06.503Z</time>
      </trkpt>
      <trkpt lat="48.42941" lon="-4.71297">
        <ele>133.524968</ele>
        <time>2022-12-09T14:15:08.501Z</time>
      </trkpt>
      <trkpt lat="48.42936" lon="-4.71284">
        <ele>133.407262</ele>
        <time>2022-12-09T14:15:10.498Z</time>
      </trkpt>
      <trkpt lat="48.42931" lon="-4.71271">
        <ele>133.287098</ele>
        <time>2022-12-09T14:15:12.502Z</time>
      </trkpt>
      <trkpt lat="48.42927" lon="-4.71258">
        <ele>133.161741</ele>
        <time>2022-12-09T14:15:14.499Z</time>
      </trkpt>
      <trkpt lat="48.42922" lon="-4.71244">
        <ele>133.034483</ele>
        <time>2022-12-09T14:15:16.499Z</time>
      </trkpt>
      <trkpt lat="48.42916" lon="-4.7123">
        <ele>132.928153</ele>
        <time>2022-12-09T14:15:18.500Z</time>
      </trkpt>
      <trkpt lat="48.42911" lon="-4.71216">
        <ele>132.910971</ele>
        <time>2022-12-09T14:15:20.500Z</time>
      </trkpt>
      <trkpt lat="48.42906" lon="-4.71203">
        <ele>132.893883</ele>
        <time>2022-12-09T14:15:22.499Z</time>
      </trkpt>
      <trkpt lat="48.42902" lon="-4.71189">
        <ele>132.877023</ele>
        <time>2022-12-09T14:15:24.501Z</time>
      </trkpt>
      <trkpt lat="48.42899" lon="-4.71174">
        <ele>132.860438</ele>
        <time>2022-12-09T14:15:26.502Z</time>
      </trkpt>
      <trkpt lat="48.42896" lon="-4.7116">
        <ele>132.844519</ele>
        <time>2022-12-09T14:15:28.500Z</time>
      </trkpt>
      <trkpt lat="48.42893" lon="-4.71141">
        <ele>132.823082</ele>
        <time>2022-12-09T14:15:31.478Z</time>
      </trkpt>
      <trkpt lat="48.42891" lon="-4.71123">
        <ele>132.802941</ele>
        <time>2022-12-09T14:15:34.500Z</time>
      </trkpt>
      <trkpt lat="48.4289" lon="-4.71105">
        <ele>132.783262</ele>
        <time>2022-12-09T14:15:37.504Z</time>
      </trkpt>
      <trkpt lat="48.42888" lon="-4.71086">
        <ele>132.762323</ele>
        <time>2022-12-09T14:15:40.499Z</time>
      </trkpt>
      <trkpt lat="48.42888" lon="-4.71066">
        <ele>132.740727</ele>
        <time>2022-12-09T14:15:43.499Z</time>
      </trkpt>
      <trkpt lat="48.42886" lon="-4.71046">
        <ele>132.719483</ele>
        <time>2022-12-09T14:15:46.492Z</time>
      </trkpt>
      <trkpt lat="48.42886" lon="-4.71033">
        <ele>132.704654</ele>
        <time>2022-12-09T14:15:48.495Z</time>
      </trkpt>
      <trkpt lat="48.42884" lon="-4.71013">
        <ele>132.683209</ele>
        <time>2022-12-09T14:15:51.503Z</time>
      </trkpt>
      <trkpt lat="48.42883" lon="-4.70994">
        <ele>132.662229</ele>
        <time>2022-12-09T14:15:54.494Z</time>
      </trkpt>
      <trkpt lat="48.42883" lon="-4.70975">
        <ele>132.642056</ele>
        <time>2022-12-09T14:15:57.501Z</time>
      </trkpt>
      <trkpt lat="48.42882" lon="-4.70957">
        <ele>133.068413</ele>
        <time>2022-12-09T14:16:00.493Z</time>
      </trkpt>
      <trkpt lat="48.4288" lon="-4.70939">
        <ele>133.620018</ele>
        <time>2022-12-09T14:16:03.501Z</time>
      </trkpt>
      <trkpt lat="48.4288" lon="-4.70922">
        <ele>134.151476</ele>
        <time>2022-12-09T14:16:06.496Z</time>
      </trkpt>
      <trkpt lat="48.42879" lon="-4.70906">
        <ele>134.636175</ele>
        <time>2022-12-09T14:16:09.501Z</time>
      </trkpt>
      <trkpt lat="48.42878" lon="-4.70891">
        <ele>135.09291</ele>
        <time>2022-12-09T14:16:12.498Z</time>
      </trkpt>
      <trkpt lat="48.42878" lon="-4.70877">
        <ele>135.534592</ele>
        <time>2022-12-09T14:16:15.490Z</time>
      </trkpt>
      <trkpt lat="48.42875" lon="-4.7086">
        <ele>136.064053</ele>
        <time>2022-12-09T14:16:19.503Z</time>
      </trkpt>
      <trkpt lat="48.42872" lon="-4.70844">
        <ele>136.591393</ele>
        <time>2022-12-09T14:16:23.485Z</time>
      </trkpt>
      <trkpt lat="48.4287" lon="-4.70827">
        <ele>137.117148</ele>
        <time>2022-12-09T14:16:27.495Z</time>
      </trkpt>
      <trkpt lat="48.42868" lon="-4.70812">
        <ele>137.600096</ele>
        <time>2022-12-09T14:16:31.490Z</time>
      </trkpt>
      <trkpt lat="48.42865" lon="-4.70798">
        <ele>138.034797</ele>
        <time>2022-12-09T14:16:35.501Z</time>
      </trkpt>
      <trkpt lat="48.42862" lon="-4.70785">
        <ele>138.47042</ele>
        <time>2022-12-09T14:16:39.501Z</time>
      </trkpt>
      <trkpt lat="48.4286" lon="-4.70769">
        <ele>138.973753</ele>
        <time>2022-12-09T14:16:44.489Z</time>
      </trkpt>
      <trkpt lat="48.42857" lon="-4.70755">
        <ele>139.406068</ele>
        <time>2022-12-09T14:16:48.479Z</time>
      </trkpt>
      <trkpt lat="48.42854" lon="-4.70742">
        <ele>139.847648</ele>
        <time>2022-12-09T14:16:52.504Z</time>
      </trkpt>
      <trkpt lat="48.42852" lon="-4.70728">
        <ele>140.271804</ele>
        <time>2022-12-09T14:16:56.499Z</time>
      </trkpt>
      <trkpt lat="48.42849" lon="-4.70715">
        <ele>140.703039</ele>
        <time>2022-12-09T14:17:00.504Z</time>
      </trkpt>
      <trkpt lat="48.42847" lon="-4.70701">
        <ele>141.119305</ele>
        <time>2022-12-09T14:17:04.497Z</time>
      </trkpt>
      <trkpt lat="48.42844" lon="-4.70687">
        <ele>141.48309</ele>
        <time>2022-12-09T14:17:08.494Z</time>
      </trkpt>
      <trkpt lat="48.42842" lon="-4.70673">
        <ele>141.850054</ele>
        <time>2022-12-09T14:17:12.501Z</time>
      </trkpt>
      <trkpt lat="48.42839" lon="-4.70659">
        <ele>142.224915</ele>
        <time>2022-12-09T14:17:16.486Z</time>
      </trkpt>
      <trkpt lat="48.42837" lon="-4.70645">
        <ele>142.594563</ele>
        <time>2022-12-09T14:17:20.492Z</time>
      </trkpt>
      <trkpt lat="48.42834" lon="-4.70632">
        <ele>142.945249</ele>
        <time>2022-12-09T14:17:24.505Z</time>
      </trkpt>
      <trkpt lat="48.42831" lon="-4.70619">
        <ele>143.293837</ele>
        <time>2022-12-09T14:17:28.503Z</time>
      </trkpt>
      <trkpt lat="48.42829" lon="-4.70605">
        <ele>143.653245</ele>
        <time>2022-12-09T14:17:32.501Z</time>
      </trkpt>
      <trkpt lat="48.42827" lon="-4.70592">
        <ele>144.005359</ele>
        <time>2022-12-09T14:17:36.500Z</time>
      </trkpt>
      <trkpt lat="48.42824" lon="-4.70578">
        <ele>144.362326</ele>
        <time>2022-12-09T14:17:40.498Z</time>
      </trkpt>
      <trkpt lat="48.42821" lon="-4.70564">
        <ele>144.725246</ele>
        <time>2022-12-09T14:17:44.496Z</time>
      </trkpt>
      <trkpt lat="48.42819" lon="-4.70551">
        <ele>145.085657</ele>
        <time>2022-12-09T14:17:48.499Z</time>
      </trkpt>
      <trkpt lat="48.42817" lon="-4.70537">
        <ele>145.446472</ele>
        <time>2022-12-09T14:17:52.499Z</time>
      </trkpt>
      <trkpt lat="48.42814" lon="-4.70524">
        <ele>145.804444</ele>
        <time>2022-12-09T14:17:56.501Z</time>
      </trkpt>
      <trkpt lat="48.42811" lon="-4.70511">
        <ele>146.151565</ele>
        <time>2022-12-09T14:18:00.497Z</time>
      </trkpt>
      <trkpt lat="48.42807" lon="-4.70498">
        <ele>146.515448</ele>
        <time>2022-12-09T14:18:04.504Z</time>
      </trkpt>
      <trkpt lat="48.42802" lon="-4.70485">
        <ele>146.890447</ele>
        <time>2022-12-09T14:18:08.475Z</time>
      </trkpt>
      <trkpt lat="48.42796" lon="-4.70473">
        <ele>147.26965</ele>
        <time>2022-12-09T14:18:12.500Z</time>
      </trkpt>
      <trkpt lat="48.42788" lon="-4.70464">
        <ele>147.648336</ele>
        <time>2022-12-09T14:18:16.502Z</time>
      </trkpt>
      <trkpt lat="48.4278" lon="-4.70453">
        <ele>147.992262</ele>
        <time>2022-12-09T14:18:20.505Z</time>
      </trkpt>
      <trkpt lat="48.42774" lon="-4.70443">
        <ele>148.253309</ele>
        <time>2022-12-09T14:18:24.501Z</time>
      </trkpt>
      <trkpt lat="48.42767" lon="-4.70431">
        <ele>148.518823</ele>
        <time>2022-12-09T14:18:28.478Z</time>
      </trkpt>
      <trkpt lat="48.42759" lon="-4.70421">
        <ele>148.786254</ele>
        <time>2022-12-09T14:18:32.494Z</time>
      </trkpt>
      <trkpt lat="48.42752" lon="-4.70411">
        <ele>149.056386</ele>
        <time>2022-12-09T14:18:36.497Z</time>
      </trkpt>
      <trkpt lat="48.42744" lon="-4.70401">
        <ele>149.324976</ele>
        <time>2022-12-09T14:18:40.487Z</time>
      </trkpt>
      <trkpt lat="48.42737" lon="-4.70391">
        <ele>149.589992</ele>
        <time>2022-12-09T14:18:44.500Z</time>
      </trkpt>
      <trkpt lat="48.4273" lon="-4.7038">
        <ele>149.859224</ele>
        <time>2022-12-09T14:18:48.502Z</time>
      </trkpt>
      <trkpt lat="48.42725" lon="-4.70367">
        <ele>150.128753</ele>
        <time>2022-12-09T14:18:52.479Z</time>
      </trkpt>
      <trkpt lat="48.42717" lon="-4.70358">
        <ele>150.384955</ele>
        <time>2022-12-09T14:18:56.487Z</time>
      </trkpt>
      <trkpt lat="48.42707" lon="-4.70354">
        <ele>150.659076</ele>
        <time>2022-12-09T14:19:00.478Z</time>
      </trkpt>
      <trkpt lat="48.427" lon="-4.70344">
        <ele>150.915851</ele>
        <time>2022-12-09T14:19:04.484Z</time>
      </trkpt>
      <trkpt lat="48.427" lon="-4.7033">
        <ele>151.177311</ele>
        <time>2022-12-09T14:19:08.484Z</time>
      </trkpt>
      <trkpt lat="48.42706" lon="-4.70318">
        <ele>151.442737</ele>
        <time>2022-12-09T14:19:12.486Z</time>
      </trkpt>
      <trkpt lat="48.42714" lon="-4.70308">
        <ele>151.705338</ele>
        <time>2022-12-09T14:19:16.483Z</time>
      </trkpt>
      <trkpt lat="48.42724" lon="-4.70304">
        <ele>151.981135</ele>
        <time>2022-12-09T14:19:20.484Z</time>
      </trkpt>
      <trkpt lat="48.42735" lon="-4.70302">
        <ele>152.275507</ele>
        <time>2022-12-09T14:19:24.499Z</time>
      </trkpt>
      <trkpt lat="48.42747" lon="-4.703">
        <ele>152.588423</ele>
        <time>2022-12-09T14:19:28.485Z</time>
      </trkpt>
      <trkpt lat="48.42757" lon="-4.70301">
        <ele>152.375741</ele>
        <time>2022-12-09T14:19:31.477Z</time>
      </trkpt>
      <trkpt lat="48.42767" lon="-4.70302">
        <ele>151.992187</ele>
        <time>2022-12-09T14:19:34.502Z</time>
      </trkpt>
      <trkpt lat="48.42777" lon="-4.70303">
        <ele>151.60775</ele>
        <time>2022-12-09T14:19:37.500Z</time>
      </trkpt>
      <trkpt lat="48.42787" lon="-4.70303">
        <ele>151.205585</ele>
        <time>2022-12-09T14:19:40.484Z</time>
      </trkpt>
      <trkpt lat="48.42798" lon="-4.70303">
        <ele>150.780166</ele>
        <time>2022-12-09T14:19:43.500Z</time>
      </trkpt>
      <trkpt lat="48.4281" lon="-4.70305">
        <ele>150.338053</ele>
        <time>2022-12-09T14:19:46.502Z</time>
      </trkpt>
      <trkpt lat="48.42822" lon="-4.70304">
        <ele>149.86639</ele>
        <time>2022-12-09T14:19:49.482Z</time>
      </trkpt>
      <trkpt lat="48.42835" lon="-4.70302">
        <ele>149.37583</ele>
        <time>2022-12-09T14:19:52.500Z</time>
      </trkpt>
      <trkpt lat="48.42847" lon="-4.70298">
        <ele>148.876634</ele>
        <time>2022-12-09T14:19:55.481Z</time>
      </trkpt>
      <trkpt lat="48.42861" lon="-4.70293">
        <ele>148.345947</ele>
        <time>2022-12-09T14:19:58.486Z</time>
      </trkpt>
      <trkpt lat="48.42871" lon="-4.70289">
        <ele>147.950944</ele>
        <time>2022-12-09T14:20:00.497Z</time>
      </trkpt>
      <trkpt lat="48.42881" lon="-4.70286">
        <ele>147.565772</ele>
        <time>2022-12-09T14:20:02.501Z</time>
      </trkpt>
      <trkpt lat="48.42891" lon="-4.70282">
        <ele>147.177552</ele>
        <time>2022-12-09T14:20:04.503Z</time>
      </trkpt>
      <trkpt lat="48.42901" lon="-4.70278">
        <ele>146.780616</ele>
        <time>2022-12-09T14:20:06.501Z</time>
      </trkpt>
      <trkpt lat="48.4291" lon="-4.70274">
        <ele>146.391739</ele>
        <time>2022-12-09T14:20:08.489Z</time>
      </trkpt>
      <trkpt lat="48.4292" lon="-4.7027">
        <ele>146.012833</ele>
        <time>2022-12-09T14:20:10.502Z</time>
      </trkpt>
      <trkpt lat="48.4293" lon="-4.70266">
        <ele>145.763011</ele>
        <time>2022-12-09T14:20:12.502Z</time>
      </trkpt>
      <trkpt lat="48.42939" lon="-4.70262">
        <ele>145.746633</ele>
        <time>2022-12-09T14:20:14.493Z</time>
      </trkpt>
      <trkpt lat="48.42948" lon="-4.70259">
        <ele>145.730951</ele>
        <time>2022-12-09T14:20:16.500Z</time>
      </trkpt>
      <trkpt lat="48.42957" lon="-4.70253">
        <ele>145.714847</ele>
        <time>2022-12-09T14:20:18.499Z</time>
      </trkpt>
      <trkpt lat="48.42966" lon="-4.70246">
        <ele>145.698402</ele>
        <time>2022-12-09T14:20:20.477Z</time>
      </trkpt>
      <trkpt lat="48.42973" lon="-4.70234">
        <ele>145.680308</ele>
        <time>2022-12-09T14:20:22.478Z</time>
      </trkpt>
      <trkpt lat="48.42978" lon="-4.70221">
        <ele>145.664718</ele>
        <time>2022-12-09T14:20:24.477Z</time>
      </trkpt>
      <trkpt lat="48.4298" lon="-4.70208">
        <ele>145.649316</ele>
        <time>2022-12-09T14:20:26.479Z</time>
      </trkpt>
      <trkpt lat="48.42981" lon="-4.70189">
        <ele>145.628826</ele>
        <time>2022-12-09T14:20:29.484Z</time>
      </trkpt>
      <trkpt lat="48.42981" lon="-4.70172">
        <ele>145.610652</ele>
        <time>2022-12-09T14:20:32.495Z</time>
      </trkpt>
      <trkpt lat="48.42981" lon="-4.70159">
        <ele>145.59557</ele>
        <time>2022-12-09T14:20:35.500Z</time>
      </trkpt>
      <trkpt lat="48.42981" lon="-4.70145">
        <ele>145.580165</ele>
        <time>2022-12-09T14:20:38.505Z</time>
      </trkpt>
      <trkpt lat="48.42982" lon="-4.70131">
        <ele>145.564527</ele>
        <time>2022-12-09T14:20:41.503Z</time>
      </trkpt>
      <trkpt lat="48.42981" lon="-4.70116">
        <ele>145.548002</ele>
        <time>2022-12-09T14:20:44.500Z</time>
      </trkpt>
      <trkpt lat="48.42981" lon="-4.70101">
        <ele>145.531594</ele>
        <time>2022-12-09T14:20:47.497Z</time>
      </trkpt>
      <trkpt lat="48.42982" lon="-4.70086">
        <ele>145.514927</ele>
        <time>2022-12-09T14:20:50.499Z</time>
      </trkpt>
      <trkpt lat="48.42982" lon="-4.7007">
        <ele>145.498052</ele>
        <time>2022-12-09T14:20:53.502Z</time>
      </trkpt>
      <trkpt lat="48.42984" lon="-4.70055">
        <ele>145.481666</ele>
        <time>2022-12-09T14:20:56.480Z</time>
      </trkpt>
      <trkpt lat="48.42984" lon="-4.70041">
        <ele>145.415816</ele>
        <time>2022-12-09T14:20:59.500Z</time>
      </trkpt>
      <trkpt lat="48.42985" lon="-4.70027">
        <ele>145.250349</ele>
        <time>2022-12-09T14:21:02.503Z</time>
      </trkpt>
      <trkpt lat="48.42987" lon="-4.70013">
        <ele>145.078902</ele>
        <time>2022-12-09T14:21:05.483Z</time>
      </trkpt>
      <trkpt lat="48.42994" lon="-4.7">
        <ele>144.866965</ele>
        <time>2022-12-09T14:21:08.484Z</time>
      </trkpt>
      <trkpt lat="48.43003" lon="-4.6999">
        <ele>144.669244</ele>
        <time>2022-12-09T14:21:10.488Z</time>
      </trkpt>
      <trkpt lat="48.43015" lon="-4.69983">
        <ele>144.447721</ele>
        <time>2022-12-09T14:21:12.477Z</time>
      </trkpt>
      <trkpt lat="48.43028" lon="-4.69974">
        <ele>144.184111</ele>
        <time>2022-12-09T14:21:14.499Z</time>
      </trkpt>
      <trkpt lat="48.43041" lon="-4.69966">
        <ele>143.927566</ele>
        <time>2022-12-09T14:21:16.501Z</time>
      </trkpt>
      <trkpt lat="48.43054" lon="-4.69957">
        <ele>143.671991</ele>
        <time>2022-12-09T14:21:18.490Z</time>
      </trkpt>
      <trkpt lat="48.43067" lon="-4.69949">
        <ele>143.42466</ele>
        <time>2022-12-09T14:21:20.491Z</time>
      </trkpt>
      <trkpt lat="48.43079" lon="-4.69942">
        <ele>143.194292</ele>
        <time>2022-12-09T14:21:22.505Z</time>
      </trkpt>
      <trkpt lat="48.4309" lon="-4.69936">
        <ele>142.984106</ele>
        <time>2022-12-09T14:21:24.501Z</time>
      </trkpt>
      <trkpt lat="48.43099" lon="-4.69931">
        <ele>142.802159</ele>
        <time>2022-12-09T14:21:26.488Z</time>
      </trkpt>
      <trkpt lat="48.4311" lon="-4.69925">
        <ele>142.602117</ele>
        <time>2022-12-09T14:21:29.501Z</time>
      </trkpt>
      <trkpt lat="48.43121" lon="-4.69919">
        <ele>142.395321</ele>
        <time>2022-12-09T14:21:33.503Z</time>
      </trkpt>
      <trkpt lat="48.4313" lon="-4.69913">
        <ele>142.247249</ele>
        <time>2022-12-09T14:21:37.500Z</time>
      </trkpt>
      <trkpt lat="48.43138" lon="-4.69902">
        <ele>142.431795</ele>
        <time>2022-12-09T14:21:42.478Z</time>
      </trkpt>
      <trkpt lat="48.4314" lon="-4.69888">
        <ele>142.593337</ele>
        <time>2022-12-09T14:21:46.484Z</time>
      </trkpt>
      <trkpt lat="48.43136" lon="-4.69873">
        <ele>142.767381</ele>
        <time>2022-12-09T14:21:50.487Z</time>
      </trkpt>
      <trkpt lat="48.4313" lon="-4.69858">
        <ele>142.951915</ele>
        <time>2022-12-09T14:21:54.497Z</time>
      </trkpt>
      <trkpt lat="48.43125" lon="-4.69842">
        <ele>143.142044</ele>
        <time>2022-12-09T14:21:58.490Z</time>
      </trkpt>
      <trkpt lat="48.43121" lon="-4.69829">
        <ele>143.299626</ele>
        <time>2022-12-09T14:22:01.479Z</time>
      </trkpt>
      <trkpt lat="48.43117" lon="-4.69816">
        <ele>143.458496</ele>
        <time>2022-12-09T14:22:04.481Z</time>
      </trkpt>
      <trkpt lat="48.43113" lon="-4.69802">
        <ele>143.61474</ele>
        <time>2022-12-09T14:22:07.514Z</time>
      </trkpt>
      <trkpt lat="48.43109" lon="-4.69789">
        <ele>143.770123</ele>
        <time>2022-12-09T14:22:10.507Z</time>
      </trkpt>
      <trkpt lat="48.43106" lon="-4.69776">
        <ele>143.927359</ele>
        <time>2022-12-09T14:22:13.500Z</time>
      </trkpt>
      <trkpt lat="48.43102" lon="-4.69763">
        <ele>144.082282</ele>
        <time>2022-12-09T14:22:16.502Z</time>
      </trkpt>
      <trkpt lat="48.43098" lon="-4.69749">
        <ele>144.240519</ele>
        <time>2022-12-09T14:22:19.498Z</time>
      </trkpt>
      <trkpt lat="48.43093" lon="-4.69736">
        <ele>144.399685</ele>
        <time>2022-12-09T14:22:22.504Z</time>
      </trkpt>
      <trkpt lat="48.43089" lon="-4.69722">
        <ele>144.567123</ele>
        <time>2022-12-09T14:22:25.497Z</time>
      </trkpt>
      <trkpt lat="48.43084" lon="-4.69709">
        <ele>144.725789</ele>
        <time>2022-12-09T14:22:28.495Z</time>
      </trkpt>
      <trkpt lat="48.4308" lon="-4.69696">
        <ele>144.880962</ele>
        <time>2022-12-09T14:22:31.504Z</time>
      </trkpt>
      <trkpt lat="48.43075" lon="-4.69683">
        <ele>145.042793</ele>
        <time>2022-12-09T14:22:34.500Z</time>
      </trkpt>
      <trkpt lat="48.43071" lon="-4.69669">
        <ele>145.224681</ele>
        <time>2022-12-09T14:22:37.480Z</time>
      </trkpt>
      <trkpt lat="48.43067" lon="-4.69656">
        <ele>145.437053</ele>
        <time>2022-12-09T14:22:40.487Z</time>
      </trkpt>
      <trkpt lat="48.43062" lon="-4.69643">
        <ele>145.65436</ele>
        <time>2022-12-09T14:22:43.499Z</time>
      </trkpt>
      <trkpt lat="48.43058" lon="-4.69631">
        <ele>145.869324</ele>
        <time>2022-12-09T14:22:46.501Z</time>
      </trkpt>
      <trkpt lat="48.43053" lon="-4.69618">
        <ele>146.084007</ele>
        <time>2022-12-09T14:22:49.503Z</time>
      </trkpt>
      <trkpt lat="48.43049" lon="-4.69605">
        <ele>146.295315</ele>
        <time>2022-12-09T14:22:52.493Z</time>
      </trkpt>
      <trkpt lat="48.43045" lon="-4.69592">
        <ele>146.515913</ele>
        <time>2022-12-09T14:22:55.502Z</time>
      </trkpt>
      <trkpt lat="48.4304" lon="-4.69579">
        <ele>146.7364</ele>
        <time>2022-12-09T14:22:58.504Z</time>
      </trkpt>
      <trkpt lat="48.43035" lon="-4.69566">
        <ele>146.956534</ele>
        <time>2022-12-09T14:23:01.499Z</time>
      </trkpt>
      <trkpt lat="48.43029" lon="-4.69552">
        <ele>147.188886</ele>
        <time>2022-12-09T14:23:04.502Z</time>
      </trkpt>
      <trkpt lat="48.43024" lon="-4.69541">
        <ele>147.406678</ele>
        <time>2022-12-09T14:23:07.500Z</time>
      </trkpt>
      <trkpt lat="48.43017" lon="-4.6953">
        <ele>147.619142</ele>
        <time>2022-12-09T14:23:10.500Z</time>
      </trkpt>
      <trkpt lat="48.4301" lon="-4.69516">
        <ele>147.880089</ele>
        <time>2022-12-09T14:23:14.490Z</time>
      </trkpt>
      <trkpt lat="48.43002" lon="-4.69503">
        <ele>148.14205</ele>
        <time>2022-12-09T14:23:18.496Z</time>
      </trkpt>
      <trkpt lat="48.42994" lon="-4.69489">
        <ele>148.409935</ele>
        <time>2022-12-09T14:23:22.491Z</time>
      </trkpt>
      <trkpt lat="48.42988" lon="-4.69476">
        <ele>148.651179</ele>
        <time>2022-12-09T14:23:26.502Z</time>
      </trkpt>
      <trkpt lat="48.42982" lon="-4.69463">
        <ele>148.884931</ele>
        <time>2022-12-09T14:23:30.503Z</time>
      </trkpt>
      <trkpt lat="48.42977" lon="-4.6945">
        <ele>149.111484</ele>
        <time>2022-12-09T14:23:34.501Z</time>
      </trkpt>
      <trkpt lat="48.42972" lon="-4.69435">
        <ele>149.517196</ele>
        <time>2022-12-09T14:23:38.502Z</time>
      </trkpt>
      <trkpt lat="48.42968" lon="-4.6942">
        <ele>149.990375</ele>
        <time>2022-12-09T14:23:42.501Z</time>
      </trkpt>
      <trkpt lat="48.42964" lon="-4.69405">
        <ele>150.461378</ele>
        <time>2022-12-09T14:23:46.492Z</time>
      </trkpt>
      <trkpt lat="48.42959" lon="-4.6939">
        <ele>150.931322</ele>
        <time>2022-12-09T14:23:50.501Z</time>
      </trkpt>
      <trkpt lat="48.42954" lon="-4.69376">
        <ele>151.402963</ele>
        <time>2022-12-09T14:23:54.488Z</time>
      </trkpt>
      <trkpt lat="48.4295" lon="-4.69361">
        <ele>151.847513</ele>
        <time>2022-12-09T14:23:58.493Z</time>
      </trkpt>
      <trkpt lat="48.42946" lon="-4.69348">
        <ele>152.275531</ele>
        <time>2022-12-09T14:24:02.499Z</time>
      </trkpt>
      <trkpt lat="48.42942" lon="-4.69335">
        <ele>152.690321</ele>
        <time>2022-12-09T14:24:06.501Z</time>
      </trkpt>
      <trkpt lat="48.42938" lon="-4.69321">
        <ele>153.125248</ele>
        <time>2022-12-09T14:24:10.499Z</time>
      </trkpt>
      <trkpt lat="48.42934" lon="-4.69307">
        <ele>153.555831</ele>
        <time>2022-12-09T14:24:14.497Z</time>
      </trkpt>
      <trkpt lat="48.42931" lon="-4.69293">
        <ele>153.981098</ele>
        <time>2022-12-09T14:24:18.502Z</time>
      </trkpt>
      <trkpt lat="48.42926" lon="-4.69279">
        <ele>154.423955</ele>
        <time>2022-12-09T14:24:22.504Z</time>
      </trkpt>
      <trkpt lat="48.42922" lon="-4.69265">
        <ele>154.877571</ele>
        <time>2022-12-09T14:24:26.499Z</time>
      </trkpt>
      <trkpt lat="48.42917" lon="-4.69251">
        <ele>155.330535</ele>
        <time>2022-12-09T14:24:30.504Z</time>
      </trkpt>
      <trkpt lat="48.42912" lon="-4.69237">
        <ele>155.765637</ele>
        <time>2022-12-09T14:24:34.501Z</time>
      </trkpt>
      <trkpt lat="48.42908" lon="-4.69225">
        <ele>156.15921</ele>
        <time>2022-12-09T14:24:38.491Z</time>
      </trkpt>
      <trkpt lat="48.42904" lon="-4.69211">
        <ele>156.619013</ele>
        <time>2022-12-09T14:24:43.501Z</time>
      </trkpt>
      <trkpt lat="48.42899" lon="-4.69196">
        <ele>157.07991</ele>
        <time>2022-12-09T14:24:48.501Z</time>
      </trkpt>
      <trkpt lat="48.42895" lon="-4.69184">
        <ele>157.492489</ele>
        <time>2022-12-09T14:24:52.500Z</time>
      </trkpt>
      <trkpt lat="48.42891" lon="-4.69169">
        <ele>157.964986</ele>
        <time>2022-12-09T14:24:57.504Z</time>
      </trkpt>
      <trkpt lat="48.42887" lon="-4.69154">
        <ele>158.435797</ele>
        <time>2022-12-09T14:25:02.502Z</time>
      </trkpt>
      <trkpt lat="48.42883" lon="-4.6914">
        <ele>158.891279</ele>
        <time>2022-12-09T14:25:07.501Z</time>
      </trkpt>
      <trkpt lat="48.42879" lon="-4.69124">
        <ele>159.391558</ele>
        <time>2022-12-09T14:25:12.501Z</time>
      </trkpt>
      <trkpt lat="48.42876" lon="-4.69111">
        <ele>159.817367</ele>
        <time>2022-12-09T14:25:16.511Z</time>
      </trkpt>
      <trkpt lat="48.42871" lon="-4.69097">
        <ele>160.289938</ele>
        <time>2022-12-09T14:25:21.488Z</time>
      </trkpt>
      <trkpt lat="48.42867" lon="-4.69084">
        <ele>160.694067</ele>
        <time>2022-12-09T14:25:25.491Z</time>
      </trkpt>
      <trkpt lat="48.42863" lon="-4.6907">
        <ele>161.133529</ele>
        <time>2022-12-09T14:25:29.500Z</time>
      </trkpt>
      <trkpt lat="48.4286" lon="-4.69057">
        <ele>161.562364</ele>
        <time>2022-12-09T14:25:33.502Z</time>
      </trkpt>
      <trkpt lat="48.42856" lon="-4.69044">
        <ele>161.979093</ele>
        <time>2022-12-09T14:25:37.477Z</time>
      </trkpt>
      <trkpt lat="48.42853" lon="-4.6903">
        <ele>162.413731</ele>
        <time>2022-12-09T14:25:41.498Z</time>
      </trkpt>
      <trkpt lat="48.42849" lon="-4.69015">
        <ele>162.893788</ele>
        <time>2022-12-09T14:25:45.505Z</time>
      </trkpt>
      <trkpt lat="48.42846" lon="-4.69">
        <ele>163.345076</ele>
        <time>2022-12-09T14:25:49.487Z</time>
      </trkpt>
      <trkpt lat="48.42841" lon="-4.68987">
        <ele>163.790668</ele>
        <time>2022-12-09T14:25:53.502Z</time>
      </trkpt>
      <trkpt lat="48.42838" lon="-4.68973">
        <ele>164.226875</ele>
        <time>2022-12-09T14:25:57.506Z</time>
      </trkpt>
      <trkpt lat="48.42834" lon="-4.68959">
        <ele>164.673486</ele>
        <time>2022-12-09T14:26:01.505Z</time>
      </trkpt>
      <trkpt lat="48.4283" lon="-4.68945">
        <ele>165.057084</ele>
        <time>2022-12-09T14:26:05.498Z</time>
      </trkpt>
      <trkpt lat="48.42826" lon="-4.68932">
        <ele>165.347689</ele>
        <time>2022-12-09T14:26:09.478Z</time>
      </trkpt>
      <trkpt lat="48.42822" lon="-4.68918">
        <ele>165.62936</ele>
        <time>2022-12-09T14:26:13.502Z</time>
      </trkpt>
      <trkpt lat="48.42818" lon="-4.68904">
        <ele>165.927006</ele>
        <time>2022-12-09T14:26:17.498Z</time>
      </trkpt>
      <trkpt lat="48.42814" lon="-4.6889">
        <ele>166.22107</ele>
        <time>2022-12-09T14:26:21.506Z</time>
      </trkpt>
      <trkpt lat="48.42809" lon="-4.68876">
        <ele>166.525446</ele>
        <time>2022-12-09T14:26:25.491Z</time>
      </trkpt>
      <trkpt lat="48.42805" lon="-4.68862">
        <ele>166.827053</ele>
        <time>2022-12-09T14:26:29.492Z</time>
      </trkpt>
      <trkpt lat="48.428" lon="-4.68847">
        <ele>167.128061</ele>
        <time>2022-12-09T14:26:33.500Z</time>
      </trkpt>
      <trkpt lat="48.42796" lon="-4.68834">
        <ele>167.424282</ele>
        <time>2022-12-09T14:26:37.506Z</time>
      </trkpt>
      <trkpt lat="48.42791" lon="-4.68818">
        <ele>167.746321</ele>
        <time>2022-12-09T14:26:41.506Z</time>
      </trkpt>
      <trkpt lat="48.42788" lon="-4.68804">
        <ele>168.048292</ele>
        <time>2022-12-09T14:26:45.503Z</time>
      </trkpt>
      <trkpt lat="48.42784" lon="-4.68788">
        <ele>168.362067</ele>
        <time>2022-12-09T14:26:49.505Z</time>
      </trkpt>
      <trkpt lat="48.42779" lon="-4.68774">
        <ele>168.660851</ele>
        <time>2022-12-09T14:26:53.500Z</time>
      </trkpt>
      <trkpt lat="48.42775" lon="-4.68759">
        <ele>168.974916</ele>
        <time>2022-12-09T14:26:57.500Z</time>
      </trkpt>
      <trkpt lat="48.42771" lon="-4.68744">
        <ele>169.287619</ele>
        <time>2022-12-09T14:27:01.496Z</time>
      </trkpt>
      <trkpt lat="48.42766" lon="-4.68729">
        <ele>169.612671</ele>
        <time>2022-12-09T14:27:05.488Z</time>
      </trkpt>
      <trkpt lat="48.42762" lon="-4.68714">
        <ele>169.925375</ele>
        <time>2022-12-09T14:27:09.487Z</time>
      </trkpt>
      <trkpt lat="48.42758" lon="-4.68698">
        <ele>170.217617</ele>
        <time>2022-12-09T14:27:13.501Z</time>
      </trkpt>
      <trkpt lat="48.42754" lon="-4.68682">
        <ele>170.421046</ele>
        <time>2022-12-09T14:27:17.502Z</time>
      </trkpt>
      <trkpt lat="48.42753" lon="-4.68666">
        <ele>170.615252</ele>
        <time>2022-12-09T14:27:21.502Z</time>
      </trkpt>
      <trkpt lat="48.42752" lon="-4.68651">
        <ele>170.800895</ele>
        <time>2022-12-09T14:27:25.498Z</time>
      </trkpt>
      <trkpt lat="48.42752" lon="-4.68635">
        <ele>170.988758</ele>
        <time>2022-12-09T14:27:29.501Z</time>
      </trkpt>
      <trkpt lat="48.42751" lon="-4.68619">
        <ele>171.182912</ele>
        <time>2022-12-09T14:27:33.489Z</time>
      </trkpt>
      <trkpt lat="48.42751" lon="-4.68604">
        <ele>171.370741</ele>
        <time>2022-12-09T14:27:37.479Z</time>
      </trkpt>
      <trkpt lat="48.42751" lon="-4.68588">
        <ele>171.556197</ele>
        <time>2022-12-09T14:27:41.503Z</time>
      </trkpt>
      <trkpt lat="48.4275" lon="-4.68573">
        <ele>171.742891</ele>
        <time>2022-12-09T14:27:45.487Z</time>
      </trkpt>
      <trkpt lat="48.42749" lon="-4.68556">
        <ele>171.946757</ele>
        <time>2022-12-09T14:27:49.503Z</time>
      </trkpt>
      <trkpt lat="48.42747" lon="-4.68542">
        <ele>172.112752</ele>
        <time>2022-12-09T14:27:52.506Z</time>
      </trkpt>
      <trkpt lat="48.42745" lon="-4.68528">
        <ele>172.291226</ele>
        <time>2022-12-09T14:27:55.513Z</time>
      </trkpt>
      <trkpt lat="48.42743" lon="-4.68512">
        <ele>172.481008</ele>
        <time>2022-12-09T14:27:58.502Z</time>
      </trkpt>
      <trkpt lat="48.42741" lon="-4.68496">
        <ele>172.675858</ele>
        <time>2022-12-09T14:28:01.496Z</time>
      </trkpt>
      <trkpt lat="48.4274" lon="-4.6848">
        <ele>172.872749</ele>
        <time>2022-12-09T14:28:04.487Z</time>
      </trkpt>
      <trkpt lat="48.42738" lon="-4.68465">
        <ele>173.065234</ele>
        <time>2022-12-09T14:28:07.493Z</time>
      </trkpt>
      <trkpt lat="48.42735" lon="-4.6845">
        <ele>173.245403</ele>
        <time>2022-12-09T14:28:10.494Z</time>
      </trkpt>
      <trkpt lat="48.42733" lon="-4.68437">
        <ele>173.411182</ele>
        <time>2022-12-09T14:28:13.503Z</time>
      </trkpt>
      <trkpt lat="48.4273" lon="-4.68423">
        <ele>173.553656</ele>
        <time>2022-12-09T14:28:16.509Z</time>
      </trkpt>
      <trkpt lat="48.42728" lon="-4.68408">
        <ele>173.70902</ele>
        <time>2022-12-09T14:28:19.500Z</time>
      </trkpt>
      <trkpt lat="48.42727" lon="-4.68392">
        <ele>173.869721</ele>
        <time>2022-12-09T14:28:22.489Z</time>
      </trkpt>
      <trkpt lat="48.42726" lon="-4.68375">
        <ele>174.042734</ele>
        <time>2022-12-09T14:28:25.506Z</time>
      </trkpt>
      <trkpt lat="48.42725" lon="-4.68358">
        <ele>174.210543</ele>
        <time>2022-12-09T14:28:28.497Z</time>
      </trkpt>
      <trkpt lat="48.42725" lon="-4.68343">
        <ele>174.362011</ele>
        <time>2022-12-09T14:28:31.502Z</time>
      </trkpt>
      <trkpt lat="48.42723" lon="-4.68326">
        <ele>174.535161</ele>
        <time>2022-12-09T14:28:35.505Z</time>
      </trkpt>
      <trkpt lat="48.42723" lon="-4.68309">
        <ele>174.703544</ele>
        <time>2022-12-09T14:28:39.499Z</time>
      </trkpt>
      <trkpt lat="48.42723" lon="-4.68295">
        <ele>174.842103</ele>
        <time>2022-12-09T14:28:42.503Z</time>
      </trkpt>
      <trkpt lat="48.42722" lon="-4.6828">
        <ele>174.989182</ele>
        <time>2022-12-09T14:28:45.501Z</time>
      </trkpt>
      <trkpt lat="48.42721" lon="-4.68265">
        <ele>175.135577</ele>
        <time>2022-12-09T14:28:48.483Z</time>
      </trkpt>
      <trkpt lat="48.4272" lon="-4.68251">
        <ele>175.284127</ele>
        <time>2022-12-09T14:28:51.501Z</time>
      </trkpt>
      <trkpt lat="48.42718" lon="-4.68237">
        <ele>175.425226</ele>
        <time>2022-12-09T14:28:54.480Z</time>
      </trkpt>
      <trkpt lat="48.42716" lon="-4.68222">
        <ele>175.570946</ele>
        <time>2022-12-09T14:28:57.492Z</time>
      </trkpt>
      <trkpt lat="48.42716" lon="-4.68207">
        <ele>175.723566</ele>
        <time>2022-12-09T14:29:00.501Z</time>
      </trkpt>
      <trkpt lat="48.42717" lon="-4.68192">
        <ele>175.876362</ele>
        <time>2022-12-09T14:29:03.479Z</time>
      </trkpt>
      <trkpt lat="48.42718" lon="-4.68177">
        <ele>176.026293</ele>
        <time>2022-12-09T14:29:06.495Z</time>
      </trkpt>
      <trkpt lat="48.4272" lon="-4.68161">
        <ele>176.1243</ele>
        <time>2022-12-09T14:29:09.507Z</time>
      </trkpt>
      <trkpt lat="48.42724" lon="-4.68147">
        <ele>176.10713</ele>
        <time>2022-12-09T14:29:12.485Z</time>
      </trkpt>
      <trkpt lat="48.4273" lon="-4.68134">
        <ele>176.090781</ele>
        <time>2022-12-09T14:29:15.491Z</time>
      </trkpt>
      <trkpt lat="48.42736" lon="-4.68122">
        <ele>176.073634</ele>
        <time>2022-12-09T14:29:18.497Z</time>
      </trkpt>
      <trkpt lat="48.42743" lon="-4.6811">
        <ele>176.056794</ele>
        <time>2022-12-09T14:29:21.501Z</time>
      </trkpt>
      <trkpt lat="48.42749" lon="-4.68099">
        <ele>176.041471</ele>
        <time>2022-12-09T14:29:24.503Z</time>
      </trkpt>
      <trkpt lat="48.42754" lon="-4.68083">
        <ele>176.02182</ele>
        <time>2022-12-09T14:29:28.483Z</time>
      </trkpt>
      <trkpt lat="48.42758" lon="-4.6807">
        <ele>176.005913</ele>
        <time>2022-12-09T14:29:31.501Z</time>
      </trkpt>
      <trkpt lat="48.42761" lon="-4.68055">
        <ele>175.988852</ele>
        <time>2022-12-09T14:29:34.480Z</time>
      </trkpt>
      <trkpt lat="48.42764" lon="-4.68041">
        <ele>175.97297</ele>
        <time>2022-12-09T14:29:37.503Z</time>
      </trkpt>
      <trkpt lat="48.42766" lon="-4.68027">
        <ele>175.957902</ele>
        <time>2022-12-09T14:29:40.502Z</time>
      </trkpt>
      <trkpt lat="48.42768" lon="-4.68011">
        <ele>175.939766</ele>
        <time>2022-12-09T14:29:44.501Z</time>
      </trkpt>
      <trkpt lat="48.4277" lon="-4.67997">
        <ele>175.924263</ele>
        <time>2022-12-09T14:29:47.487Z</time>
      </trkpt>
      <trkpt lat="48.42771" lon="-4.67981">
        <ele>175.906595</ele>
        <time>2022-12-09T14:29:50.488Z</time>
      </trkpt>
      <trkpt lat="48.42773" lon="-4.67965">
        <ele>175.888809</ele>
        <time>2022-12-09T14:29:53.507Z</time>
      </trkpt>
      <trkpt lat="48.42774" lon="-4.67949">
        <ele>175.871399</ele>
        <time>2022-12-09T14:29:56.502Z</time>
      </trkpt>
      <trkpt lat="48.42776" lon="-4.67934">
        <ele>175.855244</ele>
        <time>2022-12-09T14:29:59.506Z</time>
      </trkpt>
      <trkpt lat="48.42777" lon="-4.6792">
        <ele>175.839488</ele>
        <time>2022-12-09T14:30:02.487Z</time>
      </trkpt>
      <trkpt lat="48.42778" lon="-4.67903">
        <ele>175.550873</ele>
        <time>2022-12-09T14:30:05.504Z</time>
      </trkpt>
      <trkpt lat="48.4278" lon="-4.67887">
        <ele>175.183719</ele>
        <time>2022-12-09T14:30:08.495Z</time>
      </trkpt>
      <trkpt lat="48.42781" lon="-4.6787">
        <ele>174.816976</ele>
        <time>2022-12-09T14:30:11.493Z</time>
      </trkpt>
      <trkpt lat="48.42782" lon="-4.67855">
        <ele>174.467433</ele>
        <time>2022-12-09T14:30:14.501Z</time>
      </trkpt>
      <trkpt lat="48.42783" lon="-4.67838">
        <ele>174.095112</ele>
        <time>2022-12-09T14:30:17.497Z</time>
      </trkpt>
      <trkpt lat="48.42784" lon="-4.67821">
        <ele>173.723077</ele>
        <time>2022-12-09T14:30:20.493Z</time>
      </trkpt>
      <trkpt lat="48.42785" lon="-4.67804">
        <ele>173.337761</ele>
        <time>2022-12-09T14:30:23.501Z</time>
      </trkpt>
      <trkpt lat="48.42785" lon="-4.67786">
        <ele>172.933627</ele>
        <time>2022-12-09T14:30:26.499Z</time>
      </trkpt>
      <trkpt lat="48.42785" lon="-4.67767">
        <ele>172.507288</ele>
        <time>2022-12-09T14:30:29.496Z</time>
      </trkpt>
      <trkpt lat="48.42785" lon="-4.67748">
        <ele>172.100602</ele>
        <time>2022-12-09T14:30:32.505Z</time>
      </trkpt>
      <trkpt lat="48.42782" lon="-4.67731">
        <ele>171.698566</ele>
        <time>2022-12-09T14:30:35.482Z</time>
      </trkpt>
      <trkpt lat="48.42779" lon="-4.67714">
        <ele>171.31779</ele>
        <time>2022-12-09T14:30:38.500Z</time>
      </trkpt>
      <trkpt lat="48.42775" lon="-4.67697">
        <ele>170.900175</ele>
        <time>2022-12-09T14:30:41.498Z</time>
      </trkpt>
      <trkpt lat="48.42771" lon="-4.67679">
        <ele>170.478677</ele>
        <time>2022-12-09T14:30:44.504Z</time>
      </trkpt>
      <trkpt lat="48.42767" lon="-4.67661">
        <ele>170.066589</ele>
        <time>2022-12-09T14:30:47.506Z</time>
      </trkpt>
      <trkpt lat="48.42762" lon="-4.67644">
        <ele>169.614712</ele>
        <time>2022-12-09T14:30:50.501Z</time>
      </trkpt>
      <trkpt lat="48.42758" lon="-4.67625">
        <ele>169.058334</ele>
        <time>2022-12-09T14:30:53.504Z</time>
      </trkpt>
      <trkpt lat="48.42754" lon="-4.67613">
        <ele>168.67134</ele>
        <time>2022-12-09T14:30:55.502Z</time>
      </trkpt>
      <trkpt lat="48.4275" lon="-4.67593">
        <ele>168.095693</ele>
        <time>2022-12-09T14:30:58.501Z</time>
      </trkpt>
      <trkpt lat="48.42747" lon="-4.67581">
        <ele>167.708699</ele>
        <time>2022-12-09T14:31:00.493Z</time>
      </trkpt>
      <trkpt lat="48.42742" lon="-4.67562">
        <ele>167.140291</ele>
        <time>2022-12-09T14:31:03.497Z</time>
      </trkpt>
      <trkpt lat="48.42737" lon="-4.67543">
        <ele>166.588438</ele>
        <time>2022-12-09T14:31:06.507Z</time>
      </trkpt>
      <trkpt lat="48.42732" lon="-4.67524">
        <ele>166.015167</ele>
        <time>2022-12-09T14:31:09.498Z</time>
      </trkpt>
      <trkpt lat="48.4273" lon="-4.6751">
        <ele>165.599749</ele>
        <time>2022-12-09T14:31:11.500Z</time>
      </trkpt>
      <trkpt lat="48.42727" lon="-4.67496">
        <ele>165.186761</ele>
        <time>2022-12-09T14:31:13.483Z</time>
      </trkpt>
      <trkpt lat="48.42725" lon="-4.67482">
        <ele>164.785583</ele>
        <time>2022-12-09T14:31:15.505Z</time>
      </trkpt>
      <trkpt lat="48.4272" lon="-4.67464">
        <ele>164.235181</ele>
        <time>2022-12-09T14:31:18.482Z</time>
      </trkpt>
      <trkpt lat="48.42717" lon="-4.67445">
        <ele>163.694752</ele>
        <time>2022-12-09T14:31:21.500Z</time>
      </trkpt>
      <trkpt lat="48.42715" lon="-4.67428">
        <ele>163.195571</ele>
        <time>2022-12-09T14:31:24.502Z</time>
      </trkpt>
      <trkpt lat="48.42712" lon="-4.67413">
        <ele>162.758192</ele>
        <time>2022-12-09T14:31:27.507Z</time>
      </trkpt>
      <trkpt lat="48.42709" lon="-4.67398">
        <ele>162.319875</ele>
        <time>2022-12-09T14:31:30.504Z</time>
      </trkpt>
      <trkpt lat="48.42705" lon="-4.67384">
        <ele>161.940221</ele>
        <time>2022-12-09T14:31:33.506Z</time>
      </trkpt>
      <trkpt lat="48.42702" lon="-4.6737">
        <ele>161.604558</ele>
        <time>2022-12-09T14:31:36.507Z</time>
      </trkpt>
      <trkpt lat="48.42699" lon="-4.67357">
        <ele>161.263353</ele>
        <time>2022-12-09T14:31:39.501Z</time>
      </trkpt>
      <trkpt lat="48.42696" lon="-4.67342">
        <ele>160.910972</ele>
        <time>2022-12-09T14:31:42.488Z</time>
      </trkpt>
      <trkpt lat="48.42693" lon="-4.67329">
        <ele>160.578463</ele>
        <time>2022-12-09T14:31:45.485Z</time>
      </trkpt>
      <trkpt lat="48.42689" lon="-4.67315">
        <ele>160.21131</ele>
        <time>2022-12-09T14:31:48.501Z</time>
      </trkpt>
      <trkpt lat="48.42686" lon="-4.67301">
        <ele>159.860853</ele>
        <time>2022-12-09T14:31:51.483Z</time>
      </trkpt>
      <trkpt lat="48.42682" lon="-4.67287">
        <ele>159.508191</ele>
        <time>2022-12-09T14:31:54.501Z</time>
      </trkpt>
      <trkpt lat="48.42679" lon="-4.67273">
        <ele>159.160191</ele>
        <time>2022-12-09T14:31:57.501Z</time>
      </trkpt>
      <trkpt lat="48.42675" lon="-4.67259">
        <ele>158.805322</ele>
        <time>2022-12-09T14:32:00.499Z</time>
      </trkpt>
      <trkpt lat="48.42672" lon="-4.67244">
        <ele>158.452841</ele>
        <time>2022-12-09T14:32:03.506Z</time>
      </trkpt>
      <trkpt lat="48.4267" lon="-4.67229">
        <ele>158.078255</ele>
        <time>2022-12-09T14:32:06.500Z</time>
      </trkpt>
      <trkpt lat="48.42667" lon="-4.67214">
        <ele>157.713208</ele>
        <time>2022-12-09T14:32:09.501Z</time>
      </trkpt>
      <trkpt lat="48.42665" lon="-4.67199">
        <ele>157.352596</ele>
        <time>2022-12-09T14:32:12.498Z</time>
      </trkpt>
      <trkpt lat="48.42663" lon="-4.67183">
        <ele>156.97408</ele>
        <time>2022-12-09T14:32:15.500Z</time>
      </trkpt>
      <trkpt lat="48.42662" lon="-4.67166">
        <ele>156.56293</ele>
        <time>2022-12-09T14:32:18.499Z</time>
      </trkpt>
      <trkpt lat="48.42662" lon="-4.67147">
        <ele>156.11492</ele>
        <time>2022-12-09T14:32:21.484Z</time>
      </trkpt>
      <trkpt lat="48.42663" lon="-4.67129">
        <ele>155.718472</ele>
        <time>2022-12-09T14:32:24.502Z</time>
      </trkpt>
      <trkpt lat="48.42665" lon="-4.67112">
        <ele>155.414925</ele>
        <time>2022-12-09T14:32:27.475Z</time>
      </trkpt>
      <trkpt lat="48.42666" lon="-4.67098">
        <ele>155.167756</ele>
        <time>2022-12-09T14:32:29.484Z</time>
      </trkpt>
      <trkpt lat="48.42668" lon="-4.67084">
        <ele>154.909539</ele>
        <time>2022-12-09T14:32:31.492Z</time>
      </trkpt>
      <trkpt lat="48.4267" lon="-4.67069">
        <ele>154.640727</ele>
        <time>2022-12-09T14:32:33.487Z</time>
      </trkpt>
      <trkpt lat="48.42671" lon="-4.67053">
        <ele>154.361605</ele>
        <time>2022-12-09T14:32:35.496Z</time>
      </trkpt>
      <trkpt lat="48.42673" lon="-4.67038">
        <ele>154.097119</ele>
        <time>2022-12-09T14:32:37.499Z</time>
      </trkpt>
      <trkpt lat="48.42675" lon="-4.67024">
        <ele>153.849951</ele>
        <time>2022-12-09T14:32:39.495Z</time>
      </trkpt>
      <trkpt lat="48.42678" lon="-4.67005">
        <ele>153.499779</ele>
        <time>2022-12-09T14:32:42.504Z</time>
      </trkpt>
      <trkpt lat="48.42679" lon="-4.66984">
        <ele>153.135436</ele>
        <time>2022-12-09T14:32:45.501Z</time>
      </trkpt>
      <trkpt lat="48.4268" lon="-4.6697">
        <ele>152.890957</ele>
        <time>2022-12-09T14:32:47.506Z</time>
      </trkpt>
      <trkpt lat="48.42682" lon="-4.66952">
        <ele>152.560245</ele>
        <time>2022-12-09T14:32:50.499Z</time>
      </trkpt>
      <trkpt lat="48.42683" lon="-4.66934">
        <ele>152.257206</ele>
        <time>2022-12-09T14:32:53.503Z</time>
      </trkpt>
      <trkpt lat="48.42685" lon="-4.66919">
        <ele>151.977567</ele>
        <time>2022-12-09T14:32:56.489Z</time>
      </trkpt>
      <trkpt lat="48.42688" lon="-4.66901">
        <ele>151.652198</ele>
        <time>2022-12-09T14:33:00.504Z</time>
      </trkpt>
      <trkpt lat="48.4269" lon="-4.66886">
        <ele>151.395014</ele>
        <time>2022-12-09T14:33:03.501Z</time>
      </trkpt>
      <trkpt lat="48.42692" lon="-4.66872">
        <ele>151.132815</ele>
        <time>2022-12-09T14:33:06.492Z</time>
      </trkpt>
      <trkpt lat="48.42692" lon="-4.66855">
        <ele>150.790286</ele>
        <time>2022-12-09T14:33:09.499Z</time>
      </trkpt>
      <trkpt lat="48.42693" lon="-4.6684">
        <ele>150.443151</ele>
        <time>2022-12-09T14:33:12.500Z</time>
      </trkpt>
      <trkpt lat="48.42695" lon="-4.66826">
        <ele>150.116785</ele>
        <time>2022-12-09T14:33:15.487Z</time>
      </trkpt>
      <trkpt lat="48.42697" lon="-4.66811">
        <ele>149.781807</ele>
        <time>2022-12-09T14:33:18.504Z</time>
      </trkpt>
      <trkpt lat="48.42699" lon="-4.66796">
        <ele>149.426769</ele>
        <time>2022-12-09T14:33:21.506Z</time>
      </trkpt>
      <trkpt lat="48.42701" lon="-4.66781">
        <ele>149.063109</ele>
        <time>2022-12-09T14:33:24.497Z</time>
      </trkpt>
      <trkpt lat="48.42704" lon="-4.66766">
        <ele>148.717192</ele>
        <time>2022-12-09T14:33:27.504Z</time>
      </trkpt>
      <trkpt lat="48.42709" lon="-4.66749">
        <ele>148.310304</ele>
        <time>2022-12-09T14:33:30.481Z</time>
      </trkpt>
      <trkpt lat="48.42714" lon="-4.66733">
        <ele>147.916604</ele>
        <time>2022-12-09T14:33:33.483Z</time>
      </trkpt>
      <trkpt lat="48.42718" lon="-4.66719">
        <ele>147.548067</ele>
        <time>2022-12-09T14:33:36.481Z</time>
      </trkpt>
      <trkpt lat="48.42723" lon="-4.66704">
        <ele>147.17433</ele>
        <time>2022-12-09T14:33:39.489Z</time>
      </trkpt>
      <trkpt lat="48.42726" lon="-4.66687">
        <ele>146.788875</ele>
        <time>2022-12-09T14:33:42.494Z</time>
      </trkpt>
      <trkpt lat="48.42729" lon="-4.6667">
        <ele>146.391368</ele>
        <time>2022-12-09T14:33:45.489Z</time>
      </trkpt>
      <trkpt lat="48.42731" lon="-4.66653">
        <ele>145.994178</ele>
        <time>2022-12-09T14:33:48.483Z</time>
      </trkpt>
      <trkpt lat="48.42733" lon="-4.66636">
        <ele>145.607037</ele>
        <time>2022-12-09T14:33:51.498Z</time>
      </trkpt>
      <trkpt lat="48.42733" lon="-4.66619">
        <ele>145.208825</ele>
        <time>2022-12-09T14:33:54.491Z</time>
      </trkpt>
      <trkpt lat="48.42732" lon="-4.66602">
        <ele>144.846052</ele>
        <time>2022-12-09T14:33:57.479Z</time>
      </trkpt>
      <trkpt lat="48.4273" lon="-4.66587">
        <ele>144.593635</ele>
        <time>2022-12-09T14:34:00.501Z</time>
      </trkpt>
      <trkpt lat="48.42729" lon="-4.66571">
        <ele>144.325038</ele>
        <time>2022-12-09T14:34:03.504Z</time>
      </trkpt>
      <trkpt lat="48.42727" lon="-4.66555">
        <ele>144.050809</ele>
        <time>2022-12-09T14:34:06.481Z</time>
      </trkpt>
      <trkpt lat="48.42726" lon="-4.66539">
        <ele>143.775564</ele>
        <time>2022-12-09T14:34:09.495Z</time>
      </trkpt>
      <trkpt lat="48.42725" lon="-4.66523">
        <ele>143.518394</ele>
        <time>2022-12-09T14:34:12.488Z</time>
      </trkpt>
      <trkpt lat="48.42725" lon="-4.66508">
        <ele>143.254441</ele>
        <time>2022-12-09T14:34:15.503Z</time>
      </trkpt>
      <trkpt lat="48.42725" lon="-4.66491">
        <ele>142.968751</ele>
        <time>2022-12-09T14:34:18.499Z</time>
      </trkpt>
      <trkpt lat="48.42726" lon="-4.66472">
        <ele>142.655671</ele>
        <time>2022-12-09T14:34:21.522Z</time>
      </trkpt>
      <trkpt lat="48.42726" lon="-4.66453">
        <ele>142.338011</ele>
        <time>2022-12-09T14:34:24.507Z</time>
      </trkpt>
      <trkpt lat="48.42725" lon="-4.66434">
        <ele>142.021058</ele>
        <time>2022-12-09T14:34:27.501Z</time>
      </trkpt>
      <trkpt lat="48.42724" lon="-4.66418">
        <ele>141.743492</ele>
        <time>2022-12-09T14:34:30.482Z</time>
      </trkpt>
      <trkpt lat="48.42722" lon="-4.66401">
        <ele>141.45925</ele>
        <time>2022-12-09T14:34:33.503Z</time>
      </trkpt>
      <trkpt lat="48.42722" lon="-4.66387">
        <ele>141.227892</ele>
        <time>2022-12-09T14:34:35.501Z</time>
      </trkpt>
      <trkpt lat="48.4272" lon="-4.66374">
        <ele>140.994945</ele>
        <time>2022-12-09T14:34:37.504Z</time>
      </trkpt>
      <trkpt lat="48.42718" lon="-4.66352">
        <ele>140.632743</ele>
        <time>2022-12-09T14:34:40.500Z</time>
      </trkpt>
      <trkpt lat="48.42718" lon="-4.66334">
        <ele>140.301389</ele>
        <time>2022-12-09T14:34:43.506Z</time>
      </trkpt>
      <trkpt lat="48.42717" lon="-4.66314">
        <ele>139.85567</ele>
        <time>2022-12-09T14:34:46.493Z</time>
      </trkpt>
      <trkpt lat="48.42717" lon="-4.66295">
        <ele>139.417346</ele>
        <time>2022-12-09T14:34:49.504Z</time>
      </trkpt>
      <trkpt lat="48.42718" lon="-4.66277">
        <ele>138.987363</ele>
        <time>2022-12-09T14:34:52.502Z</time>
      </trkpt>
      <trkpt lat="48.42719" lon="-4.66259">
        <ele>138.586096</ele>
        <time>2022-12-09T14:34:55.501Z</time>
      </trkpt>
      <trkpt lat="48.42719" lon="-4.66243">
        <ele>138.200594</ele>
        <time>2022-12-09T14:34:58.498Z</time>
      </trkpt>
      <trkpt lat="48.4272" lon="-4.66226">
        <ele>137.81528</ele>
        <time>2022-12-09T14:35:01.504Z</time>
      </trkpt>
      <trkpt lat="48.42721" lon="-4.66208">
        <ele>137.409424</ele>
        <time>2022-12-09T14:35:04.502Z</time>
      </trkpt>
      <trkpt lat="48.42722" lon="-4.66191">
        <ele>137.009226</ele>
        <time>2022-12-09T14:35:07.500Z</time>
      </trkpt>
      <trkpt lat="48.42723" lon="-4.66176">
        <ele>136.655656</ele>
        <time>2022-12-09T14:35:10.502Z</time>
      </trkpt>
      <trkpt lat="48.42724" lon="-4.6616">
        <ele>136.287528</ele>
        <time>2022-12-09T14:35:13.500Z</time>
      </trkpt>
      <trkpt lat="48.42725" lon="-4.66143">
        <ele>135.886863</ele>
        <time>2022-12-09T14:35:16.501Z</time>
      </trkpt>
      <trkpt lat="48.42727" lon="-4.66127">
        <ele>135.506733</ele>
        <time>2022-12-09T14:35:19.502Z</time>
      </trkpt>
      <trkpt lat="48.4273" lon="-4.66111">
        <ele>135.135065</ele>
        <time>2022-12-09T14:35:22.502Z</time>
      </trkpt>
      <trkpt lat="48.42733" lon="-4.66096">
        <ele>134.765776</ele>
        <time>2022-12-09T14:35:25.483Z</time>
      </trkpt>
      <trkpt lat="48.42735" lon="-4.66079">
        <ele>134.384315</ele>
        <time>2022-12-09T14:35:28.500Z</time>
      </trkpt>
      <trkpt lat="48.42738" lon="-4.66063">
        <ele>133.967372</ele>
        <time>2022-12-09T14:35:31.503Z</time>
      </trkpt>
      <trkpt lat="48.42741" lon="-4.66047">
        <ele>133.450122</ele>
        <time>2022-12-09T14:35:34.502Z</time>
      </trkpt>
      <trkpt lat="48.42744" lon="-4.66029">
        <ele>132.909648</ele>
        <time>2022-12-09T14:35:37.505Z</time>
      </trkpt>
      <trkpt lat="48.42747" lon="-4.66011">
        <ele>132.359355</ele>
        <time>2022-12-09T14:35:40.505Z</time>
      </trkpt>
      <trkpt lat="48.42749" lon="-4.65993">
        <ele>131.78777</ele>
        <time>2022-12-09T14:35:43.504Z</time>
      </trkpt>
      <trkpt lat="48.42752" lon="-4.65975">
        <ele>131.247297</ele>
        <time>2022-12-09T14:35:46.504Z</time>
      </trkpt>
      <trkpt lat="48.42754" lon="-4.65958">
        <ele>130.73237</ele>
        <time>2022-12-09T14:35:49.503Z</time>
      </trkpt>
      <trkpt lat="48.42756" lon="-4.6594">
        <ele>130.187584</ele>
        <time>2022-12-09T14:35:52.501Z</time>
      </trkpt>
      <trkpt lat="48.42756" lon="-4.65926">
        <ele>129.761881</ele>
        <time>2022-12-09T14:35:54.502Z</time>
      </trkpt>
      <trkpt lat="48.42758" lon="-4.65905">
        <ele>129.121467</ele>
        <time>2022-12-09T14:35:57.508Z</time>
      </trkpt>
      <trkpt lat="48.42759" lon="-4.6589">
        <ele>128.671729</ele>
        <time>2022-12-09T14:35:59.480Z</time>
      </trkpt>
      <trkpt lat="48.4276" lon="-4.65872">
        <ele>128.141292</ele>
        <time>2022-12-09T14:36:01.501Z</time>
      </trkpt>
      <trkpt lat="48.42759" lon="-4.65856">
        <ele>127.646558</ele>
        <time>2022-12-09T14:36:03.481Z</time>
      </trkpt>
      <trkpt lat="48.42759" lon="-4.65839">
        <ele>127.130211</ele>
        <time>2022-12-09T14:36:05.502Z</time>
      </trkpt>
      <trkpt lat="48.42758" lon="-4.65823">
        <ele>126.655727</ele>
        <time>2022-12-09T14:36:07.500Z</time>
      </trkpt>
      <trkpt lat="48.42758" lon="-4.65808">
        <ele>126.205702</ele>
        <time>2022-12-09T14:36:09.496Z</time>
      </trkpt>
      <trkpt lat="48.42759" lon="-4.65793">
        <ele>125.694319</ele>
        <time>2022-12-09T14:36:11.502Z</time>
      </trkpt>
      <trkpt lat="48.42758" lon="-4.65779">
        <ele>125.080032</ele>
        <time>2022-12-09T14:36:13.504Z</time>
      </trkpt>
      <trkpt lat="48.42759" lon="-4.65761">
        <ele>124.309261</ele>
        <time>2022-12-09T14:36:16.502Z</time>
      </trkpt>
      <trkpt lat="48.4276" lon="-4.65743">
        <ele>123.561719</ele>
        <time>2022-12-09T14:36:19.508Z</time>
      </trkpt>
      <trkpt lat="48.4276" lon="-4.65725">
        <ele>122.817943</ele>
        <time>2022-12-09T14:36:22.503Z</time>
      </trkpt>
      <trkpt lat="48.42759" lon="-4.65707">
        <ele>122.068476</ele>
        <time>2022-12-09T14:36:25.499Z</time>
      </trkpt>
      <trkpt lat="48.4276" lon="-4.65689">
        <ele>121.311826</ele>
        <time>2022-12-09T14:36:28.501Z</time>
      </trkpt>
      <trkpt lat="48.42762" lon="-4.65671">
        <ele>120.52174</ele>
        <time>2022-12-09T14:36:31.492Z</time>
      </trkpt>
      <trkpt lat="48.42763" lon="-4.65653">
        <ele>119.758664</ele>
        <time>2022-12-09T14:36:34.504Z</time>
      </trkpt>
      <trkpt lat="48.42763" lon="-4.65634">
        <ele>118.952562</ele>
        <time>2022-12-09T14:36:37.482Z</time>
      </trkpt>
      <trkpt lat="48.42762" lon="-4.65615">
        <ele>118.191719</ele>
        <time>2022-12-09T14:36:40.503Z</time>
      </trkpt>
      <trkpt lat="48.4276" lon="-4.65596">
        <ele>117.377637</ele>
        <time>2022-12-09T14:36:43.484Z</time>
      </trkpt>
      <trkpt lat="48.42758" lon="-4.65577">
        <ele>116.554398</ele>
        <time>2022-12-09T14:36:46.488Z</time>
      </trkpt>
      <trkpt lat="48.42757" lon="-4.65558">
        <ele>115.775624</ele>
        <time>2022-12-09T14:36:49.484Z</time>
      </trkpt>
      <trkpt lat="48.42756" lon="-4.6554">
        <ele>115.014753</ele>
        <time>2022-12-09T14:36:52.507Z</time>
      </trkpt>
      <trkpt lat="48.42754" lon="-4.65521">
        <ele>114.029767</ele>
        <time>2022-12-09T14:36:55.503Z</time>
      </trkpt>
      <trkpt lat="48.42754" lon="-4.65503">
        <ele>112.989406</ele>
        <time>2022-12-09T14:36:58.502Z</time>
      </trkpt>
      <trkpt lat="48.42755" lon="-4.65485">
        <ele>111.899754</ele>
        <time>2022-12-09T14:37:01.505Z</time>
      </trkpt>
      <trkpt lat="48.42758" lon="-4.65466">
        <ele>110.772797</ele>
        <time>2022-12-09T14:37:04.483Z</time>
      </trkpt>
      <trkpt lat="48.4276" lon="-4.65447">
        <ele>109.589096</ele>
        <time>2022-12-09T14:37:07.496Z</time>
      </trkpt>
      <trkpt lat="48.42761" lon="-4.65427">
        <ele>108.433903</ele>
        <time>2022-12-09T14:37:10.503Z</time>
      </trkpt>
      <trkpt lat="48.42764" lon="-4.65409">
        <ele>107.347619</ele>
        <time>2022-12-09T14:37:13.502Z</time>
      </trkpt>
      <trkpt lat="48.42767" lon="-4.65392">
        <ele>106.294185</ele>
        <time>2022-12-09T14:37:16.502Z</time>
      </trkpt>
      <trkpt lat="48.42772" lon="-4.65376">
        <ele>105.227925</ele>
        <time>2022-12-09T14:37:19.502Z</time>
      </trkpt>
      <trkpt lat="48.42778" lon="-4.65359">
        <ele>104.112024</ele>
        <time>2022-12-09T14:37:22.501Z</time>
      </trkpt>
      <trkpt lat="48.42785" lon="-4.65342">
        <ele>102.922956</ele>
        <time>2022-12-09T14:37:25.506Z</time>
      </trkpt>
      <trkpt lat="48.42792" lon="-4.65324">
        <ele>101.729537</ele>
        <time>2022-12-09T14:37:28.504Z</time>
      </trkpt>
      <trkpt lat="48.42797" lon="-4.65308">
        <ele>100.648754</ele>
        <time>2022-12-09T14:37:31.500Z</time>
      </trkpt>
      <trkpt lat="48.42802" lon="-4.6529">
        <ele>99.525471</ele>
        <time>2022-12-09T14:37:34.501Z</time>
      </trkpt>
      <trkpt lat="48.42805" lon="-4.65272">
        <ele>98.421057</ele>
        <time>2022-12-09T14:37:37.480Z</time>
      </trkpt>
      <trkpt lat="48.42806" lon="-4.65254">
        <ele>97.45654</ele>
        <time>2022-12-09T14:37:40.481Z</time>
      </trkpt>
      <trkpt lat="48.42804" lon="-4.65235">
        <ele>96.460951</ele>
        <time>2022-12-09T14:37:43.491Z</time>
      </trkpt>
      <trkpt lat="48.42802" lon="-4.65219">
        <ele>95.603871</ele>
        <time>2022-12-09T14:37:46.500Z</time>
      </trkpt>
      <trkpt lat="48.42799" lon="-4.65201">
        <ele>94.642401</ele>
        <time>2022-12-09T14:37:49.511Z</time>
      </trkpt>
      <trkpt lat="48.42797" lon="-4.65181">
        <ele>93.553302</ele>
        <time>2022-12-09T14:37:52.504Z</time>
      </trkpt>
      <trkpt lat="48.42797" lon="-4.65167">
        <ele>92.827777</ele>
        <time>2022-12-09T14:37:54.489Z</time>
      </trkpt>
      <trkpt lat="48.42799" lon="-4.65151">
        <ele>91.990941</ele>
        <time>2022-12-09T14:37:56.482Z</time>
      </trkpt>
      <trkpt lat="48.428" lon="-4.65135">
        <ele>91.115571</ele>
        <time>2022-12-09T14:37:58.490Z</time>
      </trkpt>
      <trkpt lat="48.42804" lon="-4.65119">
        <ele>90.272216</ele>
        <time>2022-12-09T14:38:00.489Z</time>
      </trkpt>
      <trkpt lat="48.4281" lon="-4.65103">
        <ele>89.310097</ele>
        <time>2022-12-09T14:38:02.503Z</time>
      </trkpt>
      <trkpt lat="48.42816" lon="-4.65085">
        <ele>88.217131</ele>
        <time>2022-12-09T14:38:04.510Z</time>
      </trkpt>
      <trkpt lat="48.42823" lon="-4.65066">
        <ele>87.072253</ele>
        <time>2022-12-09T14:38:06.500Z</time>
      </trkpt>
      <trkpt lat="48.42827" lon="-4.65045">
        <ele>85.944486</ele>
        <time>2022-12-09T14:38:08.496Z</time>
      </trkpt>
      <trkpt lat="48.42836" lon="-4.65027">
        <ele>84.783841</ele>
        <time>2022-12-09T14:38:10.504Z</time>
      </trkpt>
      <trkpt lat="48.42843" lon="-4.6501">
        <ele>84.119742</ele>
        <time>2022-12-09T14:38:12.503Z</time>
      </trkpt>
      <trkpt lat="48.4285" lon="-4.64994">
        <ele>83.737197</ele>
        <time>2022-12-09T14:38:14.502Z</time>
      </trkpt>
      <trkpt lat="48.42857" lon="-4.64976">
        <ele>83.342285</ele>
        <time>2022-12-09T14:38:16.501Z</time>
      </trkpt>
      <trkpt lat="48.42862" lon="-4.64957">
        <ele>82.940022</ele>
        <time>2022-12-09T14:38:18.481Z</time>
      </trkpt>
      <trkpt lat="48.42865" lon="-4.64937">
        <ele>82.54309</ele>
        <time>2022-12-09T14:38:20.480Z</time>
      </trkpt>
      <trkpt lat="48.42867" lon="-4.64917">
        <ele>82.152829</ele>
        <time>2022-12-09T14:38:22.487Z</time>
      </trkpt>
      <trkpt lat="48.42867" lon="-4.64898">
        <ele>81.769551</ele>
        <time>2022-12-09T14:38:24.492Z</time>
      </trkpt>
      <trkpt lat="48.42867" lon="-4.64879">
        <ele>81.411551</ele>
        <time>2022-12-09T14:38:26.493Z</time>
      </trkpt>
      <trkpt lat="48.42867" lon="-4.64863">
        <ele>81.084308</ele>
        <time>2022-12-09T14:38:28.502Z</time>
      </trkpt>
      <trkpt lat="48.42868" lon="-4.64848">
        <ele>80.792019</ele>
        <time>2022-12-09T14:38:30.504Z</time>
      </trkpt>
      <trkpt lat="48.42869" lon="-4.64834">
        <ele>80.519143</ele>
        <time>2022-12-09T14:38:32.509Z</time>
      </trkpt>
      <trkpt lat="48.4287" lon="-4.64814">
        <ele>80.146482</ele>
        <time>2022-12-09T14:38:35.514Z</time>
      </trkpt>
      <trkpt lat="48.4287" lon="-4.64797">
        <ele>79.807991</ele>
        <time>2022-12-09T14:38:38.502Z</time>
      </trkpt>
      <trkpt lat="48.4287" lon="-4.6478">
        <ele>79.47138</ele>
        <time>2022-12-09T14:38:41.503Z</time>
      </trkpt>
      <trkpt lat="48.42872" lon="-4.64763">
        <ele>79.143593</ele>
        <time>2022-12-09T14:38:44.503Z</time>
      </trkpt>
      <trkpt lat="48.42874" lon="-4.64747">
        <ele>79.491362</ele>
        <time>2022-12-09T14:38:47.504Z</time>
      </trkpt>
      <trkpt lat="48.42877" lon="-4.64733">
        <ele>79.956117</ele>
        <time>2022-12-09T14:38:50.485Z</time>
      </trkpt>
      <trkpt lat="48.42881" lon="-4.64716">
        <ele>80.5006</ele>
        <time>2022-12-09T14:38:54.502Z</time>
      </trkpt>
      <trkpt lat="48.42885" lon="-4.647">
        <ele>81.021792</ele>
        <time>2022-12-09T14:38:58.494Z</time>
      </trkpt>
      <trkpt lat="48.42888" lon="-4.64685">
        <ele>81.519065</ele>
        <time>2022-12-09T14:39:02.506Z</time>
      </trkpt>
      <trkpt lat="48.42891" lon="-4.6467">
        <ele>82.003514</ele>
        <time>2022-12-09T14:39:06.501Z</time>
      </trkpt>
      <trkpt lat="48.42894" lon="-4.64656">
        <ele>82.474216</ele>
        <time>2022-12-09T14:39:10.486Z</time>
      </trkpt>
      <trkpt lat="48.42897" lon="-4.64641">
        <ele>82.948421</ele>
        <time>2022-12-09T14:39:14.503Z</time>
      </trkpt>
      <trkpt lat="48.429" lon="-4.64627">
        <ele>83.413643</ele>
        <time>2022-12-09T14:39:19.503Z</time>
      </trkpt>
      <trkpt lat="48.42902" lon="-4.64612">
        <ele>83.881857</ele>
        <time>2022-12-09T14:39:24.485Z</time>
      </trkpt>
      <trkpt lat="48.42903" lon="-4.64596">
        <ele>84.386903</ele>
        <time>2022-12-09T14:39:29.502Z</time>
      </trkpt>
      <trkpt lat="48.42905" lon="-4.64581">
        <ele>84.851683</ele>
        <time>2022-12-09T14:39:34.495Z</time>
      </trkpt>
      <trkpt lat="48.42905" lon="-4.64566">
        <ele>85.324826</ele>
        <time>2022-12-09T14:39:39.504Z</time>
      </trkpt>
      <trkpt lat="48.42905" lon="-4.64552">
        <ele>85.766523</ele>
        <time>2022-12-09T14:39:44.502Z</time>
      </trkpt>
      <trkpt lat="48.42903" lon="-4.64537">
        <ele>86.240093</ele>
        <time>2022-12-09T14:39:50.486Z</time>
      </trkpt>
      <trkpt lat="48.42902" lon="-4.64522">
        <ele>86.71965</ele>
        <time>2022-12-09T14:39:56.495Z</time>
      </trkpt>
      <trkpt lat="48.42899" lon="-4.64507">
        <ele>87.19178</ele>
        <time>2022-12-09T14:40:02.483Z</time>
      </trkpt>
      <trkpt lat="48.42896" lon="-4.64493">
        <ele>87.761027</ele>
        <time>2022-12-09T14:40:08.487Z</time>
      </trkpt>
      <trkpt lat="48.42895" lon="-4.64478">
        <ele>88.509049</ele>
        <time>2022-12-09T14:40:14.489Z</time>
      </trkpt>
      <trkpt lat="48.42892" lon="-4.64464">
        <ele>89.251286</ele>
        <time>2022-12-09T14:40:20.486Z</time>
      </trkpt>
      <trkpt lat="48.4289" lon="-4.64449">
        <ele>90.029745</ele>
        <time>2022-12-09T14:40:26.492Z</time>
      </trkpt>
      <trkpt lat="48.42888" lon="-4.64435">
        <ele>90.751981</ele>
        <time>2022-12-09T14:40:32.483Z</time>
      </trkpt>
      <trkpt lat="48.42886" lon="-4.64422">
        <ele>91.465979</ele>
        <time>2022-12-09T14:40:38.482Z</time>
      </trkpt>
      <trkpt lat="48.42884" lon="-4.64408">
        <ele>92.163736</ele>
        <time>2022-12-09T14:40:44.502Z</time>
      </trkpt>
      <trkpt lat="48.42885" lon="-4.64393">
        <ele>92.935734</ele>
        <time>2022-12-09T14:40:51.483Z</time>
      </trkpt>
      <trkpt lat="48.42882" lon="-4.64378">
        <ele>93.736772</ele>
        <time>2022-12-09T14:40:58.487Z</time>
      </trkpt>
      <trkpt lat="48.42882" lon="-4.64363">
        <ele>94.498809</ele>
        <time>2022-12-09T14:41:04.491Z</time>
      </trkpt>
      <trkpt lat="48.42882" lon="-4.64347">
        <ele>95.286224</ele>
        <time>2022-12-09T14:41:10.488Z</time>
      </trkpt>
      <trkpt lat="48.42883" lon="-4.64332">
        <ele>96.050372</ele>
        <time>2022-12-09T14:41:16.490Z</time>
      </trkpt>
      <trkpt lat="48.42884" lon="-4.64317">
        <ele>96.806606</ele>
        <time>2022-12-09T14:41:22.488Z</time>
      </trkpt>
      <trkpt lat="48.42886" lon="-4.64304">
        <ele>97.512977</ele>
        <time>2022-12-09T14:41:28.488Z</time>
      </trkpt>
      <trkpt lat="48.42887" lon="-4.64289">
        <ele>98.243124</ele>
        <time>2022-12-09T14:41:34.501Z</time>
      </trkpt>
      <trkpt lat="48.4289" lon="-4.64275">
        <ele>98.991138</ele>
        <time>2022-12-09T14:41:40.493Z</time>
      </trkpt>
      <trkpt lat="48.42892" lon="-4.6426">
        <ele>99.80441</ele>
        <time>2022-12-09T14:41:46.484Z</time>
      </trkpt>
      <trkpt lat="48.42896" lon="-4.64245">
        <ele>100.59971</ele>
        <time>2022-12-09T14:41:52.505Z</time>
      </trkpt>
      <trkpt lat="48.42898" lon="-4.64231">
        <ele>101.299281</ele>
        <time>2022-12-09T14:41:57.487Z</time>
      </trkpt>
      <trkpt lat="48.42901" lon="-4.64216">
        <ele>101.674015</ele>
        <time>2022-12-09T14:42:02.487Z</time>
      </trkpt>
      <trkpt lat="48.42903" lon="-4.64201">
        <ele>102.056667</ele>
        <time>2022-12-09T14:42:07.506Z</time>
      </trkpt>
      <trkpt lat="48.42906" lon="-4.64186">
        <ele>102.427015</ele>
        <time>2022-12-09T14:42:12.485Z</time>
      </trkpt>
      <trkpt lat="48.42909" lon="-4.64172">
        <ele>102.805099</ele>
        <time>2022-12-09T14:42:17.517Z</time>
      </trkpt>
      <trkpt lat="48.42912" lon="-4.64157">
        <ele>103.170135</ele>
        <time>2022-12-09T14:42:22.491Z</time>
      </trkpt>
      <trkpt lat="48.42914" lon="-4.64142">
        <ele>103.559053</ele>
        <time>2022-12-09T14:42:27.502Z</time>
      </trkpt>
      <trkpt lat="48.42917" lon="-4.64127">
        <ele>103.945198</ele>
        <time>2022-12-09T14:42:32.481Z</time>
      </trkpt>
      <trkpt lat="48.4292" lon="-4.64112">
        <ele>104.330349</ele>
        <time>2022-12-09T14:42:37.489Z</time>
      </trkpt>
      <trkpt lat="48.42924" lon="-4.64097">
        <ele>104.698201</ele>
        <time>2022-12-09T14:42:42.506Z</time>
      </trkpt>
      <trkpt lat="48.42927" lon="-4.64082">
        <ele>105.089359</ele>
        <time>2022-12-09T14:42:47.500Z</time>
      </trkpt>
      <trkpt lat="48.42929" lon="-4.64068">
        <ele>105.448989</ele>
        <time>2022-12-09T14:42:52.493Z</time>
      </trkpt>
      <trkpt lat="48.42934" lon="-4.64054">
        <ele>105.831434</ele>
        <time>2022-12-09T14:42:57.504Z</time>
      </trkpt>
      <trkpt lat="48.42939" lon="-4.6404">
        <ele>106.212834</ele>
        <time>2022-12-09T14:43:02.494Z</time>
      </trkpt>
      <trkpt lat="48.42944" lon="-4.64026">
        <ele>106.61627</ele>
        <time>2022-12-09T14:43:07.499Z</time>
      </trkpt>
      <trkpt lat="48.4295" lon="-4.64012">
        <ele>107.021457</ele>
        <time>2022-12-09T14:43:12.499Z</time>
      </trkpt>
      <trkpt lat="48.42956" lon="-4.63998">
        <ele>107.42533</ele>
        <time>2022-12-09T14:43:17.504Z</time>
      </trkpt>
      <trkpt lat="48.42963" lon="-4.63986">
        <ele>107.827417</ele>
        <time>2022-12-09T14:43:22.488Z</time>
      </trkpt>
      <trkpt lat="48.42969" lon="-4.63972">
        <ele>108.036511</ele>
        <time>2022-12-09T14:43:27.494Z</time>
      </trkpt>
      <trkpt lat="48.42975" lon="-4.63959">
        <ele>108.206571</ele>
        <time>2022-12-09T14:43:32.508Z</time>
      </trkpt>
      <trkpt lat="48.42981" lon="-4.63945">
        <ele>108.385601</ele>
        <time>2022-12-09T14:43:37.502Z</time>
      </trkpt>
      <trkpt lat="48.42987" lon="-4.63934">
        <ele>108.541081</ele>
        <time>2022-12-09T14:43:41.504Z</time>
      </trkpt>
      <trkpt lat="48.42993" lon="-4.63922">
        <ele>108.700916</ele>
        <time>2022-12-09T14:43:45.504Z</time>
      </trkpt>
      <trkpt lat="48.43001" lon="-4.63911">
        <ele>108.867226</ele>
        <time>2022-12-09T14:43:49.505Z</time>
      </trkpt>
      <trkpt lat="48.43007" lon="-4.639">
        <ele>109.028357</ele>
        <time>2022-12-09T14:43:53.499Z</time>
      </trkpt>
      <trkpt lat="48.43014" lon="-4.6389">
        <ele>109.181774</ele>
        <time>2022-12-09T14:43:57.502Z</time>
      </trkpt>
      <trkpt lat="48.43022" lon="-4.6388">
        <ele>109.343743</ele>
        <time>2022-12-09T14:44:01.504Z</time>
      </trkpt>
      <trkpt lat="48.43029" lon="-4.63869">
        <ele>109.506246</ele>
        <time>2022-12-09T14:44:05.515Z</time>
      </trkpt>
      <trkpt lat="48.43036" lon="-4.63859">
        <ele>109.664559</ele>
        <time>2022-12-09T14:44:09.507Z</time>
      </trkpt>
      <trkpt lat="48.43043" lon="-4.63849">
        <ele>109.821794</ele>
        <time>2022-12-09T14:44:13.503Z</time>
      </trkpt>
      <trkpt lat="48.4305" lon="-4.63839">
        <ele>109.973056</ele>
        <time>2022-12-09T14:44:17.507Z</time>
      </trkpt>
      <trkpt lat="48.43056" lon="-4.63825">
        <ele>110.153192</ele>
        <time>2022-12-09T14:44:22.508Z</time>
      </trkpt>
      <trkpt lat="48.43063" lon="-4.63811">
        <ele>110.340396</ele>
        <time>2022-12-09T14:44:26.505Z</time>
      </trkpt>
      <trkpt lat="48.4307" lon="-4.63798">
        <ele>110.518621</ele>
        <time>2022-12-09T14:44:30.487Z</time>
      </trkpt>
      <trkpt lat="48.43076" lon="-4.63783">
        <ele>110.702032</ele>
        <time>2022-12-09T14:44:34.499Z</time>
      </trkpt>
      <trkpt lat="48.43081" lon="-4.63768">
        <ele>110.720694</ele>
        <time>2022-12-09T14:44:38.498Z</time>
      </trkpt>
      <trkpt lat="48.43085" lon="-4.63756">
        <ele>110.605358</ele>
        <time>2022-12-09T14:44:41.502Z</time>
      </trkpt>
      <trkpt lat="48.4309" lon="-4.63742">
        <ele>110.476677</ele>
        <time>2022-12-09T14:44:44.504Z</time>
      </trkpt>
      <trkpt lat="48.43096" lon="-4.63726">
        <ele>110.32623</ele>
        <time>2022-12-09T14:44:47.501Z</time>
      </trkpt>
      <trkpt lat="48.43102" lon="-4.63709">
        <ele>110.171681</ele>
        <time>2022-12-09T14:44:50.522Z</time>
      </trkpt>
      <trkpt lat="48.43108" lon="-4.63696">
        <ele>110.031267</ele>
        <time>2022-12-09T14:44:53.505Z</time>
      </trkpt>
      <trkpt lat="48.43114" lon="-4.63683">
        <ele>109.906322</ele>
        <time>2022-12-09T14:44:56.507Z</time>
      </trkpt>
      <trkpt lat="48.43119" lon="-4.63671">
        <ele>109.784695</ele>
        <time>2022-12-09T14:44:59.503Z</time>
      </trkpt>
      <trkpt lat="48.43124" lon="-4.63658">
        <ele>109.660114</ele>
        <time>2022-12-09T14:45:02.508Z</time>
      </trkpt>
      <trkpt lat="48.43128" lon="-4.63644">
        <ele>109.536011</ele>
        <time>2022-12-09T14:45:05.506Z</time>
      </trkpt>
      <trkpt lat="48.43132" lon="-4.6363">
        <ele>109.40588</ele>
        <time>2022-12-09T14:45:08.500Z</time>
      </trkpt>
      <trkpt lat="48.43135" lon="-4.63613">
        <ele>109.265408</ele>
        <time>2022-12-09T14:45:11.509Z</time>
      </trkpt>
      <trkpt lat="48.43137" lon="-4.63597">
        <ele>109.124922</ele>
        <time>2022-12-09T14:45:14.503Z</time>
      </trkpt>
      <trkpt lat="48.43138" lon="-4.63578">
        <ele>108.970753</ele>
        <time>2022-12-09T14:45:17.484Z</time>
      </trkpt>
      <trkpt lat="48.43139" lon="-4.63561">
        <ele>108.829968</ele>
        <time>2022-12-09T14:45:20.504Z</time>
      </trkpt>
      <trkpt lat="48.43143" lon="-4.63545">
        <ele>108.685681</ele>
        <time>2022-12-09T14:45:23.504Z</time>
      </trkpt>
      <trkpt lat="48.43146" lon="-4.63529">
        <ele>108.5534</ele>
        <time>2022-12-09T14:45:26.501Z</time>
      </trkpt>
      <trkpt lat="48.43148" lon="-4.63516">
        <ele>108.975077</ele>
        <time>2022-12-09T14:45:29.493Z</time>
      </trkpt>
      <trkpt lat="48.43151" lon="-4.63502">
        <ele>109.459105</ele>
        <time>2022-12-09T14:45:33.486Z</time>
      </trkpt>
      <trkpt lat="48.43154" lon="-4.63487">
        <ele>109.999893</ele>
        <time>2022-12-09T14:45:38.504Z</time>
      </trkpt>
      <trkpt lat="48.43157" lon="-4.63472">
        <ele>110.512151</ele>
        <time>2022-12-09T14:45:42.506Z</time>
      </trkpt>
      <trkpt lat="48.4316" lon="-4.63459">
        <ele>110.976855</ele>
        <time>2022-12-09T14:45:46.503Z</time>
      </trkpt>
      <trkpt lat="48.43163" lon="-4.63444">
        <ele>111.49063</ele>
        <time>2022-12-09T14:45:51.506Z</time>
      </trkpt>
      <trkpt lat="48.43165" lon="-4.6343">
        <ele>111.972849</ele>
        <time>2022-12-09T14:45:55.502Z</time>
      </trkpt>
      <trkpt lat="48.43166" lon="-4.63416">
        <ele>112.449962</ele>
        <time>2022-12-09T14:45:59.520Z</time>
      </trkpt>
      <trkpt lat="48.43169" lon="-4.63401">
        <ele>112.974104</ele>
        <time>2022-12-09T14:46:04.503Z</time>
      </trkpt>
      <trkpt lat="48.4317" lon="-4.63385">
        <ele>113.505032</ele>
        <time>2022-12-09T14:46:09.500Z</time>
      </trkpt>
      <trkpt lat="48.43171" lon="-4.6337">
        <ele>114.01416</ele>
        <time>2022-12-09T14:46:14.501Z</time>
      </trkpt>
      <trkpt lat="48.43172" lon="-4.63356">
        <ele>114.492756</ele>
        <time>2022-12-09T14:46:19.504Z</time>
      </trkpt>
      <trkpt lat="48.43173" lon="-4.63342">
        <ele>114.965254</ele>
        <time>2022-12-09T14:46:24.505Z</time>
      </trkpt>
      <trkpt lat="48.43176" lon="-4.63328">
        <ele>115.466124</ele>
        <time>2022-12-09T14:46:29.504Z</time>
      </trkpt>
      <trkpt lat="48.43177" lon="-4.63313">
        <ele>115.950654</ele>
        <time>2022-12-09T14:46:34.494Z</time>
      </trkpt>
      <trkpt lat="48.43179" lon="-4.63299">
        <ele>116.44046</ele>
        <time>2022-12-09T14:46:39.487Z</time>
      </trkpt>
      <trkpt lat="48.43181" lon="-4.63285">
        <ele>116.900978</ele>
        <time>2022-12-09T14:46:44.502Z</time>
      </trkpt>
      <trkpt lat="48.43183" lon="-4.63269">
        <ele>117.45959</ele>
        <time>2022-12-09T14:46:50.502Z</time>
      </trkpt>
      <trkpt lat="48.43185" lon="-4.63254">
        <ele>117.770421</ele>
        <time>2022-12-09T14:46:55.510Z</time>
      </trkpt>
      <trkpt lat="48.43187" lon="-4.6324">
        <ele>117.966864</ele>
        <time>2022-12-09T14:47:00.500Z</time>
      </trkpt>
      <trkpt lat="48.43189" lon="-4.63225">
        <ele>118.186423</ele>
        <time>2022-12-09T14:47:05.508Z</time>
      </trkpt>
      <trkpt lat="48.43192" lon="-4.63211">
        <ele>118.387046</ele>
        <time>2022-12-09T14:47:10.502Z</time>
      </trkpt>
      <trkpt lat="48.43198" lon="-4.63199">
        <ele>118.606537</ele>
        <time>2022-12-09T14:47:16.487Z</time>
      </trkpt>
      <trkpt lat="48.43195" lon="-4.63184">
        <ele>118.815498</ele>
        <time>2022-12-09T14:47:22.487Z</time>
      </trkpt>
      <trkpt lat="48.43188" lon="-4.63174">
        <ele>119.019074</ele>
        <time>2022-12-09T14:47:27.502Z</time>
      </trkpt>
      <trkpt lat="48.43192" lon="-4.6316">
        <ele>119.225424</ele>
        <time>2022-12-09T14:47:32.507Z</time>
      </trkpt>
      <trkpt lat="48.432" lon="-4.6315">
        <ele>119.447969</ele>
        <time>2022-12-09T14:47:37.506Z</time>
      </trkpt>
      <trkpt lat="48.43207" lon="-4.6314">
        <ele>119.641253</ele>
        <time>2022-12-09T14:47:51.486Z</time>
      </trkpt>
      <trkpt lat="48.43214" lon="-4.63128">
        <ele>119.862861</ele>
        <time>2022-12-09T14:47:56.491Z</time>
      </trkpt>
      <trkpt lat="48.4322" lon="-4.63113">
        <ele>120.103966</ele>
        <time>2022-12-09T14:48:00.484Z</time>
      </trkpt>
      <trkpt lat="48.43225" lon="-4.63102">
        <ele>120.294308</ele>
        <time>2022-12-09T14:48:03.504Z</time>
      </trkpt>
      <trkpt lat="48.43229" lon="-4.6309">
        <ele>120.482443</ele>
        <time>2022-12-09T14:48:06.505Z</time>
      </trkpt>
      <trkpt lat="48.43236" lon="-4.63075">
        <ele>120.727061</ele>
        <time>2022-12-09T14:48:09.495Z</time>
      </trkpt>
      <trkpt lat="48.43242" lon="-4.6306">
        <ele>120.980868</ele>
        <time>2022-12-09T14:48:12.490Z</time>
      </trkpt>
      <trkpt lat="48.43249" lon="-4.63043">
        <ele>121.247453</ele>
        <time>2022-12-09T14:48:15.497Z</time>
      </trkpt>
      <trkpt lat="48.43254" lon="-4.63027">
        <ele>121.20963</ele>
        <time>2022-12-09T14:48:18.517Z</time>
      </trkpt>
      <trkpt lat="48.4326" lon="-4.63012">
        <ele>120.823793</ele>
        <time>2022-12-09T14:48:21.506Z</time>
      </trkpt>
      <trkpt lat="48.43266" lon="-4.62996">
        <ele>120.433053</ele>
        <time>2022-12-09T14:48:24.505Z</time>
      </trkpt>
      <trkpt lat="48.43272" lon="-4.6298">
        <ele>120.033725</ele>
        <time>2022-12-09T14:48:27.506Z</time>
      </trkpt>
      <trkpt lat="48.43277" lon="-4.62962">
        <ele>119.615138</ele>
        <time>2022-12-09T14:48:30.504Z</time>
      </trkpt>
      <trkpt lat="48.43281" lon="-4.62943">
        <ele>119.186882</ele>
        <time>2022-12-09T14:48:33.483Z</time>
      </trkpt>
      <trkpt lat="48.43282" lon="-4.62929">
        <ele>118.886789</ele>
        <time>2022-12-09T14:48:35.485Z</time>
      </trkpt>
      <trkpt lat="48.43282" lon="-4.62908">
        <ele>118.448338</ele>
        <time>2022-12-09T14:48:38.489Z</time>
      </trkpt>
      <trkpt lat="48.43282" lon="-4.62894">
        <ele>118.147445</ele>
        <time>2022-12-09T14:48:40.503Z</time>
      </trkpt>
      <trkpt lat="48.4328" lon="-4.6288">
        <ele>117.839433</ele>
        <time>2022-12-09T14:48:42.506Z</time>
      </trkpt>
      <trkpt lat="48.43279" lon="-4.62866">
        <ele>117.526683</ele>
        <time>2022-12-09T14:48:44.498Z</time>
      </trkpt>
      <trkpt lat="48.43275" lon="-4.62854">
        <ele>117.235697</ele>
        <time>2022-12-09T14:48:46.495Z</time>
      </trkpt>
      <trkpt lat="48.43271" lon="-4.6284">
        <ele>116.922523</ele>
        <time>2022-12-09T14:48:48.509Z</time>
      </trkpt>
      <trkpt lat="48.43267" lon="-4.62828">
        <ele>116.626262</ele>
        <time>2022-12-09T14:48:50.488Z</time>
      </trkpt>
      <trkpt lat="48.43263" lon="-4.62815">
        <ele>116.324185</ele>
        <time>2022-12-09T14:48:52.501Z</time>
      </trkpt>
      <trkpt lat="48.43257" lon="-4.62797">
        <ele>115.898075</ele>
        <time>2022-12-09T14:48:55.502Z</time>
      </trkpt>
      <trkpt lat="48.43254" lon="-4.62784">
        <ele>115.590168</ele>
        <time>2022-12-09T14:48:57.496Z</time>
      </trkpt>
      <trkpt lat="48.43249" lon="-4.6277">
        <ele>115.341476</ele>
        <time>2022-12-09T14:48:59.487Z</time>
      </trkpt>
      <trkpt lat="48.43245" lon="-4.62757">
        <ele>115.110669</ele>
        <time>2022-12-09T14:49:01.504Z</time>
      </trkpt>
      <trkpt lat="48.4324" lon="-4.62744">
        <ele>114.874415</ele>
        <time>2022-12-09T14:49:03.505Z</time>
      </trkpt>
      <trkpt lat="48.43236" lon="-4.62732">
        <ele>114.651048</ele>
        <time>2022-12-09T14:49:05.504Z</time>
      </trkpt>
      <trkpt lat="48.43232" lon="-4.62718">
        <ele>114.415946</ele>
        <time>2022-12-09T14:49:07.503Z</time>
      </trkpt>
      <trkpt lat="48.43228" lon="-4.62705">
        <ele>114.177991</ele>
        <time>2022-12-09T14:49:09.493Z</time>
      </trkpt>
      <trkpt lat="48.43223" lon="-4.6269">
        <ele>113.929369</ele>
        <time>2022-12-09T14:49:11.497Z</time>
      </trkpt>
      <trkpt lat="48.43219" lon="-4.62676">
        <ele>113.68707</ele>
        <time>2022-12-09T14:49:13.507Z</time>
      </trkpt>
      <trkpt lat="48.43215" lon="-4.62663">
        <ele>113.452031</ele>
        <time>2022-12-09T14:49:15.507Z</time>
      </trkpt>
      <trkpt lat="48.4321" lon="-4.62649">
        <ele>113.206524</ele>
        <time>2022-12-09T14:49:17.503Z</time>
      </trkpt>
      <trkpt lat="48.43206" lon="-4.62637">
        <ele>112.983503</ele>
        <time>2022-12-09T14:49:19.514Z</time>
      </trkpt>
      <trkpt lat="48.43201" lon="-4.62618">
        <ele>112.662874</ele>
        <time>2022-12-09T14:49:22.505Z</time>
      </trkpt>
      <trkpt lat="48.43197" lon="-4.62605">
        <ele>112.439721</ele>
        <time>2022-12-09T14:49:24.507Z</time>
      </trkpt>
      <trkpt lat="48.43192" lon="-4.62588">
        <ele>112.135394</ele>
        <time>2022-12-09T14:49:27.494Z</time>
      </trkpt>
      <trkpt lat="48.43187" lon="-4.62569">
        <ele>111.824297</ele>
        <time>2022-12-09T14:49:30.503Z</time>
      </trkpt>
      <trkpt lat="48.43184" lon="-4.62551">
        <ele>111.516249</ele>
        <time>2022-12-09T14:49:33.504Z</time>
      </trkpt>
      <trkpt lat="48.4318" lon="-4.62531">
        <ele>111.181042</ele>
        <time>2022-12-09T14:49:36.511Z</time>
      </trkpt>
      <trkpt lat="48.43177" lon="-4.62517">
        <ele>110.878309</ele>
        <time>2022-12-09T14:49:38.516Z</time>
      </trkpt>
      <trkpt lat="48.43174" lon="-4.62502">
        <ele>110.568184</ele>
        <time>2022-12-09T14:49:40.503Z</time>
      </trkpt>
      <trkpt lat="48.43171" lon="-4.62488">
        <ele>110.267676</ele>
        <time>2022-12-09T14:49:42.514Z</time>
      </trkpt>
      <trkpt lat="48.43168" lon="-4.62475">
        <ele>109.976754</ele>
        <time>2022-12-09T14:49:44.504Z</time>
      </trkpt>
      <trkpt lat="48.43165" lon="-4.62462">
        <ele>109.69244</ele>
        <time>2022-12-09T14:49:46.502Z</time>
      </trkpt>
      <trkpt lat="48.43162" lon="-4.62448">
        <ele>109.41438</ele>
        <time>2022-12-09T14:49:48.488Z</time>
      </trkpt>
      <trkpt lat="48.4316" lon="-4.62434">
        <ele>109.119115</ele>
        <time>2022-12-09T14:49:50.507Z</time>
      </trkpt>
      <trkpt lat="48.43156" lon="-4.62416">
        <ele>108.743525</ele>
        <time>2022-12-09T14:49:53.502Z</time>
      </trkpt>
      <trkpt lat="48.43152" lon="-4.62399">
        <ele>108.372737</ele>
        <time>2022-12-09T14:49:56.493Z</time>
      </trkpt>
      <trkpt lat="48.43149" lon="-4.62384">
        <ele>108.047158</ele>
        <time>2022-12-09T14:49:59.498Z</time>
      </trkpt>
      <trkpt lat="48.43145" lon="-4.62369">
        <ele>107.735839</ele>
        <time>2022-12-09T14:50:03.502Z</time>
      </trkpt>
      <trkpt lat="48.43143" lon="-4.62354">
        <ele>107.413806</ele>
        <time>2022-12-09T14:50:19.494Z</time>
      </trkpt>
      <trkpt lat="48.43139" lon="-4.62335">
        <ele>107.017239</ele>
        <time>2022-12-09T14:50:23.510Z</time>
      </trkpt>
      <trkpt lat="48.43136" lon="-4.62316">
        <ele>106.624972</ele>
        <time>2022-12-09T14:50:26.490Z</time>
      </trkpt>
      <trkpt lat="48.43132" lon="-4.62304">
        <ele>106.343712</ele>
        <time>2022-12-09T14:50:28.490Z</time>
      </trkpt>
      <trkpt lat="48.43128" lon="-4.62284">
        <ele>105.929874</ele>
        <time>2022-12-09T14:50:31.497Z</time>
      </trkpt>
      <trkpt lat="48.43126" lon="-4.62271">
        <ele>105.646045</ele>
        <time>2022-12-09T14:50:33.503Z</time>
      </trkpt>
      <trkpt lat="48.43122" lon="-4.62258">
        <ele>105.352366</ele>
        <time>2022-12-09T14:50:35.492Z</time>
      </trkpt>
      <trkpt lat="48.43117" lon="-4.62241">
        <ele>104.98177</ele>
        <time>2022-12-09T14:50:38.490Z</time>
      </trkpt>
      <trkpt lat="48.43115" lon="-4.62227">
        <ele>104.674283</ele>
        <time>2022-12-09T14:50:41.494Z</time>
      </trkpt>
      <trkpt lat="48.43112" lon="-4.62211">
        <ele>104.335623</ele>
        <time>2022-12-09T14:50:44.493Z</time>
      </trkpt>
      <trkpt lat="48.4311" lon="-4.62197">
        <ele>104.043528</ele>
        <time>2022-12-09T14:50:47.494Z</time>
      </trkpt>
      <trkpt lat="48.43105" lon="-4.62182">
        <ele>103.700991</ele>
        <time>2022-12-09T14:50:54.489Z</time>
      </trkpt>
      <trkpt lat="48.43102" lon="-4.62169">
        <ele>103.419061</ele>
        <time>2022-12-09T14:50:57.490Z</time>
      </trkpt>
      <trkpt lat="48.43098" lon="-4.62153">
        <ele>103.064686</ele>
        <time>2022-12-09T14:51:00.489Z</time>
      </trkpt>
      <trkpt lat="48.43095" lon="-4.62135">
        <ele>102.677065</ele>
        <time>2022-12-09T14:51:03.492Z</time>
      </trkpt>
      <trkpt lat="48.43091" lon="-4.62117">
        <ele>102.287503</ele>
        <time>2022-12-09T14:51:06.485Z</time>
      </trkpt>
      <trkpt lat="48.43088" lon="-4.62098">
        <ele>101.88209</ele>
        <time>2022-12-09T14:51:09.509Z</time>
      </trkpt>
      <trkpt lat="48.43086" lon="-4.62084">
        <ele>101.590367</ele>
        <time>2022-12-09T14:51:11.506Z</time>
      </trkpt>
      <trkpt lat="48.43079" lon="-4.62066">
        <ele>101.165885</ele>
        <time>2022-12-09T14:51:14.490Z</time>
      </trkpt>
      <trkpt lat="48.43071" lon="-4.62051">
        <ele>100.759475</ele>
        <time>2022-12-09T14:51:17.486Z</time>
      </trkpt>
      <trkpt lat="48.43062" lon="-4.62039">
        <ele>100.391085</ele>
        <time>2022-12-09T14:51:20.502Z</time>
      </trkpt>
      <trkpt lat="48.43054" lon="-4.62026">
        <ele>100.110534</ele>
        <time>2022-12-09T14:51:23.508Z</time>
      </trkpt>
      <trkpt lat="48.43045" lon="-4.62013">
        <ele>99.950551</ele>
        <time>2022-12-09T14:51:26.510Z</time>
      </trkpt>
      <trkpt lat="48.43039" lon="-4.61999">
        <ele>99.804878</ele>
        <time>2022-12-09T14:51:29.505Z</time>
      </trkpt>
      <trkpt lat="48.43033" lon="-4.61987">
        <ele>99.676675</ele>
        <time>2022-12-09T14:51:32.511Z</time>
      </trkpt>
      <trkpt lat="48.43026" lon="-4.61976">
        <ele>99.544131</ele>
        <time>2022-12-09T14:51:35.504Z</time>
      </trkpt>
      <trkpt lat="48.43018" lon="-4.61963">
        <ele>99.392982</ele>
        <time>2022-12-09T14:51:38.505Z</time>
      </trkpt>
      <trkpt lat="48.43009" lon="-4.6195">
        <ele>99.228626</ele>
        <time>2022-12-09T14:51:41.505Z</time>
      </trkpt>
      <trkpt lat="48.43" lon="-4.61938">
        <ele>99.072258</ele>
        <time>2022-12-09T14:51:44.499Z</time>
      </trkpt>
      <trkpt lat="48.42991" lon="-4.61928">
        <ele>98.926742</ele>
        <time>2022-12-09T14:51:47.500Z</time>
      </trkpt>
      <trkpt lat="48.42981" lon="-4.6192">
        <ele>98.778528</ele>
        <time>2022-12-09T14:51:50.499Z</time>
      </trkpt>
      <trkpt lat="48.4297" lon="-4.61913">
        <ele>98.623653</ele>
        <time>2022-12-09T14:51:53.487Z</time>
      </trkpt>
      <trkpt lat="48.42958" lon="-4.61909">
        <ele>98.46156</ele>
        <time>2022-12-09T14:51:56.485Z</time>
      </trkpt>
      <trkpt lat="48.42946" lon="-4.61905">
        <ele>98.300828</ele>
        <time>2022-12-09T14:51:59.507Z</time>
      </trkpt>
      <trkpt lat="48.42934" lon="-4.61902">
        <ele>98.142379</ele>
        <time>2022-12-09T14:52:02.509Z</time>
      </trkpt>
      <trkpt lat="48.42923" lon="-4.61898">
        <ele>97.991162</ele>
        <time>2022-12-09T14:52:05.508Z</time>
      </trkpt>
      <trkpt lat="48.42912" lon="-4.61894">
        <ele>97.843811</ele>
        <time>2022-12-09T14:52:08.505Z</time>
      </trkpt>
      <trkpt lat="48.42902" lon="-4.61886">
        <ele>97.38899</ele>
        <time>2022-12-09T14:52:11.489Z</time>
      </trkpt>
      <trkpt lat="48.42892" lon="-4.61877">
        <ele>96.88191</ele>
        <time>2022-12-09T14:52:14.504Z</time>
      </trkpt>
      <trkpt lat="48.42881" lon="-4.61867">
        <ele>96.309365</ele>
        <time>2022-12-09T14:52:17.510Z</time>
      </trkpt>
      <trkpt lat="48.42874" lon="-4.61858">
        <ele>95.906093</ele>
        <time>2022-12-09T14:52:19.509Z</time>
      </trkpt>
      <trkpt lat="48.42865" lon="-4.61844">
        <ele>95.360264</ele>
        <time>2022-12-09T14:52:22.495Z</time>
      </trkpt>
      <trkpt lat="48.42856" lon="-4.61829">
        <ele>94.763927</ele>
        <time>2022-12-09T14:52:25.503Z</time>
      </trkpt>
      <trkpt lat="48.42849" lon="-4.61819">
        <ele>94.356066</ele>
        <time>2022-12-09T14:52:27.513Z</time>
      </trkpt>
      <trkpt lat="48.42842" lon="-4.61809">
        <ele>93.957412</ele>
        <time>2022-12-09T14:52:29.504Z</time>
      </trkpt>
      <trkpt lat="48.42836" lon="-4.61799">
        <ele>93.564257</ele>
        <time>2022-12-09T14:52:31.507Z</time>
      </trkpt>
      <trkpt lat="48.42829" lon="-4.61789">
        <ele>93.130753</ele>
        <time>2022-12-09T14:52:33.499Z</time>
      </trkpt>
      <trkpt lat="48.42822" lon="-4.61777">
        <ele>92.681896</ele>
        <time>2022-12-09T14:52:35.483Z</time>
      </trkpt>
      <trkpt lat="48.42815" lon="-4.61767">
        <ele>92.255665</ele>
        <time>2022-12-09T14:52:37.506Z</time>
      </trkpt>
      <trkpt lat="48.42808" lon="-4.61757">
        <ele>91.826855</ele>
        <time>2022-12-09T14:52:39.506Z</time>
      </trkpt>
      <trkpt lat="48.42802" lon="-4.61747">
        <ele>91.430802</ele>
        <time>2022-12-09T14:52:41.509Z</time>
      </trkpt>
      <trkpt lat="48.42795" lon="-4.61736">
        <ele>90.998408</ele>
        <time>2022-12-09T14:52:43.506Z</time>
      </trkpt>
      <trkpt lat="48.42788" lon="-4.61725">
        <ele>90.565607</ele>
        <time>2022-12-09T14:52:45.504Z</time>
      </trkpt>
      <trkpt lat="48.42781" lon="-4.61714">
        <ele>90.120554</ele>
        <time>2022-12-09T14:52:47.511Z</time>
      </trkpt>
      <trkpt lat="48.42774" lon="-4.61703">
        <ele>89.762038</ele>
        <time>2022-12-09T14:52:49.519Z</time>
      </trkpt>
      <trkpt lat="48.42767" lon="-4.61694">
        <ele>89.46167</ele>
        <time>2022-12-09T14:52:51.509Z</time>
      </trkpt>
      <trkpt lat="48.4276" lon="-4.61684">
        <ele>89.160751</ele>
        <time>2022-12-09T14:52:53.494Z</time>
      </trkpt>
      <trkpt lat="48.42752" lon="-4.61672">
        <ele>88.815356</ele>
        <time>2022-12-09T14:52:56.510Z</time>
      </trkpt>
      <trkpt lat="48.42745" lon="-4.61661">
        <ele>88.468448</ele>
        <time>2022-12-09T14:52:59.514Z</time>
      </trkpt>
      <trkpt lat="48.42735" lon="-4.61646">
        <ele>88.02778</ele>
        <time>2022-12-09T14:53:02.510Z</time>
      </trkpt>
      <trkpt lat="48.42728" lon="-4.61634">
        <ele>87.690233</ele>
        <time>2022-12-09T14:53:04.509Z</time>
      </trkpt>
      <trkpt lat="48.42721" lon="-4.61623">
        <ele>87.341826</ele>
        <time>2022-12-09T14:53:06.505Z</time>
      </trkpt>
      <trkpt lat="48.42712" lon="-4.61612">
        <ele>86.986598</ele>
        <time>2022-12-09T14:53:08.496Z</time>
      </trkpt>
      <trkpt lat="48.42703" lon="-4.61602">
        <ele>86.629814</ele>
        <time>2022-12-09T14:53:10.489Z</time>
      </trkpt>
      <trkpt lat="48.42694" lon="-4.6159">
        <ele>86.255796</ele>
        <time>2022-12-09T14:53:12.503Z</time>
      </trkpt>
      <trkpt lat="48.42686" lon="-4.61579">
        <ele>85.903405</ele>
        <time>2022-12-09T14:53:14.502Z</time>
      </trkpt>
      <trkpt lat="48.42679" lon="-4.61567">
        <ele>85.55271</ele>
        <time>2022-12-09T14:53:16.506Z</time>
      </trkpt>
      <trkpt lat="48.42672" lon="-4.61558">
        <ele>85.24687</ele>
        <time>2022-12-09T14:53:18.504Z</time>
      </trkpt>
      <trkpt lat="48.42662" lon="-4.61547">
        <ele>84.85799</ele>
        <time>2022-12-09T14:53:21.502Z</time>
      </trkpt>
      <trkpt lat="48.42653" lon="-4.6154">
        <ele>84.524822</ele>
        <time>2022-12-09T14:53:24.491Z</time>
      </trkpt>
      <trkpt lat="48.42645" lon="-4.61529">
        <ele>84.232355</ele>
        <time>2022-12-09T14:53:27.490Z</time>
      </trkpt>
      <trkpt lat="48.42639" lon="-4.61514">
        <ele>84.28575</ele>
        <time>2022-12-09T14:53:30.493Z</time>
      </trkpt>
      <trkpt lat="48.42631" lon="-4.61498">
        <ele>84.341898</ele>
        <time>2022-12-09T14:53:33.489Z</time>
      </trkpt>
      <trkpt lat="48.42624" lon="-4.61484">
        <ele>84.393849</ele>
        <time>2022-12-09T14:53:36.508Z</time>
      </trkpt>
      <trkpt lat="48.42618" lon="-4.6147">
        <ele>84.444061</ele>
        <time>2022-12-09T14:53:39.507Z</time>
      </trkpt>
      <trkpt lat="48.42613" lon="-4.61454">
        <ele>84.495351</ele>
        <time>2022-12-09T14:53:42.508Z</time>
      </trkpt>
      <trkpt lat="48.42609" lon="-4.6144">
        <ele>84.541898</ele>
        <time>2022-12-09T14:53:45.508Z</time>
      </trkpt>
      <trkpt lat="48.42602" lon="-4.61431">
        <ele>84.584098</ele>
        <time>2022-12-09T14:53:48.494Z</time>
      </trkpt>
      <trkpt lat="48.42592" lon="-4.61424">
        <ele>84.628541</ele>
        <time>2022-12-09T14:53:51.485Z</time>
      </trkpt>
      <trkpt lat="48.42584" lon="-4.61419">
        <ele>84.668733</ele>
        <time>2022-12-09T14:53:54.491Z</time>
      </trkpt>
      <trkpt lat="48.42578" lon="-4.61407">
        <ele>84.715086</ele>
        <time>2022-12-09T14:53:59.504Z</time>
      </trkpt>
      <trkpt lat="48.42582" lon="-4.61395">
        <ele>84.755936</ele>
        <time>2022-12-09T14:54:05.489Z</time>
      </trkpt>
      <trkpt lat="48.42586" lon="-4.61379">
        <ele>84.803902</ele>
        <time>2022-12-09T14:54:09.495Z</time>
      </trkpt>
      <trkpt lat="48.42587" lon="-4.61364">
        <ele>84.84985</ele>
        <time>2022-12-09T14:54:12.489Z</time>
      </trkpt>
      <trkpt lat="48.42587" lon="-4.61349">
        <ele>84.893111</ele>
        <time>2022-12-09T14:54:15.496Z</time>
      </trkpt>
      <trkpt lat="48.42588" lon="-4.61334">
        <ele>84.937488</ele>
        <time>2022-12-09T14:54:18.504Z</time>
      </trkpt>
      <trkpt lat="48.42589" lon="-4.61321">
        <ele>84.978189</ele>
        <time>2022-12-09T14:54:21.494Z</time>
      </trkpt>
      <trkpt lat="48.42591" lon="-4.61303">
        <ele>85.025479</ele>
        <time>2022-12-09T14:54:25.498Z</time>
      </trkpt>
      <trkpt lat="48.42592" lon="-4.61286">
        <ele>84.993153</ele>
        <time>2022-12-09T14:54:29.490Z</time>
      </trkpt>
      <trkpt lat="48.42593" lon="-4.61269">
        <ele>84.962485</ele>
        <time>2022-12-09T14:54:33.491Z</time>
      </trkpt>
      <trkpt lat="48.42593" lon="-4.61253">
        <ele>84.931459</ele>
        <time>2022-12-09T14:54:37.495Z</time>
      </trkpt>
      <trkpt lat="48.42594" lon="-4.61236">
        <ele>84.89961</ele>
        <time>2022-12-09T14:54:41.488Z</time>
      </trkpt>
      <trkpt lat="48.42594" lon="-4.61218">
        <ele>84.866889</ele>
        <time>2022-12-09T14:54:45.503Z</time>
      </trkpt>
      <trkpt lat="48.42595" lon="-4.61202">
        <ele>84.836747</ele>
        <time>2022-12-09T14:54:49.504Z</time>
      </trkpt>
      <trkpt lat="48.42596" lon="-4.61187">
        <ele>84.808476</ele>
        <time>2022-12-09T14:54:53.504Z</time>
      </trkpt>
      <trkpt lat="48.42597" lon="-4.6117">
        <ele>84.777809</ele>
        <time>2022-12-09T14:54:57.496Z</time>
      </trkpt>
      <trkpt lat="48.42598" lon="-4.61154">
        <ele>84.747313</ele>
        <time>2022-12-09T14:55:02.503Z</time>
      </trkpt>
      <trkpt lat="48.42599" lon="-4.61138">
        <ele>84.718583</ele>
        <time>2022-12-09T14:55:08.505Z</time>
      </trkpt>
      <trkpt lat="48.426" lon="-4.61122">
        <ele>84.687055</ele>
        <time>2022-12-09T14:55:14.491Z</time>
      </trkpt>
      <trkpt lat="48.42601" lon="-4.61104">
        <ele>84.654205</ele>
        <time>2022-12-09T14:55:18.509Z</time>
      </trkpt>
      <trkpt lat="48.42602" lon="-4.61087">
        <ele>84.621753</ele>
        <time>2022-12-09T14:55:22.496Z</time>
      </trkpt>
      <trkpt lat="48.42601" lon="-4.61072">
        <ele>84.594954</ele>
        <time>2022-12-09T14:55:25.490Z</time>
      </trkpt>
      <trkpt lat="48.42596" lon="-4.61059">
        <ele>84.567401</ele>
        <time>2022-12-09T14:55:29.498Z</time>
      </trkpt>
      <trkpt lat="48.42596" lon="-4.61043">
        <ele>84.537832</ele>
        <time>2022-12-09T14:55:34.503Z</time>
      </trkpt>
      <trkpt lat="48.426" lon="-4.61029">
        <ele>84.503558</ele>
        <time>2022-12-09T14:55:39.486Z</time>
      </trkpt>
      <trkpt lat="48.42601" lon="-4.61014">
        <ele>84.464092</ele>
        <time>2022-12-09T14:55:42.493Z</time>
      </trkpt>
      <trkpt lat="48.42599" lon="-4.60999">
        <ele>84.422582</ele>
        <time>2022-12-09T14:55:45.487Z</time>
      </trkpt>
      <trkpt lat="48.42597" lon="-4.60984">
        <ele>84.384337</ele>
        <time>2022-12-09T14:55:48.496Z</time>
      </trkpt>
      <trkpt lat="48.42595" lon="-4.60955">
        <ele>84.30731</ele>
        <time>2022-12-09T14:56:24.500Z</time>
      </trkpt>
      <trkpt lat="48.42594" lon="-4.60939">
        <ele>84.265054</ele>
        <time>2022-12-09T14:56:27.516Z</time>
      </trkpt>
      <trkpt lat="48.42594" lon="-4.60923">
        <ele>84.22438</ele>
        <time>2022-12-09T14:56:30.513Z</time>
      </trkpt>
      <trkpt lat="48.42594" lon="-4.60905">
        <ele>84.178484</ele>
        <time>2022-12-09T14:56:34.504Z</time>
      </trkpt>
      <trkpt lat="48.42595" lon="-4.60892">
        <ele>84.142737</ele>
        <time>2022-12-09T14:56:37.525Z</time>
      </trkpt>
      <trkpt lat="48.42595" lon="-4.60878">
        <ele>84.10725</ele>
        <time>2022-12-09T14:56:40.506Z</time>
      </trkpt>
      <trkpt lat="48.42597" lon="-4.60863">
        <ele>84.066639</ele>
        <time>2022-12-09T14:56:43.509Z</time>
      </trkpt>
      <trkpt lat="48.42597" lon="-4.60847">
        <ele>84.025457</ele>
        <time>2022-12-09T14:56:46.510Z</time>
      </trkpt>
      <trkpt lat="48.42597" lon="-4.60832">
        <ele>83.986359</ele>
        <time>2022-12-09T14:56:49.505Z</time>
      </trkpt>
      <trkpt lat="48.42597" lon="-4.60815">
        <ele>83.941745</ele>
        <time>2022-12-09T14:56:52.504Z</time>
      </trkpt>
      <trkpt lat="48.42597" lon="-4.60797">
        <ele>83.896044</ele>
        <time>2022-12-09T14:56:55.508Z</time>
      </trkpt>
      <trkpt lat="48.42596" lon="-4.6078">
        <ele>83.850129</ele>
        <time>2022-12-09T14:56:58.487Z</time>
      </trkpt>
      <trkpt lat="48.42596" lon="-4.60765">
        <ele>83.822696</ele>
        <time>2022-12-09T14:57:01.522Z</time>
      </trkpt>
      <trkpt lat="48.42593" lon="-4.6075">
        <ele>83.854711</ele>
        <time>2022-12-09T14:57:04.519Z</time>
      </trkpt>
      <trkpt lat="48.42586" lon="-4.6074">
        <ele>83.884067</ele>
        <time>2022-12-09T14:57:07.487Z</time>
      </trkpt>
      <trkpt lat="48.42576" lon="-4.60731">
        <ele>83.91809</ele>
        <time>2022-12-09T14:57:11.488Z</time>
      </trkpt>
      <trkpt lat="48.42567" lon="-4.60724">
        <ele>83.9501</ele>
        <time>2022-12-09T14:57:15.497Z</time>
      </trkpt>
      <trkpt lat="48.42556" lon="-4.60722">
        <ele>83.98141</ele>
        <time>2022-12-09T14:57:20.495Z</time>
      </trkpt>
      <trkpt lat="48.42547" lon="-4.60718">
        <ele>84.01206</ele>
        <time>2022-12-09T14:57:25.490Z</time>
      </trkpt>
      <trkpt lat="48.42537" lon="-4.6071">
        <ele>84.046964</ele>
        <time>2022-12-09T14:57:29.498Z</time>
      </trkpt>
      <trkpt lat="48.42532" lon="-4.60694">
        <ele>84.081067</ele>
        <time>2022-12-09T14:57:33.497Z</time>
      </trkpt>
      <trkpt lat="48.42526" lon="-4.60682">
        <ele>84.112795</ele>
        <time>2022-12-09T14:57:37.506Z</time>
      </trkpt>
      <trkpt lat="48.42523" lon="-4.60666">
        <ele>84.144776</ele>
        <time>2022-12-09T14:57:42.511Z</time>
      </trkpt>
      <trkpt lat="48.42524" lon="-4.60651">
        <ele>84.175119</ele>
        <time>2022-12-09T14:57:46.511Z</time>
      </trkpt>
      <trkpt lat="48.42525" lon="-4.60635">
        <ele>84.206617</ele>
        <time>2022-12-09T14:57:50.508Z</time>
      </trkpt>
      <trkpt lat="48.42527" lon="-4.60619">
        <ele>84.239818</ele>
        <time>2022-12-09T14:57:54.505Z</time>
      </trkpt>
      <trkpt lat="48.42531" lon="-4.60607">
        <ele>84.2672</ele>
        <time>2022-12-09T14:57:58.512Z</time>
      </trkpt>
      <trkpt lat="48.42537" lon="-4.60594">
        <ele>84.299198</ele>
        <time>2022-12-09T14:58:02.493Z</time>
      </trkpt>
      <trkpt lat="48.4255" lon="-4.6058">
        <ele>84.348616</ele>
        <time>2022-12-09T14:58:43.501Z</time>
      </trkpt>
      <trkpt lat="48.42558" lon="-4.60569">
        <ele>84.343294</ele>
        <time>2022-12-09T14:58:46.495Z</time>
      </trkpt>
      <trkpt lat="48.42565" lon="-4.60556">
        <ele>84.311822</ele>
        <time>2022-12-09T14:58:49.490Z</time>
      </trkpt>
      <trkpt lat="48.4257" lon="-4.6054">
        <ele>84.278584</ele>
        <time>2022-12-09T14:58:52.494Z</time>
      </trkpt>
      <trkpt lat="48.42574" lon="-4.60523">
        <ele>84.243231</ele>
        <time>2022-12-09T14:58:55.499Z</time>
      </trkpt>
      <trkpt lat="48.42578" lon="-4.60506">
        <ele>84.206679</ele>
        <time>2022-12-09T14:58:58.520Z</time>
      </trkpt>
      <trkpt lat="48.42584" lon="-4.60488">
        <ele>84.169485</ele>
        <time>2022-12-09T14:59:01.508Z</time>
      </trkpt>
      <trkpt lat="48.42589" lon="-4.6047">
        <ele>84.130626</ele>
        <time>2022-12-09T14:59:04.506Z</time>
      </trkpt>
      <trkpt lat="48.42593" lon="-4.60457">
        <ele>84.102881</ele>
        <time>2022-12-09T14:59:06.511Z</time>
      </trkpt>
      <trkpt lat="48.42596" lon="-4.60444">
        <ele>84.076244</ele>
        <time>2022-12-09T14:59:08.524Z</time>
      </trkpt>
      <trkpt lat="48.42601" lon="-4.60426">
        <ele>84.038034</ele>
        <time>2022-12-09T14:59:11.511Z</time>
      </trkpt>
      <trkpt lat="48.42607" lon="-4.60407">
        <ele>83.999242</ele>
        <time>2022-12-09T14:59:14.508Z</time>
      </trkpt>
      <trkpt lat="48.42612" lon="-4.6039">
        <ele>83.961398</ele>
        <time>2022-12-09T14:59:17.501Z</time>
      </trkpt>
      <trkpt lat="48.42616" lon="-4.60372">
        <ele>83.924631</ele>
        <time>2022-12-09T14:59:20.520Z</time>
      </trkpt>
      <trkpt lat="48.42623" lon="-4.6036">
        <ele>83.893874</ele>
        <time>2022-12-09T14:59:24.501Z</time>
      </trkpt>
      <trkpt lat="48.42631" lon="-4.60354">
        <ele>83.86713</ele>
        <time>2022-12-09T14:59:29.490Z</time>
      </trkpt>
      <trkpt lat="48.42638" lon="-4.60341">
        <ele>83.83586</ele>
        <time>2022-12-09T14:59:33.487Z</time>
      </trkpt>
      <trkpt lat="48.42643" lon="-4.60329">
        <ele>83.810434</ele>
        <time>2022-12-09T14:59:36.495Z</time>
      </trkpt>
      <trkpt lat="48.42643" lon="-4.60315">
        <ele>83.784126</ele>
        <time>2022-12-09T14:59:39.495Z</time>
      </trkpt>
      <trkpt lat="48.4264" lon="-4.60299">
        <ele>83.753402</ele>
        <time>2022-12-09T14:59:42.498Z</time>
      </trkpt>
      <trkpt lat="48.42637" lon="-4.60283">
        <ele>83.722911</ele>
        <time>2022-12-09T14:59:45.498Z</time>
      </trkpt>
      <trkpt lat="48.42635" lon="-4.60269">
        <ele>83.697096</ele>
        <time>2022-12-09T14:59:48.508Z</time>
      </trkpt>
      <trkpt lat="48.42632" lon="-4.60254">
        <ele>83.668705</ele>
        <time>2022-12-09T14:59:51.492Z</time>
      </trkpt>
      <trkpt lat="48.42629" lon="-4.60237">
        <ele>83.636877</ele>
        <time>2022-12-09T14:59:54.510Z</time>
      </trkpt>
      <trkpt lat="48.42627" lon="-4.60222">
        <ele>83.608032</ele>
        <time>2022-12-09T14:59:57.510Z</time>
      </trkpt>
      <trkpt lat="48.42624" lon="-4.60206">
        <ele>83.578689</ele>
        <time>2022-12-09T15:00:00.500Z</time>
      </trkpt>
      <trkpt lat="48.42621" lon="-4.60191">
        <ele>83.550134</ele>
        <time>2022-12-09T15:00:03.506Z</time>
      </trkpt>
      <trkpt lat="48.42617" lon="-4.60174">
        <ele>83.516633</ele>
        <time>2022-12-09T15:00:07.517Z</time>
      </trkpt>
      <trkpt lat="48.42615" lon="-4.60159">
        <ele>83.488499</ele>
        <time>2022-12-09T15:00:10.509Z</time>
      </trkpt>
      <trkpt lat="48.42612" lon="-4.60142">
        <ele>83.457976</ele>
        <time>2022-12-09T15:00:13.521Z</time>
      </trkpt>
      <trkpt lat="48.42609" lon="-4.60126">
        <ele>83.427331</ele>
        <time>2022-12-09T15:00:16.489Z</time>
      </trkpt>
      <trkpt lat="48.42605" lon="-4.6011">
        <ele>83.396156</ele>
        <time>2022-12-09T15:00:19.507Z</time>
      </trkpt>
      <trkpt lat="48.42602" lon="-4.60095">
        <ele>83.367241</ele>
        <time>2022-12-09T15:00:22.510Z</time>
      </trkpt>
      <trkpt lat="48.426" lon="-4.60082">
        <ele>83.341948</ele>
        <time>2022-12-09T15:00:25.516Z</time>
      </trkpt>
      <trkpt lat="48.42596" lon="-4.60066">
        <ele>83.336045</ele>
        <time>2022-12-09T15:00:29.506Z</time>
      </trkpt>
      <trkpt lat="48.42593" lon="-4.60052">
        <ele>83.330777</ele>
        <time>2022-12-09T15:00:32.519Z</time>
      </trkpt>
      <trkpt lat="48.4259" lon="-4.60037">
        <ele>83.325426</ele>
        <time>2022-12-09T15:00:35.511Z</time>
      </trkpt>
      <trkpt lat="48.42588" lon="-4.60024">
        <ele>83.320555</ele>
        <time>2022-12-09T15:00:38.507Z</time>
      </trkpt>
      <trkpt lat="48.42584" lon="-4.60007">
        <ele>83.314132</ele>
        <time>2022-12-09T15:00:42.495Z</time>
      </trkpt>
      <trkpt lat="48.42581" lon="-4.59993">
        <ele>83.309063</ele>
        <time>2022-12-09T15:00:45.512Z</time>
      </trkpt>
      <trkpt lat="48.42579" lon="-4.59979">
        <ele>83.304062</ele>
        <time>2022-12-09T15:00:48.512Z</time>
      </trkpt>
      <trkpt lat="48.42576" lon="-4.59963">
        <ele>83.298187</ele>
        <time>2022-12-09T15:00:52.500Z</time>
      </trkpt>
      <trkpt lat="48.42572" lon="-4.59948">
        <ele>83.292601</ele>
        <time>2022-12-09T15:00:56.503Z</time>
      </trkpt>
      <trkpt lat="48.42569" lon="-4.59932">
        <ele>83.28661</ele>
        <time>2022-12-09T15:01:00.494Z</time>
      </trkpt>
      <trkpt lat="48.42567" lon="-4.59916">
        <ele>83.280933</ele>
        <time>2022-12-09T15:01:04.510Z</time>
      </trkpt>
      <trkpt lat="48.42564" lon="-4.59899">
        <ele>83.274538</ele>
        <time>2022-12-09T15:01:08.510Z</time>
      </trkpt>
      <trkpt lat="48.4256" lon="-4.59882">
        <ele>83.268282</ele>
        <time>2022-12-09T15:01:12.509Z</time>
      </trkpt>
      <trkpt lat="48.42557" lon="-4.59866">
        <ele>83.262512</ele>
        <time>2022-12-09T15:01:16.510Z</time>
      </trkpt>
      <trkpt lat="48.42554" lon="-4.5985">
        <ele>83.256691</ele>
        <time>2022-12-09T15:01:20.508Z</time>
      </trkpt>
      <trkpt lat="48.42552" lon="-4.59836">
        <ele>83.25141</ele>
        <time>2022-12-09T15:01:24.519Z</time>
      </trkpt>
      <trkpt lat="48.42548" lon="-4.59821">
        <ele>83.261988</ele>
        <time>2022-12-09T15:01:28.500Z</time>
      </trkpt>
      <trkpt lat="48.42545" lon="-4.59806">
        <ele>83.558648</ele>
        <time>2022-12-09T15:01:32.513Z</time>
      </trkpt>
      <trkpt lat="48.42542" lon="-4.5979">
        <ele>83.858925</ele>
        <time>2022-12-09T15:01:36.506Z</time>
      </trkpt>
      <trkpt lat="48.42539" lon="-4.59774">
        <ele>84.162538</ele>
        <time>2022-12-09T15:01:40.509Z</time>
      </trkpt>
      <trkpt lat="48.42534" lon="-4.5976">
        <ele>84.457032</ele>
        <time>2022-12-09T15:01:44.518Z</time>
      </trkpt>
      <trkpt lat="48.42531" lon="-4.59746">
        <ele>84.713667</ele>
        <time>2022-12-09T15:01:48.493Z</time>
      </trkpt>
      <trkpt lat="48.42526" lon="-4.59733">
        <ele>84.993496</ele>
        <time>2022-12-09T15:01:53.495Z</time>
      </trkpt>
      <trkpt lat="48.42521" lon="-4.59719">
        <ele>85.299903</ele>
        <time>2022-12-09T15:01:58.498Z</time>
      </trkpt>
      <trkpt lat="48.42516" lon="-4.59705">
        <ele>85.571945</ele>
        <time>2022-12-09T15:02:02.496Z</time>
      </trkpt>
      <trkpt lat="48.42512" lon="-4.59691">
        <ele>85.862561</ele>
        <time>2022-12-09T15:02:06.519Z</time>
      </trkpt>
      <trkpt lat="48.42508" lon="-4.59676">
        <ele>86.167154</ele>
        <time>2022-12-09T15:02:10.510Z</time>
      </trkpt>
      <trkpt lat="48.42502" lon="-4.59662">
        <ele>86.452981</ele>
        <time>2022-12-09T15:02:14.503Z</time>
      </trkpt>
      <trkpt lat="48.42498" lon="-4.59647">
        <ele>86.755301</ele>
        <time>2022-12-09T15:02:18.495Z</time>
      </trkpt>
      <trkpt lat="48.42492" lon="-4.59632">
        <ele>87.06521</ele>
        <time>2022-12-09T15:02:22.488Z</time>
      </trkpt>
      <trkpt lat="48.42487" lon="-4.59617">
        <ele>87.37912</ele>
        <time>2022-12-09T15:02:26.520Z</time>
      </trkpt>
      <trkpt lat="48.42482" lon="-4.59603">
        <ele>87.677056</ele>
        <time>2022-12-09T15:02:30.509Z</time>
      </trkpt>
      <trkpt lat="48.42477" lon="-4.59587">
        <ele>87.993447</ele>
        <time>2022-12-09T15:02:34.510Z</time>
      </trkpt>
      <trkpt lat="48.42472" lon="-4.59573">
        <ele>88.293475</ele>
        <time>2022-12-09T15:02:38.512Z</time>
      </trkpt>
      <trkpt lat="48.42467" lon="-4.59558">
        <ele>88.592422</ele>
        <time>2022-12-09T15:02:42.515Z</time>
      </trkpt>
      <trkpt lat="48.42462" lon="-4.59544">
        <ele>88.880964</ele>
        <time>2022-12-09T15:02:46.513Z</time>
      </trkpt>
      <trkpt lat="48.42458" lon="-4.5953">
        <ele>89.138036</ele>
        <time>2022-12-09T15:02:50.512Z</time>
      </trkpt>
      <trkpt lat="48.42454" lon="-4.59518">
        <ele>89.391342</ele>
        <time>2022-12-09T15:02:54.506Z</time>
      </trkpt>
      <trkpt lat="48.4245" lon="-4.59504">
        <ele>89.666733</ele>
        <time>2022-12-09T15:02:58.509Z</time>
      </trkpt>
      <trkpt lat="48.42444" lon="-4.59489">
        <ele>89.958113</ele>
        <time>2022-12-09T15:03:02.492Z</time>
      </trkpt>
      <trkpt lat="48.4244" lon="-4.59477">
        <ele>90.214213</ele>
        <time>2022-12-09T15:03:05.503Z</time>
      </trkpt>
      <trkpt lat="48.42434" lon="-4.59464">
        <ele>90.482267</ele>
        <time>2022-12-09T15:03:08.505Z</time>
      </trkpt>
      <trkpt lat="48.4243" lon="-4.59451">
        <ele>90.735574</ele>
        <time>2022-12-09T15:03:11.515Z</time>
      </trkpt>
      <trkpt lat="48.42427" lon="-4.59439">
        <ele>90.97991</ele>
        <time>2022-12-09T15:03:14.515Z</time>
      </trkpt>
      <trkpt lat="48.42421" lon="-4.59424">
        <ele>91.279195</ele>
        <time>2022-12-09T15:03:18.516Z</time>
      </trkpt>
      <trkpt lat="48.42417" lon="-4.59409">
        <ele>91.573264</ele>
        <time>2022-12-09T15:03:22.520Z</time>
      </trkpt>
      <trkpt lat="48.42413" lon="-4.59395">
        <ele>91.843283</ele>
        <time>2022-12-09T15:03:26.512Z</time>
      </trkpt>
      <trkpt lat="48.42408" lon="-4.5938">
        <ele>92.138543</ele>
        <time>2022-12-09T15:03:31.512Z</time>
      </trkpt>
      <trkpt lat="48.42403" lon="-4.59365">
        <ele>92.443888</ele>
        <time>2022-12-09T15:03:35.511Z</time>
      </trkpt>
      <trkpt lat="48.42399" lon="-4.59348">
        <ele>92.770063</ele>
        <time>2022-12-09T15:03:39.511Z</time>
      </trkpt>
      <trkpt lat="48.42396" lon="-4.59333">
        <ele>93.040736</ele>
        <time>2022-12-09T15:03:42.514Z</time>
      </trkpt>
      <trkpt lat="48.4239" lon="-4.59319">
        <ele>93.207729</ele>
        <time>2022-12-09T15:03:46.502Z</time>
      </trkpt>
      <trkpt lat="48.42386" lon="-4.59306">
        <ele>93.34856</ele>
        <time>2022-12-09T15:03:49.521Z</time>
      </trkpt>
      <trkpt lat="48.42383" lon="-4.59292">
        <ele>93.489655</ele>
        <time>2022-12-09T15:03:52.509Z</time>
      </trkpt>
      <trkpt lat="48.4238" lon="-4.59279">
        <ele>93.620396</ele>
        <time>2022-12-09T15:03:55.518Z</time>
      </trkpt>
      <trkpt lat="48.42378" lon="-4.59266">
        <ele>93.752861</ele>
        <time>2022-12-09T15:03:58.512Z</time>
      </trkpt>
      <trkpt lat="48.42375" lon="-4.59249">
        <ele>93.913807</ele>
        <time>2022-12-09T15:04:02.505Z</time>
      </trkpt>
      <trkpt lat="48.42372" lon="-4.59232">
        <ele>94.082671</ele>
        <time>2022-12-09T15:04:06.510Z</time>
      </trkpt>
      <trkpt lat="48.42369" lon="-4.59215">
        <ele>94.255623</ele>
        <time>2022-12-09T15:04:10.494Z</time>
      </trkpt>
      <trkpt lat="48.42368" lon="-4.59202">
        <ele>94.386607</ele>
        <time>2022-12-09T15:04:13.515Z</time>
      </trkpt>
      <trkpt lat="48.42366" lon="-4.59188">
        <ele>94.522814</ele>
        <time>2022-12-09T15:04:16.514Z</time>
      </trkpt>
      <trkpt lat="48.42364" lon="-4.59174">
        <ele>94.657766</ele>
        <time>2022-12-09T15:04:19.518Z</time>
      </trkpt>
      <trkpt lat="48.42362" lon="-4.59161">
        <ele>94.791162</ele>
        <time>2022-12-09T15:04:22.513Z</time>
      </trkpt>
      <trkpt lat="48.42359" lon="-4.59146">
        <ele>94.935523</ele>
        <time>2022-12-09T15:04:25.518Z</time>
      </trkpt>
      <trkpt lat="48.42357" lon="-4.5913">
        <ele>95.092157</ele>
        <time>2022-12-09T15:04:28.511Z</time>
      </trkpt>
      <trkpt lat="48.42355" lon="-4.59114">
        <ele>95.250009</ele>
        <time>2022-12-09T15:04:31.510Z</time>
      </trkpt>
      <trkpt lat="48.42353" lon="-4.59098">
        <ele>95.406643</ele>
        <time>2022-12-09T15:04:34.511Z</time>
      </trkpt>
      <trkpt lat="48.42351" lon="-4.59083">
        <ele>95.555068</ele>
        <time>2022-12-09T15:04:37.508Z</time>
      </trkpt>
      <trkpt lat="48.42348" lon="-4.59069">
        <ele>95.675998</ele>
        <time>2022-12-09T15:04:40.519Z</time>
      </trkpt>
      <trkpt lat="48.42346" lon="-4.59054">
        <ele>95.740263</ele>
        <time>2022-12-09T15:04:43.508Z</time>
      </trkpt>
      <trkpt lat="48.42343" lon="-4.59038">
        <ele>95.807705</ele>
        <time>2022-12-09T15:04:46.516Z</time>
      </trkpt>
      <trkpt lat="48.42341" lon="-4.59021">
        <ele>95.876632</ele>
        <time>2022-12-09T15:04:49.503Z</time>
      </trkpt>
      <trkpt lat="48.42338" lon="-4.59004">
        <ele>95.949341</ele>
        <time>2022-12-09T15:04:52.515Z</time>
      </trkpt>
      <trkpt lat="48.42335" lon="-4.58988">
        <ele>96.019335</ele>
        <time>2022-12-09T15:04:55.519Z</time>
      </trkpt>
      <trkpt lat="48.42332" lon="-4.58974">
        <ele>96.079376</ele>
        <time>2022-12-09T15:04:58.498Z</time>
      </trkpt>
      <trkpt lat="48.42327" lon="-4.58958">
        <ele>96.150831</ele>
        <time>2022-12-09T15:05:02.506Z</time>
      </trkpt>
      <trkpt lat="48.42323" lon="-4.58946">
        <ele>96.209116</ele>
        <time>2022-12-09T15:05:05.513Z</time>
      </trkpt>
      <trkpt lat="48.42318" lon="-4.58932">
        <ele>96.273379</ele>
        <time>2022-12-09T15:05:08.493Z</time>
      </trkpt>
      <trkpt lat="48.42312" lon="-4.58919">
        <ele>96.337573</ele>
        <time>2022-12-09T15:05:11.510Z</time>
      </trkpt>
      <trkpt lat="48.42306" lon="-4.58906">
        <ele>96.401764</ele>
        <time>2022-12-09T15:05:14.510Z</time>
      </trkpt>
      <trkpt lat="48.42301" lon="-4.58895">
        <ele>96.459799</ele>
        <time>2022-12-09T15:05:17.521Z</time>
      </trkpt>
      <trkpt lat="48.42296" lon="-4.58883">
        <ele>96.515756</ele>
        <time>2022-12-09T15:05:20.495Z</time>
      </trkpt>
      <trkpt lat="48.42291" lon="-4.58871">
        <ele>96.572596</ele>
        <time>2022-12-09T15:05:23.520Z</time>
      </trkpt>
      <trkpt lat="48.42286" lon="-4.58856">
        <ele>96.642028</ele>
        <time>2022-12-09T15:05:27.515Z</time>
      </trkpt>
      <trkpt lat="48.42282" lon="-4.58844">
        <ele>96.699396</ele>
        <time>2022-12-09T15:05:30.503Z</time>
      </trkpt>
      <trkpt lat="48.42276" lon="-4.58831">
        <ele>96.764014</ele>
        <time>2022-12-09T15:05:33.515Z</time>
      </trkpt>
      <trkpt lat="48.42272" lon="-4.58818">
        <ele>97.035301</ele>
        <time>2022-12-09T15:05:36.515Z</time>
      </trkpt>
      <trkpt lat="48.42267" lon="-4.58804">
        <ele>97.370623</ele>
        <time>2022-12-09T15:05:39.511Z</time>
      </trkpt>
      <trkpt lat="48.42262" lon="-4.58791">
        <ele>97.696732</ele>
        <time>2022-12-09T15:05:42.517Z</time>
      </trkpt>
      <trkpt lat="48.42257" lon="-4.58778">
        <ele>98.020381</ele>
        <time>2022-12-09T15:05:45.510Z</time>
      </trkpt>
      <trkpt lat="48.42253" lon="-4.58766">
        <ele>98.319773</ele>
        <time>2022-12-09T15:05:48.515Z</time>
      </trkpt>
      <trkpt lat="48.42248" lon="-4.58751">
        <ele>98.690805</ele>
        <time>2022-12-09T15:05:52.519Z</time>
      </trkpt>
      <trkpt lat="48.42245" lon="-4.58737">
        <ele>98.994173</ele>
        <time>2022-12-09T15:05:55.493Z</time>
      </trkpt>
      <trkpt lat="48.42242" lon="-4.58724">
        <ele>99.312082</ele>
        <time>2022-12-09T15:05:58.505Z</time>
      </trkpt>
      <trkpt lat="48.42238" lon="-4.58711">
        <ele>99.61131</ele>
        <time>2022-12-09T15:06:01.508Z</time>
      </trkpt>
      <trkpt lat="48.42236" lon="-4.58695">
        <ele>99.96559</ele>
        <time>2022-12-09T15:06:05.507Z</time>
      </trkpt>
      <trkpt lat="48.42237" lon="-4.58678">
        <ele>100.336327</ele>
        <time>2022-12-09T15:06:10.518Z</time>
      </trkpt>
      <trkpt lat="48.42235" lon="-4.58662">
        <ele>100.696762</ele>
        <time>2022-12-09T15:06:14.500Z</time>
      </trkpt>
      <trkpt lat="48.42233" lon="-4.58647">
        <ele>101.043377</ele>
        <time>2022-12-09T15:06:18.513Z</time>
      </trkpt>
      <trkpt lat="48.42231" lon="-4.58631">
        <ele>101.386752</ele>
        <time>2022-12-09T15:06:22.494Z</time>
      </trkpt>
      <trkpt lat="48.42229" lon="-4.58616">
        <ele>101.733197</ele>
        <time>2022-12-09T15:06:26.498Z</time>
      </trkpt>
      <trkpt lat="48.42228" lon="-4.586">
        <ele>102.072076</ele>
        <time>2022-12-09T15:06:31.496Z</time>
      </trkpt>
      <trkpt lat="48.42229" lon="-4.58585">
        <ele>102.407763</ele>
        <time>2022-12-09T15:06:35.517Z</time>
      </trkpt>
      <trkpt lat="48.4223" lon="-4.58568">
        <ele>102.776131</ele>
        <time>2022-12-09T15:06:40.510Z</time>
      </trkpt>
      <trkpt lat="48.4223" lon="-4.58553">
        <ele>103.128249</ele>
        <time>2022-12-09T15:06:44.515Z</time>
      </trkpt>
      <trkpt lat="48.42231" lon="-4.58537">
        <ele>103.494171</ele>
        <time>2022-12-09T15:06:48.510Z</time>
      </trkpt>
      <trkpt lat="48.42232" lon="-4.58521">
        <ele>103.87733</ele>
        <time>2022-12-09T15:06:52.518Z</time>
      </trkpt>
      <trkpt lat="48.42234" lon="-4.58506">
        <ele>104.224689</ele>
        <time>2022-12-09T15:06:56.506Z</time>
      </trkpt>
      <trkpt lat="48.42236" lon="-4.58491">
        <ele>104.60259</ele>
        <time>2022-12-09T15:07:00.499Z</time>
      </trkpt>
      <trkpt lat="48.42239" lon="-4.58475">
        <ele>104.973343</ele>
        <time>2022-12-09T15:07:04.506Z</time>
      </trkpt>
      <trkpt lat="48.42242" lon="-4.58462">
        <ele>105.306185</ele>
        <time>2022-12-09T15:07:08.503Z</time>
      </trkpt>
      <trkpt lat="48.42245" lon="-4.58448">
        <ele>105.636336</ele>
        <time>2022-12-09T15:07:12.515Z</time>
      </trkpt>
      <trkpt lat="48.42248" lon="-4.58435">
        <ele>105.972782</ele>
        <time>2022-12-09T15:07:16.505Z</time>
      </trkpt>
      <trkpt lat="48.42252" lon="-4.58422">
        <ele>106.300415</ele>
        <time>2022-12-09T15:07:20.494Z</time>
      </trkpt>
      <trkpt lat="48.42256" lon="-4.5841">
        <ele>106.621458</ele>
        <time>2022-12-09T15:07:24.491Z</time>
      </trkpt>
      <trkpt lat="48.42261" lon="-4.58397">
        <ele>106.944989</ele>
        <time>2022-12-09T15:07:27.514Z</time>
      </trkpt>
      <trkpt lat="48.42265" lon="-4.58385">
        <ele>107.265226</ele>
        <time>2022-12-09T15:07:30.520Z</time>
      </trkpt>
      <trkpt lat="48.42271" lon="-4.5837">
        <ele>107.682643</ele>
        <time>2022-12-09T15:07:34.512Z</time>
      </trkpt>
      <trkpt lat="48.42277" lon="-4.58357">
        <ele>108.047636</ele>
        <time>2022-12-09T15:07:38.510Z</time>
      </trkpt>
      <trkpt lat="48.42283" lon="-4.58344">
        <ele>108.424274</ele>
        <time>2022-12-09T15:07:42.514Z</time>
      </trkpt>
      <trkpt lat="48.42289" lon="-4.5833">
        <ele>108.804791</ele>
        <time>2022-12-09T15:07:46.519Z</time>
      </trkpt>
      <trkpt lat="48.42295" lon="-4.58318">
        <ele>109.119731</ele>
        <time>2022-12-09T15:07:50.520Z</time>
      </trkpt>
      <trkpt lat="48.42301" lon="-4.58306">
        <ele>109.348866</ele>
        <time>2022-12-09T15:07:54.490Z</time>
      </trkpt>
      <trkpt lat="48.42309" lon="-4.58293">
        <ele>109.624411</ele>
        <time>2022-12-09T15:07:58.493Z</time>
      </trkpt>
      <trkpt lat="48.42315" lon="-4.5828">
        <ele>109.880039</ele>
        <time>2022-12-09T15:08:02.495Z</time>
      </trkpt>
      <trkpt lat="48.42321" lon="-4.58267">
        <ele>110.134964</ele>
        <time>2022-12-09T15:08:06.503Z</time>
      </trkpt>
      <trkpt lat="48.42328" lon="-4.58254">
        <ele>110.394806</ele>
        <time>2022-12-09T15:08:10.507Z</time>
      </trkpt>
      <trkpt lat="48.42333" lon="-4.58242">
        <ele>110.637069</ele>
        <time>2022-12-09T15:08:14.514Z</time>
      </trkpt>
      <trkpt lat="48.42339" lon="-4.58229">
        <ele>110.889962</ele>
        <time>2022-12-09T15:08:18.520Z</time>
      </trkpt>
      <trkpt lat="48.42345" lon="-4.58215">
        <ele>111.149605</ele>
        <time>2022-12-09T15:08:22.520Z</time>
      </trkpt>
      <trkpt lat="48.4235" lon="-4.58202">
        <ele>111.39594</ele>
        <time>2022-12-09T15:08:26.519Z</time>
      </trkpt>
      <trkpt lat="48.42355" lon="-4.58189">
        <ele>111.642516</ele>
        <time>2022-12-09T15:08:30.494Z</time>
      </trkpt>
      <trkpt lat="48.42359" lon="-4.58174">
        <ele>111.88981</ele>
        <time>2022-12-09T15:08:34.494Z</time>
      </trkpt>
      <trkpt lat="48.42362" lon="-4.58159">
        <ele>112.139967</ele>
        <time>2022-12-09T15:08:38.512Z</time>
      </trkpt>
      <trkpt lat="48.42365" lon="-4.58146">
        <ele>112.370456</ele>
        <time>2022-12-09T15:08:42.520Z</time>
      </trkpt>
      <trkpt lat="48.4237" lon="-4.58131">
        <ele>112.632536</ele>
        <time>2022-12-09T15:08:46.519Z</time>
      </trkpt>
      <trkpt lat="48.42374" lon="-4.58115">
        <ele>112.900978</ele>
        <time>2022-12-09T15:08:50.496Z</time>
      </trkpt>
      <trkpt lat="48.42377" lon="-4.58101">
        <ele>113.140521</ele>
        <time>2022-12-09T15:08:54.517Z</time>
      </trkpt>
      <trkpt lat="48.42379" lon="-4.58086">
        <ele>113.365017</ele>
        <time>2022-12-09T15:08:58.513Z</time>
      </trkpt>
      <trkpt lat="48.42382" lon="-4.58071">
        <ele>113.504231</ele>
        <time>2022-12-09T15:09:02.525Z</time>
      </trkpt>
      <trkpt lat="48.42384" lon="-4.58056">
        <ele>113.654933</ele>
        <time>2022-12-09T15:09:06.520Z</time>
      </trkpt>
      <trkpt lat="48.42386" lon="-4.5804">
        <ele>113.804226</ele>
        <time>2022-12-09T15:09:10.497Z</time>
      </trkpt>
      <trkpt lat="48.42387" lon="-4.58025">
        <ele>113.94769</ele>
        <time>2022-12-09T15:09:14.515Z</time>
      </trkpt>
      <trkpt lat="48.42388" lon="-4.58009">
        <ele>114.099974</ele>
        <time>2022-12-09T15:09:18.515Z</time>
      </trkpt>
      <trkpt lat="48.4239" lon="-4.57994">
        <ele>114.250655</ele>
        <time>2022-12-09T15:09:22.493Z</time>
      </trkpt>
      <trkpt lat="48.4239" lon="-4.57979">
        <ele>114.394921</ele>
        <time>2022-12-09T15:09:26.501Z</time>
      </trkpt>
      <trkpt lat="48.42389" lon="-4.57963">
        <ele>114.543308</ele>
        <time>2022-12-09T15:09:30.498Z</time>
      </trkpt>
      <trkpt lat="48.42389" lon="-4.57947">
        <ele>114.696424</ele>
        <time>2022-12-09T15:09:34.517Z</time>
      </trkpt>
      <trkpt lat="48.42388" lon="-4.57931">
        <ele>114.851983</ele>
        <time>2022-12-09T15:09:38.517Z</time>
      </trkpt>
      <trkpt lat="48.42389" lon="-4.57915">
        <ele>115.003729</ele>
        <time>2022-12-09T15:09:42.509Z</time>
      </trkpt>
      <trkpt lat="48.42388" lon="-4.57899">
        <ele>115.155496</ele>
        <time>2022-12-09T15:09:46.516Z</time>
      </trkpt>
      <trkpt lat="48.42388" lon="-4.57882">
        <ele>115.309132</ele>
        <time>2022-12-09T15:09:50.506Z</time>
      </trkpt>
      <trkpt lat="48.42388" lon="-4.57866">
        <ele>115.460872</ele>
        <time>2022-12-09T15:09:54.504Z</time>
      </trkpt>
      <trkpt lat="48.42388" lon="-4.57851">
        <ele>115.607096</ele>
        <time>2022-12-09T15:09:58.507Z</time>
      </trkpt>
      <trkpt lat="48.42388" lon="-4.57836">
        <ele>115.75226</ele>
        <time>2022-12-09T15:10:02.517Z</time>
      </trkpt>
      <trkpt lat="48.42389" lon="-4.5782">
        <ele>115.899007</ele>
        <time>2022-12-09T15:10:06.512Z</time>
      </trkpt>
      <trkpt lat="48.42389" lon="-4.57805">
        <ele>116.201089</ele>
        <time>2022-12-09T15:10:10.500Z</time>
      </trkpt>
      <trkpt lat="48.42389" lon="-4.57789">
        <ele>116.523315</ele>
        <time>2022-12-09T15:10:14.518Z</time>
      </trkpt>
      <trkpt lat="48.42389" lon="-4.57772">
        <ele>116.868098</ele>
        <time>2022-12-09T15:10:18.515Z</time>
      </trkpt>
      <trkpt lat="48.42389" lon="-4.57758">
        <ele>117.15975</ele>
        <time>2022-12-09T15:10:22.493Z</time>
      </trkpt>
      <trkpt lat="48.4239" lon="-4.57742">
        <ele>117.48953</ele>
        <time>2022-12-09T15:10:26.498Z</time>
      </trkpt>
      <trkpt lat="48.42391" lon="-4.57725">
        <ele>117.847074</ele>
        <time>2022-12-09T15:10:30.520Z</time>
      </trkpt>
      <trkpt lat="48.42392" lon="-4.57708">
        <ele>118.19107</ele>
        <time>2022-12-09T15:10:34.509Z</time>
      </trkpt>
      <trkpt lat="48.42393" lon="-4.57691">
        <ele>118.532772</ele>
        <time>2022-12-09T15:10:38.514Z</time>
      </trkpt>
      <trkpt lat="48.42394" lon="-4.57675">
        <ele>118.860247</ele>
        <time>2022-12-09T15:10:42.517Z</time>
      </trkpt>
      <trkpt lat="48.42396" lon="-4.57659">
        <ele>119.190253</ele>
        <time>2022-12-09T15:10:48.498Z</time>
      </trkpt>
      <trkpt lat="48.42398" lon="-4.57644">
        <ele>119.503651</ele>
        <time>2022-12-09T15:10:52.494Z</time>
      </trkpt>
      <trkpt lat="48.424" lon="-4.57628">
        <ele>119.833132</ele>
        <time>2022-12-09T15:10:56.503Z</time>
      </trkpt>
      <trkpt lat="48.42402" lon="-4.57612">
        <ele>120.178486</ele>
        <time>2022-12-09T15:11:00.520Z</time>
      </trkpt>
      <trkpt lat="48.42405" lon="-4.57595">
        <ele>120.521712</ele>
        <time>2022-12-09T15:11:04.520Z</time>
      </trkpt>
      <trkpt lat="48.42407" lon="-4.57579">
        <ele>120.869549</ele>
        <time>2022-12-09T15:11:08.516Z</time>
      </trkpt>
      <trkpt lat="48.42409" lon="-4.57562">
        <ele>121.214113</ele>
        <time>2022-12-09T15:11:12.512Z</time>
      </trkpt>
      <trkpt lat="48.42411" lon="-4.57545">
        <ele>121.554038</ele>
        <time>2022-12-09T15:11:16.509Z</time>
      </trkpt>
      <trkpt lat="48.42414" lon="-4.57528">
        <ele>121.895995</ele>
        <time>2022-12-09T15:11:20.518Z</time>
      </trkpt>
      <trkpt lat="48.42417" lon="-4.57513">
        <ele>122.218899</ele>
        <time>2022-12-09T15:11:24.518Z</time>
      </trkpt>
      <trkpt lat="48.42419" lon="-4.57496">
        <ele>122.554453</ele>
        <time>2022-12-09T15:11:28.505Z</time>
      </trkpt>
      <trkpt lat="48.42421" lon="-4.57482">
        <ele>122.833775</ele>
        <time>2022-12-09T15:11:31.493Z</time>
      </trkpt>
      <trkpt lat="48.42423" lon="-4.57468">
        <ele>123.109266</ele>
        <time>2022-12-09T15:11:34.516Z</time>
      </trkpt>
      <trkpt lat="48.42426" lon="-4.57454">
        <ele>123.394544</ele>
        <time>2022-12-09T15:11:37.500Z</time>
      </trkpt>
      <trkpt lat="48.42428" lon="-4.5744">
        <ele>123.668878</ele>
        <time>2022-12-09T15:11:40.499Z</time>
      </trkpt>
      <trkpt lat="48.4243" lon="-4.57425">
        <ele>123.979336</ele>
        <time>2022-12-09T15:11:44.520Z</time>
      </trkpt>
      <trkpt lat="48.42432" lon="-4.57412">
        <ele>124.243994</ele>
        <time>2022-12-09T15:11:48.520Z</time>
      </trkpt>
      <trkpt lat="48.42434" lon="-4.57397">
        <ele>124.54618</ele>
        <time>2022-12-09T15:11:52.521Z</time>
      </trkpt>
      <trkpt lat="48.42438" lon="-4.57379">
        <ele>124.896451</ele>
        <time>2022-12-09T15:11:56.505Z</time>
      </trkpt>
      <trkpt lat="48.42441" lon="-4.57363">
        <ele>125.220381</ele>
        <time>2022-12-09T15:12:00.513Z</time>
      </trkpt>
      <trkpt lat="48.42444" lon="-4.57349">
        <ele>125.510723</ele>
        <time>2022-12-09T15:12:04.497Z</time>
      </trkpt>
      <trkpt lat="48.42448" lon="-4.57334">
        <ele>125.83688</ele>
        <time>2022-12-09T15:12:08.498Z</time>
      </trkpt>
      <trkpt lat="48.4245" lon="-4.57319">
        <ele>126.131434</ele>
        <time>2022-12-09T15:12:12.517Z</time>
      </trkpt>
      <trkpt lat="48.42453" lon="-4.57304">
        <ele>126.442459</ele>
        <time>2022-12-09T15:12:16.518Z</time>
      </trkpt>
      <trkpt lat="48.42456" lon="-4.57288">
        <ele>126.744812</ele>
        <time>2022-12-09T15:12:20.494Z</time>
      </trkpt>
      <trkpt lat="48.4246" lon="-4.57274">
        <ele>126.883143</ele>
        <time>2022-12-09T15:12:24.514Z</time>
      </trkpt>
      <trkpt lat="48.4246" lon="-4.57257">
        <ele>127.039988</ele>
        <time>2022-12-09T15:12:28.499Z</time>
      </trkpt>
      <trkpt lat="48.42461" lon="-4.57243">
        <ele>127.165257</ele>
        <time>2022-12-09T15:12:31.493Z</time>
      </trkpt>
      <trkpt lat="48.42466" lon="-4.57227">
        <ele>127.321991</ele>
        <time>2022-12-09T15:12:35.506Z</time>
      </trkpt>
      <trkpt lat="48.42471" lon="-4.57213">
        <ele>127.471188</ele>
        <time>2022-12-09T15:12:39.494Z</time>
      </trkpt>
      <trkpt lat="48.42477" lon="-4.57198">
        <ele>127.619373</ele>
        <time>2022-12-09T15:12:43.510Z</time>
      </trkpt>
      <trkpt lat="48.42482" lon="-4.57184">
        <ele>127.767918</ele>
        <time>2022-12-09T15:12:47.521Z</time>
      </trkpt>
      <trkpt lat="48.42487" lon="-4.5717">
        <ele>127.916326</ele>
        <time>2022-12-09T15:12:51.513Z</time>
      </trkpt>
      <trkpt lat="48.42492" lon="-4.57156">
        <ele>128.052528</ele>
        <time>2022-12-09T15:12:55.507Z</time>
      </trkpt>
      <trkpt lat="48.42496" lon="-4.57144">
        <ele>128.174363</ele>
        <time>2022-12-09T15:12:58.499Z</time>
      </trkpt>
      <trkpt lat="48.42501" lon="-4.57132">
        <ele>128.308227</ele>
        <time>2022-12-09T15:13:01.497Z</time>
      </trkpt>
      <trkpt lat="48.42508" lon="-4.57118">
        <ele>128.453199</ele>
        <time>2022-12-09T15:13:04.520Z</time>
      </trkpt>
      <trkpt lat="48.42513" lon="-4.57106">
        <ele>128.591447</ele>
        <time>2022-12-09T15:13:07.506Z</time>
      </trkpt>
      <trkpt lat="48.42519" lon="-4.57094">
        <ele>128.719205</ele>
        <time>2022-12-09T15:13:10.519Z</time>
      </trkpt>
      <trkpt lat="48.42527" lon="-4.57083">
        <ele>128.86548</ele>
        <time>2022-12-09T15:13:14.516Z</time>
      </trkpt>
      <trkpt lat="48.42531" lon="-4.57067">
        <ele>129.020553</ele>
        <time>2022-12-09T15:13:18.493Z</time>
      </trkpt>
      <trkpt lat="48.42527" lon="-4.5705">
        <ele>129.191271</ele>
        <time>2022-12-09T15:13:22.491Z</time>
      </trkpt>
      <trkpt lat="48.42523" lon="-4.57036">
        <ele>129.415949</ele>
        <time>2022-12-09T15:13:25.517Z</time>
      </trkpt>
      <trkpt lat="48.42524" lon="-4.57019">
        <ele>129.683488</ele>
        <time>2022-12-09T15:13:29.503Z</time>
      </trkpt>
      <trkpt lat="48.42528" lon="-4.57002">
        <ele>129.95628</ele>
        <time>2022-12-09T15:13:33.499Z</time>
      </trkpt>
      <trkpt lat="48.42526" lon="-4.56986">
        <ele>130.208495</ele>
        <time>2022-12-09T15:13:37.498Z</time>
      </trkpt>
      <trkpt lat="48.42522" lon="-4.56971">
        <ele>130.463033</ele>
        <time>2022-12-09T15:13:41.496Z</time>
      </trkpt>
      <trkpt lat="48.42519" lon="-4.56955">
        <ele>130.715161</ele>
        <time>2022-12-09T15:13:45.523Z</time>
      </trkpt>
      <trkpt lat="48.42515" lon="-4.56939">
        <ele>130.975333</ele>
        <time>2022-12-09T15:13:49.519Z</time>
      </trkpt>
      <trkpt lat="48.42511" lon="-4.56923">
        <ele>131.228193</ele>
        <time>2022-12-09T15:13:53.504Z</time>
      </trkpt>
      <trkpt lat="48.42508" lon="-4.56908">
        <ele>131.48054</ele>
        <time>2022-12-09T15:13:57.517Z</time>
      </trkpt>
      <trkpt lat="48.42505" lon="-4.56892">
        <ele>131.729119</ele>
        <time>2022-12-09T15:14:01.522Z</time>
      </trkpt>
      <trkpt lat="48.42502" lon="-4.56876">
        <ele>131.983463</ele>
        <time>2022-12-09T15:14:05.515Z</time>
      </trkpt>
      <trkpt lat="48.42499" lon="-4.56861">
        <ele>132.229531</ele>
        <time>2022-12-09T15:14:09.512Z</time>
      </trkpt>
      <trkpt lat="48.42496" lon="-4.56845">
        <ele>132.481692</ele>
        <time>2022-12-09T15:14:13.514Z</time>
      </trkpt>
      <trkpt lat="48.42492" lon="-4.56829">
        <ele>132.742636</ele>
        <time>2022-12-09T15:14:17.520Z</time>
      </trkpt>
      <trkpt lat="48.42489" lon="-4.56813">
        <ele>133.008724</ele>
        <time>2022-12-09T15:14:21.514Z</time>
      </trkpt>
      <trkpt lat="48.42486" lon="-4.568">
        <ele>133.22297</ele>
        <time>2022-12-09T15:14:24.522Z</time>
      </trkpt>
      <trkpt lat="48.42483" lon="-4.56785">
        <ele>133.300398</ele>
        <time>2022-12-09T15:14:27.510Z</time>
      </trkpt>
      <trkpt lat="48.42481" lon="-4.5677">
        <ele>133.234952</ele>
        <time>2022-12-09T15:14:30.512Z</time>
      </trkpt>
      <trkpt lat="48.42478" lon="-4.56755">
        <ele>133.169766</ele>
        <time>2022-12-09T15:14:33.520Z</time>
      </trkpt>
      <trkpt lat="48.42477" lon="-4.56739">
        <ele>133.096766</ele>
        <time>2022-12-09T15:14:36.520Z</time>
      </trkpt>
      <trkpt lat="48.42475" lon="-4.56721">
        <ele>133.022047</ele>
        <time>2022-12-09T15:14:39.522Z</time>
      </trkpt>
      <trkpt lat="48.42474" lon="-4.56704">
        <ele>132.947452</ele>
        <time>2022-12-09T15:14:42.519Z</time>
      </trkpt>
      <trkpt lat="48.42473" lon="-4.56687">
        <ele>132.87408</ele>
        <time>2022-12-09T15:14:45.511Z</time>
      </trkpt>
      <trkpt lat="48.42473" lon="-4.5667">
        <ele>132.803156</ele>
        <time>2022-12-09T15:14:48.498Z</time>
      </trkpt>
      <trkpt lat="48.42473" lon="-4.56654">
        <ele>132.732278</ele>
        <time>2022-12-09T15:14:51.503Z</time>
      </trkpt>
      <trkpt lat="48.4247" lon="-4.56637">
        <ele>132.658176</ele>
        <time>2022-12-09T15:14:54.493Z</time>
      </trkpt>
      <trkpt lat="48.42467" lon="-4.5662">
        <ele>132.582946</ele>
        <time>2022-12-09T15:14:57.494Z</time>
      </trkpt>
      <trkpt lat="48.42471" lon="-4.56604">
        <ele>132.507199</ele>
        <time>2022-12-09T15:15:00.494Z</time>
      </trkpt>
      <trkpt lat="48.42475" lon="-4.56587">
        <ele>132.430414</ele>
        <time>2022-12-09T15:15:03.510Z</time>
      </trkpt>
      <trkpt lat="48.42478" lon="-4.56568">
        <ele>132.347673</ele>
        <time>2022-12-09T15:15:06.493Z</time>
      </trkpt>
      <trkpt lat="48.42479" lon="-4.56549">
        <ele>132.263179</ele>
        <time>2022-12-09T15:15:09.512Z</time>
      </trkpt>
      <trkpt lat="48.4248" lon="-4.5653">
        <ele>132.182011</ele>
        <time>2022-12-09T15:15:12.522Z</time>
      </trkpt>
      <trkpt lat="48.42483" lon="-4.56513">
        <ele>132.441943</ele>
        <time>2022-12-09T15:15:15.515Z</time>
      </trkpt>
      <trkpt lat="48.42484" lon="-4.56495">
        <ele>132.770776</ele>
        <time>2022-12-09T15:15:18.522Z</time>
      </trkpt>
      <trkpt lat="48.42486" lon="-4.56476">
        <ele>133.123348</ele>
        <time>2022-12-09T15:15:21.493Z</time>
      </trkpt>
      <trkpt lat="48.42488" lon="-4.56458">
        <ele>133.46992</ele>
        <time>2022-12-09T15:15:24.518Z</time>
      </trkpt>
      <trkpt lat="48.4249" lon="-4.56439">
        <ele>133.828375</ele>
        <time>2022-12-09T15:15:27.522Z</time>
      </trkpt>
      <trkpt lat="48.42492" lon="-4.5642">
        <ele>134.181353</ele>
        <time>2022-12-09T15:15:30.522Z</time>
      </trkpt>
      <trkpt lat="48.42494" lon="-4.56403">
        <ele>134.506486</ele>
        <time>2022-12-09T15:15:33.511Z</time>
      </trkpt>
      <trkpt lat="48.42496" lon="-4.56386">
        <ele>134.809342</ele>
        <time>2022-12-09T15:15:36.520Z</time>
      </trkpt>
      <trkpt lat="48.42498" lon="-4.56371">
        <ele>135.104541</ele>
        <time>2022-12-09T15:15:39.519Z</time>
      </trkpt>
      <trkpt lat="48.42499" lon="-4.56355">
        <ele>135.396021</ele>
        <time>2022-12-09T15:15:42.521Z</time>
      </trkpt>
      <trkpt lat="48.42501" lon="-4.5634">
        <ele>135.671692</ele>
        <time>2022-12-09T15:15:45.518Z</time>
      </trkpt>
      <trkpt lat="48.42502" lon="-4.56325">
        <ele>135.954981</ele>
        <time>2022-12-09T15:15:48.494Z</time>
      </trkpt>
      <trkpt lat="48.42504" lon="-4.56311">
        <ele>136.214678</ele>
        <time>2022-12-09T15:15:51.505Z</time>
      </trkpt>
      <trkpt lat="48.42505" lon="-4.56294">
        <ele>136.529586</ele>
        <time>2022-12-09T15:15:55.496Z</time>
      </trkpt>
      <trkpt lat="48.42506" lon="-4.56281">
        <ele>136.7811</ele>
        <time>2022-12-09T15:15:58.515Z</time>
      </trkpt>
      <trkpt lat="48.42507" lon="-4.56267">
        <ele>137.0356</ele>
        <time>2022-12-09T15:16:01.502Z</time>
      </trkpt>
      <trkpt lat="48.42508" lon="-4.56253">
        <ele>137.298147</ele>
        <time>2022-12-09T15:16:04.516Z</time>
      </trkpt>
      <trkpt lat="48.42508" lon="-4.56236">
        <ele>137.61122</ele>
        <time>2022-12-09T15:16:08.490Z</time>
      </trkpt>
      <trkpt lat="48.42509" lon="-4.56219">
        <ele>137.925081</ele>
        <time>2022-12-09T15:16:12.500Z</time>
      </trkpt>
      <trkpt lat="48.42509" lon="-4.56201">
        <ele>138.252783</ele>
        <time>2022-12-09T15:16:16.509Z</time>
      </trkpt>
      <trkpt lat="48.42511" lon="-4.56187">
        <ele>138.512711</ele>
        <time>2022-12-09T15:16:19.511Z</time>
      </trkpt>
      <trkpt lat="48.42512" lon="-4.56169">
        <ele>138.841628</ele>
        <time>2022-12-09T15:16:23.502Z</time>
      </trkpt>
      <trkpt lat="48.42512" lon="-4.56155">
        <ele>139.09633</ele>
        <time>2022-12-09T15:16:26.492Z</time>
      </trkpt>
      <trkpt lat="48.42512" lon="-4.56141">
        <ele>139.358209</ele>
        <time>2022-12-09T15:16:29.504Z</time>
      </trkpt>
      <trkpt lat="48.42513" lon="-4.56123">
        <ele>139.68119</ele>
        <time>2022-12-09T15:16:33.524Z</time>
      </trkpt>
      <trkpt lat="48.42514" lon="-4.56108">
        <ele>139.949745</ele>
        <time>2022-12-09T15:16:37.521Z</time>
      </trkpt>
      <trkpt lat="48.42515" lon="-4.56092">
        <ele>140.243546</ele>
        <time>2022-12-09T15:16:41.491Z</time>
      </trkpt>
      <trkpt lat="48.42515" lon="-4.56076">
        <ele>140.538243</ele>
        <time>2022-12-09T15:16:45.517Z</time>
      </trkpt>
      <trkpt lat="48.42515" lon="-4.56061">
        <ele>140.816411</ele>
        <time>2022-12-09T15:16:50.511Z</time>
      </trkpt>
      <trkpt lat="48.42515" lon="-4.56047">
        <ele>141.07636</ele>
        <time>2022-12-09T15:16:54.500Z</time>
      </trkpt>
      <trkpt lat="48.42515" lon="-4.56029">
        <ele>141.402092</ele>
        <time>2022-12-09T15:16:58.517Z</time>
      </trkpt>
      <trkpt lat="48.42515" lon="-4.56015">
        <ele>141.661968</ele>
        <time>2022-12-09T15:17:01.514Z</time>
      </trkpt>
      <trkpt lat="48.42516" lon="-4.55999">
        <ele>141.945785</ele>
        <time>2022-12-09T15:17:04.520Z</time>
      </trkpt>
      <trkpt lat="48.42516" lon="-4.55986">
        <ele>142.138668</ele>
        <time>2022-12-09T15:17:07.520Z</time>
      </trkpt>
      <trkpt lat="48.42516" lon="-4.55967">
        <ele>142.161079</ele>
        <time>2022-12-09T15:17:11.512Z</time>
      </trkpt>
      <trkpt lat="48.42516" lon="-4.55953">
        <ele>142.178418</ele>
        <time>2022-12-09T15:17:14.520Z</time>
      </trkpt>
      <trkpt lat="48.42516" lon="-4.55938">
        <ele>142.196227</ele>
        <time>2022-12-09T15:17:17.521Z</time>
      </trkpt>
      <trkpt lat="48.42516" lon="-4.55922">
        <ele>142.215745</ele>
        <time>2022-12-09T15:17:21.497Z</time>
      </trkpt>
      <trkpt lat="48.42514" lon="-4.55908">
        <ele>142.232748</ele>
        <time>2022-12-09T15:17:24.498Z</time>
      </trkpt>
      <trkpt lat="48.42511" lon="-4.55896">
        <ele>142.24944</ele>
        <time>2022-12-09T15:17:27.502Z</time>
      </trkpt>
      <trkpt lat="48.42502" lon="-4.55884">
        <ele>142.270456</ele>
        <time>2022-12-09T15:17:30.498Z</time>
      </trkpt>
      <trkpt lat="48.42494" lon="-4.55874">
        <ele>142.289496</ele>
        <time>2022-12-09T15:17:33.512Z</time>
      </trkpt>
      <trkpt lat="48.42485" lon="-4.55864">
        <ele>142.309106</ele>
        <time>2022-12-09T15:17:36.516Z</time>
      </trkpt>
      <trkpt lat="48.42476" lon="-4.55855">
        <ele>142.329247</ele>
        <time>2022-12-09T15:17:39.498Z</time>
      </trkpt>
      <trkpt lat="48.42466" lon="-4.55845">
        <ele>142.350608</ele>
        <time>2022-12-09T15:17:42.514Z</time>
      </trkpt>
      <trkpt lat="48.42457" lon="-4.55835">
        <ele>142.371465</ele>
        <time>2022-12-09T15:17:45.498Z</time>
      </trkpt>
      <trkpt lat="48.42449" lon="-4.55823">
        <ele>142.392801</ele>
        <time>2022-12-09T15:17:48.520Z</time>
      </trkpt>
      <trkpt lat="48.42441" lon="-4.55809">
        <ele>142.415242</ele>
        <time>2022-12-09T15:17:51.516Z</time>
      </trkpt>
      <trkpt lat="48.42433" lon="-4.55795">
        <ele>142.436851</ele>
        <time>2022-12-09T15:17:54.512Z</time>
      </trkpt>
      <trkpt lat="48.42426" lon="-4.55784">
        <ele>142.455756</ele>
        <time>2022-12-09T15:17:57.521Z</time>
      </trkpt>
      <trkpt lat="48.42418" lon="-4.55771">
        <ele>142.425925</ele>
        <time>2022-12-09T15:18:01.490Z</time>
      </trkpt>
      <trkpt lat="48.42411" lon="-4.55761">
        <ele>142.384492</ele>
        <time>2022-12-09T15:18:04.512Z</time>
      </trkpt>
      <trkpt lat="48.42405" lon="-4.55751">
        <ele>142.34366</ele>
        <time>2022-12-09T15:18:07.511Z</time>
      </trkpt>
      <trkpt lat="48.42396" lon="-4.55742">
        <ele>142.298771</ele>
        <time>2022-12-09T15:18:10.519Z</time>
      </trkpt>
      <trkpt lat="48.42388" lon="-4.55734">
        <ele>142.253334</ele>
        <time>2022-12-09T15:18:13.514Z</time>
      </trkpt>
      <trkpt lat="48.42378" lon="-4.55724">
        <ele>142.198841</ele>
        <time>2022-12-09T15:18:16.519Z</time>
      </trkpt>
      <trkpt lat="48.42367" lon="-4.55713">
        <ele>142.140899</ele>
        <time>2022-12-09T15:18:19.523Z</time>
      </trkpt>
      <trkpt lat="48.4236" lon="-4.55704">
        <ele>142.099928</ele>
        <time>2022-12-09T15:18:21.503Z</time>
      </trkpt>
      <trkpt lat="48.42349" lon="-4.55694">
        <ele>142.042114</ele>
        <time>2022-12-09T15:18:24.520Z</time>
      </trkpt>
      <trkpt lat="48.42338" lon="-4.55682">
        <ele>141.984198</ele>
        <time>2022-12-09T15:18:27.524Z</time>
      </trkpt>
      <trkpt lat="48.42327" lon="-4.55671">
        <ele>141.923442</ele>
        <time>2022-12-09T15:18:30.521Z</time>
      </trkpt>
      <trkpt lat="48.42318" lon="-4.55665">
        <ele>141.881449</ele>
        <time>2022-12-09T15:18:32.498Z</time>
      </trkpt>
      <trkpt lat="48.42307" lon="-4.55655">
        <ele>141.82321</ele>
        <time>2022-12-09T15:18:35.510Z</time>
      </trkpt>
      <trkpt lat="48.42297" lon="-4.55644">
        <ele>141.768813</ele>
        <time>2022-12-09T15:18:38.523Z</time>
      </trkpt>
      <trkpt lat="48.42288" lon="-4.55634">
        <ele>141.718559</ele>
        <time>2022-12-09T15:18:41.518Z</time>
      </trkpt>
      <trkpt lat="48.4228" lon="-4.55627">
        <ele>141.678065</ele>
        <time>2022-12-09T15:18:44.524Z</time>
      </trkpt>
      <trkpt lat="48.42271" lon="-4.55619">
        <ele>141.542574</ele>
        <time>2022-12-09T15:18:48.514Z</time>
      </trkpt>
      <trkpt lat="48.42264" lon="-4.5561">
        <ele>141.374086</ele>
        <time>2022-12-09T15:18:51.497Z</time>
      </trkpt>
      <trkpt lat="48.42256" lon="-4.55601">
        <ele>141.196428</ele>
        <time>2022-12-09T15:18:54.512Z</time>
      </trkpt>
      <trkpt lat="48.42248" lon="-4.55592">
        <ele>141.020211</ele>
        <time>2022-12-09T15:18:57.511Z</time>
      </trkpt>
      <trkpt lat="48.42238" lon="-4.55582">
        <ele>140.811306</ele>
        <time>2022-12-09T15:19:01.520Z</time>
      </trkpt>
      <trkpt lat="48.42229" lon="-4.55575">
        <ele>140.630757</ele>
        <time>2022-12-09T15:19:04.520Z</time>
      </trkpt>
      <trkpt lat="48.4222" lon="-4.55566">
        <ele>140.437999</ele>
        <time>2022-12-09T15:19:07.519Z</time>
      </trkpt>
      <trkpt lat="48.42211" lon="-4.55557">
        <ele>140.255317</ele>
        <time>2022-12-09T15:19:10.511Z</time>
      </trkpt>
      <trkpt lat="48.42202" lon="-4.55548">
        <ele>140.062558</ele>
        <time>2022-12-09T15:19:13.513Z</time>
      </trkpt>
      <trkpt lat="48.42193" lon="-4.55539">
        <ele>139.86874</ele>
        <time>2022-12-09T15:19:16.514Z</time>
      </trkpt>
      <trkpt lat="48.42184" lon="-4.55531">
        <ele>139.689139</ele>
        <time>2022-12-09T15:19:19.503Z</time>
      </trkpt>
      <trkpt lat="48.42175" lon="-4.55523">
        <ele>139.50714</ele>
        <time>2022-12-09T15:19:22.515Z</time>
      </trkpt>
      <trkpt lat="48.42167" lon="-4.55514">
        <ele>139.319628</ele>
        <time>2022-12-09T15:19:25.526Z</time>
      </trkpt>
      <trkpt lat="48.42158" lon="-4.55504">
        <ele>139.127905</ele>
        <time>2022-12-09T15:19:28.521Z</time>
      </trkpt>
      <trkpt lat="48.4215" lon="-4.55493">
        <ele>138.932817</ele>
        <time>2022-12-09T15:19:31.521Z</time>
      </trkpt>
      <trkpt lat="48.42141" lon="-4.55482">
        <ele>138.74079</ele>
        <time>2022-12-09T15:19:34.519Z</time>
      </trkpt>
      <trkpt lat="48.42134" lon="-4.55472">
        <ele>138.56901</ele>
        <time>2022-12-09T15:19:37.523Z</time>
      </trkpt>
      <trkpt lat="48.42127" lon="-4.55462">
        <ele>138.42342</ele>
        <time>2022-12-09T15:19:40.518Z</time>
      </trkpt>
      <trkpt lat="48.42119" lon="-4.55451">
        <ele>138.295565</ele>
        <time>2022-12-09T15:19:43.516Z</time>
      </trkpt>
      <trkpt lat="48.4211" lon="-4.55439">
        <ele>138.163471</ele>
        <time>2022-12-09T15:19:46.522Z</time>
      </trkpt>
      <trkpt lat="48.42101" lon="-4.55427">
        <ele>138.022312</ele>
        <time>2022-12-09T15:19:49.524Z</time>
      </trkpt>
      <trkpt lat="48.42092" lon="-4.55416">
        <ele>137.892882</ele>
        <time>2022-12-09T15:19:52.520Z</time>
      </trkpt>
      <trkpt lat="48.42084" lon="-4.55407">
        <ele>137.775391</ele>
        <time>2022-12-09T15:19:55.521Z</time>
      </trkpt>
      <trkpt lat="48.42075" lon="-4.55394">
        <ele>137.636519</ele>
        <time>2022-12-09T15:19:59.505Z</time>
      </trkpt>
      <trkpt lat="48.42068" lon="-4.55384">
        <ele>137.521626</ele>
        <time>2022-12-09T15:20:02.521Z</time>
      </trkpt>
      <trkpt lat="48.42061" lon="-4.55373">
        <ele>137.407253</ele>
        <time>2022-12-09T15:20:05.518Z</time>
      </trkpt>
      <trkpt lat="48.42054" lon="-4.55363">
        <ele>137.299895</ele>
        <time>2022-12-09T15:20:08.494Z</time>
      </trkpt>
      <trkpt lat="48.42048" lon="-4.55347">
        <ele>137.162997</ele>
        <time>2022-12-09T15:20:12.495Z</time>
      </trkpt>
      <trkpt lat="48.42043" lon="-4.55336">
        <ele>137.052775</ele>
        <time>2022-12-09T15:20:15.499Z</time>
      </trkpt>
      <trkpt lat="48.42035" lon="-4.55326">
        <ele>136.934317</ele>
        <time>2022-12-09T15:20:18.502Z</time>
      </trkpt>
      <trkpt lat="48.42027" lon="-4.55315">
        <ele>136.814302</ele>
        <time>2022-12-09T15:20:21.519Z</time>
      </trkpt>
      <trkpt lat="48.4202" lon="-4.55304">
        <ele>136.6989</ele>
        <time>2022-12-09T15:20:24.499Z</time>
      </trkpt>
      <trkpt lat="48.42015" lon="-4.55292">
        <ele>136.587007</ele>
        <time>2022-12-09T15:20:27.501Z</time>
      </trkpt>
      <trkpt lat="48.42008" lon="-4.55279">
        <ele>136.467335</ele>
        <time>2022-12-09T15:20:30.523Z</time>
      </trkpt>
      <trkpt lat="48.42002" lon="-4.55267">
        <ele>136.465629</ele>
        <time>2022-12-09T15:20:33.502Z</time>
      </trkpt>
      <trkpt lat="48.41996" lon="-4.55255">
        <ele>136.54037</ele>
        <time>2022-12-09T15:20:36.507Z</time>
      </trkpt>
      <trkpt lat="48.41991" lon="-4.55241">
        <ele>136.617647</ele>
        <time>2022-12-09T15:20:39.519Z</time>
      </trkpt>
      <trkpt lat="48.41986" lon="-4.55229">
        <ele>136.691127</ele>
        <time>2022-12-09T15:20:42.503Z</time>
      </trkpt>
      <trkpt lat="48.4198" lon="-4.55216">
        <ele>136.765437</ele>
        <time>2022-12-09T15:20:45.521Z</time>
      </trkpt>
      <trkpt lat="48.41975" lon="-4.55203">
        <ele>136.841115</ele>
        <time>2022-12-09T15:20:48.521Z</time>
      </trkpt>
      <trkpt lat="48.4197" lon="-4.55188">
        <ele>136.920663</ele>
        <time>2022-12-09T15:20:51.510Z</time>
      </trkpt>
      <trkpt lat="48.41965" lon="-4.55175">
        <ele>136.998483</ele>
        <time>2022-12-09T15:20:54.498Z</time>
      </trkpt>
      <trkpt lat="48.4196" lon="-4.55159">
        <ele>137.084095</ele>
        <time>2022-12-09T15:20:58.515Z</time>
      </trkpt>
      <trkpt lat="48.41952" lon="-4.55147">
        <ele>137.166533</ele>
        <time>2022-12-09T15:21:02.506Z</time>
      </trkpt>
      <trkpt lat="48.41946" lon="-4.55136">
        <ele>137.237999</ele>
        <time>2022-12-09T15:21:05.516Z</time>
      </trkpt>
      <trkpt lat="48.4194" lon="-4.55125">
        <ele>137.311189</ele>
        <time>2022-12-09T15:21:08.515Z</time>
      </trkpt>
      <trkpt lat="48.41934" lon="-4.55111">
        <ele>137.388814</ele>
        <time>2022-12-09T15:21:11.517Z</time>
      </trkpt>
      <trkpt lat="48.41928" lon="-4.55098">
        <ele>137.468519</ele>
        <time>2022-12-09T15:21:14.514Z</time>
      </trkpt>
      <trkpt lat="48.41922" lon="-4.55085">
        <ele>137.545301</ele>
        <time>2022-12-09T15:21:17.522Z</time>
      </trkpt>
      <trkpt lat="48.41916" lon="-4.55072">
        <ele>137.624947</ele>
        <time>2022-12-09T15:21:20.518Z</time>
      </trkpt>
      <trkpt lat="48.4191" lon="-4.55059">
        <ele>137.699688</ele>
        <time>2022-12-09T15:21:23.517Z</time>
      </trkpt>
      <trkpt lat="48.41905" lon="-4.55048">
        <ele>137.689511</ele>
        <time>2022-12-09T15:21:26.508Z</time>
      </trkpt>
      <trkpt lat="48.41899" lon="-4.55036">
        <ele>137.379478</ele>
        <time>2022-12-09T15:21:29.515Z</time>
      </trkpt>
      <trkpt lat="48.41893" lon="-4.55023">
        <ele>137.048014</ele>
        <time>2022-12-09T15:21:32.520Z</time>
      </trkpt>
      <trkpt lat="48.41887" lon="-4.55009">
        <ele>136.697233</ele>
        <time>2022-12-09T15:21:35.509Z</time>
      </trkpt>
      <trkpt lat="48.41881" lon="-4.54994">
        <ele>136.314553</ele>
        <time>2022-12-09T15:21:38.524Z</time>
      </trkpt>
      <trkpt lat="48.41874" lon="-4.54978">
        <ele>135.901771</ele>
        <time>2022-12-09T15:21:41.523Z</time>
      </trkpt>
      <trkpt lat="48.41869" lon="-4.54966">
        <ele>135.611113</ele>
        <time>2022-12-09T15:21:43.522Z</time>
      </trkpt>
      <trkpt lat="48.41861" lon="-4.54949">
        <ele>135.164414</ele>
        <time>2022-12-09T15:21:46.516Z</time>
      </trkpt>
      <trkpt lat="48.41855" lon="-4.54938">
        <ele>134.863143</ele>
        <time>2022-12-09T15:21:48.519Z</time>
      </trkpt>
      <trkpt lat="48.4185" lon="-4.54926">
        <ele>134.556252</ele>
        <time>2022-12-09T15:21:50.515Z</time>
      </trkpt>
      <trkpt lat="48.41844" lon="-4.54914">
        <ele>134.249534</ele>
        <time>2022-12-09T15:21:52.517Z</time>
      </trkpt>
      <trkpt lat="48.41836" lon="-4.54898">
        <ele>133.827581</ele>
        <time>2022-12-09T15:21:55.524Z</time>
      </trkpt>
      <trkpt lat="48.41829" lon="-4.54881">
        <ele>133.391465</ele>
        <time>2022-12-09T15:21:58.521Z</time>
      </trkpt>
      <trkpt lat="48.41824" lon="-4.54869">
        <ele>133.086687</ele>
        <time>2022-12-09T15:22:00.521Z</time>
      </trkpt>
      <trkpt lat="48.41819" lon="-4.54856">
        <ele>132.769245</ele>
        <time>2022-12-09T15:22:02.523Z</time>
      </trkpt>
      <trkpt lat="48.41813" lon="-4.54844">
        <ele>132.452008</ele>
        <time>2022-12-09T15:22:04.522Z</time>
      </trkpt>
      <trkpt lat="48.41808" lon="-4.54831">
        <ele>132.129566</ele>
        <time>2022-12-09T15:22:06.500Z</time>
      </trkpt>
      <trkpt lat="48.41803" lon="-4.54819">
        <ele>131.908796</ele>
        <time>2022-12-09T15:22:08.496Z</time>
      </trkpt>
      <trkpt lat="48.41798" lon="-4.54807">
        <ele>131.750516</ele>
        <time>2022-12-09T15:22:10.520Z</time>
      </trkpt>
      <trkpt lat="48.4179" lon="-4.54792">
        <ele>131.528143</ele>
        <time>2022-12-09T15:22:13.495Z</time>
      </trkpt>
      <trkpt lat="48.41781" lon="-4.54776">
        <ele>131.295713</ele>
        <time>2022-12-09T15:22:16.520Z</time>
      </trkpt>
      <trkpt lat="48.41774" lon="-4.54764">
        <ele>131.128219</ele>
        <time>2022-12-09T15:22:18.508Z</time>
      </trkpt>
      <trkpt lat="48.41768" lon="-4.54752">
        <ele>130.953839</ele>
        <time>2022-12-09T15:22:20.517Z</time>
      </trkpt>
      <trkpt lat="48.41763" lon="-4.54738">
        <ele>130.779675</ele>
        <time>2022-12-09T15:22:22.518Z</time>
      </trkpt>
      <trkpt lat="48.41757" lon="-4.54725">
        <ele>130.603697</ele>
        <time>2022-12-09T15:22:24.512Z</time>
      </trkpt>
      <trkpt lat="48.41751" lon="-4.54712">
        <ele>130.426753</ele>
        <time>2022-12-09T15:22:26.501Z</time>
      </trkpt>
      <trkpt lat="48.41745" lon="-4.54699">
        <ele>130.248919</ele>
        <time>2022-12-09T15:22:28.521Z</time>
      </trkpt>
      <trkpt lat="48.41739" lon="-4.54687">
        <ele>130.080895</ele>
        <time>2022-12-09T15:22:30.548Z</time>
      </trkpt>
      <trkpt lat="48.41733" lon="-4.54675">
        <ele>129.911838</ele>
        <time>2022-12-09T15:22:32.516Z</time>
      </trkpt>
      <trkpt lat="48.41727" lon="-4.54663">
        <ele>129.741257</ele>
        <time>2022-12-09T15:22:34.513Z</time>
      </trkpt>
      <trkpt lat="48.41721" lon="-4.54651">
        <ele>129.576449</ele>
        <time>2022-12-09T15:22:36.519Z</time>
      </trkpt>
      <trkpt lat="48.41716" lon="-4.54639">
        <ele>129.410463</ele>
        <time>2022-12-09T15:22:38.511Z</time>
      </trkpt>
      <trkpt lat="48.41709" lon="-4.54627">
        <ele>129.245763</ele>
        <time>2022-12-09T15:22:40.503Z</time>
      </trkpt>
      <trkpt lat="48.41704" lon="-4.54616">
        <ele>129.085248</ele>
        <time>2022-12-09T15:22:42.516Z</time>
      </trkpt>
      <trkpt lat="48.41697" lon="-4.54605">
        <ele>128.843539</ele>
        <time>2022-12-09T15:22:44.517Z</time>
      </trkpt>
      <trkpt lat="48.41691" lon="-4.54595">
        <ele>128.392579</ele>
        <time>2022-12-09T15:22:46.520Z</time>
      </trkpt>
      <trkpt lat="48.41685" lon="-4.54585">
        <ele>127.935454</ele>
        <time>2022-12-09T15:22:48.518Z</time>
      </trkpt>
      <trkpt lat="48.41678" lon="-4.54573">
        <ele>127.439298</ele>
        <time>2022-12-09T15:22:50.519Z</time>
      </trkpt>
      <trkpt lat="48.41672" lon="-4.54562">
        <ele>126.95135</ele>
        <time>2022-12-09T15:22:52.521Z</time>
      </trkpt>
      <trkpt lat="48.41664" lon="-4.54551">
        <ele>126.424276</ele>
        <time>2022-12-09T15:22:54.521Z</time>
      </trkpt>
      <trkpt lat="48.41657" lon="-4.5454">
        <ele>125.915899</ele>
        <time>2022-12-09T15:22:56.517Z</time>
      </trkpt>
      <trkpt lat="48.41649" lon="-4.5453">
        <ele>125.419362</ele>
        <time>2022-12-09T15:22:58.520Z</time>
      </trkpt>
      <trkpt lat="48.41642" lon="-4.5452">
        <ele>124.939738</ele>
        <time>2022-12-09T15:23:00.505Z</time>
      </trkpt>
      <trkpt lat="48.41636" lon="-4.5451">
        <ele>124.463864</ele>
        <time>2022-12-09T15:23:02.503Z</time>
      </trkpt>
      <trkpt lat="48.41629" lon="-4.54499">
        <ele>124.002954</ele>
        <time>2022-12-09T15:23:04.516Z</time>
      </trkpt>
      <trkpt lat="48.41622" lon="-4.5449">
        <ele>123.513675</ele>
        <time>2022-12-09T15:23:06.511Z</time>
      </trkpt>
      <trkpt lat="48.41613" lon="-4.54483">
        <ele>123.010785</ele>
        <time>2022-12-09T15:23:08.499Z</time>
      </trkpt>
      <trkpt lat="48.41604" lon="-4.54474">
        <ele>122.508597</ele>
        <time>2022-12-09T15:23:10.520Z</time>
      </trkpt>
      <trkpt lat="48.41596" lon="-4.54466">
        <ele>122.021355</ele>
        <time>2022-12-09T15:23:12.525Z</time>
      </trkpt>
      <trkpt lat="48.41589" lon="-4.54457">
        <ele>121.543927</ele>
        <time>2022-12-09T15:23:14.521Z</time>
      </trkpt>
      <trkpt lat="48.41581" lon="-4.54447">
        <ele>121.050896</ele>
        <time>2022-12-09T15:23:16.520Z</time>
      </trkpt>
      <trkpt lat="48.41573" lon="-4.54438">
        <ele>120.534014</ele>
        <time>2022-12-09T15:23:18.506Z</time>
      </trkpt>
      <trkpt lat="48.41564" lon="-4.54428">
        <ele>119.991799</ele>
        <time>2022-12-09T15:23:20.520Z</time>
      </trkpt>
      <trkpt lat="48.41555" lon="-4.54417">
        <ele>119.400199</ele>
        <time>2022-12-09T15:23:22.519Z</time>
      </trkpt>
      <trkpt lat="48.41546" lon="-4.54407">
        <ele>118.800178</ele>
        <time>2022-12-09T15:23:24.520Z</time>
      </trkpt>
      <trkpt lat="48.41538" lon="-4.54396">
        <ele>118.205803</ele>
        <time>2022-12-09T15:23:26.519Z</time>
      </trkpt>
      <trkpt lat="48.41529" lon="-4.54386">
        <ele>117.631215</ele>
        <time>2022-12-09T15:23:28.516Z</time>
      </trkpt>
      <trkpt lat="48.4152" lon="-4.54377">
        <ele>117.05662</ele>
        <time>2022-12-09T15:23:30.522Z</time>
      </trkpt>
      <trkpt lat="48.41512" lon="-4.54367">
        <ele>116.47353</ele>
        <time>2022-12-09T15:23:32.506Z</time>
      </trkpt>
      <trkpt lat="48.41503" lon="-4.54356">
        <ele>115.894423</ele>
        <time>2022-12-09T15:23:34.516Z</time>
      </trkpt>
      <trkpt lat="48.41495" lon="-4.54347">
        <ele>115.345104</ele>
        <time>2022-12-09T15:23:36.521Z</time>
      </trkpt>
      <trkpt lat="48.41487" lon="-4.54337">
        <ele>114.789147</ele>
        <time>2022-12-09T15:23:38.521Z</time>
      </trkpt>
      <trkpt lat="48.41479" lon="-4.54326">
        <ele>114.220507</ele>
        <time>2022-12-09T15:23:40.520Z</time>
      </trkpt>
      <trkpt lat="48.4147" lon="-4.54315">
        <ele>113.613459</ele>
        <time>2022-12-09T15:23:42.516Z</time>
      </trkpt>
      <trkpt lat="48.41461" lon="-4.54305">
        <ele>113.026152</ele>
        <time>2022-12-09T15:23:44.510Z</time>
      </trkpt>
      <trkpt lat="48.41452" lon="-4.54295">
        <ele>112.421838</ele>
        <time>2022-12-09T15:23:46.514Z</time>
      </trkpt>
      <trkpt lat="48.41443" lon="-4.54284">
        <ele>111.817343</ele>
        <time>2022-12-09T15:23:48.519Z</time>
      </trkpt>
      <trkpt lat="48.41435" lon="-4.54274">
        <ele>111.22745</ele>
        <time>2022-12-09T15:23:50.518Z</time>
      </trkpt>
      <trkpt lat="48.41426" lon="-4.54263">
        <ele>110.651535</ele>
        <time>2022-12-09T15:23:52.498Z</time>
      </trkpt>
      <trkpt lat="48.41418" lon="-4.54252">
        <ele>110.142599</ele>
        <time>2022-12-09T15:23:54.515Z</time>
      </trkpt>
      <trkpt lat="48.4141" lon="-4.5424">
        <ele>109.639748</ele>
        <time>2022-12-09T15:23:56.499Z</time>
      </trkpt>
      <trkpt lat="48.41401" lon="-4.5423">
        <ele>109.133237</ele>
        <time>2022-12-09T15:23:58.503Z</time>
      </trkpt>
      <trkpt lat="48.41393" lon="-4.54218">
        <ele>108.633187</ele>
        <time>2022-12-09T15:24:00.503Z</time>
      </trkpt>
      <trkpt lat="48.41384" lon="-4.54207">
        <ele>108.12788</ele>
        <time>2022-12-09T15:24:02.506Z</time>
      </trkpt>
      <trkpt lat="48.41376" lon="-4.54195">
        <ele>107.608767</ele>
        <time>2022-12-09T15:24:04.514Z</time>
      </trkpt>
      <trkpt lat="48.41368" lon="-4.54184">
        <ele>107.12973</ele>
        <time>2022-12-09T15:24:06.498Z</time>
      </trkpt>
      <trkpt lat="48.41359" lon="-4.54173">
        <ele>106.634247</ele>
        <time>2022-12-09T15:24:08.506Z</time>
      </trkpt>
      <trkpt lat="48.41352" lon="-4.54161">
        <ele>106.158663</ele>
        <time>2022-12-09T15:24:10.502Z</time>
      </trkpt>
      <trkpt lat="48.41343" lon="-4.5415">
        <ele>105.659278</ele>
        <time>2022-12-09T15:24:12.495Z</time>
      </trkpt>
      <trkpt lat="48.41335" lon="-4.54139">
        <ele>105.178228</ele>
        <time>2022-12-09T15:24:14.522Z</time>
      </trkpt>
      <trkpt lat="48.41328" lon="-4.54127">
        <ele>104.712401</ele>
        <time>2022-12-09T15:24:16.498Z</time>
      </trkpt>
      <trkpt lat="48.41322" lon="-4.54115">
        <ele>104.258285</ele>
        <time>2022-12-09T15:24:18.523Z</time>
      </trkpt>
      <trkpt lat="48.41314" lon="-4.54105">
        <ele>103.815959</ele>
        <time>2022-12-09T15:24:20.516Z</time>
      </trkpt>
      <trkpt lat="48.41308" lon="-4.54095">
        <ele>103.396672</ele>
        <time>2022-12-09T15:24:22.520Z</time>
      </trkpt>
      <trkpt lat="48.41301" lon="-4.54085">
        <ele>102.988666</ele>
        <time>2022-12-09T15:24:24.524Z</time>
      </trkpt>
      <trkpt lat="48.41292" lon="-4.54071">
        <ele>102.370457</ele>
        <time>2022-12-09T15:24:27.529Z</time>
      </trkpt>
      <trkpt lat="48.41285" lon="-4.54061">
        <ele>101.889569</ele>
        <time>2022-12-09T15:24:29.516Z</time>
      </trkpt>
      <trkpt lat="48.41277" lon="-4.54052">
        <ele>101.395053</ele>
        <time>2022-12-09T15:24:31.519Z</time>
      </trkpt>
      <trkpt lat="48.4127" lon="-4.54041">
        <ele>100.854805</ele>
        <time>2022-12-09T15:24:33.524Z</time>
      </trkpt>
      <trkpt lat="48.41262" lon="-4.5403">
        <ele>100.31596</ele>
        <time>2022-12-09T15:24:35.499Z</time>
      </trkpt>
      <trkpt lat="48.41255" lon="-4.5402">
        <ele>99.805051</ele>
        <time>2022-12-09T15:24:37.522Z</time>
      </trkpt>
      <trkpt lat="48.41248" lon="-4.54009">
        <ele>99.273594</ele>
        <time>2022-12-09T15:24:39.523Z</time>
      </trkpt>
      <trkpt lat="48.41241" lon="-4.53998">
        <ele>98.78068</ele>
        <time>2022-12-09T15:24:41.516Z</time>
      </trkpt>
      <trkpt lat="48.41234" lon="-4.53986">
        <ele>98.227631</ele>
        <time>2022-12-09T15:24:43.527Z</time>
      </trkpt>
      <trkpt lat="48.41227" lon="-4.53974">
        <ele>97.686295</ele>
        <time>2022-12-09T15:24:45.524Z</time>
      </trkpt>
      <trkpt lat="48.41219" lon="-4.53962">
        <ele>97.125481</ele>
        <time>2022-12-09T15:24:47.523Z</time>
      </trkpt>
      <trkpt lat="48.41211" lon="-4.53951">
        <ele>96.547851</ele>
        <time>2022-12-09T15:24:49.508Z</time>
      </trkpt>
      <trkpt lat="48.41203" lon="-4.53939">
        <ele>95.970527</ele>
        <time>2022-12-09T15:24:51.508Z</time>
      </trkpt>
      <trkpt lat="48.41195" lon="-4.53928">
        <ele>95.418109</ele>
        <time>2022-12-09T15:24:53.517Z</time>
      </trkpt>
      <trkpt lat="48.41188" lon="-4.53916">
        <ele>94.866135</ele>
        <time>2022-12-09T15:24:55.515Z</time>
      </trkpt>
      <trkpt lat="48.4118" lon="-4.53904">
        <ele>94.294857</ele>
        <time>2022-12-09T15:24:57.509Z</time>
      </trkpt>
      <trkpt lat="48.41172" lon="-4.53893">
        <ele>93.7223</ele>
        <time>2022-12-09T15:24:59.512Z</time>
      </trkpt>
      <trkpt lat="48.41164" lon="-4.5388">
        <ele>93.154319</ele>
        <time>2022-12-09T15:25:01.511Z</time>
      </trkpt>
      <trkpt lat="48.41157" lon="-4.53869">
        <ele>92.645964</ele>
        <time>2022-12-09T15:25:03.522Z</time>
      </trkpt>
      <trkpt lat="48.41149" lon="-4.53858">
        <ele>92.15221</ele>
        <time>2022-12-09T15:25:05.524Z</time>
      </trkpt>
      <trkpt lat="48.41142" lon="-4.53847">
        <ele>91.660662</ele>
        <time>2022-12-09T15:25:07.498Z</time>
      </trkpt>
      <trkpt lat="48.41135" lon="-4.53836">
        <ele>91.184718</ele>
        <time>2022-12-09T15:25:09.521Z</time>
      </trkpt>
      <trkpt lat="48.41128" lon="-4.53825">
        <ele>90.718675</ele>
        <time>2022-12-09T15:25:11.521Z</time>
      </trkpt>
      <trkpt lat="48.41121" lon="-4.53814">
        <ele>90.227129</ele>
        <time>2022-12-09T15:25:13.524Z</time>
      </trkpt>
      <trkpt lat="48.41114" lon="-4.53804">
        <ele>89.750147</ele>
        <time>2022-12-09T15:25:15.521Z</time>
      </trkpt>
      <trkpt lat="48.41107" lon="-4.53793">
        <ele>89.273165</ele>
        <time>2022-12-09T15:25:17.512Z</time>
      </trkpt>
      <trkpt lat="48.411" lon="-4.53781">
        <ele>88.793882</ele>
        <time>2022-12-09T15:25:19.495Z</time>
      </trkpt>
      <trkpt lat="48.41093" lon="-4.5377">
        <ele>88.304283</ele>
        <time>2022-12-09T15:25:21.520Z</time>
      </trkpt>
      <trkpt lat="48.41086" lon="-4.53758">
        <ele>87.805352</ele>
        <time>2022-12-09T15:25:23.504Z</time>
      </trkpt>
      <trkpt lat="48.41079" lon="-4.53747">
        <ele>87.301409</ele>
        <time>2022-12-09T15:25:25.520Z</time>
      </trkpt>
      <trkpt lat="48.41072" lon="-4.53735">
        <ele>86.789094</ele>
        <time>2022-12-09T15:25:27.515Z</time>
      </trkpt>
      <trkpt lat="48.41065" lon="-4.53722">
        <ele>86.278967</ele>
        <time>2022-12-09T15:25:29.505Z</time>
      </trkpt>
      <trkpt lat="48.41058" lon="-4.5371">
        <ele>85.785548</ele>
        <time>2022-12-09T15:25:31.514Z</time>
      </trkpt>
      <trkpt lat="48.41052" lon="-4.53699">
        <ele>85.327995</ele>
        <time>2022-12-09T15:25:33.499Z</time>
      </trkpt>
      <trkpt lat="48.41047" lon="-4.53687">
        <ele>84.878567</ele>
        <time>2022-12-09T15:25:35.495Z</time>
      </trkpt>
      <trkpt lat="48.41041" lon="-4.53676">
        <ele>84.494333</ele>
        <time>2022-12-09T15:25:37.518Z</time>
      </trkpt>
      <trkpt lat="48.41037" lon="-4.53664">
        <ele>84.124248</ele>
        <time>2022-12-09T15:25:39.510Z</time>
      </trkpt>
      <trkpt lat="48.41032" lon="-4.53651">
        <ele>83.749547</ele>
        <time>2022-12-09T15:25:41.523Z</time>
      </trkpt>
      <trkpt lat="48.41028" lon="-4.53639">
        <ele>83.369799</ele>
        <time>2022-12-09T15:25:43.524Z</time>
      </trkpt>
      <trkpt lat="48.41022" lon="-4.53622">
        <ele>82.885682</ele>
        <time>2022-12-09T15:25:46.522Z</time>
      </trkpt>
      <trkpt lat="48.4102" lon="-4.53608">
        <ele>82.483748</ele>
        <time>2022-12-09T15:25:49.521Z</time>
      </trkpt>
      <trkpt lat="48.41016" lon="-4.53593">
        <ele>82.068081</ele>
        <time>2022-12-09T15:25:52.504Z</time>
      </trkpt>
      <trkpt lat="48.41015" lon="-4.53579">
        <ele>81.689083</ele>
        <time>2022-12-09T15:25:54.497Z</time>
      </trkpt>
      <trkpt lat="48.41012" lon="-4.53564">
        <ele>81.275713</ele>
        <time>2022-12-09T15:25:56.504Z</time>
      </trkpt>
      <trkpt lat="48.41009" lon="-4.53548">
        <ele>80.83945</ele>
        <time>2022-12-09T15:25:58.502Z</time>
      </trkpt>
      <trkpt lat="48.41007" lon="-4.53535">
        <ele>80.463387</ele>
        <time>2022-12-09T15:26:00.517Z</time>
      </trkpt>
      <trkpt lat="48.41005" lon="-4.53521">
        <ele>80.091084</ele>
        <time>2022-12-09T15:26:02.519Z</time>
      </trkpt>
      <trkpt lat="48.41003" lon="-4.53507">
        <ele>79.719939</ele>
        <time>2022-12-09T15:26:04.521Z</time>
      </trkpt>
      <trkpt lat="48.41002" lon="-4.53488">
        <ele>79.206433</ele>
        <time>2022-12-09T15:26:07.518Z</time>
      </trkpt>
      <trkpt lat="48.41002" lon="-4.53468">
        <ele>78.680371</ele>
        <time>2022-12-09T15:26:10.521Z</time>
      </trkpt>
      <trkpt lat="48.41001" lon="-4.53448">
        <ele>78.160104</ele>
        <time>2022-12-09T15:26:13.519Z</time>
      </trkpt>
      <trkpt lat="48.41003" lon="-4.53429">
        <ele>77.645976</ele>
        <time>2022-12-09T15:26:16.518Z</time>
      </trkpt>
      <trkpt lat="48.41004" lon="-4.53416">
        <ele>77.271184</ele>
        <time>2022-12-09T15:26:18.524Z</time>
      </trkpt>
      <trkpt lat="48.41005" lon="-4.53397">
        <ele>76.763073</ele>
        <time>2022-12-09T15:26:21.524Z</time>
      </trkpt>
      <trkpt lat="48.41008" lon="-4.5338">
        <ele>76.263399</ele>
        <time>2022-12-09T15:26:24.532Z</time>
      </trkpt>
      <trkpt lat="48.41011" lon="-4.53362">
        <ele>75.762667</ele>
        <time>2022-12-09T15:26:27.520Z</time>
      </trkpt>
      <trkpt lat="48.41014" lon="-4.53344">
        <ele>75.251239</ele>
        <time>2022-12-09T15:26:30.498Z</time>
      </trkpt>
      <trkpt lat="48.41015" lon="-4.53331">
        <ele>74.867856</ele>
        <time>2022-12-09T15:26:32.519Z</time>
      </trkpt>
      <trkpt lat="48.41018" lon="-4.53317">
        <ele>74.493243</ele>
        <time>2022-12-09T15:26:34.522Z</time>
      </trkpt>
      <trkpt lat="48.41022" lon="-4.53299">
        <ele>73.961498</ele>
        <time>2022-12-09T15:26:37.522Z</time>
      </trkpt>
      <trkpt lat="48.41028" lon="-4.53281">
        <ele>73.41015</ele>
        <time>2022-12-09T15:26:40.497Z</time>
      </trkpt>
      <trkpt lat="48.41035" lon="-4.53265">
        <ele>72.875693</ele>
        <time>2022-12-09T15:26:43.520Z</time>
      </trkpt>
      <trkpt lat="48.41041" lon="-4.53253">
        <ele>72.453707</ele>
        <time>2022-12-09T15:26:47.520Z</time>
      </trkpt>
      <trkpt lat="48.41046" lon="-4.5324">
        <ele>72.043713</ele>
        <time>2022-12-09T15:26:52.498Z</time>
      </trkpt>
      <trkpt lat="48.4105" lon="-4.53227">
        <ele>71.6338</ele>
        <time>2022-12-09T15:26:55.523Z</time>
      </trkpt>
      <trkpt lat="48.41058" lon="-4.5321">
        <ele>71.073378</ele>
        <time>2022-12-09T15:26:58.512Z</time>
      </trkpt>
      <trkpt lat="48.41064" lon="-4.53198">
        <ele>70.655161</ele>
        <time>2022-12-09T15:27:00.498Z</time>
      </trkpt>
      <trkpt lat="48.4107" lon="-4.53187">
        <ele>70.248199</ele>
        <time>2022-12-09T15:27:02.522Z</time>
      </trkpt>
      <trkpt lat="48.41076" lon="-4.53174">
        <ele>69.799735</ele>
        <time>2022-12-09T15:27:04.516Z</time>
      </trkpt>
      <trkpt lat="48.41083" lon="-4.53163">
        <ele>69.353437</ele>
        <time>2022-12-09T15:27:06.531Z</time>
      </trkpt>
      <trkpt lat="48.41089" lon="-4.5315">
        <ele>68.895257</ele>
        <time>2022-12-09T15:27:08.525Z</time>
      </trkpt>
      <trkpt lat="48.41095" lon="-4.53139">
        <ele>68.476484</ele>
        <time>2022-12-09T15:27:10.513Z</time>
      </trkpt>
      <trkpt lat="48.41101" lon="-4.53129">
        <ele>68.067811</ele>
        <time>2022-12-09T15:27:12.517Z</time>
      </trkpt>
      <trkpt lat="48.41108" lon="-4.53119">
        <ele>67.659749</ele>
        <time>2022-12-09T15:27:14.520Z</time>
      </trkpt>
      <trkpt lat="48.41114" lon="-4.53108">
        <ele>67.241381</ele>
        <time>2022-12-09T15:27:16.521Z</time>
      </trkpt>
      <trkpt lat="48.4112" lon="-4.53097">
        <ele>66.817569</ele>
        <time>2022-12-09T15:27:18.521Z</time>
      </trkpt>
      <trkpt lat="48.41127" lon="-4.53086">
        <ele>66.382747</ele>
        <time>2022-12-09T15:27:20.523Z</time>
      </trkpt>
      <trkpt lat="48.41134" lon="-4.53076">
        <ele>65.964333</ele>
        <time>2022-12-09T15:27:22.501Z</time>
      </trkpt>
      <trkpt lat="48.41141" lon="-4.53067">
        <ele>65.556378</ele>
        <time>2022-12-09T15:27:24.499Z</time>
      </trkpt>
      <trkpt lat="48.41149" lon="-4.5306">
        <ele>65.158684</ele>
        <time>2022-12-09T15:27:26.501Z</time>
      </trkpt>
      <trkpt lat="48.4116" lon="-4.53049">
        <ele>64.572459</ele>
        <time>2022-12-09T15:27:29.522Z</time>
      </trkpt>
      <trkpt lat="48.4117" lon="-4.53039">
        <ele>64.034636</ele>
        <time>2022-12-09T15:27:32.522Z</time>
      </trkpt>
      <trkpt lat="48.41178" lon="-4.53024">
        <ele>63.468064</ele>
        <time>2022-12-09T15:27:35.498Z</time>
      </trkpt>
      <trkpt lat="48.41183" lon="-4.53007">
        <ele>62.93639</ele>
        <time>2022-12-09T15:27:38.501Z</time>
      </trkpt>
      <trkpt lat="48.41185" lon="-4.52994">
        <ele>62.534653</ele>
        <time>2022-12-09T15:27:41.516Z</time>
      </trkpt>
      <trkpt lat="48.41191" lon="-4.52981">
        <ele>62.053032</ele>
        <time>2022-12-09T15:27:45.502Z</time>
      </trkpt>
      <trkpt lat="48.41199" lon="-4.52966">
        <ele>61.280762</ele>
        <time>2022-12-09T15:27:49.501Z</time>
      </trkpt>
      <trkpt lat="48.41208" lon="-4.52954">
        <ele>60.546166</ele>
        <time>2022-12-09T15:27:52.497Z</time>
      </trkpt>
      <trkpt lat="48.41217" lon="-4.52946">
        <ele>59.861235</ele>
        <time>2022-12-09T15:27:55.521Z</time>
      </trkpt>
      <trkpt lat="48.41225" lon="-4.52935">
        <ele>59.181716</ele>
        <time>2022-12-09T15:27:59.529Z</time>
      </trkpt>
      <trkpt lat="48.4122" lon="-4.52922">
        <ele>58.599111</ele>
        <time>2022-12-09T15:28:02.498Z</time>
      </trkpt>
      <trkpt lat="48.41213" lon="-4.52911">
        <ele>57.93093</ele>
        <time>2022-12-09T15:28:05.495Z</time>
      </trkpt>
      <trkpt lat="48.41204" lon="-4.52897">
        <ele>57.147757</ele>
        <time>2022-12-09T15:28:08.515Z</time>
      </trkpt>
      <trkpt lat="48.41198" lon="-4.52886">
        <ele>56.560188</ele>
        <time>2022-12-09T15:28:10.520Z</time>
      </trkpt>
      <trkpt lat="48.41191" lon="-4.52875">
        <ele>55.958248</ele>
        <time>2022-12-09T15:28:12.520Z</time>
      </trkpt>
      <trkpt lat="48.41187" lon="-4.52862">
        <ele>55.335643</ele>
        <time>2022-12-09T15:28:14.515Z</time>
      </trkpt>
      <trkpt lat="48.41185" lon="-4.52848">
        <ele>54.74176</ele>
        <time>2022-12-09T15:28:16.497Z</time>
      </trkpt>
      <trkpt lat="48.41186" lon="-4.52833">
        <ele>54.124033</ele>
        <time>2022-12-09T15:28:18.502Z</time>
      </trkpt>
      <trkpt lat="48.41188" lon="-4.52816">
        <ele>53.408485</ele>
        <time>2022-12-09T15:28:21.510Z</time>
      </trkpt>
      <trkpt lat="48.41185" lon="-4.52801">
        <ele>52.780631</ele>
        <time>2022-12-09T15:28:24.503Z</time>
      </trkpt>
      <trkpt lat="48.41178" lon="-4.52787">
        <ele>52.067138</ele>
        <time>2022-12-09T15:28:27.518Z</time>
      </trkpt>
      <trkpt lat="48.4117" lon="-4.52773">
        <ele>51.324166</ele>
        <time>2022-12-09T15:28:30.522Z</time>
      </trkpt>
      <trkpt lat="48.41163" lon="-4.5276">
        <ele>51.057257</ele>
        <time>2022-12-09T15:28:33.508Z</time>
      </trkpt>
      <trkpt lat="48.41159" lon="-4.52745">
        <ele>51.183701</ele>
        <time>2022-12-09T15:28:37.520Z</time>
      </trkpt>
      <trkpt lat="48.41156" lon="-4.52731">
        <ele>51.291904</ele>
        <time>2022-12-09T15:28:41.521Z</time>
      </trkpt>
      <trkpt lat="48.41149" lon="-4.5272">
        <ele>51.412801</ele>
        <time>2022-12-09T15:28:46.502Z</time>
      </trkpt>
      <trkpt lat="48.41143" lon="-4.52709">
        <ele>51.51738</ele>
        <time>2022-12-09T15:28:51.519Z</time>
      </trkpt>
      <trkpt lat="48.41135" lon="-4.52701">
        <ele>51.625625</ele>
        <time>2022-12-09T15:29:09.505Z</time>
      </trkpt>
      <trkpt lat="48.41125" lon="-4.52701">
        <ele>51.737089</ele>
        <time>2022-12-09T15:29:14.518Z</time>
      </trkpt>
      <trkpt lat="48.41115" lon="-4.52701">
        <ele>51.857638</ele>
        <time>2022-12-09T15:29:17.521Z</time>
      </trkpt>
      <trkpt lat="48.41105" lon="-4.527">
        <ele>51.968151</ele>
        <time>2022-12-09T15:29:19.513Z</time>
      </trkpt>
      <trkpt lat="48.41096" lon="-4.52696">
        <ele>52.076161</ele>
        <time>2022-12-09T15:29:21.518Z</time>
      </trkpt>
      <trkpt lat="48.41084" lon="-4.52687">
        <ele>52.223852</ele>
        <time>2022-12-09T15:29:24.499Z</time>
      </trkpt>
      <trkpt lat="48.41073" lon="-4.5268">
        <ele>52.362925</ele>
        <time>2022-12-09T15:29:27.518Z</time>
      </trkpt>
      <trkpt lat="48.41062" lon="-4.52674">
        <ele>52.499941</ele>
        <time>2022-12-09T15:29:30.503Z</time>
      </trkpt>
      <trkpt lat="48.4105" lon="-4.52668">
        <ele>52.638584</ele>
        <time>2022-12-09T15:29:33.512Z</time>
      </trkpt>
      <trkpt lat="48.41039" lon="-4.52661">
        <ele>52.772455</ele>
        <time>2022-12-09T15:29:36.520Z</time>
      </trkpt>
      <trkpt lat="48.41028" lon="-4.52653">
        <ele>52.907374</ele>
        <time>2022-12-09T15:29:39.505Z</time>
      </trkpt>
      <trkpt lat="48.41018" lon="-4.52648">
        <ele>53.031982</ele>
        <time>2022-12-09T15:29:42.501Z</time>
      </trkpt>
      <trkpt lat="48.41007" lon="-4.52646">
        <ele>53.028084</ele>
        <time>2022-12-09T15:29:46.512Z</time>
      </trkpt>
      <trkpt lat="48.40997" lon="-4.52642">
        <ele>53.019487</ele>
        <time>2022-12-09T15:29:50.496Z</time>
      </trkpt>
      <trkpt lat="48.40988" lon="-4.52636">
        <ele>53.01141</ele>
        <time>2022-12-09T15:29:55.509Z</time>
      </trkpt>
      <trkpt lat="48.40985" lon="-4.52624">
        <ele>53.003455</ele>
        <time>2022-12-09T15:29:59.507Z</time>
      </trkpt>
      <trkpt lat="48.40985" lon="-4.5261">
        <ele>52.995688</ele>
        <time>2022-12-09T15:30:02.505Z</time>
      </trkpt>
      <trkpt lat="48.40986" lon="-4.52596">
        <ele>52.987768</ele>
        <time>2022-12-09T15:30:05.501Z</time>
      </trkpt>
      <trkpt lat="48.4099" lon="-4.52583">
        <ele>52.979676</ele>
        <time>2022-12-09T15:30:08.498Z</time>
      </trkpt>
      <trkpt lat="48.40992" lon="-4.52569">
        <ele>52.971766</ele>
        <time>2022-12-09T15:30:11.502Z</time>
      </trkpt>
      <trkpt lat="48.40984" lon="-4.52557">
        <ele>52.96226</ele>
        <time>2022-12-09T15:30:15.517Z</time>
      </trkpt>
      <trkpt lat="48.40976" lon="-4.52545">
        <ele>52.952934</ele>
        <time>2022-12-09T15:30:19.514Z</time>
      </trkpt>
      <trkpt lat="48.40972" lon="-4.52529">
        <ele>52.943601</ele>
        <time>2022-12-09T15:30:22.499Z</time>
      </trkpt>
      <trkpt lat="48.40971" lon="-4.52512">
        <ele>52.933874</ele>
        <time>2022-12-09T15:30:25.499Z</time>
      </trkpt>
      <trkpt lat="48.40972" lon="-4.52496">
        <ele>52.924911</ele>
        <time>2022-12-09T15:30:28.503Z</time>
      </trkpt>
      <trkpt lat="48.40974" lon="-4.5248">
        <ele>52.915592</ele>
        <time>2022-12-09T15:30:31.520Z</time>
      </trkpt>
      <trkpt lat="48.40975" lon="-4.52465">
        <ele>52.907132</ele>
        <time>2022-12-09T15:30:34.523Z</time>
      </trkpt>
      <trkpt lat="48.40977" lon="-4.5245">
        <ele>52.898743</ele>
        <time>2022-12-09T15:30:37.524Z</time>
      </trkpt>
      <trkpt lat="48.40981" lon="-4.52437">
        <ele>52.890922</ele>
        <time>2022-12-09T15:30:40.521Z</time>
      </trkpt>
      <trkpt lat="48.40983" lon="-4.52424">
        <ele>52.894596</ele>
        <time>2022-12-09T15:30:43.517Z</time>
      </trkpt>
      <trkpt lat="48.40986" lon="-4.5241">
        <ele>52.9384</ele>
        <time>2022-12-09T15:30:46.519Z</time>
      </trkpt>
      <trkpt lat="48.40987" lon="-4.52394">
        <ele>52.983619</ele>
        <time>2022-12-09T15:30:49.501Z</time>
      </trkpt>
      <trkpt lat="48.40989" lon="-4.5238">
        <ele>53.027677</ele>
        <time>2022-12-09T15:30:52.505Z</time>
      </trkpt>
      <trkpt lat="48.40992" lon="-4.52364">
        <ele>53.076693</ele>
        <time>2022-12-09T15:30:55.520Z</time>
      </trkpt>
      <trkpt lat="48.40994" lon="-4.5235">
        <ele>53.116681</ele>
        <time>2022-12-09T15:30:58.510Z</time>
      </trkpt>
      <trkpt lat="48.40997" lon="-4.52334">
        <ele>53.165936</ele>
        <time>2022-12-09T15:31:02.522Z</time>
      </trkpt>
      <trkpt lat="48.40998" lon="-4.52318">
        <ele>53.213023</ele>
        <time>2022-12-09T15:31:06.519Z</time>
      </trkpt>
      <trkpt lat="48.40999" lon="-4.52302">
        <ele>53.259983</ele>
        <time>2022-12-09T15:31:09.499Z</time>
      </trkpt>
      <trkpt lat="48.41001" lon="-4.52288">
        <ele>53.303617</ele>
        <time>2022-12-09T15:31:12.498Z</time>
      </trkpt>
      <trkpt lat="48.40999" lon="-4.52272">
        <ele>53.351326</ele>
        <time>2022-12-09T15:31:16.502Z</time>
      </trkpt>
      <trkpt lat="48.4099" lon="-4.52273">
        <ele>53.393018</ele>
        <time>2022-12-09T15:31:20.505Z</time>
      </trkpt>
      <trkpt lat="48.40983" lon="-4.52283">
        <ele>53.437058</ele>
        <time>2022-12-09T15:31:24.498Z</time>
      </trkpt>
      <trkpt lat="48.40977" lon="-4.52295">
        <ele>53.48217</ele>
        <time>2022-12-09T15:31:28.497Z</time>
      </trkpt>
      <trkpt lat="48.40969" lon="-4.52305">
        <ele>53.526173</ele>
        <time>2022-12-09T15:31:33.517Z</time>
      </trkpt>
      <trkpt lat="48.40961" lon="-4.5231">
        <ele>53.566671</ele>
        <time>2022-12-09T15:31:38.496Z</time>
      </trkpt>
      <trkpt lat="48.40952" lon="-4.52319">
        <ele>53.612942</ele>
        <time>2022-12-09T15:31:42.517Z</time>
      </trkpt>
      <trkpt lat="48.40947" lon="-4.52332">
        <ele>53.657256</ele>
        <time>2022-12-09T15:31:46.500Z</time>
      </trkpt>
      <trkpt lat="48.40941" lon="-4.52347">
        <ele>53.495578</ele>
        <time>2022-12-09T15:31:50.538Z</time>
      </trkpt>
      <trkpt lat="48.40935" lon="-4.52362">
        <ele>53.138329</ele>
        <time>2022-12-09T15:31:54.516Z</time>
      </trkpt>
      <trkpt lat="48.40929" lon="-4.52375">
        <ele>52.826881</ele>
        <time>2022-12-09T15:31:57.500Z</time>
      </trkpt>
      <trkpt lat="48.40922" lon="-4.52388">
        <ele>52.485168</ele>
        <time>2022-12-09T15:32:00.527Z</time>
      </trkpt>
      <trkpt lat="48.40913" lon="-4.52398">
        <ele>52.161194</ele>
        <time>2022-12-09T15:32:03.499Z</time>
      </trkpt>
      <trkpt lat="48.40903" lon="-4.52406">
        <ele>51.801134</ele>
        <time>2022-12-09T15:32:07.506Z</time>
      </trkpt>
      <trkpt lat="48.40892" lon="-4.52411">
        <ele>51.46302</ele>
        <time>2022-12-09T15:32:10.512Z</time>
      </trkpt>
      <trkpt lat="48.40882" lon="-4.52413">
        <ele>51.16743</ele>
        <time>2022-12-09T15:32:13.498Z</time>
      </trkpt>
      <trkpt lat="48.40871" lon="-4.52415">
        <ele>50.805987</ele>
        <time>2022-12-09T15:32:17.519Z</time>
      </trkpt>
      <trkpt lat="48.40861" lon="-4.52414">
        <ele>50.509195</ele>
        <time>2022-12-09T15:32:20.520Z</time>
      </trkpt>
      <trkpt lat="48.40849" lon="-4.52415">
        <ele>50.167118</ele>
        <time>2022-12-09T15:32:23.525Z</time>
      </trkpt>
      <trkpt lat="48.40839" lon="-4.52414">
        <ele>49.845653</ele>
        <time>2022-12-09T15:32:26.516Z</time>
      </trkpt>
      <trkpt lat="48.40826" lon="-4.52412">
        <ele>49.45916</ele>
        <time>2022-12-09T15:32:29.499Z</time>
      </trkpt>
      <trkpt lat="48.40814" lon="-4.52409">
        <ele>49.097906</ele>
        <time>2022-12-09T15:32:32.521Z</time>
      </trkpt>
      <trkpt lat="48.40802" lon="-4.52405">
        <ele>48.711532</ele>
        <time>2022-12-09T15:32:35.519Z</time>
      </trkpt>
      <trkpt lat="48.4079" lon="-4.524">
        <ele>48.337055</ele>
        <time>2022-12-09T15:32:38.521Z</time>
      </trkpt>
      <trkpt lat="48.40777" lon="-4.52397">
        <ele>48.229267</ele>
        <time>2022-12-09T15:32:41.518Z</time>
      </trkpt>
      <trkpt lat="48.40766" lon="-4.52394">
        <ele>48.219261</ele>
        <time>2022-12-09T15:32:44.523Z</time>
      </trkpt>
      <trkpt lat="48.40756" lon="-4.52392">
        <ele>48.211008</ele>
        <time>2022-12-09T15:32:47.510Z</time>
      </trkpt>
      <trkpt lat="48.40744" lon="-4.52389">
        <ele>48.201422</ele>
        <time>2022-12-09T15:32:50.510Z</time>
      </trkpt>
      <trkpt lat="48.40732" lon="-4.52388">
        <ele>48.191415</ele>
        <time>2022-12-09T15:32:53.522Z</time>
      </trkpt>
      <trkpt lat="48.4072" lon="-4.52388">
        <ele>48.18093</ele>
        <time>2022-12-09T15:32:56.521Z</time>
      </trkpt>
      <trkpt lat="48.40708" lon="-4.52389">
        <ele>48.171009</ele>
        <time>2022-12-09T15:32:59.517Z</time>
      </trkpt>
      <trkpt lat="48.40699" lon="-4.5239">
        <ele>48.163255</ele>
        <time>2022-12-09T15:33:01.512Z</time>
      </trkpt>
      <trkpt lat="48.40689" lon="-4.5239">
        <ele>48.155432</ele>
        <time>2022-12-09T15:33:03.519Z</time>
      </trkpt>
      <trkpt lat="48.40679" lon="-4.5239">
        <ele>48.146861</ele>
        <time>2022-12-09T15:33:05.521Z</time>
      </trkpt>
      <trkpt lat="48.4067" lon="-4.52387">
        <ele>48.139236</ele>
        <time>2022-12-09T15:33:07.522Z</time>
      </trkpt>
      <trkpt lat="48.4066" lon="-4.52386">
        <ele>48.13122</ele>
        <time>2022-12-09T15:33:09.526Z</time>
      </trkpt>
      <trkpt lat="48.40648" lon="-4.52383">
        <ele>48.120638</ele>
        <time>2022-12-09T15:33:12.520Z</time>
      </trkpt>
      <trkpt lat="48.40638" lon="-4.52378">
        <ele>48.11244</ele>
        <time>2022-12-09T15:33:14.506Z</time>
      </trkpt>
      <trkpt lat="48.4063" lon="-4.52374">
        <ele>48.104846</ele>
        <time>2022-12-09T15:33:16.521Z</time>
      </trkpt>
      <trkpt lat="48.40621" lon="-4.52369">
        <ele>48.097174</ele>
        <time>2022-12-09T15:33:18.522Z</time>
      </trkpt>
      <trkpt lat="48.40612" lon="-4.52365">
        <ele>48.089379</ele>
        <time>2022-12-09T15:33:20.525Z</time>
      </trkpt>
      <trkpt lat="48.40603" lon="-4.52361">
        <ele>48.104781</ele>
        <time>2022-12-09T15:33:22.524Z</time>
      </trkpt>
      <trkpt lat="48.40594" lon="-4.52357">
        <ele>48.127538</ele>
        <time>2022-12-09T15:33:24.522Z</time>
      </trkpt>
      <trkpt lat="48.40585" lon="-4.52353">
        <ele>48.149661</ele>
        <time>2022-12-09T15:33:26.521Z</time>
      </trkpt>
      <trkpt lat="48.40577" lon="-4.52349">
        <ele>48.171989</ele>
        <time>2022-12-09T15:33:28.498Z</time>
      </trkpt>
      <trkpt lat="48.40564" lon="-4.52342">
        <ele>48.204475</ele>
        <time>2022-12-09T15:33:31.518Z</time>
      </trkpt>
      <trkpt lat="48.40551" lon="-4.52336">
        <ele>48.237784</ele>
        <time>2022-12-09T15:33:34.519Z</time>
      </trkpt>
      <trkpt lat="48.40542" lon="-4.52332">
        <ele>48.262113</ele>
        <time>2022-12-09T15:33:36.533Z</time>
      </trkpt>
      <trkpt lat="48.40532" lon="-4.52329">
        <ele>48.286848</ele>
        <time>2022-12-09T15:33:38.516Z</time>
      </trkpt>
      <trkpt lat="48.40523" lon="-4.5232">
        <ele>48.312192</ele>
        <time>2022-12-09T15:33:40.502Z</time>
      </trkpt>
      <trkpt lat="48.40516" lon="-4.52311">
        <ele>48.336499</ele>
        <time>2022-12-09T15:33:43.509Z</time>
      </trkpt>
      <trkpt lat="48.40507" lon="-4.52303">
        <ele>48.361255</ele>
        <time>2022-12-09T15:33:46.509Z</time>
      </trkpt>
      <trkpt lat="48.40497" lon="-4.52296">
        <ele>48.387323</ele>
        <time>2022-12-09T15:33:49.501Z</time>
      </trkpt>
      <trkpt lat="48.40487" lon="-4.52288">
        <ele>48.41531</ele>
        <time>2022-12-09T15:33:52.521Z</time>
      </trkpt>
      <trkpt lat="48.40478" lon="-4.52278">
        <ele>48.443129</ele>
        <time>2022-12-09T15:33:55.505Z</time>
      </trkpt>
      <trkpt lat="48.40468" lon="-4.52266">
        <ele>48.474578</ele>
        <time>2022-12-09T15:33:58.513Z</time>
      </trkpt>
      <trkpt lat="48.40459" lon="-4.52253">
        <ele>48.505439</ele>
        <time>2022-12-09T15:34:01.523Z</time>
      </trkpt>
      <trkpt lat="48.40451" lon="-4.52238">
        <ele>48.576284</ele>
        <time>2022-12-09T15:34:04.505Z</time>
      </trkpt>
      <trkpt lat="48.40445" lon="-4.52227">
        <ele>48.710655</ele>
        <time>2022-12-09T15:34:06.521Z</time>
      </trkpt>
      <trkpt lat="48.40438" lon="-4.52213">
        <ele>48.88912</ele>
        <time>2022-12-09T15:34:09.527Z</time>
      </trkpt>
      <trkpt lat="48.4043" lon="-4.52199">
        <ele>49.056783</ele>
        <time>2022-12-09T15:34:12.528Z</time>
      </trkpt>
      <trkpt lat="48.40423" lon="-4.52187">
        <ele>49.221006</ele>
        <time>2022-12-09T15:34:15.513Z</time>
      </trkpt>
      <trkpt lat="48.40415" lon="-4.52175">
        <ele>49.375391</ele>
        <time>2022-12-09T15:34:18.522Z</time>
      </trkpt>
      <trkpt lat="48.40407" lon="-4.52165">
        <ele>49.522075</ele>
        <time>2022-12-09T15:34:21.499Z</time>
      </trkpt>
      <trkpt lat="48.40398" lon="-4.52158">
        <ele>49.674874</ele>
        <time>2022-12-09T15:34:24.510Z</time>
      </trkpt>
      <trkpt lat="48.40387" lon="-4.52153">
        <ele>49.849128</ele>
        <time>2022-12-09T15:34:27.509Z</time>
      </trkpt>
      <trkpt lat="48.40374" lon="-4.52147">
        <ele>50.041984</ele>
        <time>2022-12-09T15:34:30.517Z</time>
      </trkpt>
      <trkpt lat="48.40362" lon="-4.52141">
        <ele>50.219696</ele>
        <time>2022-12-09T15:34:33.500Z</time>
      </trkpt>
      <trkpt lat="48.4035" lon="-4.52133">
        <ele>50.40641</ele>
        <time>2022-12-09T15:34:36.500Z</time>
      </trkpt>
      <trkpt lat="48.4034" lon="-4.52122">
        <ele>50.592279</ele>
        <time>2022-12-09T15:34:39.510Z</time>
      </trkpt>
      <trkpt lat="48.40331" lon="-4.52111">
        <ele>50.762552</ele>
        <time>2022-12-09T15:34:42.518Z</time>
      </trkpt>
      <trkpt lat="48.40321" lon="-4.52097">
        <ele>50.95154</ele>
        <time>2022-12-09T15:34:45.510Z</time>
      </trkpt>
      <trkpt lat="48.40313" lon="-4.52084">
        <ele>51.126097</ele>
        <time>2022-12-09T15:34:48.520Z</time>
      </trkpt>
      <trkpt lat="48.40307" lon="-4.52069">
        <ele>51.067239</ele>
        <time>2022-12-09T15:34:51.521Z</time>
      </trkpt>
      <trkpt lat="48.40303" lon="-4.52054">
        <ele>50.996567</ele>
        <time>2022-12-09T15:34:54.500Z</time>
      </trkpt>
      <trkpt lat="48.40301" lon="-4.52038">
        <ele>50.932013</ele>
        <time>2022-12-09T15:34:57.507Z</time>
      </trkpt>
      <trkpt lat="48.40301" lon="-4.52024">
        <ele>50.871578</ele>
        <time>2022-12-09T15:35:00.499Z</time>
      </trkpt>
      <trkpt lat="48.403" lon="-4.5201">
        <ele>50.814088</ele>
        <time>2022-12-09T15:35:03.524Z</time>
      </trkpt>
      <trkpt lat="48.40298" lon="-4.51996">
        <ele>50.753959</ele>
        <time>2022-12-09T15:35:06.521Z</time>
      </trkpt>
      <trkpt lat="48.40295" lon="-4.51981">
        <ele>50.689674</ele>
        <time>2022-12-09T15:35:09.519Z</time>
      </trkpt>
      <trkpt lat="48.40293" lon="-4.51964">
        <ele>50.616854</ele>
        <time>2022-12-09T15:35:12.521Z</time>
      </trkpt>
      <trkpt lat="48.4029" lon="-4.51951">
        <ele>50.559721</ele>
        <time>2022-12-09T15:35:14.499Z</time>
      </trkpt>
      <trkpt lat="48.40287" lon="-4.51938">
        <ele>50.499817</ele>
        <time>2022-12-09T15:35:16.523Z</time>
      </trkpt>
      <trkpt lat="48.40282" lon="-4.51924">
        <ele>50.438563</ele>
        <time>2022-12-09T15:35:18.509Z</time>
      </trkpt>
      <trkpt lat="48.40276" lon="-4.51912">
        <ele>50.373845</ele>
        <time>2022-12-09T15:35:20.509Z</time>
      </trkpt>
      <trkpt lat="48.40269" lon="-4.51901">
        <ele>50.307992</ele>
        <time>2022-12-09T15:35:22.498Z</time>
      </trkpt>
      <trkpt lat="48.40261" lon="-4.51891">
        <ele>50.243316</ele>
        <time>2022-12-09T15:35:24.497Z</time>
      </trkpt>
      <trkpt lat="48.40253" lon="-4.51882">
        <ele>50.180646</ele>
        <time>2022-12-09T15:35:26.501Z</time>
      </trkpt>
      <trkpt lat="48.40245" lon="-4.51872">
        <ele>50.116101</ele>
        <time>2022-12-09T15:35:28.514Z</time>
      </trkpt>
      <trkpt lat="48.40237" lon="-4.51864">
        <ele>50.057807</ele>
        <time>2022-12-09T15:35:30.517Z</time>
      </trkpt>
      <trkpt lat="48.4023" lon="-4.51856">
        <ele>50.012731</ele>
        <time>2022-12-09T15:35:32.523Z</time>
      </trkpt>
      <trkpt lat="48.40219" lon="-4.51846">
        <ele>50.1252</ele>
        <time>2022-12-09T15:35:35.503Z</time>
      </trkpt>
      <trkpt lat="48.40209" lon="-4.51838">
        <ele>50.225412</ele>
        <time>2022-12-09T15:35:38.508Z</time>
      </trkpt>
      <trkpt lat="48.40198" lon="-4.51831">
        <ele>50.323329</ele>
        <time>2022-12-09T15:35:41.517Z</time>
      </trkpt>
      <trkpt lat="48.40188" lon="-4.51822">
        <ele>50.423548</ele>
        <time>2022-12-09T15:35:44.522Z</time>
      </trkpt>
      <trkpt lat="48.40179" lon="-4.51813">
        <ele>50.519079</ele>
        <time>2022-12-09T15:35:47.522Z</time>
      </trkpt>
      <trkpt lat="48.40171" lon="-4.51801">
        <ele>50.616865</ele>
        <time>2022-12-09T15:35:50.499Z</time>
      </trkpt>
      <trkpt lat="48.40164" lon="-4.51785">
        <ele>50.727983</ele>
        <time>2022-12-09T15:35:53.513Z</time>
      </trkpt>
      <trkpt lat="48.40158" lon="-4.51775">
        <ele>50.808253</ele>
        <time>2022-12-09T15:35:55.499Z</time>
      </trkpt>
      <trkpt lat="48.40149" lon="-4.51761">
        <ele>50.918079</ele>
        <time>2022-12-09T15:35:58.521Z</time>
      </trkpt>
      <trkpt lat="48.40141" lon="-4.51746">
        <ele>51.027441</ele>
        <time>2022-12-09T15:36:01.520Z</time>
      </trkpt>
      <trkpt lat="48.40134" lon="-4.51732">
        <ele>51.129641</ele>
        <time>2022-12-09T15:36:04.513Z</time>
      </trkpt>
      <trkpt lat="48.40126" lon="-4.5172">
        <ele>51.230237</ele>
        <time>2022-12-09T15:36:07.502Z</time>
      </trkpt>
      <trkpt lat="48.40119" lon="-4.51709">
        <ele>51.320024</ele>
        <time>2022-12-09T15:36:10.507Z</time>
      </trkpt>
      <trkpt lat="48.40112" lon="-4.51698">
        <ele>51.405162</ele>
        <time>2022-12-09T15:36:13.514Z</time>
      </trkpt>
      <trkpt lat="48.40106" lon="-4.51685">
        <ele>51.49521</ele>
        <time>2022-12-09T15:36:17.513Z</time>
      </trkpt>
      <trkpt lat="48.40094" lon="-4.51672">
        <ele>51.641688</ele>
        <time>2022-12-09T15:38:28.500Z</time>
      </trkpt>
      <trkpt lat="48.40101" lon="-4.5168">
        <ele>51.743394</ele>
        <time>2022-12-09T15:39:05.508Z</time>
      </trkpt>
      <trkpt lat="48.40092" lon="-4.51668">
        <ele>51.880146</ele>
        <time>2022-12-09T15:40:00.501Z</time>
      </trkpt>
      <trkpt lat="48.40085" lon="-4.51656">
        <ele>52.003522</ele>
        <time>2022-12-09T15:40:04.522Z</time>
      </trkpt>
      <trkpt lat="48.40078" lon="-4.51644">
        <ele>52.122155</ele>
        <time>2022-12-09T15:40:07.515Z</time>
      </trkpt>
      <trkpt lat="48.40071" lon="-4.51633">
        <ele>52.235237</ele>
        <time>2022-12-09T15:40:10.524Z</time>
      </trkpt>
      <trkpt lat="48.40063" lon="-4.51623">
        <ele>52.361041</ele>
        <time>2022-12-09T15:40:14.512Z</time>
      </trkpt>
      <trkpt lat="48.40056" lon="-4.51612">
        <ele>52.474914</ele>
        <time>2022-12-09T15:40:20.503Z</time>
      </trkpt>
      <trkpt lat="48.40058" lon="-4.51596">
        <ele>52.5948</ele>
        <time>2022-12-09T15:40:25.504Z</time>
      </trkpt>
      <trkpt lat="48.40064" lon="-4.51586">
        <ele>52.703266</ele>
        <time>2022-12-09T15:40:28.514Z</time>
      </trkpt>
      <trkpt lat="48.40071" lon="-4.51576">
        <ele>52.805644</ele>
        <time>2022-12-09T15:40:31.499Z</time>
      </trkpt>
      <trkpt lat="48.40079" lon="-4.51562">
        <ele>52.943135</ele>
        <time>2022-12-09T15:40:35.523Z</time>
      </trkpt>
      <trkpt lat="48.40086" lon="-4.51552">
        <ele>53.052192</ele>
        <time>2022-12-09T15:40:38.511Z</time>
      </trkpt>
      <trkpt lat="48.40092" lon="-4.51542">
        <ele>53.160984</ele>
        <time>2022-12-09T15:40:41.504Z</time>
      </trkpt>
      <trkpt lat="48.40099" lon="-4.51531">
        <ele>53.270279</ele>
        <time>2022-12-09T15:40:44.512Z</time>
      </trkpt>
      <trkpt lat="48.40106" lon="-4.51518">
        <ele>53.398715</ele>
        <time>2022-12-09T15:40:48.512Z</time>
      </trkpt>
      <trkpt lat="48.40115" lon="-4.51506">
        <ele>53.534004</ele>
        <time>2022-12-09T15:40:52.514Z</time>
      </trkpt>
      <trkpt lat="48.40123" lon="-4.51494">
        <ele>53.816119</ele>
        <time>2022-12-09T15:40:56.506Z</time>
      </trkpt>
      <trkpt lat="48.40131" lon="-4.51484">
        <ele>54.281991</ele>
        <time>2022-12-09T15:41:00.524Z</time>
      </trkpt>
      <trkpt lat="48.40139" lon="-4.51471">
        <ele>54.829201</ele>
        <time>2022-12-09T15:41:04.526Z</time>
      </trkpt>
      <trkpt lat="48.40145" lon="-4.51461">
        <ele>55.242116</ele>
        <time>2022-12-09T15:41:07.519Z</time>
      </trkpt>
      <trkpt lat="48.40154" lon="-4.51448">
        <ele>55.78817</ele>
        <time>2022-12-09T15:41:11.521Z</time>
      </trkpt>
      <trkpt lat="48.4016" lon="-4.51438">
        <ele>56.227842</ele>
        <time>2022-12-09T15:41:15.520Z</time>
      </trkpt>
      <trkpt lat="48.40168" lon="-4.51425">
        <ele>56.75722</ele>
        <time>2022-12-09T15:41:19.513Z</time>
      </trkpt>
      <trkpt lat="48.40176" lon="-4.51413">
        <ele>57.260832</ele>
        <time>2022-12-09T15:41:23.521Z</time>
      </trkpt>
      <trkpt lat="48.40184" lon="-4.51401">
        <ele>57.7716</ele>
        <time>2022-12-09T15:41:27.522Z</time>
      </trkpt>
      <trkpt lat="48.40191" lon="-4.5139">
        <ele>58.240262</ele>
        <time>2022-12-09T15:41:31.516Z</time>
      </trkpt>
      <trkpt lat="48.40198" lon="-4.51378">
        <ele>58.715861</ele>
        <time>2022-12-09T15:41:35.521Z</time>
      </trkpt>
      <trkpt lat="48.40205" lon="-4.51366">
        <ele>59.198234</ele>
        <time>2022-12-09T15:41:39.513Z</time>
      </trkpt>
      <trkpt lat="48.40212" lon="-4.51356">
        <ele>59.648629</ele>
        <time>2022-12-09T15:41:43.517Z</time>
      </trkpt>
      <trkpt lat="48.40218" lon="-4.51346">
        <ele>60.081813</ele>
        <time>2022-12-09T15:41:47.520Z</time>
      </trkpt>
      <trkpt lat="48.40226" lon="-4.51334">
        <ele>60.580942</ele>
        <time>2022-12-09T15:41:51.517Z</time>
      </trkpt>
      <trkpt lat="48.40233" lon="-4.51322">
        <ele>61.0722</ele>
        <time>2022-12-09T15:41:56.522Z</time>
      </trkpt>
      <trkpt lat="48.40241" lon="-4.51311">
        <ele>61.543024</ele>
        <time>2022-12-09T15:42:01.499Z</time>
      </trkpt>
      <trkpt lat="48.40247" lon="-4.51301">
        <ele>62.023255</ele>
        <time>2022-12-09T15:42:05.510Z</time>
      </trkpt>
      <trkpt lat="48.40254" lon="-4.51291">
        <ele>62.693093</ele>
        <time>2022-12-09T15:42:10.504Z</time>
      </trkpt>
      <trkpt lat="48.40259" lon="-4.5128">
        <ele>63.343404</ele>
        <time>2022-12-09T15:42:15.504Z</time>
      </trkpt>
      <trkpt lat="48.40264" lon="-4.51268">
        <ele>64.02898</ele>
        <time>2022-12-09T15:42:20.502Z</time>
      </trkpt>
      <trkpt lat="48.40268" lon="-4.51255">
        <ele>64.674001</ele>
        <time>2022-12-09T15:42:25.500Z</time>
      </trkpt>
      <trkpt lat="48.40271" lon="-4.51241">
        <ele>65.373086</ele>
        <time>2022-12-09T15:42:30.500Z</time>
      </trkpt>
      <trkpt lat="48.40274" lon="-4.51227">
        <ele>66.080447</ele>
        <time>2022-12-09T15:42:35.520Z</time>
      </trkpt>
      <trkpt lat="48.40276" lon="-4.51212">
        <ele>66.789021</ele>
        <time>2022-12-09T15:42:40.523Z</time>
      </trkpt>
      <trkpt lat="48.40279" lon="-4.51197">
        <ele>67.535296</ele>
        <time>2022-12-09T15:42:45.502Z</time>
      </trkpt>
      <trkpt lat="48.4028" lon="-4.51181">
        <ele>68.290462</ele>
        <time>2022-12-09T15:42:50.501Z</time>
      </trkpt>
      <trkpt lat="48.40282" lon="-4.51165">
        <ele>69.026584</ele>
        <time>2022-12-09T15:42:55.524Z</time>
      </trkpt>
      <trkpt lat="48.40284" lon="-4.51151">
        <ele>69.7027</ele>
        <time>2022-12-09T15:43:00.503Z</time>
      </trkpt>
      <trkpt lat="48.40285" lon="-4.51136">
        <ele>70.431022</ele>
        <time>2022-12-09T15:43:05.512Z</time>
      </trkpt>
      <trkpt lat="48.40286" lon="-4.51122">
        <ele>71.086011</ele>
        <time>2022-12-09T15:43:10.505Z</time>
      </trkpt>
      <trkpt lat="48.40286" lon="-4.51108">
        <ele>71.750876</ele>
        <time>2022-12-09T15:43:15.527Z</time>
      </trkpt>
      <trkpt lat="48.40287" lon="-4.51093">
        <ele>72.44648</ele>
        <time>2022-12-09T15:43:20.507Z</time>
      </trkpt>
      <trkpt lat="48.40289" lon="-4.51079">
        <ele>73.100929</ele>
        <time>2022-12-09T15:43:25.509Z</time>
      </trkpt>
      <trkpt lat="48.4029" lon="-4.51063">
        <ele>73.854231</ele>
        <time>2022-12-09T15:43:31.514Z</time>
      </trkpt>
      <trkpt lat="48.40291" lon="-4.51049">
        <ele>74.523607</ele>
        <time>2022-12-09T15:43:36.503Z</time>
      </trkpt>
      <trkpt lat="48.40291" lon="-4.51035">
        <ele>74.874924</ele>
        <time>2022-12-09T15:43:41.515Z</time>
      </trkpt>
      <trkpt lat="48.40292" lon="-4.51021">
        <ele>75.192174</ele>
        <time>2022-12-09T15:43:46.515Z</time>
      </trkpt>
      <trkpt lat="48.40292" lon="-4.51007">
        <ele>75.518239</ele>
        <time>2022-12-09T15:43:51.504Z</time>
      </trkpt>
      <trkpt lat="48.40293" lon="-4.50993">
        <ele>75.835489</ele>
        <time>2022-12-09T15:43:56.502Z</time>
      </trkpt>
      <trkpt lat="48.40294" lon="-4.50979">
        <ele>76.152254</ele>
        <time>2022-12-09T15:44:01.510Z</time>
      </trkpt>
      <trkpt lat="48.40293" lon="-4.50965">
        <ele>76.485714</ele>
        <time>2022-12-09T15:44:06.517Z</time>
      </trkpt>
      <trkpt lat="48.40293" lon="-4.5095">
        <ele>76.811616</ele>
        <time>2022-12-09T15:44:12.510Z</time>
      </trkpt>
      <trkpt lat="48.40294" lon="-4.50936">
        <ele>77.146121</ele>
        <time>2022-12-09T15:44:18.526Z</time>
      </trkpt>
      <trkpt lat="48.40294" lon="-4.50921">
        <ele>77.490272</ele>
        <time>2022-12-09T15:44:23.508Z</time>
      </trkpt>
      <trkpt lat="48.4029" lon="-4.50908">
        <ele>77.809186</ele>
        <time>2022-12-09T15:44:27.514Z</time>
      </trkpt>
      <trkpt lat="48.40286" lon="-4.50895">
        <ele>78.130508</ele>
        <time>2022-12-09T15:44:32.501Z</time>
      </trkpt>
      <trkpt lat="48.40286" lon="-4.5088">
        <ele>78.479808</ele>
        <time>2022-12-09T15:44:38.508Z</time>
      </trkpt>
      <trkpt lat="48.40292" lon="-4.50867">
        <ele>78.82921</ele>
        <time>2022-12-09T15:44:43.526Z</time>
      </trkpt>
      <trkpt lat="48.40294" lon="-4.50851">
        <ele>79.197166</ele>
        <time>2022-12-09T15:44:48.525Z</time>
      </trkpt>
      <trkpt lat="48.40295" lon="-4.50835">
        <ele>79.569931</ele>
        <time>2022-12-09T15:44:53.511Z</time>
      </trkpt>
      <trkpt lat="48.40297" lon="-4.50818">
        <ele>79.950473</ele>
        <time>2022-12-09T15:44:58.510Z</time>
      </trkpt>
      <trkpt lat="48.40299" lon="-4.50804">
        <ele>80.293897</ele>
        <time>2022-12-09T15:45:03.510Z</time>
      </trkpt>
      <trkpt lat="48.40302" lon="-4.5079">
        <ele>80.620823</ele>
        <time>2022-12-09T15:45:08.504Z</time>
      </trkpt>
      <trkpt lat="48.40302" lon="-4.50775">
        <ele>81.036018</ele>
        <time>2022-12-09T15:45:13.508Z</time>
      </trkpt>
      <trkpt lat="48.40301" lon="-4.50759">
        <ele>81.504411</ele>
        <time>2022-12-09T15:45:17.525Z</time>
      </trkpt>
      <trkpt lat="48.40301" lon="-4.50743">
        <ele>81.987152</ele>
        <time>2022-12-09T15:45:21.503Z</time>
      </trkpt>
      <trkpt lat="48.40301" lon="-4.50725">
        <ele>82.502966</ele>
        <time>2022-12-09T15:45:25.523Z</time>
      </trkpt>
      <trkpt lat="48.40303" lon="-4.50709">
        <ele>83.001289</ele>
        <time>2022-12-09T15:45:29.511Z</time>
      </trkpt>
      <trkpt lat="48.40304" lon="-4.50693">
        <ele>83.464497</ele>
        <time>2022-12-09T15:45:33.528Z</time>
      </trkpt>
      <trkpt lat="48.40304" lon="-4.50678">
        <ele>83.917645</ele>
        <time>2022-12-09T15:45:37.531Z</time>
      </trkpt>
      <trkpt lat="48.40306" lon="-4.5066">
        <ele>84.439686</ele>
        <time>2022-12-09T15:45:41.524Z</time>
      </trkpt>
      <trkpt lat="48.40306" lon="-4.50643">
        <ele>84.940083</ele>
        <time>2022-12-09T15:45:45.523Z</time>
      </trkpt>
      <trkpt lat="48.40307" lon="-4.50626">
        <ele>85.467968</ele>
        <time>2022-12-09T15:45:49.513Z</time>
      </trkpt>
      <trkpt lat="48.40307" lon="-4.50609">
        <ele>85.956952</ele>
        <time>2022-12-09T15:45:53.523Z</time>
      </trkpt>
      <trkpt lat="48.40308" lon="-4.50592">
        <ele>86.458877</ele>
        <time>2022-12-09T15:45:57.511Z</time>
      </trkpt>
      <trkpt lat="48.40309" lon="-4.50575">
        <ele>86.974305</ele>
        <time>2022-12-09T15:46:01.510Z</time>
      </trkpt>
      <trkpt lat="48.40309" lon="-4.50559">
        <ele>87.448167</ele>
        <time>2022-12-09T15:46:05.505Z</time>
      </trkpt>
      <trkpt lat="48.4031" lon="-4.50544">
        <ele>87.877482</ele>
        <time>2022-12-09T15:46:09.516Z</time>
      </trkpt>
      <trkpt lat="48.40312" lon="-4.5053">
        <ele>88.306601</ele>
        <time>2022-12-09T15:46:13.513Z</time>
      </trkpt>
      <trkpt lat="48.40313" lon="-4.50515">
        <ele>88.751501</ele>
        <time>2022-12-09T15:46:17.500Z</time>
      </trkpt>
      <trkpt lat="48.40313" lon="-4.50501">
        <ele>88.899999</ele>
        <time>2022-12-09T15:46:21.527Z</time>
      </trkpt>
      <trkpt lat="48.40314" lon="-4.50486">
        <ele>89.051221</ele>
        <time>2022-12-09T15:46:25.523Z</time>
      </trkpt>
      <trkpt lat="48.40314" lon="-4.5047">
        <ele>89.206453</ele>
        <time>2022-12-09T15:46:29.503Z</time>
      </trkpt>
      <trkpt lat="48.40314" lon="-4.50454">
        <ele>89.365824</ele>
        <time>2022-12-09T15:46:33.524Z</time>
      </trkpt>
      <trkpt lat="48.40313" lon="-4.50438">
        <ele>89.521704</ele>
        <time>2022-12-09T15:46:37.523Z</time>
      </trkpt>
      <trkpt lat="48.40311" lon="-4.50422">
        <ele>89.683867</ele>
        <time>2022-12-09T15:46:41.503Z</time>
      </trkpt>
      <trkpt lat="48.40307" lon="-4.50408">
        <ele>89.83902</ele>
        <time>2022-12-09T15:46:45.504Z</time>
      </trkpt>
      <trkpt lat="48.403" lon="-4.50397">
        <ele>89.99033</ele>
        <time>2022-12-09T15:46:49.506Z</time>
      </trkpt>
      <trkpt lat="48.40292" lon="-4.50386">
        <ele>90.153612</ele>
        <time>2022-12-09T15:46:53.508Z</time>
      </trkpt>
      <trkpt lat="48.40284" lon="-4.50378">
        <ele>90.298142</ele>
        <time>2022-12-09T15:46:56.507Z</time>
      </trkpt>
      <trkpt lat="48.40277" lon="-4.50369">
        <ele>90.436176</ele>
        <time>2022-12-09T15:46:59.522Z</time>
      </trkpt>
      <trkpt lat="48.4027" lon="-4.50359">
        <ele>90.579541</ele>
        <time>2022-12-09T15:47:02.522Z</time>
      </trkpt>
      <trkpt lat="48.40263" lon="-4.50349">
        <ele>90.718286</ele>
        <time>2022-12-09T15:47:05.535Z</time>
      </trkpt>
      <trkpt lat="48.40254" lon="-4.50337">
        <ele>90.895825</ele>
        <time>2022-12-09T15:47:09.529Z</time>
      </trkpt>
      <trkpt lat="48.40247" lon="-4.50328">
        <ele>91.035252</ele>
        <time>2022-12-09T15:47:12.505Z</time>
      </trkpt>
      <trkpt lat="48.4024" lon="-4.50318">
        <ele>91.176949</ele>
        <time>2022-12-09T15:47:15.526Z</time>
      </trkpt>
      <trkpt lat="48.40232" lon="-4.50306">
        <ele>91.344679</ele>
        <time>2022-12-09T15:47:19.512Z</time>
      </trkpt>
      <trkpt lat="48.40225" lon="-4.50297">
        <ele>91.489089</ele>
        <time>2022-12-09T15:47:22.501Z</time>
      </trkpt>
      <trkpt lat="48.40218" lon="-4.50288">
        <ele>91.655353</ele>
        <time>2022-12-09T15:47:25.523Z</time>
      </trkpt>
      <trkpt lat="48.40209" lon="-4.50277">
        <ele>91.851473</ele>
        <time>2022-12-09T15:47:29.526Z</time>
      </trkpt>
      <trkpt lat="48.402" lon="-4.50266">
        <ele>92.046217</ele>
        <time>2022-12-09T15:47:33.524Z</time>
      </trkpt>
      <trkpt lat="48.4019" lon="-4.50258">
        <ele>92.245602</ele>
        <time>2022-12-09T15:47:37.521Z</time>
      </trkpt>
      <trkpt lat="48.40184" lon="-4.50246">
        <ele>92.4231</ele>
        <time>2022-12-09T15:47:41.507Z</time>
      </trkpt>
      <trkpt lat="48.40177" lon="-4.5023">
        <ele>92.641152</ele>
        <time>2022-12-09T15:47:45.524Z</time>
      </trkpt>
      <trkpt lat="48.40172" lon="-4.50215">
        <ele>92.846852</ele>
        <time>2022-12-09T15:47:49.510Z</time>
      </trkpt>
      <trkpt lat="48.40166" lon="-4.502">
        <ele>93.040517</ele>
        <time>2022-12-09T15:47:52.524Z</time>
      </trkpt>
      <trkpt lat="48.40159" lon="-4.50186">
        <ele>93.237985</ele>
        <time>2022-12-09T15:47:55.507Z</time>
      </trkpt>
      <trkpt lat="48.40152" lon="-4.50172">
        <ele>93.445615</ele>
        <time>2022-12-09T15:47:58.524Z</time>
      </trkpt>
      <trkpt lat="48.40145" lon="-4.50158">
        <ele>93.654951</ele>
        <time>2022-12-09T15:48:01.524Z</time>
      </trkpt>
      <trkpt lat="48.40139" lon="-4.50143">
        <ele>93.852402</ele>
        <time>2022-12-09T15:48:04.508Z</time>
      </trkpt>
      <trkpt lat="48.40132" lon="-4.50129">
        <ele>94.04997</ele>
        <time>2022-12-09T15:48:07.523Z</time>
      </trkpt>
      <trkpt lat="48.40125" lon="-4.50116">
        <ele>94.246804</ele>
        <time>2022-12-09T15:48:10.503Z</time>
      </trkpt>
      <trkpt lat="48.40119" lon="-4.50102">
        <ele>94.438586</ele>
        <time>2022-12-09T15:48:13.525Z</time>
      </trkpt>
      <trkpt lat="48.40112" lon="-4.50088">
        <ele>94.515859</ele>
        <time>2022-12-09T15:48:16.523Z</time>
      </trkpt>
      <trkpt lat="48.40105" lon="-4.50074">
        <ele>94.297541</ele>
        <time>2022-12-09T15:48:19.521Z</time>
      </trkpt>
      <trkpt lat="48.40099" lon="-4.50061">
        <ele>94.109156</ele>
        <time>2022-12-09T15:48:22.509Z</time>
      </trkpt>
      <trkpt lat="48.40092" lon="-4.50049">
        <ele>93.915008</ele>
        <time>2022-12-09T15:48:26.522Z</time>
      </trkpt>
      <trkpt lat="48.40083" lon="-4.50032">
        <ele>93.644609</ele>
        <time>2022-12-09T15:48:45.506Z</time>
      </trkpt>
      <trkpt lat="48.40077" lon="-4.5002">
        <ele>93.463365</ele>
        <time>2022-12-09T15:48:48.505Z</time>
      </trkpt>
      <trkpt lat="48.4007" lon="-4.50007">
        <ele>93.258867</ele>
        <time>2022-12-09T15:48:52.529Z</time>
      </trkpt>
      <trkpt lat="48.40063" lon="-4.49997">
        <ele>93.083794</ele>
        <time>2022-12-09T15:48:55.523Z</time>
      </trkpt>
      <trkpt lat="48.40055" lon="-4.49984">
        <ele>92.871899</ele>
        <time>2022-12-09T15:48:58.529Z</time>
      </trkpt>
      <trkpt lat="48.4005" lon="-4.49967">
        <ele>92.639032</ele>
        <time>2022-12-09T15:49:01.510Z</time>
      </trkpt>
      <trkpt lat="48.40047" lon="-4.49947">
        <ele>92.396503</ele>
        <time>2022-12-09T15:49:04.501Z</time>
      </trkpt>
      <trkpt lat="48.40043" lon="-4.49929">
        <ele>92.161141</ele>
        <time>2022-12-09T15:49:07.513Z</time>
      </trkpt>
      <trkpt lat="48.40038" lon="-4.49911">
        <ele>91.929179</ele>
        <time>2022-12-09T15:49:10.532Z</time>
      </trkpt>
      <trkpt lat="48.40033" lon="-4.49893">
        <ele>91.685328</ele>
        <time>2022-12-09T15:49:13.524Z</time>
      </trkpt>
      <trkpt lat="48.40027" lon="-4.49874">
        <ele>91.436317</ele>
        <time>2022-12-09T15:49:16.525Z</time>
      </trkpt>
      <trkpt lat="48.40024" lon="-4.49861">
        <ele>91.278714</ele>
        <time>2022-12-09T15:49:18.518Z</time>
      </trkpt>
      <trkpt lat="48.4002" lon="-4.49848">
        <ele>91.235049</ele>
        <time>2022-12-09T15:49:20.527Z</time>
      </trkpt>
      <trkpt lat="48.40016" lon="-4.49835">
        <ele>91.190522</ele>
        <time>2022-12-09T15:49:22.525Z</time>
      </trkpt>
      <trkpt lat="48.40013" lon="-4.49823">
        <ele>91.147618</ele>
        <time>2022-12-09T15:49:24.521Z</time>
      </trkpt>
      <trkpt lat="48.40009" lon="-4.4981">
        <ele>91.103652</ele>
        <time>2022-12-09T15:49:26.527Z</time>
      </trkpt>
      <trkpt lat="48.40004" lon="-4.49797">
        <ele>91.058951</ele>
        <time>2022-12-09T15:49:28.513Z</time>
      </trkpt>
      <trkpt lat="48.4" lon="-4.49785">
        <ele>91.016144</ele>
        <time>2022-12-09T15:49:30.518Z</time>
      </trkpt>
      <trkpt lat="48.39995" lon="-4.49766">
        <ele>90.952265</ele>
        <time>2022-12-09T15:49:33.523Z</time>
      </trkpt>
      <trkpt lat="48.39991" lon="-4.49754">
        <ele>90.90898</ele>
        <time>2022-12-09T15:49:35.524Z</time>
      </trkpt>
      <trkpt lat="48.39987" lon="-4.49741">
        <ele>90.864523</ele>
        <time>2022-12-09T15:49:37.521Z</time>
      </trkpt>
      <trkpt lat="48.39984" lon="-4.49728">
        <ele>90.820283</ele>
        <time>2022-12-09T15:49:39.524Z</time>
      </trkpt>
      <trkpt lat="48.3998" lon="-4.49714">
        <ele>90.776166</ele>
        <time>2022-12-09T15:49:41.524Z</time>
      </trkpt>
      <trkpt lat="48.39977" lon="-4.49702">
        <ele>90.733626</ele>
        <time>2022-12-09T15:49:43.515Z</time>
      </trkpt>
      <trkpt lat="48.39973" lon="-4.49689">
        <ele>90.690909</ele>
        <time>2022-12-09T15:49:45.520Z</time>
      </trkpt>
      <trkpt lat="48.39969" lon="-4.49677">
        <ele>90.647993</ele>
        <time>2022-12-09T15:49:47.524Z</time>
      </trkpt>
      <trkpt lat="48.39965" lon="-4.49661">
        <ele>90.59222</ele>
        <time>2022-12-09T15:49:50.523Z</time>
      </trkpt>
      <trkpt lat="48.3996" lon="-4.49644">
        <ele>90.534727</ele>
        <time>2022-12-09T15:49:53.501Z</time>
      </trkpt>
      <trkpt lat="48.39954" lon="-4.49626">
        <ele>90.473034</ele>
        <time>2022-12-09T15:49:56.521Z</time>
      </trkpt>
      <trkpt lat="48.39948" lon="-4.49608">
        <ele>90.632408</ele>
        <time>2022-12-09T15:49:59.527Z</time>
      </trkpt>
      <trkpt lat="48.39941" lon="-4.49591">
        <ele>91.083301</ele>
        <time>2022-12-09T15:50:02.504Z</time>
      </trkpt>
      <trkpt lat="48.39936" lon="-4.49579">
        <ele>91.392406</ele>
        <time>2022-12-09T15:50:04.507Z</time>
      </trkpt>
      <trkpt lat="48.39929" lon="-4.49563">
        <ele>91.812108</ele>
        <time>2022-12-09T15:50:07.522Z</time>
      </trkpt>
      <trkpt lat="48.39924" lon="-4.49551">
        <ele>92.134113</ele>
        <time>2022-12-09T15:50:09.523Z</time>
      </trkpt>
      <trkpt lat="48.39918" lon="-4.4954">
        <ele>92.438513</ele>
        <time>2022-12-09T15:50:11.519Z</time>
      </trkpt>
      <trkpt lat="48.39912" lon="-4.49526">
        <ele>92.833313</ele>
        <time>2022-12-09T15:50:14.526Z</time>
      </trkpt>
      <trkpt lat="48.39904" lon="-4.49511">
        <ele>93.256928</ele>
        <time>2022-12-09T15:50:17.507Z</time>
      </trkpt>
      <trkpt lat="48.39898" lon="-4.49497">
        <ele>93.6311</ele>
        <time>2022-12-09T15:50:20.509Z</time>
      </trkpt>
      <trkpt lat="48.39892" lon="-4.49484">
        <ele>93.981169</ele>
        <time>2022-12-09T15:50:23.523Z</time>
      </trkpt>
      <trkpt lat="48.39884" lon="-4.49474">
        <ele>94.318963</ele>
        <time>2022-12-09T15:50:26.510Z</time>
      </trkpt>
      <trkpt lat="48.39876" lon="-4.49466">
        <ele>94.64614</ele>
        <time>2022-12-09T15:50:29.509Z</time>
      </trkpt>
      <trkpt lat="48.39866" lon="-4.49458">
        <ele>95.025263</ele>
        <time>2022-12-09T15:50:33.510Z</time>
      </trkpt>
      <trkpt lat="48.39858" lon="-4.49447">
        <ele>95.395862</ele>
        <time>2022-12-09T15:50:37.512Z</time>
      </trkpt>
      <trkpt lat="48.39854" lon="-4.49434">
        <ele>95.730511</ele>
        <time>2022-12-09T15:50:41.505Z</time>
      </trkpt>
      <trkpt lat="48.3985" lon="-4.4942">
        <ele>96.051407</ele>
        <time>2022-12-09T15:50:45.511Z</time>
      </trkpt>
      <trkpt lat="48.39846" lon="-4.49408">
        <ele>96.357878</ele>
        <time>2022-12-09T15:50:49.524Z</time>
      </trkpt>
      <trkpt lat="48.39842" lon="-4.49394">
        <ele>96.776548</ele>
        <time>2022-12-09T15:50:53.523Z</time>
      </trkpt>
      <trkpt lat="48.39839" lon="-4.4938">
        <ele>97.261878</ele>
        <time>2022-12-09T15:50:57.505Z</time>
      </trkpt>
      <trkpt lat="48.39834" lon="-4.49366">
        <ele>97.762789</ele>
        <time>2022-12-09T15:51:01.524Z</time>
      </trkpt>
      <trkpt lat="48.3983" lon="-4.49352">
        <ele>98.24796</ele>
        <time>2022-12-09T15:51:05.505Z</time>
      </trkpt>
      <trkpt lat="48.39827" lon="-4.49337">
        <ele>98.754521</ele>
        <time>2022-12-09T15:51:09.520Z</time>
      </trkpt>
      <trkpt lat="48.39824" lon="-4.49323">
        <ele>99.230566</ele>
        <time>2022-12-09T15:51:13.522Z</time>
      </trkpt>
      <trkpt lat="48.3982" lon="-4.49307">
        <ele>99.78287</ele>
        <time>2022-12-09T15:51:17.522Z</time>
      </trkpt>
      <trkpt lat="48.39817" lon="-4.4929">
        <ele>100.329803</ele>
        <time>2022-12-09T15:51:21.509Z</time>
      </trkpt>
      <trkpt lat="48.39815" lon="-4.49273">
        <ele>100.88806</ele>
        <time>2022-12-09T15:51:25.527Z</time>
      </trkpt>
      <trkpt lat="48.39813" lon="-4.49256">
        <ele>101.459443</ele>
        <time>2022-12-09T15:51:29.523Z</time>
      </trkpt>
      <trkpt lat="48.39811" lon="-4.49239">
        <ele>102.025776</ele>
        <time>2022-12-09T15:51:33.525Z</time>
      </trkpt>
      <trkpt lat="48.39808" lon="-4.49222">
        <ele>102.579484</ele>
        <time>2022-12-09T15:51:37.519Z</time>
      </trkpt>
      <trkpt lat="48.39807" lon="-4.49205">
        <ele>103.135406</ele>
        <time>2022-12-09T15:51:41.523Z</time>
      </trkpt>
      <trkpt lat="48.39806" lon="-4.49187">
        <ele>103.70014</ele>
        <time>2022-12-09T15:51:45.526Z</time>
      </trkpt>
      <trkpt lat="48.39804" lon="-4.4917">
        <ele>104.252996</ele>
        <time>2022-12-09T15:51:49.515Z</time>
      </trkpt>
      <trkpt lat="48.39803" lon="-4.49153">
        <ele>104.817775</ele>
        <time>2022-12-09T15:51:53.507Z</time>
      </trkpt>
      <trkpt lat="48.39801" lon="-4.49136">
        <ele>105.302754</ele>
        <time>2022-12-09T15:51:57.524Z</time>
      </trkpt>
      <trkpt lat="48.398" lon="-4.49119">
        <ele>105.61332</ele>
        <time>2022-12-09T15:52:01.524Z</time>
      </trkpt>
      <trkpt lat="48.39799" lon="-4.49103">
        <ele>105.924995</ele>
        <time>2022-12-09T15:52:05.522Z</time>
      </trkpt>
      <trkpt lat="48.39798" lon="-4.49086">
        <ele>106.23855</ele>
        <time>2022-12-09T15:52:09.513Z</time>
      </trkpt>
      <trkpt lat="48.39797" lon="-4.49069">
        <ele>106.56695</ele>
        <time>2022-12-09T15:52:13.529Z</time>
      </trkpt>
      <trkpt lat="48.39795" lon="-4.49052">
        <ele>106.891604</ele>
        <time>2022-12-09T15:52:17.525Z</time>
      </trkpt>
      <trkpt lat="48.39793" lon="-4.49036">
        <ele>107.201721</ele>
        <time>2022-12-09T15:52:21.523Z</time>
      </trkpt>
      <trkpt lat="48.39791" lon="-4.49019">
        <ele>107.523491</ele>
        <time>2022-12-09T15:52:25.521Z</time>
      </trkpt>
      <trkpt lat="48.39789" lon="-4.49002">
        <ele>107.844873</ele>
        <time>2022-12-09T15:52:29.507Z</time>
      </trkpt>
      <trkpt lat="48.39788" lon="-4.48989">
        <ele>108.109282</ele>
        <time>2022-12-09T15:52:33.522Z</time>
      </trkpt>
      <trkpt lat="48.39783" lon="-4.48975">
        <ele>108.399498</ele>
        <time>2022-12-09T15:52:37.509Z</time>
      </trkpt>
      <trkpt lat="48.39774" lon="-4.48967">
        <ele>108.687477</ele>
        <time>2022-12-09T15:52:42.510Z</time>
      </trkpt>
      <trkpt lat="48.39767" lon="-4.48957">
        <ele>108.958834</ele>
        <time>2022-12-09T15:52:51.501Z</time>
      </trkpt>
      <trkpt lat="48.3976" lon="-4.48933">
        <ele>109.461607</ele>
        <time>2022-12-09T15:53:13.526Z</time>
      </trkpt>
      <trkpt lat="48.39756" lon="-4.48921">
        <ele>109.722285</ele>
        <time>2022-12-09T15:53:18.515Z</time>
      </trkpt>
      <trkpt lat="48.39754" lon="-4.48907">
        <ele>109.985071</ele>
        <time>2022-12-09T15:53:25.518Z</time>
      </trkpt>
      <trkpt lat="48.39754" lon="-4.48891">
        <ele>110.295497</ele>
        <time>2022-12-09T15:53:34.506Z</time>
      </trkpt>
      <trkpt lat="48.39752" lon="-4.48876">
        <ele>110.936752</ele>
        <time>2022-12-09T15:53:38.526Z</time>
      </trkpt>
      <trkpt lat="48.39749" lon="-4.4886">
        <ele>111.692267</ele>
        <time>2022-12-09T15:53:43.505Z</time>
      </trkpt>
      <trkpt lat="48.39745" lon="-4.48846">
        <ele>112.395599</ele>
        <time>2022-12-09T15:53:48.522Z</time>
      </trkpt>
      <trkpt lat="48.39741" lon="-4.48832">
        <ele>113.11426</ele>
        <time>2022-12-09T15:53:54.523Z</time>
      </trkpt>
      <trkpt lat="48.39737" lon="-4.48819">
        <ele>113.758368</ele>
        <time>2022-12-09T15:53:59.503Z</time>
      </trkpt>
      <trkpt lat="48.39734" lon="-4.48806">
        <ele>114.406513</ele>
        <time>2022-12-09T15:54:04.525Z</time>
      </trkpt>
      <trkpt lat="48.39731" lon="-4.4879">
        <ele>115.170812</ele>
        <time>2022-12-09T15:54:10.509Z</time>
      </trkpt>
      <trkpt lat="48.39727" lon="-4.48775">
        <ele>115.9091</ele>
        <time>2022-12-09T15:54:16.505Z</time>
      </trkpt>
      <trkpt lat="48.39723" lon="-4.48763">
        <ele>116.537746</ele>
        <time>2022-12-09T15:54:21.510Z</time>
      </trkpt>
      <trkpt lat="48.39718" lon="-4.48751">
        <ele>117.175838</ele>
        <time>2022-12-09T15:54:26.507Z</time>
      </trkpt>
      <trkpt lat="48.39715" lon="-4.48739">
        <ele>117.803357</ele>
        <time>2022-12-09T15:54:32.512Z</time>
      </trkpt>
      <trkpt lat="48.39713" lon="-4.48725">
        <ele>118.440063</ele>
        <time>2022-12-09T15:54:37.515Z</time>
      </trkpt>
      <trkpt lat="48.3971" lon="-4.48712">
        <ele>119.077185</ele>
        <time>2022-12-09T15:54:42.519Z</time>
      </trkpt>
      <trkpt lat="48.39704" lon="-4.48699">
        <ele>119.815421</ele>
        <time>2022-12-09T15:54:48.515Z</time>
      </trkpt>
      <trkpt lat="48.39699" lon="-4.48687">
        <ele>120.461479</ele>
        <time>2022-12-09T15:54:52.514Z</time>
      </trkpt>
      <trkpt lat="48.39695" lon="-4.48674">
        <ele>121.108397</ele>
        <time>2022-12-09T15:54:56.526Z</time>
      </trkpt>
      <trkpt lat="48.39691" lon="-4.4866">
        <ele>121.82563</ele>
        <time>2022-12-09T15:55:00.522Z</time>
      </trkpt>
      <trkpt lat="48.39687" lon="-4.48646">
        <ele>122.5246</ele>
        <time>2022-12-09T15:55:04.523Z</time>
      </trkpt>
      <trkpt lat="48.39683" lon="-4.48632">
        <ele>122.862565</ele>
        <time>2022-12-09T15:55:08.521Z</time>
      </trkpt>
      <trkpt lat="48.3968" lon="-4.48619">
        <ele>122.926887</ele>
        <time>2022-12-09T15:55:12.524Z</time>
      </trkpt>
      <trkpt lat="48.39677" lon="-4.48606">
        <ele>122.991078</ele>
        <time>2022-12-09T15:55:16.515Z</time>
      </trkpt>
      <trkpt lat="48.39673" lon="-4.48591">
        <ele>123.07063</ele>
        <time>2022-12-09T15:55:21.526Z</time>
      </trkpt>
      <trkpt lat="48.39668" lon="-4.48578">
        <ele>123.137123</ele>
        <time>2022-12-09T15:55:25.512Z</time>
      </trkpt>
      <trkpt lat="48.39665" lon="-4.48565">
        <ele>123.203166</ele>
        <time>2022-12-09T15:55:29.531Z</time>
      </trkpt>
      <trkpt lat="48.39661" lon="-4.48552">
        <ele>123.270404</ele>
        <time>2022-12-09T15:55:33.530Z</time>
      </trkpt>
      <trkpt lat="48.39658" lon="-4.48538">
        <ele>123.341104</ele>
        <time>2022-12-09T15:55:37.515Z</time>
      </trkpt>
      <trkpt lat="48.39655" lon="-4.48524">
        <ele>123.408524</ele>
        <time>2022-12-09T15:55:41.517Z</time>
      </trkpt>
      <trkpt lat="48.3965" lon="-4.4851">
        <ele>123.480868</ele>
        <time>2022-12-09T15:55:45.505Z</time>
      </trkpt>
      <trkpt lat="48.39646" lon="-4.48495">
        <ele>123.560953</ele>
        <time>2022-12-09T15:55:49.507Z</time>
      </trkpt>
      <trkpt lat="48.39641" lon="-4.48481">
        <ele>123.632901</ele>
        <time>2022-12-09T15:55:53.524Z</time>
      </trkpt>
      <trkpt lat="48.39636" lon="-4.48465">
        <ele>123.717164</ele>
        <time>2022-12-09T15:55:57.523Z</time>
      </trkpt>
      <trkpt lat="48.39633" lon="-4.48449">
        <ele>123.792324</ele>
        <time>2022-12-09T15:56:01.524Z</time>
      </trkpt>
      <trkpt lat="48.3963" lon="-4.48436">
        <ele>123.860593</ele>
        <time>2022-12-09T15:56:05.526Z</time>
      </trkpt>
      <trkpt lat="48.39628" lon="-4.48422">
        <ele>123.925911</ele>
        <time>2022-12-09T15:56:10.501Z</time>
      </trkpt>
      <trkpt lat="48.39624" lon="-4.4841">
        <ele>123.990916</ele>
        <time>2022-12-09T15:56:16.513Z</time>
      </trkpt>
      <trkpt lat="48.39619" lon="-4.48397">
        <ele>124.059501</ele>
        <time>2022-12-09T15:56:34.510Z</time>
      </trkpt>
      <trkpt lat="48.39617" lon="-4.48382">
        <ele>124.290843</ele>
        <time>2022-12-09T15:56:38.505Z</time>
      </trkpt>
      <trkpt lat="48.39613" lon="-4.48366">
        <ele>124.684039</ele>
        <time>2022-12-09T15:56:42.511Z</time>
      </trkpt>
      <trkpt lat="48.3961" lon="-4.48352">
        <ele>125.017226</ele>
        <time>2022-12-09T15:56:45.526Z</time>
      </trkpt>
      <trkpt lat="48.39606" lon="-4.48335">
        <ele>125.424259</ele>
        <time>2022-12-09T15:56:49.527Z</time>
      </trkpt>
      <trkpt lat="48.39602" lon="-4.48323">
        <ele>125.738062</ele>
        <time>2022-12-09T15:56:52.529Z</time>
      </trkpt>
      <trkpt lat="48.39598" lon="-4.4831">
        <ele>126.049799</ele>
        <time>2022-12-09T15:56:55.519Z</time>
      </trkpt>
      <trkpt lat="48.39591" lon="-4.48296">
        <ele>126.453934</ele>
        <time>2022-12-09T15:56:59.513Z</time>
      </trkpt>
      <trkpt lat="48.39586" lon="-4.48283">
        <ele>126.794481</ele>
        <time>2022-12-09T15:57:02.523Z</time>
      </trkpt>
      <trkpt lat="48.39582" lon="-4.48266">
        <ele>127.206675</ele>
        <time>2022-12-09T15:57:06.525Z</time>
      </trkpt>
      <trkpt lat="48.39578" lon="-4.48253">
        <ele>127.527506</ele>
        <time>2022-12-09T15:57:09.516Z</time>
      </trkpt>
      <trkpt lat="48.39584" lon="-4.48238">
        <ele>127.935873</ele>
        <time>2022-12-09T15:57:13.513Z</time>
      </trkpt>
      <trkpt lat="48.39591" lon="-4.48228">
        <ele>128.256835</ele>
        <time>2022-12-09T15:57:16.509Z</time>
      </trkpt>
      <trkpt lat="48.39597" lon="-4.48217">
        <ele>128.574203</ele>
        <time>2022-12-09T15:57:19.521Z</time>
      </trkpt>
      <trkpt lat="48.39604" lon="-4.48208">
        <ele>128.905026</ele>
        <time>2022-12-09T15:57:22.527Z</time>
      </trkpt>
      <trkpt lat="48.39611" lon="-4.48199">
        <ele>129.226547</ele>
        <time>2022-12-09T15:57:25.520Z</time>
      </trkpt>
      <trkpt lat="48.3962" lon="-4.48187">
        <ele>129.62117</ele>
        <time>2022-12-09T15:57:29.524Z</time>
      </trkpt>
      <trkpt lat="48.39628" lon="-4.48179">
        <ele>129.956925</ele>
        <time>2022-12-09T15:57:32.527Z</time>
      </trkpt>
      <trkpt lat="48.39635" lon="-4.4817">
        <ele>130.268086</ele>
        <time>2022-12-09T15:57:35.521Z</time>
      </trkpt>
      <trkpt lat="48.39641" lon="-4.48159">
        <ele>130.469474</ele>
        <time>2022-12-09T15:57:39.507Z</time>
      </trkpt>
      <trkpt lat="48.39648" lon="-4.48146">
        <ele>130.684174</ele>
        <time>2022-12-09T15:57:45.530Z</time>
      </trkpt>
      <trkpt lat="48.39656" lon="-4.48137">
        <ele>130.886562</ele>
        <time>2022-12-09T15:57:51.510Z</time>
      </trkpt>
      <trkpt lat="48.39663" lon="-4.48126">
        <ele>131.087071</ele>
        <time>2022-12-09T15:57:55.510Z</time>
      </trkpt>
      <trkpt lat="48.39671" lon="-4.48115">
        <ele>131.297042</ele>
        <time>2022-12-09T15:57:59.507Z</time>
      </trkpt>
      <trkpt lat="48.39677" lon="-4.48104">
        <ele>131.497898</ele>
        <time>2022-12-09T15:58:03.522Z</time>
      </trkpt>
      <trkpt lat="48.39686" lon="-4.48092">
        <ele>131.733199</ele>
        <time>2022-12-09T15:58:07.515Z</time>
      </trkpt>
      <trkpt lat="48.39694" lon="-4.48083">
        <ele>131.928608</ele>
        <time>2022-12-09T15:58:10.513Z</time>
      </trkpt>
      <trkpt lat="48.39703" lon="-4.48073">
        <ele>132.151685</ele>
        <time>2022-12-09T15:58:14.525Z</time>
      </trkpt>
      <trkpt lat="48.3971" lon="-4.48063">
        <ele>132.338912</ele>
        <time>2022-12-09T15:58:18.524Z</time>
      </trkpt>
      <trkpt lat="48.39719" lon="-4.48053">
        <ele>132.561966</ele>
        <time>2022-12-09T15:58:23.508Z</time>
      </trkpt>
      <trkpt lat="48.39727" lon="-4.48044">
        <ele>132.757372</ele>
        <time>2022-12-09T15:58:26.532Z</time>
      </trkpt>
      <trkpt lat="48.39734" lon="-4.48035">
        <ele>132.947353</ele>
        <time>2022-12-09T15:58:29.525Z</time>
      </trkpt>
      <trkpt lat="48.39742" lon="-4.48026">
        <ele>133.139413</ele>
        <time>2022-12-09T15:58:32.531Z</time>
      </trkpt>
      <trkpt lat="48.39749" lon="-4.48016">
        <ele>133.335485</ele>
        <time>2022-12-09T15:58:35.529Z</time>
      </trkpt>
      <trkpt lat="48.39758" lon="-4.48004">
        <ele>133.574605</ele>
        <time>2022-12-09T15:58:39.525Z</time>
      </trkpt>
      <trkpt lat="48.39766" lon="-4.47996">
        <ele>133.768636</ele>
        <time>2022-12-09T15:58:42.541Z</time>
      </trkpt>
      <trkpt lat="48.39774" lon="-4.47988">
        <ele>133.958214</ele>
        <time>2022-12-09T15:58:45.534Z</time>
      </trkpt>
      <trkpt lat="48.39783" lon="-4.47976">
        <ele>134.168709</ele>
        <time>2022-12-09T15:58:49.524Z</time>
      </trkpt>
      <trkpt lat="48.39792" lon="-4.47965">
        <ele>134.381818</ele>
        <time>2022-12-09T15:58:53.529Z</time>
      </trkpt>
      <trkpt lat="48.39799" lon="-4.47956">
        <ele>134.559415</ele>
        <time>2022-12-09T15:58:56.523Z</time>
      </trkpt>
      <trkpt lat="48.39806" lon="-4.47947">
        <ele>134.735577</ele>
        <time>2022-12-09T15:58:59.523Z</time>
      </trkpt>
      <trkpt lat="48.39814" lon="-4.47939">
        <ele>134.905612</ele>
        <time>2022-12-09T15:59:02.528Z</time>
      </trkpt>
      <trkpt lat="48.39821" lon="-4.47928">
        <ele>135.100092</ele>
        <time>2022-12-09T15:59:06.506Z</time>
      </trkpt>
      <trkpt lat="48.39828" lon="-4.47918">
        <ele>135.276611</ele>
        <time>2022-12-09T15:59:14.510Z</time>
      </trkpt>
      <trkpt lat="48.39836" lon="-4.47908">
        <ele>135.465236</ele>
        <time>2022-12-09T15:59:26.515Z</time>
      </trkpt>
      <trkpt lat="48.39843" lon="-4.47899">
        <ele>135.640403</ele>
        <time>2022-12-09T15:59:30.513Z</time>
      </trkpt>
      <trkpt lat="48.39851" lon="-4.47892">
        <ele>135.811425</ele>
        <time>2022-12-09T15:59:33.514Z</time>
      </trkpt>
      <trkpt lat="48.39858" lon="-4.47884">
        <ele>135.985222</ele>
        <time>2022-12-09T15:59:36.527Z</time>
      </trkpt>
      <trkpt lat="48.39866" lon="-4.47874">
        <ele>136.179924</ele>
        <time>2022-12-09T15:59:41.528Z</time>
      </trkpt>
      <trkpt lat="48.39876" lon="-4.47866">
        <ele>136.392066</ele>
        <time>2022-12-09T15:59:46.514Z</time>
      </trkpt>
      <trkpt lat="48.39882" lon="-4.47855">
        <ele>136.561192</ele>
        <time>2022-12-09T15:59:49.514Z</time>
      </trkpt>
      <trkpt lat="48.3989" lon="-4.47846">
        <ele>136.732915</ele>
        <time>2022-12-09T15:59:52.509Z</time>
      </trkpt>
      <trkpt lat="48.39896" lon="-4.47833">
        <ele>136.935759</ele>
        <time>2022-12-09T15:59:56.512Z</time>
      </trkpt>
      <trkpt lat="48.39903" lon="-4.47824">
        <ele>137.115107</ele>
        <time>2022-12-09T16:00:00.518Z</time>
      </trkpt>
      <trkpt lat="48.39913" lon="-4.47824">
        <ele>137.106252</ele>
        <time>2022-12-09T16:00:05.513Z</time>
      </trkpt>
      <trkpt lat="48.39922" lon="-4.47835">
        <ele>136.845623</ele>
        <time>2022-12-09T16:00:14.513Z</time>
      </trkpt>
      <trkpt lat="48.39931" lon="-4.47845">
        <ele>136.595668</ele>
        <time>2022-12-09T16:00:17.504Z</time>
      </trkpt>
      <trkpt lat="48.39941" lon="-4.47855">
        <ele>136.339945</ele>
        <time>2022-12-09T16:00:20.515Z</time>
      </trkpt>
      <trkpt lat="48.39949" lon="-4.47864">
        <ele>136.106831</ele>
        <time>2022-12-09T16:00:23.509Z</time>
      </trkpt>
      <trkpt lat="48.39958" lon="-4.47873">
        <ele>135.864427</ele>
        <time>2022-12-09T16:00:27.512Z</time>
      </trkpt>
      <trkpt lat="48.39968" lon="-4.47876">
        <ele>135.644321</ele>
        <time>2022-12-09T16:00:31.512Z</time>
      </trkpt>
      <trkpt lat="48.39976" lon="-4.47869">
        <ele>135.435152</ele>
        <time>2022-12-09T16:00:36.509Z</time>
      </trkpt>
      <trkpt lat="48.3997" lon="-4.4788">
        <ele>135.224257</ele>
        <time>2022-12-09T16:01:08.508Z</time>
      </trkpt>
      <trkpt lat="48.39961" lon="-4.47881">
        <ele>135.010598</ele>
        <time>2022-12-09T16:01:14.517Z</time>
      </trkpt>
      <trkpt lat="48.39954" lon="-4.47872">
        <ele>134.807751</ele>
        <time>2022-12-09T16:01:23.505Z</time>
      </trkpt>
      <trkpt lat="48.39947" lon="-4.47863">
        <ele>134.608299</ele>
        <time>2022-12-09T16:01:27.524Z</time>
      </trkpt>
      <trkpt lat="48.39938" lon="-4.47854">
        <ele>134.373238</ele>
        <time>2022-12-09T16:01:32.515Z</time>
      </trkpt>
      <trkpt lat="48.3993" lon="-4.47846">
        <ele>134.148662</ele>
        <time>2022-12-09T16:01:37.524Z</time>
      </trkpt>
      <trkpt lat="48.39921" lon="-4.47836">
        <ele>133.911984</ele>
        <time>2022-12-09T16:01:42.508Z</time>
      </trkpt>
      <trkpt lat="48.39916" lon="-4.47825">
        <ele>133.70304</ele>
        <time>2022-12-09T16:01:47.514Z</time>
      </trkpt>
      <trkpt lat="48.3992" lon="-4.47811">
        <ele>133.473757</ele>
        <time>2022-12-09T16:01:53.504Z</time>
      </trkpt>
      <trkpt lat="48.39928" lon="-4.47801">
        <ele>133.250041</ele>
        <time>2022-12-09T16:01:58.528Z</time>
      </trkpt>
      <trkpt lat="48.39935" lon="-4.4779">
        <ele>133.307607</ele>
        <time>2022-12-09T16:02:04.513Z</time>
      </trkpt>
      <trkpt lat="48.39931" lon="-4.47776">
        <ele>133.426743</ele>
        <time>2022-12-09T16:02:31.514Z</time>
      </trkpt>
      <trkpt lat="48.39924" lon="-4.47766">
        <ele>133.532444</ele>
        <time>2022-12-09T16:02:35.512Z</time>
      </trkpt>
      <trkpt lat="48.39918" lon="-4.47753">
        <ele>133.655621</ele>
        <time>2022-12-09T16:02:41.537Z</time>
      </trkpt>
      <trkpt lat="48.3991" lon="-4.47743">
        <ele>133.764247</ele>
        <time>2022-12-09T16:02:46.513Z</time>
      </trkpt>
      <trkpt lat="48.39903" lon="-4.47734">
        <ele>133.871425</ele>
        <time>2022-12-09T16:02:51.523Z</time>
      </trkpt>
      <trkpt lat="48.39902" lon="-4.47733">
        <ele>133.883368</ele>
        <time>2022-12-09T16:03:02.835Z</time>
      </trkpt>
      <trkpt lat="48.40031" lon="-4.47946">
        <ele>132.85929</ele>
        <time>2022-12-09T16:33:43.553Z</time>
      </trkpt>
      <trkpt lat="48.40013" lon="-4.47951">
        <ele>132.237964</ele>
        <time>2022-12-09T16:34:56.531Z</time>
      </trkpt>
      <trkpt lat="48.40004" lon="-4.4795">
        <ele>131.923944</ele>
        <time>2022-12-09T16:35:00.525Z</time>
      </trkpt>
      <trkpt lat="48.39995" lon="-4.47946">
        <ele>131.609455</ele>
        <time>2022-12-09T16:35:06.523Z</time>
      </trkpt>
      <trkpt lat="48.3999" lon="-4.47935">
        <ele>131.280617</ele>
        <time>2022-12-09T16:35:12.525Z</time>
      </trkpt>
      <trkpt lat="48.39987" lon="-4.47921">
        <ele>130.971026</ele>
        <time>2022-12-09T16:35:17.530Z</time>
      </trkpt>
      <trkpt lat="48.39985" lon="-4.47907">
        <ele>130.623541</ele>
        <time>2022-12-09T16:35:23.520Z</time>
      </trkpt>
      <trkpt lat="48.39978" lon="-4.47895">
        <ele>130.275105</ele>
        <time>2022-12-09T16:35:29.532Z</time>
      </trkpt>
      <trkpt lat="48.39971" lon="-4.47886">
        <ele>129.936194</ele>
        <time>2022-12-09T16:35:35.520Z</time>
      </trkpt>
      <trkpt lat="48.39955" lon="-4.47867">
        <ele>129.234837</ele>
        <time>2022-12-09T16:36:06.533Z</time>
      </trkpt>
      <trkpt lat="48.39947" lon="-4.4786">
        <ele>129.276665</ele>
        <time>2022-12-09T16:36:10.546Z</time>
      </trkpt>
      <trkpt lat="48.39939" lon="-4.47852">
        <ele>129.690523</ele>
        <time>2022-12-09T16:36:15.522Z</time>
      </trkpt>
      <trkpt lat="48.3993" lon="-4.47846">
        <ele>130.100548</ele>
        <time>2022-12-09T16:36:20.529Z</time>
      </trkpt>
      <trkpt lat="48.39923" lon="-4.47835">
        <ele>130.519639</ele>
        <time>2022-12-09T16:36:26.518Z</time>
      </trkpt>
      <trkpt lat="48.39913" lon="-4.47828">
        <ele>130.994407</ele>
        <time>2022-12-09T16:36:32.523Z</time>
      </trkpt>
      <trkpt lat="48.39903" lon="-4.47828">
        <ele>131.422135</ele>
        <time>2022-12-09T16:36:37.524Z</time>
      </trkpt>
      <trkpt lat="48.39894" lon="-4.47821">
        <ele>131.847346</ele>
        <time>2022-12-09T16:36:44.536Z</time>
      </trkpt>
      <trkpt lat="48.39885" lon="-4.47816">
        <ele>132.270264</ele>
        <time>2022-12-09T16:36:51.520Z</time>
      </trkpt>
      <trkpt lat="48.39876" lon="-4.47812">
        <ele>132.676398</ele>
        <time>2022-12-09T16:36:57.526Z</time>
      </trkpt>
      <trkpt lat="48.39866" lon="-4.47809">
        <ele>133.093664</ele>
        <time>2022-12-09T16:37:03.523Z</time>
      </trkpt>
      <trkpt lat="48.39857" lon="-4.47806">
        <ele>133.506137</ele>
        <time>2022-12-09T16:37:09.521Z</time>
      </trkpt>
      <trkpt lat="48.39848" lon="-4.47801">
        <ele>133.911973</ele>
        <time>2022-12-09T16:37:14.526Z</time>
      </trkpt>
      <trkpt lat="48.39839" lon="-4.47799">
        <ele>134.317758</ele>
        <time>2022-12-09T16:37:19.525Z</time>
      </trkpt>
      <trkpt lat="48.3983" lon="-4.47791">
        <ele>134.733547</ele>
        <time>2022-12-09T16:37:24.539Z</time>
      </trkpt>
      <trkpt lat="48.39823" lon="-4.47782">
        <ele>135.15704</ele>
        <time>2022-12-09T16:37:29.523Z</time>
      </trkpt>
      <trkpt lat="48.39816" lon="-4.4777">
        <ele>135.603826</ele>
        <time>2022-12-09T16:37:34.540Z</time>
      </trkpt>
      <trkpt lat="48.39809" lon="-4.47759">
        <ele>136.037853</ele>
        <time>2022-12-09T16:37:38.529Z</time>
      </trkpt>
      <trkpt lat="48.39802" lon="-4.4775">
        <ele>136.424165</ele>
        <time>2022-12-09T16:37:42.534Z</time>
      </trkpt>
      <trkpt lat="48.39796" lon="-4.47739">
        <ele>136.759029</ele>
        <time>2022-12-09T16:37:46.544Z</time>
      </trkpt>
      <trkpt lat="48.39789" lon="-4.47728">
        <ele>136.717846</ele>
        <time>2022-12-09T16:37:50.545Z</time>
      </trkpt>
      <trkpt lat="48.39782" lon="-4.47715">
        <ele>136.67118</ele>
        <time>2022-12-09T16:37:54.531Z</time>
      </trkpt>
      <trkpt lat="48.39774" lon="-4.47703">
        <ele>136.624335</ele>
        <time>2022-12-09T16:37:58.537Z</time>
      </trkpt>
      <trkpt lat="48.39766" lon="-4.47692">
        <ele>136.578562</ele>
        <time>2022-12-09T16:38:02.547Z</time>
      </trkpt>
      <trkpt lat="48.39759" lon="-4.47681">
        <ele>136.534236</ele>
        <time>2022-12-09T16:38:06.538Z</time>
      </trkpt>
      <trkpt lat="48.3975" lon="-4.47672">
        <ele>136.490265</ele>
        <time>2022-12-09T16:38:10.530Z</time>
      </trkpt>
      <trkpt lat="48.39742" lon="-4.47663">
        <ele>136.447151</ele>
        <time>2022-12-09T16:38:15.523Z</time>
      </trkpt>
      <trkpt lat="48.39733" lon="-4.47643">
        <ele>136.381165</ele>
        <time>2022-12-09T16:39:12.526Z</time>
      </trkpt>
      <trkpt lat="48.39726" lon="-4.47635">
        <ele>136.341183</ele>
        <time>2022-12-09T16:39:15.528Z</time>
      </trkpt>
      <trkpt lat="48.39717" lon="-4.47626">
        <ele>136.297873</ele>
        <time>2022-12-09T16:39:18.541Z</time>
      </trkpt>
      <trkpt lat="48.39709" lon="-4.47619">
        <ele>136.259527</ele>
        <time>2022-12-09T16:39:21.538Z</time>
      </trkpt>
      <trkpt lat="48.39702" lon="-4.47609">
        <ele>136.220344</ele>
        <time>2022-12-09T16:39:25.534Z</time>
      </trkpt>
      <trkpt lat="48.39695" lon="-4.476">
        <ele>136.180569</ele>
        <time>2022-12-09T16:39:29.541Z</time>
      </trkpt>
      <trkpt lat="48.39684" lon="-4.47579">
        <ele>136.105573</ele>
        <time>2022-12-09T16:40:10.530Z</time>
      </trkpt>
      <trkpt lat="48.39675" lon="-4.47567">
        <ele>136.055956</ele>
        <time>2022-12-09T16:40:14.547Z</time>
      </trkpt>
      <trkpt lat="48.39668" lon="-4.47555">
        <ele>136.012066</ele>
        <time>2022-12-09T16:40:17.525Z</time>
      </trkpt>
      <trkpt lat="48.39661" lon="-4.47545">
        <ele>135.943979</ele>
        <time>2022-12-09T16:40:20.544Z</time>
      </trkpt>
      <trkpt lat="48.39654" lon="-4.47536">
        <ele>135.880349</ele>
        <time>2022-12-09T16:40:24.549Z</time>
      </trkpt>
      <trkpt lat="48.39648" lon="-4.47525">
        <ele>135.81587</ele>
        <time>2022-12-09T16:40:28.522Z</time>
      </trkpt>
      <trkpt lat="48.3965" lon="-4.47509">
        <ele>135.740898</ele>
        <time>2022-12-09T16:40:32.521Z</time>
      </trkpt>
      <trkpt lat="48.39652" lon="-4.47491">
        <ele>135.656466</ele>
        <time>2022-12-09T16:40:36.535Z</time>
      </trkpt>
      <trkpt lat="48.39654" lon="-4.47477">
        <ele>135.588045</ele>
        <time>2022-12-09T16:40:39.523Z</time>
      </trkpt>
      <trkpt lat="48.39657" lon="-4.47463">
        <ele>135.521703</ele>
        <time>2022-12-09T16:40:42.535Z</time>
      </trkpt>
      <trkpt lat="48.3966" lon="-4.47449">
        <ele>135.454914</ele>
        <time>2022-12-09T16:40:45.532Z</time>
      </trkpt>
      <trkpt lat="48.39663" lon="-4.47436">
        <ele>135.390954</ele>
        <time>2022-12-09T16:40:48.543Z</time>
      </trkpt>
      <trkpt lat="48.39668" lon="-4.47419">
        <ele>135.306267</ele>
        <time>2022-12-09T16:40:52.539Z</time>
      </trkpt>
      <trkpt lat="48.3967" lon="-4.47405">
        <ele>135.240138</ele>
        <time>2022-12-09T16:40:55.543Z</time>
      </trkpt>
      <trkpt lat="48.39674" lon="-4.47391">
        <ele>135.167504</ele>
        <time>2022-12-09T16:40:58.545Z</time>
      </trkpt>
      <trkpt lat="48.39679" lon="-4.47377">
        <ele>135.098343</ele>
        <time>2022-12-09T16:41:01.547Z</time>
      </trkpt>
      <trkpt lat="48.39682" lon="-4.47364">
        <ele>135.034256</ele>
        <time>2022-12-09T16:41:04.548Z</time>
      </trkpt>
      <trkpt lat="48.39686" lon="-4.4735">
        <ele>134.965212</ele>
        <time>2022-12-09T16:41:07.548Z</time>
      </trkpt>
      <trkpt lat="48.39688" lon="-4.47335">
        <ele>134.893669</ele>
        <time>2022-12-09T16:41:10.546Z</time>
      </trkpt>
      <trkpt lat="48.3969" lon="-4.4732">
        <ele>134.823921</ele>
        <time>2022-12-09T16:41:13.539Z</time>
      </trkpt>
      <trkpt lat="48.39692" lon="-4.47305">
        <ele>134.722372</ele>
        <time>2022-12-09T16:41:16.530Z</time>
      </trkpt>
      <trkpt lat="48.39693" lon="-4.4729">
        <ele>134.419519</ele>
        <time>2022-12-09T16:41:19.542Z</time>
      </trkpt>
      <trkpt lat="48.39694" lon="-4.47274">
        <ele>134.111308</ele>
        <time>2022-12-09T16:41:22.526Z</time>
      </trkpt>
      <trkpt lat="48.39695" lon="-4.47257">
        <ele>133.772285</ele>
        <time>2022-12-09T16:41:25.547Z</time>
      </trkpt>
      <trkpt lat="48.39696" lon="-4.47239">
        <ele>133.410144</ele>
        <time>2022-12-09T16:41:28.543Z</time>
      </trkpt>
      <trkpt lat="48.39697" lon="-4.47219">
        <ele>133.031356</ele>
        <time>2022-12-09T16:41:31.522Z</time>
      </trkpt>
      <trkpt lat="48.39696" lon="-4.47203">
        <ele>132.716983</ele>
        <time>2022-12-09T16:41:34.547Z</time>
      </trkpt>
      <trkpt lat="48.39697" lon="-4.47189">
        <ele>132.437667</ele>
        <time>2022-12-09T16:41:37.548Z</time>
      </trkpt>
      <trkpt lat="48.39697" lon="-4.47174">
        <ele>132.152254</ele>
        <time>2022-12-09T16:41:40.528Z</time>
      </trkpt>
      <trkpt lat="48.39697" lon="-4.47158">
        <ele>131.834019</ele>
        <time>2022-12-09T16:41:43.543Z</time>
      </trkpt>
      <trkpt lat="48.39697" lon="-4.47141">
        <ele>131.507987</ele>
        <time>2022-12-09T16:41:46.525Z</time>
      </trkpt>
      <trkpt lat="48.39696" lon="-4.47121">
        <ele>131.118771</ele>
        <time>2022-12-09T16:41:49.525Z</time>
      </trkpt>
      <trkpt lat="48.39697" lon="-4.47103">
        <ele>130.751447</ele>
        <time>2022-12-09T16:41:52.544Z</time>
      </trkpt>
      <trkpt lat="48.39697" lon="-4.47085">
        <ele>130.401791</ele>
        <time>2022-12-09T16:41:55.547Z</time>
      </trkpt>
      <trkpt lat="48.39698" lon="-4.47066">
        <ele>130.045491</ele>
        <time>2022-12-09T16:41:58.546Z</time>
      </trkpt>
      <trkpt lat="48.39699" lon="-4.4705">
        <ele>129.715615</ele>
        <time>2022-12-09T16:42:01.541Z</time>
      </trkpt>
      <trkpt lat="48.39701" lon="-4.47031">
        <ele>129.395112</ele>
        <time>2022-12-09T16:42:04.552Z</time>
      </trkpt>
      <trkpt lat="48.39704" lon="-4.47013">
        <ele>129.164424</ele>
        <time>2022-12-09T16:42:07.545Z</time>
      </trkpt>
      <trkpt lat="48.39707" lon="-4.47001">
        <ele>128.990067</ele>
        <time>2022-12-09T16:42:09.552Z</time>
      </trkpt>
      <trkpt lat="48.39713" lon="-4.46983">
        <ele>128.73645</ele>
        <time>2022-12-09T16:42:12.533Z</time>
      </trkpt>
      <trkpt lat="48.3972" lon="-4.46966">
        <ele>128.483538</ele>
        <time>2022-12-09T16:42:15.528Z</time>
      </trkpt>
      <trkpt lat="48.39725" lon="-4.46948">
        <ele>128.226494</ele>
        <time>2022-12-09T16:42:18.537Z</time>
      </trkpt>
      <trkpt lat="48.39731" lon="-4.46931">
        <ele>127.984409</ele>
        <time>2022-12-09T16:42:21.558Z</time>
      </trkpt>
      <trkpt lat="48.39735" lon="-4.46913">
        <ele>127.743035</ele>
        <time>2022-12-09T16:42:24.537Z</time>
      </trkpt>
      <trkpt lat="48.39739" lon="-4.46895">
        <ele>127.501489</ele>
        <time>2022-12-09T16:42:27.537Z</time>
      </trkpt>
      <trkpt lat="48.39741" lon="-4.46876">
        <ele>127.25709</ele>
        <time>2022-12-09T16:42:30.538Z</time>
      </trkpt>
      <trkpt lat="48.39742" lon="-4.46858">
        <ele>127.033178</ele>
        <time>2022-12-09T16:42:33.537Z</time>
      </trkpt>
      <trkpt lat="48.39743" lon="-4.46844">
        <ele>126.848798</ele>
        <time>2022-12-09T16:42:36.538Z</time>
      </trkpt>
      <trkpt lat="48.39745" lon="-4.46826">
        <ele>126.617629</ele>
        <time>2022-12-09T16:42:40.544Z</time>
      </trkpt>
      <trkpt lat="48.39746" lon="-4.46812">
        <ele>126.434689</ele>
        <time>2022-12-09T16:42:43.547Z</time>
      </trkpt>
      <trkpt lat="48.39747" lon="-4.46798">
        <ele>126.259794</ele>
        <time>2022-12-09T16:42:46.544Z</time>
      </trkpt>
      <trkpt lat="48.39748" lon="-4.46784">
        <ele>126.079221</ele>
        <time>2022-12-09T16:42:49.544Z</time>
      </trkpt>
      <trkpt lat="48.39749" lon="-4.4677">
        <ele>125.891062</ele>
        <time>2022-12-09T16:42:52.533Z</time>
      </trkpt>
      <trkpt lat="48.39751" lon="-4.46753">
        <ele>125.663899</ele>
        <time>2022-12-09T16:42:56.533Z</time>
      </trkpt>
      <trkpt lat="48.39752" lon="-4.46739">
        <ele>125.468246</ele>
        <time>2022-12-09T16:42:59.539Z</time>
      </trkpt>
      <trkpt lat="48.39755" lon="-4.46723">
        <ele>125.253105</ele>
        <time>2022-12-09T16:43:02.547Z</time>
      </trkpt>
      <trkpt lat="48.39758" lon="-4.46708">
        <ele>125.039029</ele>
        <time>2022-12-09T16:43:05.539Z</time>
      </trkpt>
      <trkpt lat="48.39762" lon="-4.46691">
        <ele>124.794371</ele>
        <time>2022-12-09T16:43:09.541Z</time>
      </trkpt>
      <trkpt lat="48.39766" lon="-4.46678">
        <ele>124.59121</ele>
        <time>2022-12-09T16:43:12.538Z</time>
      </trkpt>
      <trkpt lat="48.39769" lon="-4.46664">
        <ele>124.398223</ele>
        <time>2022-12-09T16:43:15.533Z</time>
      </trkpt>
      <trkpt lat="48.39773" lon="-4.46651">
        <ele>124.203245</ele>
        <time>2022-12-09T16:43:18.542Z</time>
      </trkpt>
      <trkpt lat="48.39777" lon="-4.46638">
        <ele>124.019362</ele>
        <time>2022-12-09T16:43:21.542Z</time>
      </trkpt>
      <trkpt lat="48.3978" lon="-4.46625">
        <ele>123.82947</ele>
        <time>2022-12-09T16:43:24.536Z</time>
      </trkpt>
      <trkpt lat="48.39784" lon="-4.46608">
        <ele>123.581568</ele>
        <time>2022-12-09T16:43:28.545Z</time>
      </trkpt>
      <trkpt lat="48.3979" lon="-4.46594">
        <ele>123.363977</ele>
        <time>2022-12-09T16:43:31.544Z</time>
      </trkpt>
      <trkpt lat="48.39795" lon="-4.46579">
        <ele>123.133342</ele>
        <time>2022-12-09T16:43:34.541Z</time>
      </trkpt>
      <trkpt lat="48.39799" lon="-4.46562">
        <ele>122.893737</ele>
        <time>2022-12-09T16:43:37.541Z</time>
      </trkpt>
      <trkpt lat="48.39801" lon="-4.46545">
        <ele>122.666955</ele>
        <time>2022-12-09T16:43:40.531Z</time>
      </trkpt>
      <trkpt lat="48.39801" lon="-4.46532">
        <ele>122.4818</ele>
        <time>2022-12-09T16:43:43.547Z</time>
      </trkpt>
      <trkpt lat="48.39802" lon="-4.46518">
        <ele>122.530492</ele>
        <time>2022-12-09T16:43:46.546Z</time>
      </trkpt>
      <trkpt lat="48.39805" lon="-4.46501">
        <ele>122.976089</ele>
        <time>2022-12-09T16:43:50.532Z</time>
      </trkpt>
      <trkpt lat="48.39808" lon="-4.46485">
        <ele>123.403657</ele>
        <time>2022-12-09T16:43:54.539Z</time>
      </trkpt>
      <trkpt lat="48.39811" lon="-4.46471">
        <ele>123.775039</ele>
        <time>2022-12-09T16:43:58.542Z</time>
      </trkpt>
      <trkpt lat="48.39811" lon="-4.46458">
        <ele>124.127487</ele>
        <time>2022-12-09T16:44:02.545Z</time>
      </trkpt>
      <trkpt lat="48.39813" lon="-4.46444">
        <ele>124.484204</ele>
        <time>2022-12-09T16:44:06.545Z</time>
      </trkpt>
      <trkpt lat="48.39813" lon="-4.46428">
        <ele>124.902682</ele>
        <time>2022-12-09T16:44:11.536Z</time>
      </trkpt>
      <trkpt lat="48.39813" lon="-4.46412">
        <ele>125.315781</ele>
        <time>2022-12-09T16:44:16.529Z</time>
      </trkpt>
      <trkpt lat="48.39814" lon="-4.46397">
        <ele>125.711216</ele>
        <time>2022-12-09T16:44:21.522Z</time>
      </trkpt>
      <trkpt lat="48.39813" lon="-4.46382">
        <ele>126.098915</ele>
        <time>2022-12-09T16:44:26.544Z</time>
      </trkpt>
      <trkpt lat="48.39812" lon="-4.46366">
        <ele>126.495047</ele>
        <time>2022-12-09T16:44:31.542Z</time>
      </trkpt>
      <trkpt lat="48.3981" lon="-4.46352">
        <ele>126.86724</ele>
        <time>2022-12-09T16:44:36.544Z</time>
      </trkpt>
      <trkpt lat="48.39809" lon="-4.46338">
        <ele>127.239695</ele>
        <time>2022-12-09T16:44:41.523Z</time>
      </trkpt>
      <trkpt lat="48.39809" lon="-4.46323">
        <ele>127.619879</ele>
        <time>2022-12-09T16:44:46.539Z</time>
      </trkpt>
      <trkpt lat="48.39808" lon="-4.46308">
        <ele>128.017588</ele>
        <time>2022-12-09T16:44:51.532Z</time>
      </trkpt>
      <trkpt lat="48.39808" lon="-4.46294">
        <ele>128.379007</ele>
        <time>2022-12-09T16:44:56.537Z</time>
      </trkpt>
      <trkpt lat="48.39809" lon="-4.46277">
        <ele>128.813799</ele>
        <time>2022-12-09T16:45:01.525Z</time>
      </trkpt>
      <trkpt lat="48.39811" lon="-4.46263">
        <ele>129.184305</ele>
        <time>2022-12-09T16:45:05.521Z</time>
      </trkpt>
      <trkpt lat="48.39814" lon="-4.46249">
        <ele>129.31375</ele>
        <time>2022-12-09T16:45:09.545Z</time>
      </trkpt>
      <trkpt lat="48.39817" lon="-4.46233">
        <ele>129.184255</ele>
        <time>2022-12-09T16:45:13.545Z</time>
      </trkpt>
      <trkpt lat="48.3982" lon="-4.46217">
        <ele>129.049973</ele>
        <time>2022-12-09T16:45:17.543Z</time>
      </trkpt>
      <trkpt lat="48.39824" lon="-4.46201">
        <ele>128.914976</ele>
        <time>2022-12-09T16:45:21.535Z</time>
      </trkpt>
      <trkpt lat="48.39827" lon="-4.46184">
        <ele>128.776618</ele>
        <time>2022-12-09T16:45:25.526Z</time>
      </trkpt>
      <trkpt lat="48.39831" lon="-4.4617">
        <ele>128.657435</ele>
        <time>2022-12-09T16:45:29.519Z</time>
      </trkpt>
      <trkpt lat="48.39835" lon="-4.46154">
        <ele>128.524335</ele>
        <time>2022-12-09T16:45:33.542Z</time>
      </trkpt>
      <trkpt lat="48.39839" lon="-4.46141">
        <ele>128.409044</ele>
        <time>2022-12-09T16:45:36.546Z</time>
      </trkpt>
      <trkpt lat="48.39844" lon="-4.46127">
        <ele>128.288601</ele>
        <time>2022-12-09T16:45:39.524Z</time>
      </trkpt>
      <trkpt lat="48.3985" lon="-4.46113">
        <ele>128.154665</ele>
        <time>2022-12-09T16:45:42.546Z</time>
      </trkpt>
      <trkpt lat="48.39855" lon="-4.46097">
        <ele>128.018164</ele>
        <time>2022-12-09T16:45:45.532Z</time>
      </trkpt>
      <trkpt lat="48.3986" lon="-4.46082">
        <ele>127.883393</ele>
        <time>2022-12-09T16:45:48.540Z</time>
      </trkpt>
      <trkpt lat="48.39864" lon="-4.46067">
        <ele>127.755113</ele>
        <time>2022-12-09T16:45:51.536Z</time>
      </trkpt>
      <trkpt lat="48.39868" lon="-4.46052">
        <ele>127.622986</ele>
        <time>2022-12-09T16:45:54.548Z</time>
      </trkpt>
      <trkpt lat="48.39873" lon="-4.46035">
        <ele>127.484475</ele>
        <time>2022-12-09T16:45:57.526Z</time>
      </trkpt>
      <trkpt lat="48.39876" lon="-4.46021">
        <ele>127.360171</ele>
        <time>2022-12-09T16:46:00.545Z</time>
      </trkpt>
      <trkpt lat="48.39879" lon="-4.46006">
        <ele>127.23974</ele>
        <time>2022-12-09T16:46:03.525Z</time>
      </trkpt>
      <trkpt lat="48.39883" lon="-4.45993">
        <ele>126.94814</ele>
        <time>2022-12-09T16:46:06.547Z</time>
      </trkpt>
      <trkpt lat="48.39887" lon="-4.45979">
        <ele>126.610152</ele>
        <time>2022-12-09T16:46:10.541Z</time>
      </trkpt>
      <trkpt lat="48.39889" lon="-4.45965">
        <ele>126.315335</ele>
        <time>2022-12-09T16:46:13.537Z</time>
      </trkpt>
      <trkpt lat="48.39891" lon="-4.45952">
        <ele>126.016415</ele>
        <time>2022-12-09T16:46:16.543Z</time>
      </trkpt>
      <trkpt lat="48.39893" lon="-4.45937">
        <ele>125.700751</ele>
        <time>2022-12-09T16:46:19.527Z</time>
      </trkpt>
      <trkpt lat="48.39896" lon="-4.45922">
        <ele>125.379509</ele>
        <time>2022-12-09T16:46:22.524Z</time>
      </trkpt>
      <trkpt lat="48.39898" lon="-4.45907">
        <ele>125.037498</ele>
        <time>2022-12-09T16:46:25.546Z</time>
      </trkpt>
      <trkpt lat="48.399" lon="-4.4589">
        <ele>124.674479</ele>
        <time>2022-12-09T16:46:28.540Z</time>
      </trkpt>
      <trkpt lat="48.39901" lon="-4.45873">
        <ele>124.30475</ele>
        <time>2022-12-09T16:46:31.533Z</time>
      </trkpt>
      <trkpt lat="48.39902" lon="-4.45857">
        <ele>123.954111</ele>
        <time>2022-12-09T16:46:34.541Z</time>
      </trkpt>
      <trkpt lat="48.39902" lon="-4.45839">
        <ele>123.576021</ele>
        <time>2022-12-09T16:46:37.541Z</time>
      </trkpt>
      <trkpt lat="48.39902" lon="-4.4582">
        <ele>123.170221</ele>
        <time>2022-12-09T16:46:40.547Z</time>
      </trkpt>
      <trkpt lat="48.39901" lon="-4.45803">
        <ele>122.812834</ele>
        <time>2022-12-09T16:46:43.527Z</time>
      </trkpt>
      <trkpt lat="48.39899" lon="-4.45788">
        <ele>122.487509</ele>
        <time>2022-12-09T16:46:46.528Z</time>
      </trkpt>
      <trkpt lat="48.39896" lon="-4.45771">
        <ele>122.110114</ele>
        <time>2022-12-09T16:46:49.537Z</time>
      </trkpt>
      <trkpt lat="48.39891" lon="-4.45753">
        <ele>121.689047</ele>
        <time>2022-12-09T16:46:52.535Z</time>
      </trkpt>
      <trkpt lat="48.39887" lon="-4.45738">
        <ele>121.291012</ele>
        <time>2022-12-09T16:46:55.547Z</time>
      </trkpt>
      <trkpt lat="48.39882" lon="-4.45722">
        <ele>120.808212</ele>
        <time>2022-12-09T16:46:58.541Z</time>
      </trkpt>
      <trkpt lat="48.39878" lon="-4.45707">
        <ele>120.356799</ele>
        <time>2022-12-09T16:47:01.546Z</time>
      </trkpt>
      <trkpt lat="48.39874" lon="-4.45691">
        <ele>119.90979</ele>
        <time>2022-12-09T16:47:04.528Z</time>
      </trkpt>
      <trkpt lat="48.39872" lon="-4.45677">
        <ele>119.504722</ele>
        <time>2022-12-09T16:47:07.548Z</time>
      </trkpt>
      <trkpt lat="48.39868" lon="-4.45661">
        <ele>119.01158</ele>
        <time>2022-12-09T16:47:11.545Z</time>
      </trkpt>
      <trkpt lat="48.39864" lon="-4.45647">
        <ele>118.594435</ele>
        <time>2022-12-09T16:47:14.543Z</time>
      </trkpt>
      <trkpt lat="48.39861" lon="-4.45632">
        <ele>118.159318</ele>
        <time>2022-12-09T16:47:17.543Z</time>
      </trkpt>
      <trkpt lat="48.39858" lon="-4.45619">
        <ele>117.771098</ele>
        <time>2022-12-09T16:47:20.549Z</time>
      </trkpt>
      <trkpt lat="48.39855" lon="-4.45605">
        <ele>117.375548</ele>
        <time>2022-12-09T16:47:23.548Z</time>
      </trkpt>
      <trkpt lat="48.39855" lon="-4.45588">
        <ele>116.905812</ele>
        <time>2022-12-09T16:47:26.525Z</time>
      </trkpt>
      <trkpt lat="48.39855" lon="-4.4557">
        <ele>116.405663</ele>
        <time>2022-12-09T16:47:29.546Z</time>
      </trkpt>
      <trkpt lat="48.39855" lon="-4.45552">
        <ele>115.885005</ele>
        <time>2022-12-09T16:47:32.526Z</time>
      </trkpt>
      <trkpt lat="48.39856" lon="-4.45533">
        <ele>115.367779</ele>
        <time>2022-12-09T16:47:35.545Z</time>
      </trkpt>
      <trkpt lat="48.39856" lon="-4.45515">
        <ele>114.8648</ele>
        <time>2022-12-09T16:47:38.542Z</time>
      </trkpt>
      <trkpt lat="48.39855" lon="-4.45498">
        <ele>114.389012</ele>
        <time>2022-12-09T16:47:41.545Z</time>
      </trkpt>
      <trkpt lat="48.39855" lon="-4.45482">
        <ele>113.952706</ele>
        <time>2022-12-09T16:47:44.528Z</time>
      </trkpt>
      <trkpt lat="48.39853" lon="-4.45467">
        <ele>113.864618</ele>
        <time>2022-12-09T16:47:47.536Z</time>
      </trkpt>
      <trkpt lat="48.39852" lon="-4.45451">
        <ele>113.797248</ele>
        <time>2022-12-09T16:47:50.535Z</time>
      </trkpt>
      <trkpt lat="48.3985" lon="-4.45435">
        <ele>113.728868</ele>
        <time>2022-12-09T16:47:53.545Z</time>
      </trkpt>
      <trkpt lat="48.39849" lon="-4.4542">
        <ele>113.663461</ele>
        <time>2022-12-09T16:47:56.536Z</time>
      </trkpt>
      <trkpt lat="48.39848" lon="-4.45405">
        <ele>113.600608</ele>
        <time>2022-12-09T16:47:59.551Z</time>
      </trkpt>
      <trkpt lat="48.39848" lon="-4.45391">
        <ele>113.543069</ele>
        <time>2022-12-09T16:48:02.551Z</time>
      </trkpt>
      <trkpt lat="48.39847" lon="-4.45373">
        <ele>113.469303</ele>
        <time>2022-12-09T16:48:06.545Z</time>
      </trkpt>
      <trkpt lat="48.39846" lon="-4.45359">
        <ele>113.409148</ele>
        <time>2022-12-09T16:48:09.544Z</time>
      </trkpt>
      <trkpt lat="48.39847" lon="-4.45345">
        <ele>113.352099</ele>
        <time>2022-12-09T16:48:12.527Z</time>
      </trkpt>
      <trkpt lat="48.39849" lon="-4.45332">
        <ele>113.294155</ele>
        <time>2022-12-09T16:48:15.528Z</time>
      </trkpt>
      <trkpt lat="48.39851" lon="-4.45317">
        <ele>113.231944</ele>
        <time>2022-12-09T16:48:18.543Z</time>
      </trkpt>
      <trkpt lat="48.39852" lon="-4.45303">
        <ele>113.173419</ele>
        <time>2022-12-09T16:48:21.549Z</time>
      </trkpt>
      <trkpt lat="48.39855" lon="-4.45286">
        <ele>113.099989</ele>
        <time>2022-12-09T16:48:25.545Z</time>
      </trkpt>
      <trkpt lat="48.39858" lon="-4.45272">
        <ele>113.038654</ele>
        <time>2022-12-09T16:48:28.546Z</time>
      </trkpt>
      <trkpt lat="48.39861" lon="-4.45258">
        <ele>112.975936</ele>
        <time>2022-12-09T16:48:31.540Z</time>
      </trkpt>
      <trkpt lat="48.39863" lon="-4.45243">
        <ele>112.912149</ele>
        <time>2022-12-09T16:48:34.547Z</time>
      </trkpt>
      <trkpt lat="48.39866" lon="-4.45227">
        <ele>112.84349</ele>
        <time>2022-12-09T16:48:37.545Z</time>
      </trkpt>
      <trkpt lat="48.39869" lon="-4.45212">
        <ele>112.822149</ele>
        <time>2022-12-09T16:48:40.546Z</time>
      </trkpt>
      <trkpt lat="48.39871" lon="-4.45198">
        <ele>112.947584</ele>
        <time>2022-12-09T16:48:43.530Z</time>
      </trkpt>
      <trkpt lat="48.39873" lon="-4.45184">
        <ele>113.070726</ele>
        <time>2022-12-09T16:48:46.543Z</time>
      </trkpt>
      <trkpt lat="48.39876" lon="-4.4517">
        <ele>113.202965</ele>
        <time>2022-12-09T16:48:49.553Z</time>
      </trkpt>
      <trkpt lat="48.39879" lon="-4.45156">
        <ele>113.327583</ele>
        <time>2022-12-09T16:48:52.546Z</time>
      </trkpt>
      <trkpt lat="48.39884" lon="-4.45139">
        <ele>113.484684</ele>
        <time>2022-12-09T16:48:56.544Z</time>
      </trkpt>
      <trkpt lat="48.39887" lon="-4.45126">
        <ele>113.607929</ele>
        <time>2022-12-09T16:48:59.546Z</time>
      </trkpt>
      <trkpt lat="48.3989" lon="-4.45113">
        <ele>113.731872</ele>
        <time>2022-12-09T16:49:02.542Z</time>
      </trkpt>
      <trkpt lat="48.39894" lon="-4.451">
        <ele>113.85359</ele>
        <time>2022-12-09T16:49:05.542Z</time>
      </trkpt>
      <trkpt lat="48.39896" lon="-4.45086">
        <ele>113.974361</ele>
        <time>2022-12-09T16:49:08.539Z</time>
      </trkpt>
      <trkpt lat="48.39898" lon="-4.4507">
        <ele>114.113683</ele>
        <time>2022-12-09T16:49:12.547Z</time>
      </trkpt>
      <trkpt lat="48.39898" lon="-4.45053">
        <ele>114.266415</ele>
        <time>2022-12-09T16:49:16.531Z</time>
      </trkpt>
      <trkpt lat="48.39898" lon="-4.45039">
        <ele>114.389631</ele>
        <time>2022-12-09T16:49:19.536Z</time>
      </trkpt>
      <trkpt lat="48.39897" lon="-4.45025">
        <ele>114.511553</ele>
        <time>2022-12-09T16:49:22.542Z</time>
      </trkpt>
      <trkpt lat="48.39897" lon="-4.4501">
        <ele>114.640294</ele>
        <time>2022-12-09T16:49:25.538Z</time>
      </trkpt>
      <trkpt lat="48.39896" lon="-4.44994">
        <ele>114.775808</ele>
        <time>2022-12-09T16:49:28.546Z</time>
      </trkpt>
      <trkpt lat="48.39896" lon="-4.44981">
        <ele>114.893205</ele>
        <time>2022-12-09T16:49:31.546Z</time>
      </trkpt>
      <trkpt lat="48.39894" lon="-4.44965">
        <ele>115.028766</ele>
        <time>2022-12-09T16:49:35.544Z</time>
      </trkpt>
      <trkpt lat="48.39891" lon="-4.44952">
        <ele>115.141525</ele>
        <time>2022-12-09T16:49:38.531Z</time>
      </trkpt>
      <trkpt lat="48.39889" lon="-4.44938">
        <ele>115.084229</ele>
        <time>2022-12-09T16:49:41.548Z</time>
      </trkpt>
      <trkpt lat="48.39885" lon="-4.44924">
        <ele>115.026905</ele>
        <time>2022-12-09T16:49:44.526Z</time>
      </trkpt>
      <trkpt lat="48.39882" lon="-4.44911">
        <ele>114.972248</ele>
        <time>2022-12-09T16:49:47.548Z</time>
      </trkpt>
      <trkpt lat="48.39878" lon="-4.44898">
        <ele>114.914982</ele>
        <time>2022-12-09T16:49:50.545Z</time>
      </trkpt>
      <trkpt lat="48.39875" lon="-4.44883">
        <ele>114.852318</ele>
        <time>2022-12-09T16:49:53.526Z</time>
      </trkpt>
      <trkpt lat="48.39872" lon="-4.44868">
        <ele>114.789996</ele>
        <time>2022-12-09T16:49:56.545Z</time>
      </trkpt>
      <trkpt lat="48.39868" lon="-4.44853">
        <ele>114.727266</ele>
        <time>2022-12-09T16:49:59.546Z</time>
      </trkpt>
      <trkpt lat="48.39865" lon="-4.44838">
        <ele>114.665717</ele>
        <time>2022-12-09T16:50:02.533Z</time>
      </trkpt>
      <trkpt lat="48.39861" lon="-4.44822">
        <ele>114.601561</ele>
        <time>2022-12-09T16:50:05.549Z</time>
      </trkpt>
      <trkpt lat="48.39858" lon="-4.44807">
        <ele>114.539075</ele>
        <time>2022-12-09T16:50:08.547Z</time>
      </trkpt>
      <trkpt lat="48.39853" lon="-4.44793">
        <ele>114.474078</ele>
        <time>2022-12-09T16:50:11.534Z</time>
      </trkpt>
      <trkpt lat="48.39847" lon="-4.44778">
        <ele>114.405812</ele>
        <time>2022-12-09T16:50:14.525Z</time>
      </trkpt>
      <trkpt lat="48.39842" lon="-4.44762">
        <ele>114.336059</ele>
        <time>2022-12-09T16:50:17.546Z</time>
      </trkpt>
      <trkpt lat="48.39837" lon="-4.44746">
        <ele>114.266568</ele>
        <time>2022-12-09T16:50:20.546Z</time>
      </trkpt>
      <trkpt lat="48.39832" lon="-4.44731">
        <ele>114.199016</ele>
        <time>2022-12-09T16:50:23.543Z</time>
      </trkpt>
      <trkpt lat="48.39826" lon="-4.44715">
        <ele>114.128061</ele>
        <time>2022-12-09T16:50:26.544Z</time>
      </trkpt>
      <trkpt lat="48.39819" lon="-4.44699">
        <ele>113.84803</ele>
        <time>2022-12-09T16:50:29.536Z</time>
      </trkpt>
      <trkpt lat="48.39814" lon="-4.44683">
        <ele>113.23894</ele>
        <time>2022-12-09T16:50:32.544Z</time>
      </trkpt>
      <trkpt lat="48.39809" lon="-4.44668">
        <ele>112.64263</ele>
        <time>2022-12-09T16:50:35.544Z</time>
      </trkpt>
      <trkpt lat="48.39804" lon="-4.44654">
        <ele>112.067837</ele>
        <time>2022-12-09T16:50:38.553Z</time>
      </trkpt>
      <trkpt lat="48.39799" lon="-4.44637">
        <ele>111.43616</ele>
        <time>2022-12-09T16:50:41.548Z</time>
      </trkpt>
      <trkpt lat="48.39793" lon="-4.44621">
        <ele>110.775384</ele>
        <time>2022-12-09T16:50:44.546Z</time>
      </trkpt>
      <trkpt lat="48.39787" lon="-4.44605">
        <ele>110.101809</ele>
        <time>2022-12-09T16:50:47.536Z</time>
      </trkpt>
      <trkpt lat="48.39781" lon="-4.44589">
        <ele>109.450356</ele>
        <time>2022-12-09T16:50:50.549Z</time>
      </trkpt>
      <trkpt lat="48.39775" lon="-4.44573">
        <ele>108.813349</ele>
        <time>2022-12-09T16:50:53.546Z</time>
      </trkpt>
      <trkpt lat="48.39769" lon="-4.44557">
        <ele>108.173777</ele>
        <time>2022-12-09T16:50:56.548Z</time>
      </trkpt>
      <trkpt lat="48.39764" lon="-4.44541">
        <ele>107.54412</ele>
        <time>2022-12-09T16:50:59.547Z</time>
      </trkpt>
      <trkpt lat="48.39761" lon="-4.44524">
        <ele>106.90699</ele>
        <time>2022-12-09T16:51:02.533Z</time>
      </trkpt>
      <trkpt lat="48.39758" lon="-4.44506">
        <ele>106.256418</ele>
        <time>2022-12-09T16:51:05.548Z</time>
      </trkpt>
      <trkpt lat="48.39755" lon="-4.44489">
        <ele>105.622169</ele>
        <time>2022-12-09T16:51:08.542Z</time>
      </trkpt>
      <trkpt lat="48.39753" lon="-4.44472">
        <ele>105.027246</ele>
        <time>2022-12-09T16:51:11.549Z</time>
      </trkpt>
      <trkpt lat="48.3975" lon="-4.44457">
        <ele>104.43948</ele>
        <time>2022-12-09T16:51:14.551Z</time>
      </trkpt>
      <trkpt lat="48.39746" lon="-4.44441">
        <ele>103.685851</ele>
        <time>2022-12-09T16:51:17.551Z</time>
      </trkpt>
      <trkpt lat="48.39743" lon="-4.44426">
        <ele>102.938915</ele>
        <time>2022-12-09T16:51:20.546Z</time>
      </trkpt>
      <trkpt lat="48.39739" lon="-4.44409">
        <ele>102.100549</ele>
        <time>2022-12-09T16:51:23.547Z</time>
      </trkpt>
      <trkpt lat="48.39736" lon="-4.44392">
        <ele>101.259322</ele>
        <time>2022-12-09T16:51:26.550Z</time>
      </trkpt>
      <trkpt lat="48.39732" lon="-4.44374">
        <ele>100.373966</ele>
        <time>2022-12-09T16:51:29.552Z</time>
      </trkpt>
      <trkpt lat="48.39729" lon="-4.44361">
        <ele>99.724982</ele>
        <time>2022-12-09T16:51:31.548Z</time>
      </trkpt>
      <trkpt lat="48.39725" lon="-4.44342">
        <ele>98.797225</ele>
        <time>2022-12-09T16:51:34.545Z</time>
      </trkpt>
      <trkpt lat="48.39721" lon="-4.44325">
        <ele>97.947394</ele>
        <time>2022-12-09T16:51:37.544Z</time>
      </trkpt>
      <trkpt lat="48.39717" lon="-4.44309">
        <ele>97.135677</ele>
        <time>2022-12-09T16:51:40.532Z</time>
      </trkpt>
      <trkpt lat="48.39714" lon="-4.44294">
        <ele>96.406495</ele>
        <time>2022-12-09T16:51:43.527Z</time>
      </trkpt>
      <trkpt lat="48.3971" lon="-4.44279">
        <ele>95.657068</ele>
        <time>2022-12-09T16:51:46.529Z</time>
      </trkpt>
      <trkpt lat="48.39706" lon="-4.44262">
        <ele>94.771486</ele>
        <time>2022-12-09T16:51:49.544Z</time>
      </trkpt>
      <trkpt lat="48.39702" lon="-4.44243">
        <ele>93.863804</ele>
        <time>2022-12-09T16:51:52.533Z</time>
      </trkpt>
      <trkpt lat="48.39697" lon="-4.44225">
        <ele>92.941019</ele>
        <time>2022-12-09T16:51:55.546Z</time>
      </trkpt>
      <trkpt lat="48.39692" lon="-4.44207">
        <ele>92.007755</ele>
        <time>2022-12-09T16:51:58.544Z</time>
      </trkpt>
      <trkpt lat="48.39688" lon="-4.44189">
        <ele>91.050572</ele>
        <time>2022-12-09T16:52:01.545Z</time>
      </trkpt>
      <trkpt lat="48.39683" lon="-4.44172">
        <ele>90.134741</ele>
        <time>2022-12-09T16:52:04.533Z</time>
      </trkpt>
      <trkpt lat="48.39678" lon="-4.44156">
        <ele>89.222524</ele>
        <time>2022-12-09T16:52:07.547Z</time>
      </trkpt>
      <trkpt lat="48.39674" lon="-4.44139">
        <ele>88.254088</ele>
        <time>2022-12-09T16:52:10.548Z</time>
      </trkpt>
      <trkpt lat="48.39669" lon="-4.4412">
        <ele>87.261405</ele>
        <time>2022-12-09T16:52:13.545Z</time>
      </trkpt>
      <trkpt lat="48.39665" lon="-4.44104">
        <ele>86.343552</ele>
        <time>2022-12-09T16:52:16.534Z</time>
      </trkpt>
      <trkpt lat="48.39661" lon="-4.44087">
        <ele>85.455627</ele>
        <time>2022-12-09T16:52:19.553Z</time>
      </trkpt>
      <trkpt lat="48.39658" lon="-4.44071">
        <ele>84.540888</ele>
        <time>2022-12-09T16:52:22.542Z</time>
      </trkpt>
      <trkpt lat="48.39652" lon="-4.44053">
        <ele>83.564835</ele>
        <time>2022-12-09T16:52:25.524Z</time>
      </trkpt>
      <trkpt lat="48.39648" lon="-4.44037">
        <ele>82.659243</ele>
        <time>2022-12-09T16:52:28.547Z</time>
      </trkpt>
      <trkpt lat="48.39643" lon="-4.44022">
        <ele>81.819335</ele>
        <time>2022-12-09T16:52:31.548Z</time>
      </trkpt>
      <trkpt lat="48.39638" lon="-4.44008">
        <ele>80.980494</ele>
        <time>2022-12-09T16:52:34.545Z</time>
      </trkpt>
      <trkpt lat="48.39632" lon="-4.43994">
        <ele>80.10256</ele>
        <time>2022-12-09T16:52:37.547Z</time>
      </trkpt>
      <trkpt lat="48.39627" lon="-4.43978">
        <ele>79.191573</ele>
        <time>2022-12-09T16:52:40.540Z</time>
      </trkpt>
      <trkpt lat="48.39621" lon="-4.43961">
        <ele>78.226454</ele>
        <time>2022-12-09T16:52:43.549Z</time>
      </trkpt>
      <trkpt lat="48.39616" lon="-4.43944">
        <ele>77.304892</ele>
        <time>2022-12-09T16:52:46.548Z</time>
      </trkpt>
      <trkpt lat="48.39611" lon="-4.43926">
        <ele>76.390841</ele>
        <time>2022-12-09T16:52:49.543Z</time>
      </trkpt>
      <trkpt lat="48.39606" lon="-4.43908">
        <ele>75.475679</ele>
        <time>2022-12-09T16:52:52.548Z</time>
      </trkpt>
      <trkpt lat="48.39602" lon="-4.43891">
        <ele>74.622302</ele>
        <time>2022-12-09T16:52:55.545Z</time>
      </trkpt>
      <trkpt lat="48.39599" lon="-4.43874">
        <ele>73.780274</ele>
        <time>2022-12-09T16:52:58.528Z</time>
      </trkpt>
      <trkpt lat="48.39597" lon="-4.43857">
        <ele>72.938455</ele>
        <time>2022-12-09T16:53:01.537Z</time>
      </trkpt>
      <trkpt lat="48.39596" lon="-4.43839">
        <ele>72.109751</ele>
        <time>2022-12-09T16:53:04.545Z</time>
      </trkpt>
      <trkpt lat="48.39595" lon="-4.43822">
        <ele>71.296827</ele>
        <time>2022-12-09T16:53:07.545Z</time>
      </trkpt>
      <trkpt lat="48.39596" lon="-4.43805">
        <ele>70.499551</ele>
        <time>2022-12-09T16:53:10.539Z</time>
      </trkpt>
      <trkpt lat="48.39596" lon="-4.43788">
        <ele>69.682297</ele>
        <time>2022-12-09T16:53:13.543Z</time>
      </trkpt>
      <trkpt lat="48.39598" lon="-4.43769">
        <ele>68.782017</ele>
        <time>2022-12-09T16:53:16.547Z</time>
      </trkpt>
      <trkpt lat="48.396" lon="-4.4375">
        <ele>67.86562</ele>
        <time>2022-12-09T16:53:19.541Z</time>
      </trkpt>
      <trkpt lat="48.39604" lon="-4.43732">
        <ele>66.962472</ele>
        <time>2022-12-09T16:53:22.546Z</time>
      </trkpt>
      <trkpt lat="48.39608" lon="-4.43715">
        <ele>66.093255</ele>
        <time>2022-12-09T16:53:25.548Z</time>
      </trkpt>
      <trkpt lat="48.39613" lon="-4.43698">
        <ele>65.186203</ele>
        <time>2022-12-09T16:53:28.541Z</time>
      </trkpt>
      <trkpt lat="48.39619" lon="-4.43681">
        <ele>64.618916</ele>
        <time>2022-12-09T16:53:31.520Z</time>
      </trkpt>
      <trkpt lat="48.39627" lon="-4.43666">
        <ele>64.146036</ele>
        <time>2022-12-09T16:53:34.543Z</time>
      </trkpt>
      <trkpt lat="48.39634" lon="-4.4365">
        <ele>63.671135</ele>
        <time>2022-12-09T16:53:37.543Z</time>
      </trkpt>
      <trkpt lat="48.39641" lon="-4.43636">
        <ele>63.210288</ele>
        <time>2022-12-09T16:53:40.549Z</time>
      </trkpt>
      <trkpt lat="48.39649" lon="-4.4362">
        <ele>62.72412</ele>
        <time>2022-12-09T16:53:43.549Z</time>
      </trkpt>
      <trkpt lat="48.39657" lon="-4.43606">
        <ele>62.272358</ele>
        <time>2022-12-09T16:53:46.539Z</time>
      </trkpt>
      <trkpt lat="48.39665" lon="-4.43594">
        <ele>61.840432</ele>
        <time>2022-12-09T16:53:49.551Z</time>
      </trkpt>
      <trkpt lat="48.39674" lon="-4.43584">
        <ele>61.39861</ele>
        <time>2022-12-09T16:53:52.530Z</time>
      </trkpt>
      <trkpt lat="48.39683" lon="-4.43573">
        <ele>60.975706</ele>
        <time>2022-12-09T16:53:55.544Z</time>
      </trkpt>
      <trkpt lat="48.39685" lon="-4.43556">
        <ele>60.544738</ele>
        <time>2022-12-09T16:53:59.539Z</time>
      </trkpt>
      <trkpt lat="48.39686" lon="-4.43542">
        <ele>60.190074</ele>
        <time>2022-12-09T16:54:03.542Z</time>
      </trkpt>
      <trkpt lat="48.3969" lon="-4.43528">
        <ele>59.820765</ele>
        <time>2022-12-09T16:54:07.528Z</time>
      </trkpt>
      <trkpt lat="48.39693" lon="-4.43515">
        <ele>59.48159</ele>
        <time>2022-12-09T16:54:11.534Z</time>
      </trkpt>
      <trkpt lat="48.39693" lon="-4.43501">
        <ele>59.129028</ele>
        <time>2022-12-09T16:54:15.542Z</time>
      </trkpt>
      <trkpt lat="48.39693" lon="-4.43484">
        <ele>58.704073</ele>
        <time>2022-12-09T16:54:19.544Z</time>
      </trkpt>
      <trkpt lat="48.39693" lon="-4.43468">
        <ele>58.299214</ele>
        <time>2022-12-09T16:54:22.534Z</time>
      </trkpt>
      <trkpt lat="48.39693" lon="-4.4345">
        <ele>58.122718</ele>
        <time>2022-12-09T16:54:25.543Z</time>
      </trkpt>
      <trkpt lat="48.39694" lon="-4.4343">
        <ele>58.002698</ele>
        <time>2022-12-09T16:54:28.536Z</time>
      </trkpt>
      <trkpt lat="48.39696" lon="-4.43413">
        <ele>57.898072</ele>
        <time>2022-12-09T16:54:31.540Z</time>
      </trkpt>
      <trkpt lat="48.39697" lon="-4.43395">
        <ele>57.786615</ele>
        <time>2022-12-09T16:54:34.547Z</time>
      </trkpt>
      <trkpt lat="48.39697" lon="-4.43379">
        <ele>57.687726</ele>
        <time>2022-12-09T16:54:37.534Z</time>
      </trkpt>
      <trkpt lat="48.39696" lon="-4.43363">
        <ele>57.594275</ele>
        <time>2022-12-09T16:54:41.523Z</time>
      </trkpt>
      <trkpt lat="48.39697" lon="-4.43347">
        <ele>57.49584</ele>
        <time>2022-12-09T16:54:45.543Z</time>
      </trkpt>
      <trkpt lat="48.39703" lon="-4.43332">
        <ele>57.386768</ele>
        <time>2022-12-09T16:54:49.540Z</time>
      </trkpt>
      <trkpt lat="48.39708" lon="-4.43315">
        <ele>57.275416</ele>
        <time>2022-12-09T16:54:53.541Z</time>
      </trkpt>
      <trkpt lat="48.39711" lon="-4.43301">
        <ele>57.185243</ele>
        <time>2022-12-09T16:54:56.548Z</time>
      </trkpt>
      <trkpt lat="48.39714" lon="-4.43287">
        <ele>57.097723</ele>
        <time>2022-12-09T16:54:59.530Z</time>
      </trkpt>
      <trkpt lat="48.39718" lon="-4.43275">
        <ele>57.014496</ele>
        <time>2022-12-09T16:55:02.542Z</time>
      </trkpt>
      <trkpt lat="48.39722" lon="-4.43262">
        <ele>56.930641</ele>
        <time>2022-12-09T16:55:05.544Z</time>
      </trkpt>
      <trkpt lat="48.39726" lon="-4.43249">
        <ele>56.846866</ele>
        <time>2022-12-09T16:55:08.544Z</time>
      </trkpt>
      <trkpt lat="48.3973" lon="-4.43236">
        <ele>56.758302</ele>
        <time>2022-12-09T16:55:11.532Z</time>
      </trkpt>
      <trkpt lat="48.39733" lon="-4.43223">
        <ele>56.672525</ele>
        <time>2022-12-09T16:55:14.540Z</time>
      </trkpt>
      <trkpt lat="48.39735" lon="-4.43208">
        <ele>56.582829</ele>
        <time>2022-12-09T16:55:17.529Z</time>
      </trkpt>
      <trkpt lat="48.39738" lon="-4.43194">
        <ele>56.728808</ele>
        <time>2022-12-09T16:55:20.545Z</time>
      </trkpt>
      <trkpt lat="48.39741" lon="-4.43181">
        <ele>56.927113</ele>
        <time>2022-12-09T16:55:23.547Z</time>
      </trkpt>
      <trkpt lat="48.39745" lon="-4.43167">
        <ele>57.125724</ele>
        <time>2022-12-09T16:55:26.546Z</time>
      </trkpt>
      <trkpt lat="48.39747" lon="-4.43153">
        <ele>57.32312</ele>
        <time>2022-12-09T16:55:29.528Z</time>
      </trkpt>
      <trkpt lat="48.39749" lon="-4.43139">
        <ele>57.517874</ele>
        <time>2022-12-09T16:55:32.548Z</time>
      </trkpt>
      <trkpt lat="48.39752" lon="-4.43126">
        <ele>57.710355</ele>
        <time>2022-12-09T16:55:35.553Z</time>
      </trkpt>
      <trkpt lat="48.39755" lon="-4.43112">
        <ele>57.901692</ele>
        <time>2022-12-09T16:55:38.546Z</time>
      </trkpt>
      <trkpt lat="48.39758" lon="-4.43095">
        <ele>58.150278</ele>
        <time>2022-12-09T16:55:42.542Z</time>
      </trkpt>
      <trkpt lat="48.39761" lon="-4.43082">
        <ele>58.337503</ele>
        <time>2022-12-09T16:55:45.544Z</time>
      </trkpt>
      <trkpt lat="48.39764" lon="-4.43064">
        <ele>58.582925</ele>
        <time>2022-12-09T16:55:49.529Z</time>
      </trkpt>
      <trkpt lat="48.39767" lon="-4.43048">
        <ele>58.816285</ele>
        <time>2022-12-09T16:55:53.537Z</time>
      </trkpt>
      <trkpt lat="48.39769" lon="-4.43031">
        <ele>59.054892</ele>
        <time>2022-12-09T16:55:57.543Z</time>
      </trkpt>
      <trkpt lat="48.39771" lon="-4.43013">
        <ele>59.29428</ele>
        <time>2022-12-09T16:56:01.545Z</time>
      </trkpt>
      <trkpt lat="48.39772" lon="-4.43">
        <ele>59.481319</ele>
        <time>2022-12-09T16:56:04.549Z</time>
      </trkpt>
      <trkpt lat="48.39774" lon="-4.42982">
        <ele>59.722054</ele>
        <time>2022-12-09T16:56:08.544Z</time>
      </trkpt>
      <trkpt lat="48.39775" lon="-4.42969">
        <ele>59.909093</ele>
        <time>2022-12-09T16:56:11.524Z</time>
      </trkpt>
      <trkpt lat="48.39777" lon="-4.42955">
        <ele>60.095629</ele>
        <time>2022-12-09T16:56:14.544Z</time>
      </trkpt>
      <trkpt lat="48.39778" lon="-4.42942">
        <ele>60.253572</ele>
        <time>2022-12-09T16:56:17.530Z</time>
      </trkpt>
      <trkpt lat="48.39779" lon="-4.42928">
        <ele>60.126278</ele>
        <time>2022-12-09T16:56:20.540Z</time>
      </trkpt>
      <trkpt lat="48.39779" lon="-4.42913">
        <ele>59.992224</ele>
        <time>2022-12-09T16:56:23.532Z</time>
      </trkpt>
      <trkpt lat="48.39779" lon="-4.42897">
        <ele>59.842897</ele>
        <time>2022-12-09T16:56:26.543Z</time>
      </trkpt>
      <trkpt lat="48.39779" lon="-4.4288">
        <ele>59.690757</ele>
        <time>2022-12-09T16:56:29.549Z</time>
      </trkpt>
      <trkpt lat="48.39781" lon="-4.42864">
        <ele>59.54518</ele>
        <time>2022-12-09T16:56:32.547Z</time>
      </trkpt>
      <trkpt lat="48.39782" lon="-4.42848">
        <ele>59.403204</ele>
        <time>2022-12-09T16:56:35.548Z</time>
      </trkpt>
      <trkpt lat="48.39782" lon="-4.42833">
        <ele>59.268109</ele>
        <time>2022-12-09T16:56:38.548Z</time>
      </trkpt>
      <trkpt lat="48.39783" lon="-4.42819">
        <ele>59.135724</ele>
        <time>2022-12-09T16:56:41.547Z</time>
      </trkpt>
      <trkpt lat="48.39784" lon="-4.42802">
        <ele>58.988706</ele>
        <time>2022-12-09T16:56:44.547Z</time>
      </trkpt>
      <trkpt lat="48.39785" lon="-4.42785">
        <ele>58.833316</ele>
        <time>2022-12-09T16:56:47.545Z</time>
      </trkpt>
      <trkpt lat="48.39787" lon="-4.42767">
        <ele>58.667339</ele>
        <time>2022-12-09T16:56:50.549Z</time>
      </trkpt>
      <trkpt lat="48.39788" lon="-4.4275">
        <ele>58.506175</ele>
        <time>2022-12-09T16:56:53.547Z</time>
      </trkpt>
      <trkpt lat="48.39789" lon="-4.42732">
        <ele>58.344875</ele>
        <time>2022-12-09T16:56:56.540Z</time>
      </trkpt>
      <trkpt lat="48.39789" lon="-4.42715">
        <ele>58.189902</ele>
        <time>2022-12-09T16:56:59.547Z</time>
      </trkpt>
      <trkpt lat="48.3979" lon="-4.42698">
        <ele>58.040973</ele>
        <time>2022-12-09T16:57:02.547Z</time>
      </trkpt>
      <trkpt lat="48.3979" lon="-4.42682">
        <ele>57.893456</ele>
        <time>2022-12-09T16:57:05.547Z</time>
      </trkpt>
      <trkpt lat="48.39791" lon="-4.42666">
        <ele>57.650971</ele>
        <time>2022-12-09T16:57:08.546Z</time>
      </trkpt>
      <trkpt lat="48.39791" lon="-4.4265">
        <ele>57.300207</ele>
        <time>2022-12-09T16:57:11.535Z</time>
      </trkpt>
      <trkpt lat="48.39791" lon="-4.42633">
        <ele>56.906936</ele>
        <time>2022-12-09T16:57:14.550Z</time>
      </trkpt>
      <trkpt lat="48.3979" lon="-4.42613">
        <ele>56.470637</ele>
        <time>2022-12-09T16:57:17.553Z</time>
      </trkpt>
      <trkpt lat="48.3979" lon="-4.42593">
        <ele>56.032417</ele>
        <time>2022-12-09T16:57:20.545Z</time>
      </trkpt>
      <trkpt lat="48.39788" lon="-4.42574">
        <ele>55.59606</ele>
        <time>2022-12-09T16:57:23.549Z</time>
      </trkpt>
      <trkpt lat="48.39787" lon="-4.42555">
        <ele>55.166255</ele>
        <time>2022-12-09T16:57:26.548Z</time>
      </trkpt>
      <trkpt lat="48.39786" lon="-4.42537">
        <ele>54.764926</ele>
        <time>2022-12-09T16:57:29.548Z</time>
      </trkpt>
      <trkpt lat="48.39785" lon="-4.42522">
        <ele>54.433142</ele>
        <time>2022-12-09T16:57:32.547Z</time>
      </trkpt>
      <trkpt lat="48.39783" lon="-4.42506">
        <ele>54.061064</ele>
        <time>2022-12-09T16:57:35.543Z</time>
      </trkpt>
      <trkpt lat="48.3978" lon="-4.4249">
        <ele>53.678313</ele>
        <time>2022-12-09T16:57:38.534Z</time>
      </trkpt>
      <trkpt lat="48.39776" lon="-4.42473">
        <ele>53.276322</ele>
        <time>2022-12-09T16:57:41.547Z</time>
      </trkpt>
      <trkpt lat="48.39771" lon="-4.42456">
        <ele>52.877345</ele>
        <time>2022-12-09T16:57:44.550Z</time>
      </trkpt>
      <trkpt lat="48.39767" lon="-4.42439">
        <ele>52.482544</ele>
        <time>2022-12-09T16:57:47.545Z</time>
      </trkpt>
      <trkpt lat="48.39763" lon="-4.42424">
        <ele>52.104997</ele>
        <time>2022-12-09T16:57:50.548Z</time>
      </trkpt>
      <trkpt lat="48.3976" lon="-4.42408">
        <ele>51.751809</ele>
        <time>2022-12-09T16:57:53.551Z</time>
      </trkpt>
      <trkpt lat="48.39756" lon="-4.42394">
        <ele>51.534503</ele>
        <time>2022-12-09T16:57:56.549Z</time>
      </trkpt>
      <trkpt lat="48.39752" lon="-4.42377">
        <ele>51.283572</ele>
        <time>2022-12-09T16:57:59.545Z</time>
      </trkpt>
      <trkpt lat="48.39747" lon="-4.42359">
        <ele>51.014811</ele>
        <time>2022-12-09T16:58:02.554Z</time>
      </trkpt>
      <trkpt lat="48.39743" lon="-4.42343">
        <ele>50.766068</ele>
        <time>2022-12-09T16:58:05.548Z</time>
      </trkpt>
      <trkpt lat="48.39739" lon="-4.42327">
        <ele>50.52821</ele>
        <time>2022-12-09T16:58:08.549Z</time>
      </trkpt>
      <trkpt lat="48.39736" lon="-4.42311">
        <ele>50.295203</ele>
        <time>2022-12-09T16:58:11.530Z</time>
      </trkpt>
      <trkpt lat="48.39732" lon="-4.42294">
        <ele>50.053393</ele>
        <time>2022-12-09T16:58:14.543Z</time>
      </trkpt>
      <trkpt lat="48.39728" lon="-4.42278">
        <ele>49.810628</ele>
        <time>2022-12-09T16:58:17.546Z</time>
      </trkpt>
      <trkpt lat="48.39724" lon="-4.42261">
        <ele>49.554077</ele>
        <time>2022-12-09T16:58:20.544Z</time>
      </trkpt>
      <trkpt lat="48.39719" lon="-4.42244">
        <ele>49.299356</ele>
        <time>2022-12-09T16:58:23.539Z</time>
      </trkpt>
      <trkpt lat="48.39714" lon="-4.42228">
        <ele>49.045219</ele>
        <time>2022-12-09T16:58:26.553Z</time>
      </trkpt>
      <trkpt lat="48.39709" lon="-4.42211">
        <ele>48.79441</ele>
        <time>2022-12-09T16:58:29.557Z</time>
      </trkpt>
      <trkpt lat="48.39704" lon="-4.42196">
        <ele>48.552989</ele>
        <time>2022-12-09T16:58:32.546Z</time>
      </trkpt>
      <trkpt lat="48.39699" lon="-4.42181">
        <ele>48.321635</ele>
        <time>2022-12-09T16:58:35.546Z</time>
      </trkpt>
      <trkpt lat="48.39695" lon="-4.42167">
        <ele>48.101215</ele>
        <time>2022-12-09T16:58:38.548Z</time>
      </trkpt>
      <trkpt lat="48.3969" lon="-4.42154">
        <ele>48.006451</ele>
        <time>2022-12-09T16:58:41.545Z</time>
      </trkpt>
      <trkpt lat="48.39686" lon="-4.4214">
        <ele>48.114132</ele>
        <time>2022-12-09T16:58:44.548Z</time>
      </trkpt>
      <trkpt lat="48.39682" lon="-4.42125">
        <ele>48.224756</ele>
        <time>2022-12-09T16:58:47.530Z</time>
      </trkpt>
      <trkpt lat="48.39678" lon="-4.4211">
        <ele>48.336582</ele>
        <time>2022-12-09T16:58:50.545Z</time>
      </trkpt>
      <trkpt lat="48.39673" lon="-4.42096">
        <ele>48.445061</ele>
        <time>2022-12-09T16:58:53.551Z</time>
      </trkpt>
      <trkpt lat="48.3967" lon="-4.42081">
        <ele>48.551469</ele>
        <time>2022-12-09T16:58:56.544Z</time>
      </trkpt>
      <trkpt lat="48.39666" lon="-4.42068">
        <ele>48.653223</ele>
        <time>2022-12-09T16:58:59.551Z</time>
      </trkpt>
      <trkpt lat="48.39661" lon="-4.42055">
        <ele>48.751498</ele>
        <time>2022-12-09T16:59:02.538Z</time>
      </trkpt>
      <trkpt lat="48.39656" lon="-4.4204">
        <ele>48.871981</ele>
        <time>2022-12-09T16:59:06.529Z</time>
      </trkpt>
      <trkpt lat="48.39651" lon="-4.42025">
        <ele>48.986514</ele>
        <time>2022-12-09T16:59:10.548Z</time>
      </trkpt>
      <trkpt lat="48.39643" lon="-4.42012">
        <ele>49.105289</ele>
        <time>2022-12-09T16:59:14.530Z</time>
      </trkpt>
      <trkpt lat="48.39639" lon="-4.41996">
        <ele>49.223074</ele>
        <time>2022-12-09T16:59:18.536Z</time>
      </trkpt>
      <trkpt lat="48.39636" lon="-4.4198">
        <ele>49.338704</ele>
        <time>2022-12-09T16:59:22.546Z</time>
      </trkpt>
      <trkpt lat="48.39629" lon="-4.41966">
        <ele>49.453977</ele>
        <time>2022-12-09T16:59:26.534Z</time>
      </trkpt>
      <trkpt lat="48.39623" lon="-4.41953">
        <ele>49.566376</ele>
        <time>2022-12-09T16:59:30.547Z</time>
      </trkpt>
      <trkpt lat="48.39618" lon="-4.41939">
        <ele>49.67492</ele>
        <time>2022-12-09T16:59:34.540Z</time>
      </trkpt>
      <trkpt lat="48.39611" lon="-4.41925">
        <ele>49.793761</ele>
        <time>2022-12-09T16:59:38.543Z</time>
      </trkpt>
      <trkpt lat="48.39606" lon="-4.41912">
        <ele>50.21897</ele>
        <time>2022-12-09T16:59:42.550Z</time>
      </trkpt>
      <trkpt lat="48.396" lon="-4.41898">
        <ele>50.837302</ele>
        <time>2022-12-09T16:59:46.549Z</time>
      </trkpt>
      <trkpt lat="48.39595" lon="-4.41887">
        <ele>51.38542</ele>
        <time>2022-12-09T16:59:50.551Z</time>
      </trkpt>
      <trkpt lat="48.39589" lon="-4.41875">
        <ele>51.957157</ele>
        <time>2022-12-09T16:59:55.537Z</time>
      </trkpt>
      <trkpt lat="48.39584" lon="-4.41864">
        <ele>52.505199</ele>
        <time>2022-12-09T16:59:59.537Z</time>
      </trkpt>
      <trkpt lat="48.39579" lon="-4.41849">
        <ele>53.153086</ele>
        <time>2022-12-09T17:00:04.545Z</time>
      </trkpt>
      <trkpt lat="48.39575" lon="-4.41836">
        <ele>53.75206</ele>
        <time>2022-12-09T17:00:09.537Z</time>
      </trkpt>
      <trkpt lat="48.39572" lon="-4.41822">
        <ele>54.306774</ele>
        <time>2022-12-09T17:00:14.546Z</time>
      </trkpt>
      <trkpt lat="48.39568" lon="-4.41809">
        <ele>54.894196</ele>
        <time>2022-12-09T17:00:19.546Z</time>
      </trkpt>
      <trkpt lat="48.39566" lon="-4.41795">
        <ele>55.440931</ele>
        <time>2022-12-09T17:00:24.549Z</time>
      </trkpt>
      <trkpt lat="48.39563" lon="-4.41782">
        <ele>55.991913</ele>
        <time>2022-12-09T17:00:29.550Z</time>
      </trkpt>
      <trkpt lat="48.3956" lon="-4.41767">
        <ele>56.597799</ele>
        <time>2022-12-09T17:00:35.531Z</time>
      </trkpt>
      <trkpt lat="48.39558" lon="-4.41751">
        <ele>57.241269</ele>
        <time>2022-12-09T17:00:41.534Z</time>
      </trkpt>
      <trkpt lat="48.39555" lon="-4.41736">
        <ele>57.874917</ele>
        <time>2022-12-09T17:00:47.542Z</time>
      </trkpt>
      <trkpt lat="48.39553" lon="-4.41721">
        <ele>58.509427</ele>
        <time>2022-12-09T17:00:53.537Z</time>
      </trkpt>
      <trkpt lat="48.39552" lon="-4.41705">
        <ele>59.131901</ele>
        <time>2022-12-09T17:00:59.528Z</time>
      </trkpt>
      <trkpt lat="48.39551" lon="-4.4169">
        <ele>59.739082</ele>
        <time>2022-12-09T17:01:05.533Z</time>
      </trkpt>
      <trkpt lat="48.39549" lon="-4.41674">
        <ele>60.362495</ele>
        <time>2022-12-09T17:01:11.534Z</time>
      </trkpt>
      <trkpt lat="48.39548" lon="-4.41659">
        <ele>61.028146</ele>
        <time>2022-12-09T17:01:17.530Z</time>
      </trkpt>
      <trkpt lat="48.39546" lon="-4.41644">
        <ele>61.684368</ele>
        <time>2022-12-09T17:01:23.529Z</time>
      </trkpt>
      <trkpt lat="48.39545" lon="-4.41629">
        <ele>62.326418</ele>
        <time>2022-12-09T17:01:29.534Z</time>
      </trkpt>
      <trkpt lat="48.39543" lon="-4.41615">
        <ele>62.967552</ele>
        <time>2022-12-09T17:01:35.532Z</time>
      </trkpt>
      <trkpt lat="48.39542" lon="-4.41601">
        <ele>63.59132</ele>
        <time>2022-12-09T17:01:41.538Z</time>
      </trkpt>
      <trkpt lat="48.3954" lon="-4.41585">
        <ele>64.275387</ele>
        <time>2022-12-09T17:01:47.531Z</time>
      </trkpt>
      <trkpt lat="48.39539" lon="-4.4157">
        <ele>64.952801</ele>
        <time>2022-12-09T17:01:53.536Z</time>
      </trkpt>
      <trkpt lat="48.39538" lon="-4.41555">
        <ele>65.621824</ele>
        <time>2022-12-09T17:01:59.536Z</time>
      </trkpt>
      <trkpt lat="48.39536" lon="-4.4154">
        <ele>66.293657</ele>
        <time>2022-12-09T17:02:05.526Z</time>
      </trkpt>
      <trkpt lat="48.39533" lon="-4.41526">
        <ele>66.945402</ele>
        <time>2022-12-09T17:02:11.532Z</time>
      </trkpt>
      <trkpt lat="48.39532" lon="-4.4151">
        <ele>67.640439</ele>
        <time>2022-12-09T17:02:17.531Z</time>
      </trkpt>
      <trkpt lat="48.3953" lon="-4.41494">
        <ele>68.33891</ele>
        <time>2022-12-09T17:02:23.532Z</time>
      </trkpt>
      <trkpt lat="48.39528" lon="-4.41479">
        <ele>69.009219</ele>
        <time>2022-12-09T17:02:29.537Z</time>
      </trkpt>
      <trkpt lat="48.39527" lon="-4.41464">
        <ele>69.692236</ele>
        <time>2022-12-09T17:02:35.535Z</time>
      </trkpt>
      <trkpt lat="48.39524" lon="-4.41448">
        <ele>70.379629</ele>
        <time>2022-12-09T17:02:41.537Z</time>
      </trkpt>
      <trkpt lat="48.39521" lon="-4.41433">
        <ele>71.076208</ele>
        <time>2022-12-09T17:02:47.534Z</time>
      </trkpt>
      <trkpt lat="48.3952" lon="-4.41418">
        <ele>71.74863</ele>
        <time>2022-12-09T17:02:52.530Z</time>
      </trkpt>
      <trkpt lat="48.39518" lon="-4.41402">
        <ele>72.439591</ele>
        <time>2022-12-09T17:02:57.530Z</time>
      </trkpt>
      <trkpt lat="48.39519" lon="-4.41386">
        <ele>72.62229</ele>
        <time>2022-12-09T17:03:02.543Z</time>
      </trkpt>
      <trkpt lat="48.39519" lon="-4.4137">
        <ele>72.800031</ele>
        <time>2022-12-09T17:03:07.546Z</time>
      </trkpt>
      <trkpt lat="48.3952" lon="-4.41356">
        <ele>72.954862</ele>
        <time>2022-12-09T17:03:11.555Z</time>
      </trkpt>
      <trkpt lat="48.39519" lon="-4.41339">
        <ele>73.142016</ele>
        <time>2022-12-09T17:03:16.547Z</time>
      </trkpt>
      <trkpt lat="48.39521" lon="-4.41323">
        <ele>73.329098</ele>
        <time>2022-12-09T17:03:21.546Z</time>
      </trkpt>
      <trkpt lat="48.39522" lon="-4.41307">
        <ele>73.503251</ele>
        <time>2022-12-09T17:03:25.540Z</time>
      </trkpt>
      <trkpt lat="48.39523" lon="-4.41291">
        <ele>73.682102</ele>
        <time>2022-12-09T17:03:29.550Z</time>
      </trkpt>
      <trkpt lat="48.39524" lon="-4.41275">
        <ele>73.86809</ele>
        <time>2022-12-09T17:03:33.529Z</time>
      </trkpt>
      <trkpt lat="48.39525" lon="-4.41258">
        <ele>74.0478</ele>
        <time>2022-12-09T17:03:37.532Z</time>
      </trkpt>
      <trkpt lat="48.39526" lon="-4.41243">
        <ele>74.222034</ele>
        <time>2022-12-09T17:03:41.526Z</time>
      </trkpt>
      <trkpt lat="48.39526" lon="-4.41227">
        <ele>74.398218</ele>
        <time>2022-12-09T17:03:45.544Z</time>
      </trkpt>
      <trkpt lat="48.39527" lon="-4.41212">
        <ele>74.568642</ele>
        <time>2022-12-09T17:03:49.549Z</time>
      </trkpt>
      <trkpt lat="48.39526" lon="-4.41197">
        <ele>74.737952</ele>
        <time>2022-12-09T17:03:53.535Z</time>
      </trkpt>
      <trkpt lat="48.39527" lon="-4.41179">
        <ele>74.930907</ele>
        <time>2022-12-09T17:03:57.547Z</time>
      </trkpt>
      <trkpt lat="48.39526" lon="-4.41162">
        <ele>75.124328</ele>
        <time>2022-12-09T17:04:01.534Z</time>
      </trkpt>
      <trkpt lat="48.39525" lon="-4.41144">
        <ele>75.321571</ele>
        <time>2022-12-09T17:04:05.530Z</time>
      </trkpt>
      <trkpt lat="48.39523" lon="-4.41127">
        <ele>75.511446</ele>
        <time>2022-12-09T17:04:09.553Z</time>
      </trkpt>
      <trkpt lat="48.39522" lon="-4.4111">
        <ele>75.686999</ele>
        <time>2022-12-09T17:04:13.547Z</time>
      </trkpt>
      <trkpt lat="48.39519" lon="-4.41093">
        <ele>75.869965</ele>
        <time>2022-12-09T17:04:17.528Z</time>
      </trkpt>
      <trkpt lat="48.39517" lon="-4.41075">
        <ele>76.049973</ele>
        <time>2022-12-09T17:04:21.549Z</time>
      </trkpt>
      <trkpt lat="48.39515" lon="-4.41059">
        <ele>76.219248</ele>
        <time>2022-12-09T17:04:25.559Z</time>
      </trkpt>
      <trkpt lat="48.39512" lon="-4.41045">
        <ele>76.360113</ele>
        <time>2022-12-09T17:04:28.549Z</time>
      </trkpt>
      <trkpt lat="48.3951" lon="-4.41032">
        <ele>76.50288</ele>
        <time>2022-12-09T17:04:31.547Z</time>
      </trkpt>
      <trkpt lat="48.39508" lon="-4.41019">
        <ele>76.643013</ele>
        <time>2022-12-09T17:04:34.533Z</time>
      </trkpt>
      <trkpt lat="48.39505" lon="-4.41005">
        <ele>76.782894</ele>
        <time>2022-12-09T17:04:37.545Z</time>
      </trkpt>
      <trkpt lat="48.39503" lon="-4.40992">
        <ele>76.923384</ele>
        <time>2022-12-09T17:04:40.532Z</time>
      </trkpt>
      <trkpt lat="48.39501" lon="-4.40979">
        <ele>77.061296</ele>
        <time>2022-12-09T17:04:43.548Z</time>
      </trkpt>
      <trkpt lat="48.39498" lon="-4.40965">
        <ele>77.20296</ele>
        <time>2022-12-09T17:04:46.548Z</time>
      </trkpt>
      <trkpt lat="48.39495" lon="-4.4095">
        <ele>77.368628</ele>
        <time>2022-12-09T17:04:50.550Z</time>
      </trkpt>
      <trkpt lat="48.39492" lon="-4.40932">
        <ele>77.552805</ele>
        <time>2022-12-09T17:04:54.538Z</time>
      </trkpt>
      <trkpt lat="48.39489" lon="-4.4092">
        <ele>77.690456</ele>
        <time>2022-12-09T17:04:57.548Z</time>
      </trkpt>
      <trkpt lat="48.39487" lon="-4.40903">
        <ele>77.862983</ele>
        <time>2022-12-09T17:05:01.543Z</time>
      </trkpt>
      <trkpt lat="48.39486" lon="-4.40887">
        <ele>78.02047</ele>
        <time>2022-12-09T17:05:05.536Z</time>
      </trkpt>
      <trkpt lat="48.39489" lon="-4.40871">
        <ele>78.194058</ele>
        <time>2022-12-09T17:05:09.538Z</time>
      </trkpt>
      <trkpt lat="48.39487" lon="-4.40857">
        <ele>78.12561</ele>
        <time>2022-12-09T17:05:12.534Z</time>
      </trkpt>
      <trkpt lat="48.39483" lon="-4.40844">
        <ele>78.02705</ele>
        <time>2022-12-09T17:05:15.539Z</time>
      </trkpt>
      <trkpt lat="48.39477" lon="-4.4083">
        <ele>77.908264</ele>
        <time>2022-12-09T17:05:19.531Z</time>
      </trkpt>
      <trkpt lat="48.39471" lon="-4.40818">
        <ele>77.806888</ele>
        <time>2022-12-09T17:05:22.554Z</time>
      </trkpt>
      <trkpt lat="48.39468" lon="-4.40803">
        <ele>77.698299</ele>
        <time>2022-12-09T17:05:25.540Z</time>
      </trkpt>
      <trkpt lat="48.39466" lon="-4.40789">
        <ele>77.60053</ele>
        <time>2022-12-09T17:05:28.532Z</time>
      </trkpt>
      <trkpt lat="48.39463" lon="-4.40774">
        <ele>77.490314</ele>
        <time>2022-12-09T17:05:32.554Z</time>
      </trkpt>
      <trkpt lat="48.39459" lon="-4.40758">
        <ele>77.372486</ele>
        <time>2022-12-09T17:05:36.551Z</time>
      </trkpt>
      <trkpt lat="48.39455" lon="-4.40741">
        <ele>77.246359</ele>
        <time>2022-12-09T17:05:40.553Z</time>
      </trkpt>
      <trkpt lat="48.39451" lon="-4.40728">
        <ele>77.149285</ele>
        <time>2022-12-09T17:05:43.535Z</time>
      </trkpt>
      <trkpt lat="48.39447" lon="-4.40712">
        <ele>77.025251</ele>
        <time>2022-12-09T17:05:47.541Z</time>
      </trkpt>
      <trkpt lat="48.39444" lon="-4.40699">
        <ele>76.928475</ele>
        <time>2022-12-09T17:05:50.537Z</time>
      </trkpt>
      <trkpt lat="48.39439" lon="-4.40686">
        <ele>76.829347</ele>
        <time>2022-12-09T17:05:53.547Z</time>
      </trkpt>
      <trkpt lat="48.39434" lon="-4.40673">
        <ele>76.723675</ele>
        <time>2022-12-09T17:05:56.551Z</time>
      </trkpt>
      <trkpt lat="48.39429" lon="-4.40659">
        <ele>76.61468</ele>
        <time>2022-12-09T17:05:59.549Z</time>
      </trkpt>
      <trkpt lat="48.39423" lon="-4.40646">
        <ele>76.499397</ele>
        <time>2022-12-09T17:06:02.547Z</time>
      </trkpt>
      <trkpt lat="48.39418" lon="-4.40632">
        <ele>76.387941</ele>
        <time>2022-12-09T17:06:05.537Z</time>
      </trkpt>
      <trkpt lat="48.39412" lon="-4.40618">
        <ele>76.126536</ele>
        <time>2022-12-09T17:06:08.541Z</time>
      </trkpt>
      <trkpt lat="48.39407" lon="-4.40604">
        <ele>75.674981</ele>
        <time>2022-12-09T17:06:11.545Z</time>
      </trkpt>
      <trkpt lat="48.39402" lon="-4.40591">
        <ele>75.234369</ele>
        <time>2022-12-09T17:06:14.527Z</time>
      </trkpt>
      <trkpt lat="48.39396" lon="-4.40579">
        <ele>74.796092</ele>
        <time>2022-12-09T17:06:17.561Z</time>
      </trkpt>
      <trkpt lat="48.3939" lon="-4.40567">
        <ele>74.40023</ele>
        <time>2022-12-09T17:06:20.550Z</time>
      </trkpt>
      <trkpt lat="48.39384" lon="-4.40555">
        <ele>73.958533</ele>
        <time>2022-12-09T17:06:23.541Z</time>
      </trkpt>
      <trkpt lat="48.39377" lon="-4.40542">
        <ele>73.487974</ele>
        <time>2022-12-09T17:06:26.551Z</time>
      </trkpt>
      <trkpt lat="48.3937" lon="-4.40528">
        <ele>72.976945</ele>
        <time>2022-12-09T17:06:29.543Z</time>
      </trkpt>
      <trkpt lat="48.39362" lon="-4.40514">
        <ele>72.452369</ele>
        <time>2022-12-09T17:06:32.546Z</time>
      </trkpt>
      <trkpt lat="48.39353" lon="-4.40501">
        <ele>71.927345</ele>
        <time>2022-12-09T17:06:35.550Z</time>
      </trkpt>
      <trkpt lat="48.39345" lon="-4.40488">
        <ele>71.410433</ele>
        <time>2022-12-09T17:06:38.545Z</time>
      </trkpt>
      <trkpt lat="48.39336" lon="-4.40474">
        <ele>70.864474</ele>
        <time>2022-12-09T17:06:41.554Z</time>
      </trkpt>
      <trkpt lat="48.39329" lon="-4.40464">
        <ele>70.439228</ele>
        <time>2022-12-09T17:06:43.550Z</time>
      </trkpt>
      <trkpt lat="48.3932" lon="-4.40455">
        <ele>70.009415</ele>
        <time>2022-12-09T17:06:45.550Z</time>
      </trkpt>
      <trkpt lat="48.39311" lon="-4.40446">
        <ele>69.545544</ele>
        <time>2022-12-09T17:06:47.547Z</time>
      </trkpt>
      <trkpt lat="48.39303" lon="-4.40437">
        <ele>69.093962</ele>
        <time>2022-12-09T17:06:49.552Z</time>
      </trkpt>
      <trkpt lat="48.39294" lon="-4.40429">
        <ele>68.658088</ele>
        <time>2022-12-09T17:06:51.545Z</time>
      </trkpt>
      <trkpt lat="48.39286" lon="-4.40421">
        <ele>68.833993</ele>
        <time>2022-12-09T17:06:53.561Z</time>
      </trkpt>
      <trkpt lat="48.39277" lon="-4.40413">
        <ele>69.073774</ele>
        <time>2022-12-09T17:06:55.550Z</time>
      </trkpt>
      <trkpt lat="48.39269" lon="-4.40405">
        <ele>69.296194</ele>
        <time>2022-12-09T17:06:57.531Z</time>
      </trkpt>
      <trkpt lat="48.39261" lon="-4.40398">
        <ele>69.513331</ele>
        <time>2022-12-09T17:06:59.550Z</time>
      </trkpt>
      <trkpt lat="48.3925" lon="-4.4039">
        <ele>69.787074</ele>
        <time>2022-12-09T17:07:02.550Z</time>
      </trkpt>
      <trkpt lat="48.39241" lon="-4.40382">
        <ele>70.028364</ele>
        <time>2022-12-09T17:07:05.550Z</time>
      </trkpt>
      <trkpt lat="48.39232" lon="-4.40375">
        <ele>70.255836</ele>
        <time>2022-12-09T17:07:08.548Z</time>
      </trkpt>
      <trkpt lat="48.39224" lon="-4.40368">
        <ele>70.482725</ele>
        <time>2022-12-09T17:07:11.547Z</time>
      </trkpt>
      <trkpt lat="48.39214" lon="-4.40361">
        <ele>70.739156</ele>
        <time>2022-12-09T17:07:15.551Z</time>
      </trkpt>
      <trkpt lat="48.39204" lon="-4.40354">
        <ele>70.990248</ele>
        <time>2022-12-09T17:07:19.555Z</time>
      </trkpt>
      <trkpt lat="48.39195" lon="-4.40348">
        <ele>71.219206</ele>
        <time>2022-12-09T17:07:23.542Z</time>
      </trkpt>
      <trkpt lat="48.39187" lon="-4.40341">
        <ele>71.430973</ele>
        <time>2022-12-09T17:07:27.536Z</time>
      </trkpt>
      <trkpt lat="48.3918" lon="-4.40333">
        <ele>71.640102</ele>
        <time>2022-12-09T17:07:31.548Z</time>
      </trkpt>
      <trkpt lat="48.39172" lon="-4.40324">
        <ele>71.875738</ele>
        <time>2022-12-09T17:07:36.547Z</time>
      </trkpt>
      <trkpt lat="48.39163" lon="-4.40319">
        <ele>72.085519</ele>
        <time>2022-12-09T17:07:40.541Z</time>
      </trkpt>
      <trkpt lat="48.39155" lon="-4.4031">
        <ele>72.322144</ele>
        <time>2022-12-09T17:07:44.543Z</time>
      </trkpt>
      <trkpt lat="48.39145" lon="-4.40302">
        <ele>72.57501</ele>
        <time>2022-12-09T17:07:48.553Z</time>
      </trkpt>
      <trkpt lat="48.39137" lon="-4.40295">
        <ele>72.809118</ele>
        <time>2022-12-09T17:07:52.550Z</time>
      </trkpt>
      <trkpt lat="48.39127" lon="-4.4029">
        <ele>73.228034</ele>
        <time>2022-12-09T17:07:56.538Z</time>
      </trkpt>
      <trkpt lat="48.39119" lon="-4.40283">
        <ele>73.61388</ele>
        <time>2022-12-09T17:08:00.549Z</time>
      </trkpt>
      <trkpt lat="48.39111" lon="-4.40276">
        <ele>73.993543</ele>
        <time>2022-12-09T17:08:04.536Z</time>
      </trkpt>
      <trkpt lat="48.39103" lon="-4.40269">
        <ele>74.398098</ele>
        <time>2022-12-09T17:08:11.530Z</time>
      </trkpt>
      <trkpt lat="48.39097" lon="-4.40259">
        <ele>74.777957</ele>
        <time>2022-12-09T17:08:18.538Z</time>
      </trkpt>
      <trkpt lat="48.39087" lon="-4.40255">
        <ele>75.175767</ele>
        <time>2022-12-09T17:08:24.537Z</time>
      </trkpt>
      <trkpt lat="48.39078" lon="-4.40248">
        <ele>75.618631</ele>
        <time>2022-12-09T17:08:30.537Z</time>
      </trkpt>
      <trkpt lat="48.3907" lon="-4.40242">
        <ele>75.994889</ele>
        <time>2022-12-09T17:08:35.538Z</time>
      </trkpt>
      <trkpt lat="48.3906" lon="-4.40233">
        <ele>76.444927</ele>
        <time>2022-12-09T17:08:41.534Z</time>
      </trkpt>
      <trkpt lat="48.39052" lon="-4.40227">
        <ele>76.835675</ele>
        <time>2022-12-09T17:08:46.538Z</time>
      </trkpt>
      <trkpt lat="48.39043" lon="-4.40219">
        <ele>77.256083</ele>
        <time>2022-12-09T17:08:52.535Z</time>
      </trkpt>
      <trkpt lat="48.39035" lon="-4.40213">
        <ele>77.647648</ele>
        <time>2022-12-09T17:08:57.536Z</time>
      </trkpt>
      <trkpt lat="48.39026" lon="-4.40206">
        <ele>78.042429</ele>
        <time>2022-12-09T17:09:02.537Z</time>
      </trkpt>
      <trkpt lat="48.39018" lon="-4.40198">
        <ele>78.446401</ele>
        <time>2022-12-09T17:09:07.541Z</time>
      </trkpt>
      <trkpt lat="48.39009" lon="-4.40192">
        <ele>78.851915</ele>
        <time>2022-12-09T17:09:12.547Z</time>
      </trkpt>
      <trkpt lat="48.39001" lon="-4.40186">
        <ele>79.251344</ele>
        <time>2022-12-09T17:09:17.547Z</time>
      </trkpt>
      <trkpt lat="48.38993" lon="-4.40179">
        <ele>79.64251</ele>
        <time>2022-12-09T17:09:22.536Z</time>
      </trkpt>
      <trkpt lat="48.38984" lon="-4.40173">
        <ele>80.042548</ele>
        <time>2022-12-09T17:09:27.550Z</time>
      </trkpt>
      <trkpt lat="48.38975" lon="-4.40166">
        <ele>80.378335</ele>
        <time>2022-12-09T17:09:32.533Z</time>
      </trkpt>
      <trkpt lat="48.38967" lon="-4.40158">
        <ele>80.615909</ele>
        <time>2022-12-09T17:09:36.542Z</time>
      </trkpt>
      <trkpt lat="48.38959" lon="-4.40151">
        <ele>80.847355</ele>
        <time>2022-12-09T17:09:40.532Z</time>
      </trkpt>
      <trkpt lat="48.38949" lon="-4.40144">
        <ele>81.135013</ele>
        <time>2022-12-09T17:09:45.539Z</time>
      </trkpt>
      <trkpt lat="48.3894" lon="-4.40137">
        <ele>81.401269</ele>
        <time>2022-12-09T17:09:49.544Z</time>
      </trkpt>
      <trkpt lat="48.3893" lon="-4.40128">
        <ele>81.696723</ele>
        <time>2022-12-09T17:09:53.564Z</time>
      </trkpt>
      <trkpt lat="48.38919" lon="-4.4012">
        <ele>81.997463</ele>
        <time>2022-12-09T17:09:57.564Z</time>
      </trkpt>
      <trkpt lat="48.38911" lon="-4.40114">
        <ele>82.231117</ele>
        <time>2022-12-09T17:10:00.562Z</time>
      </trkpt>
      <trkpt lat="48.38903" lon="-4.40108">
        <ele>82.466186</ele>
        <time>2022-12-09T17:10:03.537Z</time>
      </trkpt>
      <trkpt lat="48.38894" lon="-4.401">
        <ele>82.739683</ele>
        <time>2022-12-09T17:10:07.563Z</time>
      </trkpt>
      <trkpt lat="48.38883" lon="-4.40091">
        <ele>83.036405</ele>
        <time>2022-12-09T17:10:11.560Z</time>
      </trkpt>
      <trkpt lat="48.38875" lon="-4.40084">
        <ele>83.288498</ele>
        <time>2022-12-09T17:10:14.561Z</time>
      </trkpt>
      <trkpt lat="48.38866" lon="-4.40076">
        <ele>83.549248</ele>
        <time>2022-12-09T17:10:17.552Z</time>
      </trkpt>
      <trkpt lat="48.38857" lon="-4.40069">
        <ele>83.81415</ele>
        <time>2022-12-09T17:10:20.551Z</time>
      </trkpt>
      <trkpt lat="48.38848" lon="-4.40062">
        <ele>84.06847</ele>
        <time>2022-12-09T17:10:23.548Z</time>
      </trkpt>
      <trkpt lat="48.38838" lon="-4.40053">
        <ele>84.362285</ele>
        <time>2022-12-09T17:10:27.561Z</time>
      </trkpt>
      <trkpt lat="48.38828" lon="-4.40045">
        <ele>84.656687</ele>
        <time>2022-12-09T17:10:31.551Z</time>
      </trkpt>
      <trkpt lat="48.3882" lon="-4.40039">
        <ele>84.82373</ele>
        <time>2022-12-09T17:10:34.546Z</time>
      </trkpt>
      <trkpt lat="48.38811" lon="-4.40033">
        <ele>84.707472</ele>
        <time>2022-12-09T17:10:37.553Z</time>
      </trkpt>
      <trkpt lat="48.38802" lon="-4.40026">
        <ele>84.589432</ele>
        <time>2022-12-09T17:10:40.537Z</time>
      </trkpt>
      <trkpt lat="48.38794" lon="-4.40019">
        <ele>84.474585</ele>
        <time>2022-12-09T17:10:43.544Z</time>
      </trkpt>
      <trkpt lat="48.38786" lon="-4.40012">
        <ele>84.363827</ele>
        <time>2022-12-09T17:10:46.549Z</time>
      </trkpt>
      <trkpt lat="48.38776" lon="-4.40004">
        <ele>84.230666</ele>
        <time>2022-12-09T17:10:50.550Z</time>
      </trkpt>
      <trkpt lat="48.38765" lon="-4.39996">
        <ele>84.08588</ele>
        <time>2022-12-09T17:10:54.530Z</time>
      </trkpt>
      <trkpt lat="48.38757" lon="-4.39988">
        <ele>83.968161</ele>
        <time>2022-12-09T17:10:57.542Z</time>
      </trkpt>
      <trkpt lat="48.38748" lon="-4.39982">
        <ele>83.857207</ele>
        <time>2022-12-09T17:11:00.540Z</time>
      </trkpt>
      <trkpt lat="48.38737" lon="-4.39974">
        <ele>83.712055</ele>
        <time>2022-12-09T17:11:04.551Z</time>
      </trkpt>
      <trkpt lat="48.38728" lon="-4.39967">
        <ele>83.590797</ele>
        <time>2022-12-09T17:11:07.567Z</time>
      </trkpt>
      <trkpt lat="48.38719" lon="-4.3996">
        <ele>83.467664</ele>
        <time>2022-12-09T17:11:10.548Z</time>
      </trkpt>
      <trkpt lat="48.38711" lon="-4.39952">
        <ele>83.342349</ele>
        <time>2022-12-09T17:11:13.565Z</time>
      </trkpt>
      <trkpt lat="48.38702" lon="-4.39944">
        <ele>83.219478</ele>
        <time>2022-12-09T17:11:16.547Z</time>
      </trkpt>
      <trkpt lat="48.38693" lon="-4.39937">
        <ele>83.097853</ele>
        <time>2022-12-09T17:11:19.542Z</time>
      </trkpt>
      <trkpt lat="48.38684" lon="-4.3993">
        <ele>82.985495</ele>
        <time>2022-12-09T17:11:22.564Z</time>
      </trkpt>
      <trkpt lat="48.38676" lon="-4.39923">
        <ele>82.868187</ele>
        <time>2022-12-09T17:11:25.562Z</time>
      </trkpt>
      <trkpt lat="48.38667" lon="-4.39915">
        <ele>82.750398</ele>
        <time>2022-12-09T17:11:28.555Z</time>
      </trkpt>
      <trkpt lat="48.38659" lon="-4.39909">
        <ele>82.677251</ele>
        <time>2022-12-09T17:11:31.550Z</time>
      </trkpt>
      <trkpt lat="48.3865" lon="-4.39901">
        <ele>82.647888</ele>
        <time>2022-12-09T17:11:34.544Z</time>
      </trkpt>
      <trkpt lat="48.3864" lon="-4.39893">
        <ele>82.617315</ele>
        <time>2022-12-09T17:11:37.553Z</time>
      </trkpt>
      <trkpt lat="48.38633" lon="-4.39886">
        <ele>82.591378</ele>
        <time>2022-12-09T17:11:40.533Z</time>
      </trkpt>
      <trkpt lat="48.38622" lon="-4.39878">
        <ele>82.558646</ele>
        <time>2022-12-09T17:11:44.541Z</time>
      </trkpt>
      <trkpt lat="48.38613" lon="-4.39872">
        <ele>82.529106</ele>
        <time>2022-12-09T17:11:48.549Z</time>
      </trkpt>
      <trkpt lat="48.38603" lon="-4.39865">
        <ele>82.499688</ele>
        <time>2022-12-09T17:11:52.532Z</time>
      </trkpt>
      <trkpt lat="48.38596" lon="-4.39858">
        <ele>82.47341</ele>
        <time>2022-12-09T17:11:55.555Z</time>
      </trkpt>
      <trkpt lat="48.38587" lon="-4.3985">
        <ele>82.445811</ele>
        <time>2022-12-09T17:11:58.545Z</time>
      </trkpt>
      <trkpt lat="48.38578" lon="-4.39843">
        <ele>82.41749</ele>
        <time>2022-12-09T17:12:01.552Z</time>
      </trkpt>
      <trkpt lat="48.3857" lon="-4.39836">
        <ele>82.388773</ele>
        <time>2022-12-09T17:12:04.557Z</time>
      </trkpt>
      <trkpt lat="48.3856" lon="-4.39828">
        <ele>82.357829</ele>
        <time>2022-12-09T17:12:07.563Z</time>
      </trkpt>
      <trkpt lat="48.38551" lon="-4.39821">
        <ele>82.327785</ele>
        <time>2022-12-09T17:12:10.555Z</time>
      </trkpt>
      <trkpt lat="48.38543" lon="-4.39815">
        <ele>82.302261</ele>
        <time>2022-12-09T17:12:13.559Z</time>
      </trkpt>
      <trkpt lat="48.38532" lon="-4.39806">
        <ele>82.268838</ele>
        <time>2022-12-09T17:12:17.550Z</time>
      </trkpt>
      <trkpt lat="48.38524" lon="-4.39799">
        <ele>82.241196</ele>
        <time>2022-12-09T17:12:20.541Z</time>
      </trkpt>
      <trkpt lat="48.38515" lon="-4.39792">
        <ele>82.21237</ele>
        <time>2022-12-09T17:12:23.553Z</time>
      </trkpt>
      <trkpt lat="48.38506" lon="-4.39786">
        <ele>82.183545</ele>
        <time>2022-12-09T17:12:26.545Z</time>
      </trkpt>
      <trkpt lat="48.38497" lon="-4.39778">
        <ele>82.262233</ele>
        <time>2022-12-09T17:12:29.556Z</time>
      </trkpt>
      <trkpt lat="48.38487" lon="-4.3977">
        <ele>82.377699</ele>
        <time>2022-12-09T17:12:33.550Z</time>
      </trkpt>
      <trkpt lat="48.38477" lon="-4.39762">
        <ele>82.484277</ele>
        <time>2022-12-09T17:12:37.560Z</time>
      </trkpt>
      <trkpt lat="48.38472" lon="-4.39751">
        <ele>82.573303</ele>
        <time>2022-12-09T17:12:41.549Z</time>
      </trkpt>
      <trkpt lat="48.38461" lon="-4.39745">
        <ele>82.683921</ele>
        <time>2022-12-09T17:12:45.535Z</time>
      </trkpt>
      <trkpt lat="48.38453" lon="-4.3974">
        <ele>82.777034</ele>
        <time>2022-12-09T17:12:48.553Z</time>
      </trkpt>
      <trkpt lat="48.38444" lon="-4.39734">
        <ele>82.871286</ele>
        <time>2022-12-09T17:12:51.560Z</time>
      </trkpt>
      <trkpt lat="48.38436" lon="-4.39727">
        <ele>82.962631</ele>
        <time>2022-12-09T17:12:54.550Z</time>
      </trkpt>
      <trkpt lat="48.38427" lon="-4.39719">
        <ele>83.067601</ele>
        <time>2022-12-09T17:12:58.543Z</time>
      </trkpt>
      <trkpt lat="48.38418" lon="-4.39711">
        <ele>83.169361</ele>
        <time>2022-12-09T17:13:02.564Z</time>
      </trkpt>
      <trkpt lat="48.38409" lon="-4.39699">
        <ele>83.282514</ele>
        <time>2022-12-09T17:13:06.548Z</time>
      </trkpt>
      <trkpt lat="48.38402" lon="-4.39687">
        <ele>83.387336</ele>
        <time>2022-12-09T17:13:10.555Z</time>
      </trkpt>
      <trkpt lat="48.38395" lon="-4.39677">
        <ele>83.484428</ele>
        <time>2022-12-09T17:13:14.551Z</time>
      </trkpt>
      <trkpt lat="48.38389" lon="-4.39663">
        <ele>83.593504</ele>
        <time>2022-12-09T17:13:19.538Z</time>
      </trkpt>
      <trkpt lat="48.38384" lon="-4.39652">
        <ele>83.684022</ele>
        <time>2022-12-09T17:13:24.564Z</time>
      </trkpt>
      <trkpt lat="48.38379" lon="-4.39639">
        <ele>83.778475</ele>
        <time>2022-12-09T17:13:30.538Z</time>
      </trkpt>
      <trkpt lat="48.38373" lon="-4.39629">
        <ele>83.868263</ele>
        <time>2022-12-09T17:13:35.537Z</time>
      </trkpt>
      <trkpt lat="48.38368" lon="-4.39616">
        <ele>84.025065</ele>
        <time>2022-12-09T17:13:40.542Z</time>
      </trkpt>
      <trkpt lat="48.38364" lon="-4.39602">
        <ele>84.44721</ele>
        <time>2022-12-09T17:13:45.539Z</time>
      </trkpt>
      <trkpt lat="48.38361" lon="-4.39587">
        <ele>84.908168</ele>
        <time>2022-12-09T17:13:51.538Z</time>
      </trkpt>
      <trkpt lat="48.38358" lon="-4.39574">
        <ele>85.327365</ele>
        <time>2022-12-09T17:13:56.539Z</time>
      </trkpt>
      <trkpt lat="48.38356" lon="-4.39561">
        <ele>85.729388</ele>
        <time>2022-12-09T17:14:01.534Z</time>
      </trkpt>
      <trkpt lat="48.38355" lon="-4.39547">
        <ele>86.126822</ele>
        <time>2022-12-09T17:14:06.534Z</time>
      </trkpt>
      <trkpt lat="48.38355" lon="-4.39533">
        <ele>86.554355</ele>
        <time>2022-12-09T17:14:12.531Z</time>
      </trkpt>
      <trkpt lat="48.38361" lon="-4.39519">
        <ele>87.008163</ele>
        <time>2022-12-09T17:14:17.536Z</time>
      </trkpt>
      <trkpt lat="48.38366" lon="-4.39507">
        <ele>87.432597</ele>
        <time>2022-12-09T17:14:23.535Z</time>
      </trkpt>
      <trkpt lat="48.38368" lon="-4.39492">
        <ele>87.88617</ele>
        <time>2022-12-09T17:14:29.538Z</time>
      </trkpt>
      <trkpt lat="48.3836" lon="-4.39484">
        <ele>88.295463</ele>
        <time>2022-12-09T17:14:35.532Z</time>
      </trkpt>
      <trkpt lat="48.38351" lon="-4.39479">
        <ele>88.731494</ele>
        <time>2022-12-09T17:14:41.536Z</time>
      </trkpt>
      <trkpt lat="48.38347" lon="-4.39465">
        <ele>89.17507</ele>
        <time>2022-12-09T17:14:47.535Z</time>
      </trkpt>
      <trkpt lat="48.38346" lon="-4.3945">
        <ele>89.610795</ele>
        <time>2022-12-09T17:14:53.554Z</time>
      </trkpt>
      <trkpt lat="48.38347" lon="-4.39434">
        <ele>90.08935</ele>
        <time>2022-12-09T17:14:59.547Z</time>
      </trkpt>
      <trkpt lat="48.38347" lon="-4.39418">
        <ele>90.548725</ele>
        <time>2022-12-09T17:15:05.537Z</time>
      </trkpt>
      <trkpt lat="48.38349" lon="-4.39403">
        <ele>91.014145</ele>
        <time>2022-12-09T17:15:11.532Z</time>
      </trkpt>
      <trkpt lat="48.3835" lon="-4.39387">
        <ele>91.478875</ele>
        <time>2022-12-09T17:15:17.539Z</time>
      </trkpt>
      <trkpt lat="48.38352" lon="-4.39371">
        <ele>91.947852</ele>
        <time>2022-12-09T17:15:23.540Z</time>
      </trkpt>
      <trkpt lat="48.38354" lon="-4.39358">
        <ele>92.327023</ele>
        <time>2022-12-09T17:15:28.539Z</time>
      </trkpt>
      <trkpt lat="48.38355" lon="-4.39342">
        <ele>92.770415</ele>
        <time>2022-12-09T17:15:34.537Z</time>
      </trkpt>
      <trkpt lat="48.38356" lon="-4.39327">
        <ele>93.169748</ele>
        <time>2022-12-09T17:15:39.551Z</time>
      </trkpt>
      <trkpt lat="48.38356" lon="-4.39314">
        <ele>93.551866</ele>
        <time>2022-12-09T17:15:44.555Z</time>
      </trkpt>
      <trkpt lat="48.38356" lon="-4.39298">
        <ele>93.994698</ele>
        <time>2022-12-09T17:15:50.540Z</time>
      </trkpt>
      <trkpt lat="48.38357" lon="-4.39282">
        <ele>94.443159</ele>
        <time>2022-12-09T17:15:56.534Z</time>
      </trkpt>
      <trkpt lat="48.38357" lon="-4.39266">
        <ele>94.886943</ele>
        <time>2022-12-09T17:16:02.535Z</time>
      </trkpt>
      <trkpt lat="48.38359" lon="-4.3925">
        <ele>95.321539</ele>
        <time>2022-12-09T17:16:08.540Z</time>
      </trkpt>
      <trkpt lat="48.38361" lon="-4.39235">
        <ele>95.750352</ele>
        <time>2022-12-09T17:16:14.536Z</time>
      </trkpt>
      <trkpt lat="48.38362" lon="-4.3922">
        <ele>96.192096</ele>
        <time>2022-12-09T17:16:20.534Z</time>
      </trkpt>
      <trkpt lat="48.38364" lon="-4.39204">
        <ele>96.622628</ele>
        <time>2022-12-09T17:16:26.538Z</time>
      </trkpt>
      <trkpt lat="48.38364" lon="-4.39191">
        <ele>97.001408</ele>
        <time>2022-12-09T17:16:32.537Z</time>
      </trkpt>
      <trkpt lat="48.38366" lon="-4.39175">
        <ele>97.447862</ele>
        <time>2022-12-09T17:16:38.531Z</time>
      </trkpt>
      <trkpt lat="48.38367" lon="-4.39162">
        <ele>97.82501</ele>
        <time>2022-12-09T17:16:43.534Z</time>
      </trkpt>
      <trkpt lat="48.38367" lon="-4.39146">
        <ele>98.262331</ele>
        <time>2022-12-09T17:16:49.533Z</time>
      </trkpt>
      <trkpt lat="48.38368" lon="-4.3913">
        <ele>98.711418</ele>
        <time>2022-12-09T17:16:55.539Z</time>
      </trkpt>
      <trkpt lat="48.38368" lon="-4.39116">
        <ele>99.098553</ele>
        <time>2022-12-09T17:17:00.537Z</time>
      </trkpt>
      <trkpt lat="48.38369" lon="-4.39102">
        <ele>99.503634</ele>
        <time>2022-12-09T17:17:05.541Z</time>
      </trkpt>
      <trkpt lat="48.38368" lon="-4.39087">
        <ele>100.004602</ele>
        <time>2022-12-09T17:17:11.544Z</time>
      </trkpt>
      <trkpt lat="48.38367" lon="-4.39073">
        <ele>100.45642</ele>
        <time>2022-12-09T17:17:16.539Z</time>
      </trkpt>
      <trkpt lat="48.38366" lon="-4.39057">
        <ele>100.981946</ele>
        <time>2022-12-09T17:17:22.532Z</time>
      </trkpt>
      <trkpt lat="48.38366" lon="-4.39043">
        <ele>101.436524</ele>
        <time>2022-12-09T17:17:27.538Z</time>
      </trkpt>
      <trkpt lat="48.38365" lon="-4.39028">
        <ele>101.961301</ele>
        <time>2022-12-09T17:17:33.539Z</time>
      </trkpt>
      <trkpt lat="48.38366" lon="-4.39012">
        <ele>102.482226</ele>
        <time>2022-12-09T17:17:39.531Z</time>
      </trkpt>
      <trkpt lat="48.38365" lon="-4.38997">
        <ele>102.985251</ele>
        <time>2022-12-09T17:17:45.531Z</time>
      </trkpt>
      <trkpt lat="48.38365" lon="-4.38981">
        <ele>103.495922</ele>
        <time>2022-12-09T17:17:51.539Z</time>
      </trkpt>
      <trkpt lat="48.38364" lon="-4.38966">
        <ele>104.007916</ele>
        <time>2022-12-09T17:17:57.536Z</time>
      </trkpt>
      <trkpt lat="48.38364" lon="-4.3895">
        <ele>104.529101</ele>
        <time>2022-12-09T17:18:03.537Z</time>
      </trkpt>
      <trkpt lat="48.38365" lon="-4.38934">
        <ele>105.064472</ele>
        <time>2022-12-09T17:18:09.540Z</time>
      </trkpt>
      <trkpt lat="48.38365" lon="-4.3892">
        <ele>105.514108</ele>
        <time>2022-12-09T17:18:14.538Z</time>
      </trkpt>
      <trkpt lat="48.38368" lon="-4.38905">
        <ele>106.03001</ele>
        <time>2022-12-09T17:18:20.541Z</time>
      </trkpt>
      <trkpt lat="48.38369" lon="-4.3889">
        <ele>106.530273</ele>
        <time>2022-12-09T17:18:26.540Z</time>
      </trkpt>
      <trkpt lat="48.3837" lon="-4.38875">
        <ele>107.026273</ele>
        <time>2022-12-09T17:18:32.537Z</time>
      </trkpt>
      <trkpt lat="48.38372" lon="-4.3886">
        <ele>107.52445</ele>
        <time>2022-12-09T17:18:38.557Z</time>
      </trkpt>
      <trkpt lat="48.38372" lon="-4.38845">
        <ele>108.022126</ele>
        <time>2022-12-09T17:18:44.542Z</time>
      </trkpt>
      <trkpt lat="48.38374" lon="-4.38829">
        <ele>108.587295</ele>
        <time>2022-12-09T17:18:50.538Z</time>
      </trkpt>
      <trkpt lat="48.38375" lon="-4.38814">
        <ele>109.234563</ele>
        <time>2022-12-09T17:18:56.535Z</time>
      </trkpt>
      <trkpt lat="48.38377" lon="-4.38799">
        <ele>109.889808</ele>
        <time>2022-12-09T17:19:02.562Z</time>
      </trkpt>
      <trkpt lat="48.38377" lon="-4.38783">
        <ele>110.539424</ele>
        <time>2022-12-09T17:19:08.537Z</time>
      </trkpt>
      <trkpt lat="48.38378" lon="-4.38767">
        <ele>111.214754</ele>
        <time>2022-12-09T17:19:14.536Z</time>
      </trkpt>
      <trkpt lat="48.38379" lon="-4.38752">
        <ele>111.841929</ele>
        <time>2022-12-09T17:19:20.535Z</time>
      </trkpt>
      <trkpt lat="48.3838" lon="-4.38736">
        <ele>112.507</ele>
        <time>2022-12-09T17:19:26.544Z</time>
      </trkpt>
      <trkpt lat="48.3838" lon="-4.38722">
        <ele>113.079182</ele>
        <time>2022-12-09T17:19:31.541Z</time>
      </trkpt>
      <trkpt lat="48.38381" lon="-4.38708">
        <ele>113.679398</ele>
        <time>2022-12-09T17:19:36.538Z</time>
      </trkpt>
      <trkpt lat="48.38382" lon="-4.38693">
        <ele>114.304532</ele>
        <time>2022-12-09T17:19:42.546Z</time>
      </trkpt>
      <trkpt lat="48.38384" lon="-4.38679">
        <ele>114.909477</ele>
        <time>2022-12-09T17:19:48.542Z</time>
      </trkpt>
      <trkpt lat="48.38383" lon="-4.38664">
        <ele>115.534894</ele>
        <time>2022-12-09T17:19:55.540Z</time>
      </trkpt>
      <trkpt lat="48.38384" lon="-4.38648">
        <ele>116.165218</ele>
        <time>2022-12-09T17:20:01.545Z</time>
      </trkpt>
      <trkpt lat="48.38384" lon="-4.38633">
        <ele>116.827445</ele>
        <time>2022-12-09T17:20:07.554Z</time>
      </trkpt>
      <trkpt lat="48.38384" lon="-4.38617">
        <ele>117.495162</ele>
        <time>2022-12-09T17:20:13.542Z</time>
      </trkpt>
      <trkpt lat="48.38385" lon="-4.38601">
        <ele>118.142103</ele>
        <time>2022-12-09T17:20:19.540Z</time>
      </trkpt>
      <trkpt lat="48.38386" lon="-4.38585">
        <ele>118.806109</ele>
        <time>2022-12-09T17:20:25.543Z</time>
      </trkpt>
      <trkpt lat="48.38386" lon="-4.38569">
        <ele>119.484989</ele>
        <time>2022-12-09T17:20:31.536Z</time>
      </trkpt>
      <trkpt lat="48.38387" lon="-4.38555">
        <ele>119.897225</ele>
        <time>2022-12-09T17:20:36.535Z</time>
      </trkpt>
      <trkpt lat="48.38386" lon="-4.38539">
        <ele>120.2985</ele>
        <time>2022-12-09T17:20:42.539Z</time>
      </trkpt>
      <trkpt lat="48.38386" lon="-4.38525">
        <ele>120.65176</ele>
        <time>2022-12-09T17:20:47.554Z</time>
      </trkpt>
      <trkpt lat="48.38386" lon="-4.3851">
        <ele>121.017637</ele>
        <time>2022-12-09T17:20:52.534Z</time>
      </trkpt>
      <trkpt lat="48.38386" lon="-4.38496">
        <ele>121.368374</ele>
        <time>2022-12-09T17:20:57.558Z</time>
      </trkpt>
      <trkpt lat="48.38386" lon="-4.38482">
        <ele>121.717333</ele>
        <time>2022-12-09T17:21:02.541Z</time>
      </trkpt>
      <trkpt lat="48.38385" lon="-4.38467">
        <ele>122.109346</ele>
        <time>2022-12-09T17:21:08.531Z</time>
      </trkpt>
      <trkpt lat="48.38384" lon="-4.38451">
        <ele>122.522393</ele>
        <time>2022-12-09T17:21:14.537Z</time>
      </trkpt>
      <trkpt lat="48.38383" lon="-4.38437">
        <ele>122.878907</ele>
        <time>2022-12-09T17:21:19.557Z</time>
      </trkpt>
      <trkpt lat="48.38383" lon="-4.38422">
        <ele>123.237395</ele>
        <time>2022-12-09T17:21:24.539Z</time>
      </trkpt>
      <trkpt lat="48.38382" lon="-4.38407">
        <ele>123.636166</ele>
        <time>2022-12-09T17:21:30.550Z</time>
      </trkpt>
      <trkpt lat="48.38379" lon="-4.38393">
        <ele>123.987375</ele>
        <time>2022-12-09T17:21:35.564Z</time>
      </trkpt>
      <trkpt lat="48.38378" lon="-4.38379">
        <ele>124.352151</ele>
        <time>2022-12-09T17:21:40.538Z</time>
      </trkpt>
      <trkpt lat="48.38376" lon="-4.38363">
        <ele>124.761211</ele>
        <time>2022-12-09T17:21:46.551Z</time>
      </trkpt>
      <trkpt lat="48.38374" lon="-4.38349">
        <ele>125.123445</ele>
        <time>2022-12-09T17:21:51.560Z</time>
      </trkpt>
      <trkpt lat="48.38372" lon="-4.38335">
        <ele>125.485045</ele>
        <time>2022-12-09T17:21:56.535Z</time>
      </trkpt>
      <trkpt lat="48.38371" lon="-4.3832">
        <ele>125.861551</ele>
        <time>2022-12-09T17:22:02.547Z</time>
      </trkpt>
      <trkpt lat="48.38369" lon="-4.38306">
        <ele>126.210753</ele>
        <time>2022-12-09T17:22:07.552Z</time>
      </trkpt>
      <trkpt lat="48.38369" lon="-4.38293">
        <ele>126.621547</ele>
        <time>2022-12-09T17:22:12.536Z</time>
      </trkpt>
      <trkpt lat="48.38367" lon="-4.38277">
        <ele>127.257315</ele>
        <time>2022-12-09T17:22:18.537Z</time>
      </trkpt>
      <trkpt lat="48.38365" lon="-4.38264">
        <ele>127.810998</ele>
        <time>2022-12-09T17:22:23.555Z</time>
      </trkpt>
      <trkpt lat="48.38364" lon="-4.38248">
        <ele>128.455213</ele>
        <time>2022-12-09T17:22:29.537Z</time>
      </trkpt>
      <trkpt lat="48.38362" lon="-4.38233">
        <ele>129.07346</ele>
        <time>2022-12-09T17:22:35.538Z</time>
      </trkpt>
      <trkpt lat="48.38362" lon="-4.38217">
        <ele>129.723922</ele>
        <time>2022-12-09T17:22:41.555Z</time>
      </trkpt>
      <trkpt lat="48.38359" lon="-4.38202">
        <ele>130.364944</ele>
        <time>2022-12-09T17:22:47.535Z</time>
      </trkpt>
      <trkpt lat="48.38358" lon="-4.38188">
        <ele>130.934701</ele>
        <time>2022-12-09T17:22:52.557Z</time>
      </trkpt>
      <trkpt lat="48.38357" lon="-4.38172">
        <ele>131.569337</ele>
        <time>2022-12-09T17:22:58.555Z</time>
      </trkpt>
      <trkpt lat="48.38356" lon="-4.38157">
        <ele>132.184182</ele>
        <time>2022-12-09T17:23:04.536Z</time>
      </trkpt>
      <trkpt lat="48.38355" lon="-4.38143">
        <ele>132.758575</ele>
        <time>2022-12-09T17:23:09.550Z</time>
      </trkpt>
      <trkpt lat="48.38354" lon="-4.38128">
        <ele>133.388679</ele>
        <time>2022-12-09T17:23:14.550Z</time>
      </trkpt>
      <trkpt lat="48.38353" lon="-4.38113">
        <ele>134.00404</ele>
        <time>2022-12-09T17:23:19.550Z</time>
      </trkpt>
      <trkpt lat="48.38353" lon="-4.38097">
        <ele>134.637705</ele>
        <time>2022-12-09T17:23:24.546Z</time>
      </trkpt>
      <trkpt lat="48.38353" lon="-4.38082">
        <ele>135.258992</ele>
        <time>2022-12-09T17:23:29.543Z</time>
      </trkpt>
      <trkpt lat="48.38352" lon="-4.38066">
        <ele>135.901728</ele>
        <time>2022-12-09T17:23:34.542Z</time>
      </trkpt>
      <trkpt lat="48.38352" lon="-4.3805">
        <ele>136.568093</ele>
        <time>2022-12-09T17:23:39.561Z</time>
      </trkpt>
      <trkpt lat="48.38351" lon="-4.38034">
        <ele>137.195584</ele>
        <time>2022-12-09T17:23:44.574Z</time>
      </trkpt>
      <trkpt lat="48.3835" lon="-4.38019">
        <ele>137.671273</ele>
        <time>2022-12-09T17:23:49.557Z</time>
      </trkpt>
      <trkpt lat="48.38348" lon="-4.38005">
        <ele>138.001427</ele>
        <time>2022-12-09T17:23:54.543Z</time>
      </trkpt>
      <trkpt lat="48.38347" lon="-4.37991">
        <ele>138.335379</ele>
        <time>2022-12-09T17:23:59.542Z</time>
      </trkpt>
      <trkpt lat="48.38346" lon="-4.37977">
        <ele>138.66206</ele>
        <time>2022-12-09T17:24:04.546Z</time>
      </trkpt>
      <trkpt lat="48.38344" lon="-4.37962">
        <ele>139.038798</ele>
        <time>2022-12-09T17:24:10.546Z</time>
      </trkpt>
      <trkpt lat="48.38346" lon="-4.37948">
        <ele>139.362201</ele>
        <time>2022-12-09T17:24:15.535Z</time>
      </trkpt>
      <trkpt lat="48.38345" lon="-4.37935">
        <ele>139.685964</ele>
        <time>2022-12-09T17:24:20.548Z</time>
      </trkpt>
      <trkpt lat="48.38344" lon="-4.37919">
        <ele>140.072657</ele>
        <time>2022-12-09T17:24:26.539Z</time>
      </trkpt>
      <trkpt lat="48.3834" lon="-4.37904">
        <ele>140.434501</ele>
        <time>2022-12-09T17:24:31.553Z</time>
      </trkpt>
      <trkpt lat="48.38335" lon="-4.37892">
        <ele>140.79661</ele>
        <time>2022-12-09T17:24:36.540Z</time>
      </trkpt>
      <trkpt lat="48.3833" lon="-4.37881">
        <ele>141.117333</ele>
        <time>2022-12-09T17:24:40.544Z</time>
      </trkpt>
      <trkpt lat="48.38323" lon="-4.37867">
        <ele>141.510084</ele>
        <time>2022-12-09T17:24:45.561Z</time>
      </trkpt>
      <trkpt lat="48.38316" lon="-4.37855">
        <ele>141.909053</ele>
        <time>2022-12-09T17:24:50.560Z</time>
      </trkpt>
      <trkpt lat="48.38308" lon="-4.37843">
        <ele>142.294421</ele>
        <time>2022-12-09T17:24:55.563Z</time>
      </trkpt>
      <trkpt lat="48.38303" lon="-4.37829">
        <ele>142.686951</ele>
        <time>2022-12-09T17:25:00.546Z</time>
      </trkpt>
      <trkpt lat="48.38298" lon="-4.37814">
        <ele>143.070215</ele>
        <time>2022-12-09T17:25:05.564Z</time>
      </trkpt>
      <trkpt lat="48.38293" lon="-4.378">
        <ele>143.451243</ele>
        <time>2022-12-09T17:25:10.552Z</time>
      </trkpt>
      <trkpt lat="48.38285" lon="-4.3779">
        <ele>143.808467</ele>
        <time>2022-12-09T17:25:15.560Z</time>
      </trkpt>
      <trkpt lat="48.38277" lon="-4.37779">
        <ele>143.893263</ele>
        <time>2022-12-09T17:25:19.559Z</time>
      </trkpt>
      <trkpt lat="48.38272" lon="-4.37766">
        <ele>143.916064</ele>
        <time>2022-12-09T17:25:23.543Z</time>
      </trkpt>
      <trkpt lat="48.38271" lon="-4.37752">
        <ele>143.938553</ele>
        <time>2022-12-09T17:25:27.543Z</time>
      </trkpt>
      <trkpt lat="48.38274" lon="-4.37738">
        <ele>143.960666</ele>
        <time>2022-12-09T17:25:31.546Z</time>
      </trkpt>
      <trkpt lat="48.38275" lon="-4.37723">
        <ele>143.982986</ele>
        <time>2022-12-09T17:25:35.545Z</time>
      </trkpt>
      <trkpt lat="48.38273" lon="-4.37708">
        <ele>144.005415</ele>
        <time>2022-12-09T17:25:39.548Z</time>
      </trkpt>
      <trkpt lat="48.3827" lon="-4.37681">
        <ele>144.046527</ele>
        <time>2022-12-09T17:31:03.574Z</time>
      </trkpt>
      <trkpt lat="48.38271" lon="-4.37667">
        <ele>144.067441</ele>
        <time>2022-12-09T17:31:07.545Z</time>
      </trkpt>
      <trkpt lat="48.3827" lon="-4.37649">
        <ele>144.094055</ele>
        <time>2022-12-09T17:31:11.567Z</time>
      </trkpt>
      <trkpt lat="48.3827" lon="-4.37632">
        <ele>144.120069</ele>
        <time>2022-12-09T17:31:14.564Z</time>
      </trkpt>
      <trkpt lat="48.38268" lon="-4.37613">
        <ele>144.14917</ele>
        <time>2022-12-09T17:31:17.566Z</time>
      </trkpt>
      <trkpt lat="48.38265" lon="-4.37594">
        <ele>144.178131</ele>
        <time>2022-12-09T17:31:20.562Z</time>
      </trkpt>
      <trkpt lat="48.38261" lon="-4.37577">
        <ele>144.206384</ele>
        <time>2022-12-09T17:31:23.567Z</time>
      </trkpt>
      <trkpt lat="48.38256" lon="-4.3756">
        <ele>144.233372</ele>
        <time>2022-12-09T17:31:26.549Z</time>
      </trkpt>
      <trkpt lat="48.38252" lon="-4.37546">
        <ele>144.257105</ele>
        <time>2022-12-09T17:31:29.569Z</time>
      </trkpt>
      <trkpt lat="48.38248" lon="-4.37533">
        <ele>144.278001</ele>
        <time>2022-12-09T17:31:32.559Z</time>
      </trkpt>
      <trkpt lat="48.38243" lon="-4.37517">
        <ele>144.576779</ele>
        <time>2022-12-09T17:31:36.548Z</time>
      </trkpt>
      <trkpt lat="48.38238" lon="-4.37501">
        <ele>144.890994</ele>
        <time>2022-12-09T17:31:40.562Z</time>
      </trkpt>
      <trkpt lat="48.38233" lon="-4.37486">
        <ele>145.178944</ele>
        <time>2022-12-09T17:31:44.544Z</time>
      </trkpt>
      <trkpt lat="48.38229" lon="-4.37474">
        <ele>145.422228</ele>
        <time>2022-12-09T17:31:47.555Z</time>
      </trkpt>
      <trkpt lat="48.38225" lon="-4.37462">
        <ele>145.667717</ele>
        <time>2022-12-09T17:31:50.540Z</time>
      </trkpt>
      <trkpt lat="48.38221" lon="-4.37445">
        <ele>145.989274</ele>
        <time>2022-12-09T17:31:54.559Z</time>
      </trkpt>
      <trkpt lat="48.38217" lon="-4.37429">
        <ele>146.289488</ele>
        <time>2022-12-09T17:31:58.562Z</time>
      </trkpt>
      <trkpt lat="48.38214" lon="-4.37415">
        <ele>146.554148</ele>
        <time>2022-12-09T17:32:02.555Z</time>
      </trkpt>
      <trkpt lat="48.38209" lon="-4.37401">
        <ele>146.830622</ele>
        <time>2022-12-09T17:32:06.541Z</time>
      </trkpt>
      <trkpt lat="48.38205" lon="-4.37387">
        <ele>147.108759</ele>
        <time>2022-12-09T17:32:10.563Z</time>
      </trkpt>
      <trkpt lat="48.38202" lon="-4.37374">
        <ele>147.353773</ele>
        <time>2022-12-09T17:32:14.560Z</time>
      </trkpt>
      <trkpt lat="48.38197" lon="-4.37359">
        <ele>147.653576</ele>
        <time>2022-12-09T17:32:19.558Z</time>
      </trkpt>
      <trkpt lat="48.38193" lon="-4.37343">
        <ele>147.953963</ele>
        <time>2022-12-09T17:32:24.546Z</time>
      </trkpt>
      <trkpt lat="48.38189" lon="-4.37331">
        <ele>148.19631</ele>
        <time>2022-12-09T17:32:28.567Z</time>
      </trkpt>
      <trkpt lat="48.38186" lon="-4.37318">
        <ele>148.445276</ele>
        <time>2022-12-09T17:32:32.560Z</time>
      </trkpt>
      <trkpt lat="48.38182" lon="-4.37305">
        <ele>148.694131</ele>
        <time>2022-12-09T17:32:36.540Z</time>
      </trkpt>
      <trkpt lat="48.38178" lon="-4.37291">
        <ele>148.958327</ele>
        <time>2022-12-09T17:32:40.549Z</time>
      </trkpt>
      <trkpt lat="48.38175" lon="-4.37277">
        <ele>149.218198</ele>
        <time>2022-12-09T17:32:44.564Z</time>
      </trkpt>
      <trkpt lat="48.38171" lon="-4.37263">
        <ele>149.490298</ele>
        <time>2022-12-09T17:32:48.544Z</time>
      </trkpt>
      <trkpt lat="48.38167" lon="-4.37249">
        <ele>149.759975</ele>
        <time>2022-12-09T17:32:52.561Z</time>
      </trkpt>
      <trkpt lat="48.38164" lon="-4.37235">
        <ele>150.010334</ele>
        <time>2022-12-09T17:32:56.562Z</time>
      </trkpt>
      <trkpt lat="48.38162" lon="-4.37221">
        <ele>150.271987</ele>
        <time>2022-12-09T17:33:00.571Z</time>
      </trkpt>
      <trkpt lat="48.38158" lon="-4.37207">
        <ele>150.532851</ele>
        <time>2022-12-09T17:33:04.562Z</time>
      </trkpt>
      <trkpt lat="48.38155" lon="-4.37194">
        <ele>150.774877</ele>
        <time>2022-12-09T17:33:08.563Z</time>
      </trkpt>
      <trkpt lat="48.38152" lon="-4.37178">
        <ele>151.05241</ele>
        <time>2022-12-09T17:33:13.540Z</time>
      </trkpt>
      <trkpt lat="48.38148" lon="-4.37163">
        <ele>151.336733</ele>
        <time>2022-12-09T17:33:18.537Z</time>
      </trkpt>
      <trkpt lat="48.38146" lon="-4.3715">
        <ele>151.576616</ele>
        <time>2022-12-09T17:33:22.554Z</time>
      </trkpt>
      <trkpt lat="48.38143" lon="-4.37134">
        <ele>151.862926</ele>
        <time>2022-12-09T17:33:27.550Z</time>
      </trkpt>
      <trkpt lat="48.38141" lon="-4.37121">
        <ele>152.1017</ele>
        <time>2022-12-09T17:33:31.548Z</time>
      </trkpt>
      <trkpt lat="48.38139" lon="-4.37106">
        <ele>152.376831</ele>
        <time>2022-12-09T17:33:36.551Z</time>
      </trkpt>
      <trkpt lat="48.38136" lon="-4.37091">
        <ele>152.64659</ele>
        <time>2022-12-09T17:33:41.566Z</time>
      </trkpt>
      <trkpt lat="48.38134" lon="-4.37075">
        <ele>152.926153</ele>
        <time>2022-12-09T17:33:46.558Z</time>
      </trkpt>
      <trkpt lat="48.38133" lon="-4.37059">
        <ele>153.201467</ele>
        <time>2022-12-09T17:33:51.536Z</time>
      </trkpt>
      <trkpt lat="48.38131" lon="-4.37044">
        <ele>153.472636</ele>
        <time>2022-12-09T17:33:56.540Z</time>
      </trkpt>
      <trkpt lat="48.38129" lon="-4.37029">
        <ele>153.7445</ele>
        <time>2022-12-09T17:34:01.565Z</time>
      </trkpt>
      <trkpt lat="48.38127" lon="-4.37013">
        <ele>154.158133</ele>
        <time>2022-12-09T17:34:06.553Z</time>
      </trkpt>
      <trkpt lat="48.38126" lon="-4.36998">
        <ele>154.621136</ele>
        <time>2022-12-09T17:34:11.547Z</time>
      </trkpt>
      <trkpt lat="48.38122" lon="-4.36986">
        <ele>155.038034</ele>
        <time>2022-12-09T17:34:16.560Z</time>
      </trkpt>
      <trkpt lat="48.38121" lon="-4.36972">
        <ele>155.448602</ele>
        <time>2022-12-09T17:34:22.547Z</time>
      </trkpt>
      <trkpt lat="48.38122" lon="-4.36957">
        <ele>155.906029</ele>
        <time>2022-12-09T17:34:43.546Z</time>
      </trkpt>
      <trkpt lat="48.38121" lon="-4.36941">
        <ele>156.400719</ele>
        <time>2022-12-09T17:34:50.549Z</time>
      </trkpt>
      <trkpt lat="48.38121" lon="-4.36924">
        <ele>156.889047</ele>
        <time>2022-12-09T17:34:55.548Z</time>
      </trkpt>
      <trkpt lat="48.38121" lon="-4.36909">
        <ele>157.353459</ele>
        <time>2022-12-09T17:35:00.561Z</time>
      </trkpt>
      <trkpt lat="48.38122" lon="-4.36895">
        <ele>157.781596</ele>
        <time>2022-12-09T17:35:05.547Z</time>
      </trkpt>
      <trkpt lat="48.38121" lon="-4.3688">
        <ele>158.219056</ele>
        <time>2022-12-09T17:35:10.562Z</time>
      </trkpt>
      <trkpt lat="48.38121" lon="-4.36865">
        <ele>158.692334</ele>
        <time>2022-12-09T17:35:15.558Z</time>
      </trkpt>
      <trkpt lat="48.38122" lon="-4.36849">
        <ele>159.171962</ele>
        <time>2022-12-09T17:35:20.551Z</time>
      </trkpt>
      <trkpt lat="48.38122" lon="-4.36835">
        <ele>159.586151</ele>
        <time>2022-12-09T17:35:24.558Z</time>
      </trkpt>
      <trkpt lat="48.38122" lon="-4.36821">
        <ele>159.999119</ele>
        <time>2022-12-09T17:35:28.564Z</time>
      </trkpt>
      <trkpt lat="48.38123" lon="-4.36807">
        <ele>160.442324</ele>
        <time>2022-12-09T17:35:32.560Z</time>
      </trkpt>
      <trkpt lat="48.38123" lon="-4.36793">
        <ele>160.86436</ele>
        <time>2022-12-09T17:35:36.570Z</time>
      </trkpt>
      <trkpt lat="48.38123" lon="-4.36778">
        <ele>161.307681</ele>
        <time>2022-12-09T17:35:40.565Z</time>
      </trkpt>
      <trkpt lat="48.38124" lon="-4.36763">
        <ele>161.747115</ele>
        <time>2022-12-09T17:35:44.561Z</time>
      </trkpt>
      <trkpt lat="48.38124" lon="-4.36749">
        <ele>162.048843</ele>
        <time>2022-12-09T17:35:48.563Z</time>
      </trkpt>
      <trkpt lat="48.38124" lon="-4.36735">
        <ele>162.168965</ele>
        <time>2022-12-09T17:35:52.567Z</time>
      </trkpt>
      <trkpt lat="48.38123" lon="-4.36721">
        <ele>162.285225</ele>
        <time>2022-12-09T17:35:56.549Z</time>
      </trkpt>
      <trkpt lat="48.38124" lon="-4.36706">
        <ele>162.408811</ele>
        <time>2022-12-09T17:36:00.565Z</time>
      </trkpt>
      <trkpt lat="48.38125" lon="-4.36689">
        <ele>162.553253</ele>
        <time>2022-12-09T17:36:04.559Z</time>
      </trkpt>
      <trkpt lat="48.38127" lon="-4.36675">
        <ele>162.675068</ele>
        <time>2022-12-09T17:36:07.568Z</time>
      </trkpt>
      <trkpt lat="48.38127" lon="-4.3666">
        <ele>162.799705</ele>
        <time>2022-12-09T17:36:10.564Z</time>
      </trkpt>
      <trkpt lat="48.38128" lon="-4.36645">
        <ele>162.93052</ele>
        <time>2022-12-09T17:36:13.569Z</time>
      </trkpt>
      <trkpt lat="48.3813" lon="-4.36629">
        <ele>163.062485</ele>
        <time>2022-12-09T17:36:16.547Z</time>
      </trkpt>
      <trkpt lat="48.38131" lon="-4.36614">
        <ele>163.193569</ele>
        <time>2022-12-09T17:36:19.562Z</time>
      </trkpt>
      <trkpt lat="48.38132" lon="-4.366">
        <ele>163.307821</ele>
        <time>2022-12-09T17:36:22.563Z</time>
      </trkpt>
      <trkpt lat="48.38131" lon="-4.36584">
        <ele>163.443226</ele>
        <time>2022-12-09T17:36:26.546Z</time>
      </trkpt>
      <trkpt lat="48.38131" lon="-4.36568">
        <ele>163.578521</ele>
        <time>2022-12-09T17:36:31.558Z</time>
      </trkpt>
      <trkpt lat="48.38133" lon="-4.36552">
        <ele>163.717417</ele>
        <time>2022-12-09T17:36:36.550Z</time>
      </trkpt>
      <trkpt lat="48.38134" lon="-4.36536">
        <ele>163.851987</ele>
        <time>2022-12-09T17:36:40.544Z</time>
      </trkpt>
      <trkpt lat="48.38136" lon="-4.36519">
        <ele>163.99289</ele>
        <time>2022-12-09T17:36:45.561Z</time>
      </trkpt>
      <trkpt lat="48.38137" lon="-4.36503">
        <ele>164.126315</ele>
        <time>2022-12-09T17:36:49.565Z</time>
      </trkpt>
      <trkpt lat="48.38139" lon="-4.36486">
        <ele>164.272871</ele>
        <time>2022-12-09T17:36:53.539Z</time>
      </trkpt>
      <trkpt lat="48.3814" lon="-4.36469">
        <ele>164.240538</ele>
        <time>2022-12-09T17:36:57.560Z</time>
      </trkpt>
      <trkpt lat="48.38142" lon="-4.36455">
        <ele>164.214454</ele>
        <time>2022-12-09T17:37:00.565Z</time>
      </trkpt>
      <trkpt lat="48.38143" lon="-4.3644">
        <ele>164.184942</ele>
        <time>2022-12-09T17:37:04.567Z</time>
      </trkpt>
      <trkpt lat="48.38144" lon="-4.36426">
        <ele>164.157493</ele>
        <time>2022-12-09T17:37:08.561Z</time>
      </trkpt>
      <trkpt lat="48.38144" lon="-4.36409">
        <ele>164.126174</ele>
        <time>2022-12-09T17:37:13.548Z</time>
      </trkpt>
      <trkpt lat="48.38148" lon="-4.36394">
        <ele>164.094283</ele>
        <time>2022-12-09T17:37:17.553Z</time>
      </trkpt>
      <trkpt lat="48.38152" lon="-4.36377">
        <ele>164.059842</ele>
        <time>2022-12-09T17:37:21.550Z</time>
      </trkpt>
      <trkpt lat="48.38154" lon="-4.36363">
        <ele>164.033421</ele>
        <time>2022-12-09T17:37:24.543Z</time>
      </trkpt>
      <trkpt lat="48.38155" lon="-4.36349">
        <ele>164.006026</ele>
        <time>2022-12-09T17:37:27.549Z</time>
      </trkpt>
      <trkpt lat="48.38156" lon="-4.36333">
        <ele>163.976236</ele>
        <time>2022-12-09T17:37:30.562Z</time>
      </trkpt>
      <trkpt lat="48.38158" lon="-4.36317">
        <ele>163.945304</ele>
        <time>2022-12-09T17:37:33.568Z</time>
      </trkpt>
      <trkpt lat="48.3816" lon="-4.363">
        <ele>163.91197</ele>
        <time>2022-12-09T17:37:36.567Z</time>
      </trkpt>
      <trkpt lat="48.38162" lon="-4.36282">
        <ele>163.876843</ele>
        <time>2022-12-09T17:37:39.563Z</time>
      </trkpt>
      <trkpt lat="48.38164" lon="-4.36264">
        <ele>163.842568</ele>
        <time>2022-12-09T17:37:42.544Z</time>
      </trkpt>
      <trkpt lat="48.38166" lon="-4.36247">
        <ele>163.808718</ele>
        <time>2022-12-09T17:37:45.549Z</time>
      </trkpt>
      <trkpt lat="48.38167" lon="-4.36229">
        <ele>163.774806</ele>
        <time>2022-12-09T17:37:48.565Z</time>
      </trkpt>
      <trkpt lat="48.38169" lon="-4.36213">
        <ele>163.729972</ele>
        <time>2022-12-09T17:37:51.570Z</time>
      </trkpt>
      <trkpt lat="48.38169" lon="-4.36197">
        <ele>163.673554</ele>
        <time>2022-12-09T17:37:54.569Z</time>
      </trkpt>
      <trkpt lat="48.3817" lon="-4.36182">
        <ele>163.618586</ele>
        <time>2022-12-09T17:37:57.542Z</time>
      </trkpt>
      <trkpt lat="48.38172" lon="-4.36165">
        <ele>163.555155</ele>
        <time>2022-12-09T17:38:00.550Z</time>
      </trkpt>
      <trkpt lat="48.38173" lon="-4.36147">
        <ele>163.489926</ele>
        <time>2022-12-09T17:38:03.540Z</time>
      </trkpt>
      <trkpt lat="48.38175" lon="-4.36129">
        <ele>163.42589</ele>
        <time>2022-12-09T17:38:06.544Z</time>
      </trkpt>
      <trkpt lat="48.38177" lon="-4.36112">
        <ele>163.362571</ele>
        <time>2022-12-09T17:38:09.567Z</time>
      </trkpt>
      <trkpt lat="48.38179" lon="-4.36094">
        <ele>163.297266</ele>
        <time>2022-12-09T17:38:12.560Z</time>
      </trkpt>
      <trkpt lat="48.3818" lon="-4.36076">
        <ele>163.228206</ele>
        <time>2022-12-09T17:38:15.565Z</time>
      </trkpt>
      <trkpt lat="48.38181" lon="-4.36057">
        <ele>163.160756</ele>
        <time>2022-12-09T17:38:18.565Z</time>
      </trkpt>
      <trkpt lat="48.38183" lon="-4.3604">
        <ele>163.096746</ele>
        <time>2022-12-09T17:38:21.563Z</time>
      </trkpt>
      <trkpt lat="48.38184" lon="-4.36023">
        <ele>163.037301</ele>
        <time>2022-12-09T17:38:24.568Z</time>
      </trkpt>
      <trkpt lat="48.38184" lon="-4.36008">
        <ele>162.981334</ele>
        <time>2022-12-09T17:38:27.565Z</time>
      </trkpt>
      <trkpt lat="48.38185" lon="-4.35994">
        <ele>162.929583</ele>
        <time>2022-12-09T17:38:30.564Z</time>
      </trkpt>
      <trkpt lat="48.38186" lon="-4.35979">
        <ele>162.876425</ele>
        <time>2022-12-09T17:38:33.546Z</time>
      </trkpt>
      <trkpt lat="48.38186" lon="-4.35963">
        <ele>162.817867</ele>
        <time>2022-12-09T17:38:36.568Z</time>
      </trkpt>
      <trkpt lat="48.38187" lon="-4.35946">
        <ele>162.754429</ele>
        <time>2022-12-09T17:38:39.560Z</time>
      </trkpt>
      <trkpt lat="48.38187" lon="-4.3593">
        <ele>162.690107</ele>
        <time>2022-12-09T17:38:42.559Z</time>
      </trkpt>
      <trkpt lat="48.38187" lon="-4.35914">
        <ele>162.62494</ele>
        <time>2022-12-09T17:38:45.554Z</time>
      </trkpt>
      <trkpt lat="48.38187" lon="-4.35897">
        <ele>162.555396</ele>
        <time>2022-12-09T17:38:48.562Z</time>
      </trkpt>
      <trkpt lat="48.38187" lon="-4.35879">
        <ele>162.48623</ele>
        <time>2022-12-09T17:38:51.554Z</time>
      </trkpt>
      <trkpt lat="48.38187" lon="-4.35863">
        <ele>162.419489</ele>
        <time>2022-12-09T17:38:54.564Z</time>
      </trkpt>
      <trkpt lat="48.38186" lon="-4.35848">
        <ele>162.359345</ele>
        <time>2022-12-09T17:38:57.564Z</time>
      </trkpt>
      <trkpt lat="48.38186" lon="-4.35834">
        <ele>162.303818</ele>
        <time>2022-12-09T17:39:00.559Z</time>
      </trkpt>
      <trkpt lat="48.38185" lon="-4.3582">
        <ele>162.245216</ele>
        <time>2022-12-09T17:39:03.565Z</time>
      </trkpt>
      <trkpt lat="48.38184" lon="-4.35804">
        <ele>162.18248</ele>
        <time>2022-12-09T17:39:06.556Z</time>
      </trkpt>
      <trkpt lat="48.38184" lon="-4.35788">
        <ele>162.119696</ele>
        <time>2022-12-09T17:39:09.571Z</time>
      </trkpt>
      <trkpt lat="48.38184" lon="-4.35773">
        <ele>162.059751</ele>
        <time>2022-12-09T17:39:12.550Z</time>
      </trkpt>
      <trkpt lat="48.38184" lon="-4.35759">
        <ele>162.002238</ele>
        <time>2022-12-09T17:39:15.565Z</time>
      </trkpt>
      <trkpt lat="48.38182" lon="-4.35744">
        <ele>161.938784</ele>
        <time>2022-12-09T17:39:19.551Z</time>
      </trkpt>
      <trkpt lat="48.38178" lon="-4.35731">
        <ele>161.883267</ele>
        <time>2022-12-09T17:39:23.551Z</time>
      </trkpt>
      <trkpt lat="48.38174" lon="-4.35719">
        <ele>161.826265</ele>
        <time>2022-12-09T17:39:27.558Z</time>
      </trkpt>
      <trkpt lat="48.38177" lon="-4.35701">
        <ele>161.75337</ele>
        <time>2022-12-09T17:39:31.543Z</time>
      </trkpt>
      <trkpt lat="48.38181" lon="-4.35686">
        <ele>161.686954</ele>
        <time>2022-12-09T17:39:34.564Z</time>
      </trkpt>
      <trkpt lat="48.38182" lon="-4.3567">
        <ele>161.423244</ele>
        <time>2022-12-09T17:39:37.548Z</time>
      </trkpt>
      <trkpt lat="48.38182" lon="-4.35652">
        <ele>161.135647</ele>
        <time>2022-12-09T17:39:40.569Z</time>
      </trkpt>
      <trkpt lat="48.38181" lon="-4.35633">
        <ele>160.835132</ele>
        <time>2022-12-09T17:39:43.568Z</time>
      </trkpt>
      <trkpt lat="48.38182" lon="-4.35614">
        <ele>160.5217</ele>
        <time>2022-12-09T17:39:46.561Z</time>
      </trkpt>
      <trkpt lat="48.38183" lon="-4.356">
        <ele>160.296346</ele>
        <time>2022-12-09T17:39:48.545Z</time>
      </trkpt>
      <trkpt lat="48.38184" lon="-4.3558">
        <ele>159.970157</ele>
        <time>2022-12-09T17:39:51.562Z</time>
      </trkpt>
      <trkpt lat="48.38185" lon="-4.35565">
        <ele>159.735336</ele>
        <time>2022-12-09T17:39:53.568Z</time>
      </trkpt>
      <trkpt lat="48.38185" lon="-4.35552">
        <ele>159.51384</ele>
        <time>2022-12-09T17:39:55.569Z</time>
      </trkpt>
      <trkpt lat="48.38185" lon="-4.35538">
        <ele>159.293959</ele>
        <time>2022-12-09T17:39:57.565Z</time>
      </trkpt>
      <trkpt lat="48.38186" lon="-4.35524">
        <ele>159.073433</ele>
        <time>2022-12-09T17:39:59.549Z</time>
      </trkpt>
      <trkpt lat="48.38187" lon="-4.3551">
        <ele>158.843753</ele>
        <time>2022-12-09T17:40:01.563Z</time>
      </trkpt>
      <trkpt lat="48.38187" lon="-4.35497">
        <ele>158.623751</ele>
        <time>2022-12-09T17:40:03.568Z</time>
      </trkpt>
      <trkpt lat="48.38188" lon="-4.35476">
        <ele>158.293167</ele>
        <time>2022-12-09T17:40:06.563Z</time>
      </trkpt>
      <trkpt lat="48.38189" lon="-4.35457">
        <ele>157.975657</ele>
        <time>2022-12-09T17:40:09.567Z</time>
      </trkpt>
      <trkpt lat="48.38191" lon="-4.35438">
        <ele>157.678122</ele>
        <time>2022-12-09T17:40:12.561Z</time>
      </trkpt>
      <trkpt lat="48.38191" lon="-4.35419">
        <ele>157.367396</ele>
        <time>2022-12-09T17:40:15.566Z</time>
      </trkpt>
      <trkpt lat="48.38192" lon="-4.354">
        <ele>157.265541</ele>
        <time>2022-12-09T17:40:18.559Z</time>
      </trkpt>
      <trkpt lat="48.38193" lon="-4.35386">
        <ele>157.226908</ele>
        <time>2022-12-09T17:40:20.559Z</time>
      </trkpt>
      <trkpt lat="48.38193" lon="-4.35372">
        <ele>157.18769</ele>
        <time>2022-12-09T17:40:22.564Z</time>
      </trkpt>
      <trkpt lat="48.38194" lon="-4.35359">
        <ele>157.149324</ele>
        <time>2022-12-09T17:40:24.564Z</time>
      </trkpt>
      <trkpt lat="48.38194" lon="-4.35339">
        <ele>157.093335</ele>
        <time>2022-12-09T17:40:27.569Z</time>
      </trkpt>
      <trkpt lat="48.38195" lon="-4.35319">
        <ele>157.036474</ele>
        <time>2022-12-09T17:40:30.565Z</time>
      </trkpt>
      <trkpt lat="48.38196" lon="-4.35299">
        <ele>156.979612</ele>
        <time>2022-12-09T17:40:33.558Z</time>
      </trkpt>
      <trkpt lat="48.38196" lon="-4.35279">
        <ele>156.922205</ele>
        <time>2022-12-09T17:40:36.566Z</time>
      </trkpt>
      <trkpt lat="48.38196" lon="-4.35258">
        <ele>156.863997</ele>
        <time>2022-12-09T17:40:39.550Z</time>
      </trkpt>
      <trkpt lat="48.38198" lon="-4.35239">
        <ele>156.807266</ele>
        <time>2022-12-09T17:40:42.561Z</time>
      </trkpt>
      <trkpt lat="48.38198" lon="-4.35218">
        <ele>156.749914</ele>
        <time>2022-12-09T17:40:45.567Z</time>
      </trkpt>
      <trkpt lat="48.38198" lon="-4.35198">
        <ele>156.693312</ele>
        <time>2022-12-09T17:40:48.549Z</time>
      </trkpt>
      <trkpt lat="48.38199" lon="-4.35179">
        <ele>156.63671</ele>
        <time>2022-12-09T17:40:51.564Z</time>
      </trkpt>
      <trkpt lat="48.382" lon="-4.35159">
        <ele>156.580455</ele>
        <time>2022-12-09T17:40:54.565Z</time>
      </trkpt>
      <trkpt lat="48.382" lon="-4.35139">
        <ele>156.531563</ele>
        <time>2022-12-09T17:40:57.567Z</time>
      </trkpt>
      <trkpt lat="48.38201" lon="-4.35119">
        <ele>156.499747</ele>
        <time>2022-12-09T17:41:00.565Z</time>
      </trkpt>
      <trkpt lat="48.382" lon="-4.35105">
        <ele>156.477289</ele>
        <time>2022-12-09T17:41:02.570Z</time>
      </trkpt>
      <trkpt lat="48.382" lon="-4.35091">
        <ele>156.454682</ele>
        <time>2022-12-09T17:41:04.564Z</time>
      </trkpt>
      <trkpt lat="48.38198" lon="-4.35078">
        <ele>156.432281</ele>
        <time>2022-12-09T17:41:06.566Z</time>
      </trkpt>
      <trkpt lat="48.38197" lon="-4.35064">
        <ele>156.410046</ele>
        <time>2022-12-09T17:41:08.566Z</time>
      </trkpt>
      <trkpt lat="48.38195" lon="-4.35045">
        <ele>156.378453</ele>
        <time>2022-12-09T17:41:11.558Z</time>
      </trkpt>
      <trkpt lat="48.38193" lon="-4.35027">
        <ele>156.349445</ele>
        <time>2022-12-09T17:41:14.575Z</time>
      </trkpt>
      <trkpt lat="48.38192" lon="-4.35011">
        <ele>156.324049</ele>
        <time>2022-12-09T17:41:17.544Z</time>
      </trkpt>
      <trkpt lat="48.38191" lon="-4.34995">
        <ele>156.29759</ele>
        <time>2022-12-09T17:41:20.552Z</time>
      </trkpt>
      <trkpt lat="48.38189" lon="-4.34978">
        <ele>156.269499</ele>
        <time>2022-12-09T17:41:23.552Z</time>
      </trkpt>
      <trkpt lat="48.38187" lon="-4.3496">
        <ele>156.241159</ele>
        <time>2022-12-09T17:41:26.567Z</time>
      </trkpt>
      <trkpt lat="48.38186" lon="-4.34945">
        <ele>156.215634</ele>
        <time>2022-12-09T17:41:29.564Z</time>
      </trkpt>
      <trkpt lat="48.38185" lon="-4.34928">
        <ele>156.188559</ele>
        <time>2022-12-09T17:41:33.571Z</time>
      </trkpt>
      <trkpt lat="48.38183" lon="-4.34911">
        <ele>156.160922</ele>
        <time>2022-12-09T17:41:37.568Z</time>
      </trkpt>
      <trkpt lat="48.38183" lon="-4.34895">
        <ele>156.134731</ele>
        <time>2022-12-09T17:41:41.555Z</time>
      </trkpt>
      <trkpt lat="48.38178" lon="-4.34883">
        <ele>156.112556</ele>
        <time>2022-12-09T17:41:44.554Z</time>
      </trkpt>
      <trkpt lat="48.38173" lon="-4.34869">
        <ele>155.879196</ele>
        <time>2022-12-09T17:41:47.544Z</time>
      </trkpt>
      <trkpt lat="48.38173" lon="-4.34853">
        <ele>155.559192</ele>
        <time>2022-12-09T17:41:50.544Z</time>
      </trkpt>
      <trkpt lat="48.38177" lon="-4.3484">
        <ele>155.263804</ele>
        <time>2022-12-09T17:41:53.544Z</time>
      </trkpt>
      <trkpt lat="48.38182" lon="-4.34827">
        <ele>154.970607</ele>
        <time>2022-12-09T17:41:56.564Z</time>
      </trkpt>
      <trkpt lat="48.38181" lon="-4.3481">
        <ele>154.646253</ele>
        <time>2022-12-09T17:41:59.548Z</time>
      </trkpt>
      <trkpt lat="48.38178" lon="-4.34792">
        <ele>154.270406</ele>
        <time>2022-12-09T17:42:02.552Z</time>
      </trkpt>
      <trkpt lat="48.38174" lon="-4.34779">
        <ele>153.988319</ele>
        <time>2022-12-09T17:42:04.542Z</time>
      </trkpt>
      <trkpt lat="48.38171" lon="-4.34766">
        <ele>153.702485</ele>
        <time>2022-12-09T17:42:06.548Z</time>
      </trkpt>
      <trkpt lat="48.38168" lon="-4.34752">
        <ele>153.416672</ele>
        <time>2022-12-09T17:42:08.556Z</time>
      </trkpt>
      <trkpt lat="48.38164" lon="-4.34733">
        <ele>153.01598</ele>
        <time>2022-12-09T17:42:11.562Z</time>
      </trkpt>
      <trkpt lat="48.38161" lon="-4.3472">
        <ele>152.741365</ele>
        <time>2022-12-09T17:42:13.563Z</time>
      </trkpt>
      <trkpt lat="48.38157" lon="-4.34706">
        <ele>152.433517</ele>
        <time>2022-12-09T17:42:15.562Z</time>
      </trkpt>
      <trkpt lat="48.38153" lon="-4.34692">
        <ele>152.115917</ele>
        <time>2022-12-09T17:42:17.563Z</time>
      </trkpt>
      <trkpt lat="48.38148" lon="-4.34676">
        <ele>151.77942</ele>
        <time>2022-12-09T17:42:19.566Z</time>
      </trkpt>
      <trkpt lat="48.38144" lon="-4.3466">
        <ele>151.432554</ele>
        <time>2022-12-09T17:42:21.564Z</time>
      </trkpt>
      <trkpt lat="48.3814" lon="-4.34647">
        <ele>151.136278</ele>
        <time>2022-12-09T17:42:23.563Z</time>
      </trkpt>
      <trkpt lat="48.38135" lon="-4.34632">
        <ele>150.821071</ele>
        <time>2022-12-09T17:42:26.566Z</time>
      </trkpt>
      <trkpt lat="48.38132" lon="-4.3462">
        <ele>150.483467</ele>
        <time>2022-12-09T17:42:30.561Z</time>
      </trkpt>
      <trkpt lat="48.3813" lon="-4.34606">
        <ele>150.081009</ele>
        <time>2022-12-09T17:42:33.565Z</time>
      </trkpt>
      <trkpt lat="48.38127" lon="-4.34589">
        <ele>149.575558</ele>
        <time>2022-12-09T17:42:36.570Z</time>
      </trkpt>
      <trkpt lat="48.38124" lon="-4.3457">
        <ele>148.985601</ele>
        <time>2022-12-09T17:42:39.553Z</time>
      </trkpt>
      <trkpt lat="48.38122" lon="-4.34556">
        <ele>148.579332</ele>
        <time>2022-12-09T17:42:41.566Z</time>
      </trkpt>
      <trkpt lat="48.3812" lon="-4.34542">
        <ele>148.172982</ele>
        <time>2022-12-09T17:42:43.559Z</time>
      </trkpt>
      <trkpt lat="48.38119" lon="-4.34528">
        <ele>147.750703</ele>
        <time>2022-12-09T17:42:45.564Z</time>
      </trkpt>
      <trkpt lat="48.38118" lon="-4.34513">
        <ele>147.324448</ele>
        <time>2022-12-09T17:42:47.576Z</time>
      </trkpt>
      <trkpt lat="48.38119" lon="-4.34498">
        <ele>146.879063</ele>
        <time>2022-12-09T17:42:49.545Z</time>
      </trkpt>
      <trkpt lat="48.38119" lon="-4.34483">
        <ele>146.436446</ele>
        <time>2022-12-09T17:42:51.546Z</time>
      </trkpt>
      <trkpt lat="48.38119" lon="-4.34469">
        <ele>146.037724</ele>
        <time>2022-12-09T17:42:53.566Z</time>
      </trkpt>
      <trkpt lat="48.38119" lon="-4.34456">
        <ele>145.641402</ele>
        <time>2022-12-09T17:42:55.564Z</time>
      </trkpt>
      <trkpt lat="48.3812" lon="-4.34442">
        <ele>145.241599</ele>
        <time>2022-12-09T17:42:57.544Z</time>
      </trkpt>
      <trkpt lat="48.38121" lon="-4.34427">
        <ele>144.812779</ele>
        <time>2022-12-09T17:42:59.566Z</time>
      </trkpt>
      <trkpt lat="48.38122" lon="-4.34412">
        <ele>144.381057</ele>
        <time>2022-12-09T17:43:01.545Z</time>
      </trkpt>
      <trkpt lat="48.38122" lon="-4.34398">
        <ele>143.966746</ele>
        <time>2022-12-09T17:43:03.562Z</time>
      </trkpt>
      <trkpt lat="48.38123" lon="-4.34379">
        <ele>143.399827</ele>
        <time>2022-12-09T17:43:06.565Z</time>
      </trkpt>
      <trkpt lat="48.38126" lon="-4.34362">
        <ele>142.892173</ele>
        <time>2022-12-09T17:43:09.566Z</time>
      </trkpt>
      <trkpt lat="48.38127" lon="-4.34342">
        <ele>142.263338</ele>
        <time>2022-12-09T17:43:12.561Z</time>
      </trkpt>
      <trkpt lat="48.38128" lon="-4.34328">
        <ele>141.792892</ele>
        <time>2022-12-09T17:43:14.560Z</time>
      </trkpt>
      <trkpt lat="48.38129" lon="-4.34314">
        <ele>141.310165</ele>
        <time>2022-12-09T17:43:16.568Z</time>
      </trkpt>
      <trkpt lat="48.3813" lon="-4.34299">
        <ele>140.832158</ele>
        <time>2022-12-09T17:43:18.566Z</time>
      </trkpt>
      <trkpt lat="48.38131" lon="-4.34284">
        <ele>140.326018</ele>
        <time>2022-12-09T17:43:20.544Z</time>
      </trkpt>
      <trkpt lat="48.38132" lon="-4.3427">
        <ele>139.856893</ele>
        <time>2022-12-09T17:43:22.550Z</time>
      </trkpt>
      <trkpt lat="48.38133" lon="-4.34255">
        <ele>139.392719</ele>
        <time>2022-12-09T17:43:24.571Z</time>
      </trkpt>
      <trkpt lat="48.38134" lon="-4.34241">
        <ele>138.922449</ele>
        <time>2022-12-09T17:43:26.570Z</time>
      </trkpt>
      <trkpt lat="48.38135" lon="-4.34226">
        <ele>138.4306</ele>
        <time>2022-12-09T17:43:28.564Z</time>
      </trkpt>
      <trkpt lat="48.38136" lon="-4.34212">
        <ele>137.961475</ele>
        <time>2022-12-09T17:43:30.564Z</time>
      </trkpt>
      <trkpt lat="48.38137" lon="-4.34197">
        <ele>137.468287</ele>
        <time>2022-12-09T17:43:32.573Z</time>
      </trkpt>
      <trkpt lat="48.38138" lon="-4.34182">
        <ele>136.958885</ele>
        <time>2022-12-09T17:43:34.563Z</time>
      </trkpt>
      <trkpt lat="48.38138" lon="-4.34166">
        <ele>136.423019</ele>
        <time>2022-12-09T17:43:36.570Z</time>
      </trkpt>
      <trkpt lat="48.38139" lon="-4.3415">
        <ele>135.905716</ele>
        <time>2022-12-09T17:43:38.547Z</time>
      </trkpt>
      <trkpt lat="48.38139" lon="-4.34134">
        <ele>135.396474</ele>
        <time>2022-12-09T17:43:40.564Z</time>
      </trkpt>
      <trkpt lat="48.38139" lon="-4.34119">
        <ele>134.883757</ele>
        <time>2022-12-09T17:43:42.565Z</time>
      </trkpt>
      <trkpt lat="48.38138" lon="-4.34104">
        <ele>134.387458</ele>
        <time>2022-12-09T17:43:44.570Z</time>
      </trkpt>
      <trkpt lat="48.38138" lon="-4.34084">
        <ele>133.767019</ele>
        <time>2022-12-09T17:43:47.572Z</time>
      </trkpt>
      <trkpt lat="48.38138" lon="-4.34065">
        <ele>133.262917</ele>
        <time>2022-12-09T17:43:50.561Z</time>
      </trkpt>
      <trkpt lat="48.38139" lon="-4.34046">
        <ele>132.733415</ele>
        <time>2022-12-09T17:43:53.561Z</time>
      </trkpt>
      <trkpt lat="48.38138" lon="-4.34032">
        <ele>132.364463</ele>
        <time>2022-12-09T17:43:55.568Z</time>
      </trkpt>
      <trkpt lat="48.38137" lon="-4.34012">
        <ele>131.825964</ele>
        <time>2022-12-09T17:43:58.551Z</time>
      </trkpt>
      <trkpt lat="48.38137" lon="-4.33993">
        <ele>131.305456</ele>
        <time>2022-12-09T17:44:01.567Z</time>
      </trkpt>
      <trkpt lat="48.38137" lon="-4.33974">
        <ele>130.779419</ele>
        <time>2022-12-09T17:44:04.568Z</time>
      </trkpt>
      <trkpt lat="48.38137" lon="-4.33954">
        <ele>130.250909</ele>
        <time>2022-12-09T17:44:07.565Z</time>
      </trkpt>
      <trkpt lat="48.38138" lon="-4.33935">
        <ele>129.715997</ele>
        <time>2022-12-09T17:44:10.560Z</time>
      </trkpt>
      <trkpt lat="48.3814" lon="-4.33915">
        <ele>129.171226</ele>
        <time>2022-12-09T17:44:13.571Z</time>
      </trkpt>
      <trkpt lat="48.38142" lon="-4.33899">
        <ele>128.7294</ele>
        <time>2022-12-09T17:44:15.565Z</time>
      </trkpt>
      <trkpt lat="48.38144" lon="-4.33885">
        <ele>128.338641</ele>
        <time>2022-12-09T17:44:17.565Z</time>
      </trkpt>
      <trkpt lat="48.38147" lon="-4.33871">
        <ele>127.952747</ele>
        <time>2022-12-09T17:44:19.546Z</time>
      </trkpt>
      <trkpt lat="48.3815" lon="-4.33858">
        <ele>127.574457</ele>
        <time>2022-12-09T17:44:21.561Z</time>
      </trkpt>
      <trkpt lat="48.38154" lon="-4.33844">
        <ele>127.177671</ele>
        <time>2022-12-09T17:44:23.554Z</time>
      </trkpt>
      <trkpt lat="48.38157" lon="-4.33831">
        <ele>126.792467</ele>
        <time>2022-12-09T17:44:25.565Z</time>
      </trkpt>
      <trkpt lat="48.38161" lon="-4.33818">
        <ele>126.354756</ele>
        <time>2022-12-09T17:44:27.561Z</time>
      </trkpt>
      <trkpt lat="48.38166" lon="-4.33805">
        <ele>125.836842</ele>
        <time>2022-12-09T17:44:29.567Z</time>
      </trkpt>
      <trkpt lat="48.38173" lon="-4.33787">
        <ele>125.148843</ele>
        <time>2022-12-09T17:44:32.570Z</time>
      </trkpt>
      <trkpt lat="48.38177" lon="-4.33775">
        <ele>124.683965</ele>
        <time>2022-12-09T17:44:34.567Z</time>
      </trkpt>
      <trkpt lat="48.38183" lon="-4.33763">
        <ele>124.19233</ele>
        <time>2022-12-09T17:44:36.566Z</time>
      </trkpt>
      <trkpt lat="48.38188" lon="-4.33751">
        <ele>123.706336</ele>
        <time>2022-12-09T17:44:38.567Z</time>
      </trkpt>
      <trkpt lat="48.38193" lon="-4.33739">
        <ele>123.226028</ele>
        <time>2022-12-09T17:44:40.563Z</time>
      </trkpt>
      <trkpt lat="48.38199" lon="-4.33728">
        <ele>122.744792</ele>
        <time>2022-12-09T17:44:42.563Z</time>
      </trkpt>
      <trkpt lat="48.38205" lon="-4.33716">
        <ele>122.224868</ele>
        <time>2022-12-09T17:44:44.560Z</time>
      </trkpt>
      <trkpt lat="48.38213" lon="-4.33703">
        <ele>121.633838</ele>
        <time>2022-12-09T17:44:46.564Z</time>
      </trkpt>
      <trkpt lat="48.38219" lon="-4.33689">
        <ele>121.048951</ele>
        <time>2022-12-09T17:44:48.548Z</time>
      </trkpt>
      <trkpt lat="48.38226" lon="-4.33674">
        <ele>120.461152</ele>
        <time>2022-12-09T17:44:50.548Z</time>
      </trkpt>
      <trkpt lat="48.38232" lon="-4.33659">
        <ele>119.853731</ele>
        <time>2022-12-09T17:44:52.564Z</time>
      </trkpt>
      <trkpt lat="48.38239" lon="-4.33644">
        <ele>119.234906</ele>
        <time>2022-12-09T17:44:54.566Z</time>
      </trkpt>
      <trkpt lat="48.38245" lon="-4.33628">
        <ele>118.620171</ele>
        <time>2022-12-09T17:44:56.566Z</time>
      </trkpt>
      <trkpt lat="48.3825" lon="-4.33611">
        <ele>117.983267</ele>
        <time>2022-12-09T17:44:58.567Z</time>
      </trkpt>
      <trkpt lat="48.38254" lon="-4.33594">
        <ele>117.372662</ele>
        <time>2022-12-09T17:45:00.569Z</time>
      </trkpt>
      <trkpt lat="48.38257" lon="-4.33577">
        <ele>117.130356</ele>
        <time>2022-12-09T17:45:02.564Z</time>
      </trkpt>
      <trkpt lat="48.38258" lon="-4.33561">
        <ele>116.896977</ele>
        <time>2022-12-09T17:45:04.562Z</time>
      </trkpt>
      <trkpt lat="48.3826" lon="-4.33545">
        <ele>116.656465</ele>
        <time>2022-12-09T17:45:06.569Z</time>
      </trkpt>
      <trkpt lat="48.3826" lon="-4.33528">
        <ele>116.411178</ele>
        <time>2022-12-09T17:45:08.561Z</time>
      </trkpt>
      <trkpt lat="48.3826" lon="-4.33511">
        <ele>116.165977</ele>
        <time>2022-12-09T17:45:10.548Z</time>
      </trkpt>
      <trkpt lat="48.38259" lon="-4.33494">
        <ele>115.916744</ele>
        <time>2022-12-09T17:45:12.557Z</time>
      </trkpt>
      <trkpt lat="48.38258" lon="-4.33477">
        <ele>115.683067</ele>
        <time>2022-12-09T17:45:14.547Z</time>
      </trkpt>
      <trkpt lat="48.38256" lon="-4.33462">
        <ele>115.454911</ele>
        <time>2022-12-09T17:45:16.548Z</time>
      </trkpt>
      <trkpt lat="48.38254" lon="-4.33448">
        <ele>115.249232</ele>
        <time>2022-12-09T17:45:18.552Z</time>
      </trkpt>
      <trkpt lat="48.38251" lon="-4.33434">
        <ele>115.034952</ele>
        <time>2022-12-09T17:45:20.544Z</time>
      </trkpt>
      <trkpt lat="48.38247" lon="-4.33421">
        <ele>114.831288</ele>
        <time>2022-12-09T17:45:22.546Z</time>
      </trkpt>
      <trkpt lat="48.38244" lon="-4.33408">
        <ele>114.634587</ele>
        <time>2022-12-09T17:45:24.563Z</time>
      </trkpt>
      <trkpt lat="48.3824" lon="-4.33395">
        <ele>114.431464</ele>
        <time>2022-12-09T17:45:26.568Z</time>
      </trkpt>
      <trkpt lat="48.38236" lon="-4.33382">
        <ele>114.225279</ele>
        <time>2022-12-09T17:45:28.567Z</time>
      </trkpt>
      <trkpt lat="48.38231" lon="-4.33364">
        <ele>113.938643</ele>
        <time>2022-12-09T17:45:31.564Z</time>
      </trkpt>
      <trkpt lat="48.38225" lon="-4.33346">
        <ele>113.65102</ele>
        <time>2022-12-09T17:45:34.567Z</time>
      </trkpt>
      <trkpt lat="48.3822" lon="-4.33329">
        <ele>113.318387</ele>
        <time>2022-12-09T17:45:37.566Z</time>
      </trkpt>
      <trkpt lat="48.38213" lon="-4.33311">
        <ele>112.85974</ele>
        <time>2022-12-09T17:45:40.563Z</time>
      </trkpt>
      <trkpt lat="48.38209" lon="-4.33298">
        <ele>112.542001</ele>
        <time>2022-12-09T17:45:42.565Z</time>
      </trkpt>
      <trkpt lat="48.38204" lon="-4.3328">
        <ele>112.093075</ele>
        <time>2022-12-09T17:45:45.566Z</time>
      </trkpt>
      <trkpt lat="48.382" lon="-4.33267">
        <ele>111.783158</ele>
        <time>2022-12-09T17:45:47.562Z</time>
      </trkpt>
      <trkpt lat="48.38196" lon="-4.33255">
        <ele>111.474508</ele>
        <time>2022-12-09T17:45:49.565Z</time>
      </trkpt>
      <trkpt lat="48.3819" lon="-4.33239">
        <ele>111.066318</ele>
        <time>2022-12-09T17:45:52.563Z</time>
      </trkpt>
      <trkpt lat="48.38185" lon="-4.33224">
        <ele>110.695775</ele>
        <time>2022-12-09T17:45:55.544Z</time>
      </trkpt>
      <trkpt lat="48.3818" lon="-4.3321">
        <ele>110.345214</ele>
        <time>2022-12-09T17:45:58.567Z</time>
      </trkpt>
      <trkpt lat="48.38176" lon="-4.33195">
        <ele>109.98143</ele>
        <time>2022-12-09T17:46:01.564Z</time>
      </trkpt>
      <trkpt lat="48.3817" lon="-4.33178">
        <ele>109.552489</ele>
        <time>2022-12-09T17:46:04.565Z</time>
      </trkpt>
      <trkpt lat="48.38165" lon="-4.33167">
        <ele>109.250566</ele>
        <time>2022-12-09T17:46:06.566Z</time>
      </trkpt>
      <trkpt lat="48.38159" lon="-4.33154">
        <ele>108.894858</ele>
        <time>2022-12-09T17:46:08.559Z</time>
      </trkpt>
      <trkpt lat="48.38154" lon="-4.33141">
        <ele>108.559754</ele>
        <time>2022-12-09T17:46:10.556Z</time>
      </trkpt>
      <trkpt lat="48.38148" lon="-4.33129">
        <ele>108.224465</ele>
        <time>2022-12-09T17:46:12.553Z</time>
      </trkpt>
      <trkpt lat="48.38141" lon="-4.33119">
        <ele>107.895955</ele>
        <time>2022-12-09T17:46:14.554Z</time>
      </trkpt>
      <trkpt lat="48.38134" lon="-4.33107">
        <ele>107.537863</ele>
        <time>2022-12-09T17:46:16.557Z</time>
      </trkpt>
      <trkpt lat="48.38126" lon="-4.33096">
        <ele>107.16217</ele>
        <time>2022-12-09T17:46:18.570Z</time>
      </trkpt>
      <trkpt lat="48.38119" lon="-4.33085">
        <ele>106.755582</ele>
        <time>2022-12-09T17:46:20.549Z</time>
      </trkpt>
      <trkpt lat="48.38111" lon="-4.33073">
        <ele>106.349894</ele>
        <time>2022-12-09T17:46:22.567Z</time>
      </trkpt>
      <trkpt lat="48.38104" lon="-4.33062">
        <ele>105.950474</ele>
        <time>2022-12-09T17:46:24.566Z</time>
      </trkpt>
      <trkpt lat="48.38097" lon="-4.33052">
        <ele>105.57397</ele>
        <time>2022-12-09T17:46:26.567Z</time>
      </trkpt>
      <trkpt lat="48.38089" lon="-4.33042">
        <ele>105.191839</ele>
        <time>2022-12-09T17:46:28.564Z</time>
      </trkpt>
      <trkpt lat="48.38082" lon="-4.33031">
        <ele>104.808367</ele>
        <time>2022-12-09T17:46:30.564Z</time>
      </trkpt>
      <trkpt lat="48.38076" lon="-4.3302">
        <ele>104.458994</ele>
        <time>2022-12-09T17:46:32.564Z</time>
      </trkpt>
      <trkpt lat="48.3807" lon="-4.3301">
        <ele>104.101611</ele>
        <time>2022-12-09T17:46:34.564Z</time>
      </trkpt>
      <trkpt lat="48.38063" lon="-4.33001">
        <ele>103.744823</ele>
        <time>2022-12-09T17:46:36.565Z</time>
      </trkpt>
      <trkpt lat="48.38055" lon="-4.32989">
        <ele>103.336493</ele>
        <time>2022-12-09T17:46:38.556Z</time>
      </trkpt>
      <trkpt lat="48.38047" lon="-4.32976">
        <ele>102.896473</ele>
        <time>2022-12-09T17:46:40.566Z</time>
      </trkpt>
      <trkpt lat="48.38038" lon="-4.32963">
        <ele>102.411095</ele>
        <time>2022-12-09T17:46:42.566Z</time>
      </trkpt>
      <trkpt lat="48.38029" lon="-4.32948">
        <ele>101.90053</ele>
        <time>2022-12-09T17:46:44.550Z</time>
      </trkpt>
      <trkpt lat="48.3802" lon="-4.32932">
        <ele>101.391579</ele>
        <time>2022-12-09T17:46:46.566Z</time>
      </trkpt>
      <trkpt lat="48.38012" lon="-4.32917">
        <ele>100.896692</ele>
        <time>2022-12-09T17:46:48.566Z</time>
      </trkpt>
      <trkpt lat="48.38004" lon="-4.32903">
        <ele>100.57123</ele>
        <time>2022-12-09T17:46:50.546Z</time>
      </trkpt>
      <trkpt lat="48.37996" lon="-4.32889">
        <ele>100.498578</ele>
        <time>2022-12-09T17:46:52.565Z</time>
      </trkpt>
      <trkpt lat="48.3799" lon="-4.32877">
        <ele>100.434104</ele>
        <time>2022-12-09T17:46:54.550Z</time>
      </trkpt>
      <trkpt lat="48.37983" lon="-4.32864">
        <ele>100.37112</ele>
        <time>2022-12-09T17:46:56.566Z</time>
      </trkpt>
      <trkpt lat="48.37978" lon="-4.32852">
        <ele>100.311903</ele>
        <time>2022-12-09T17:46:58.569Z</time>
      </trkpt>
      <trkpt lat="48.37973" lon="-4.32838">
        <ele>100.248805</ele>
        <time>2022-12-09T17:47:00.545Z</time>
      </trkpt>
      <trkpt lat="48.37967" lon="-4.32826">
        <ele>100.188948</ele>
        <time>2022-12-09T17:47:02.564Z</time>
      </trkpt>
      <trkpt lat="48.37962" lon="-4.32814">
        <ele>100.132775</ele>
        <time>2022-12-09T17:47:04.558Z</time>
      </trkpt>
      <trkpt lat="48.37954" lon="-4.32798">
        <ele>100.051832</ele>
        <time>2022-12-09T17:47:07.564Z</time>
      </trkpt>
      <trkpt lat="48.37947" lon="-4.32782">
        <ele>99.974576</ele>
        <time>2022-12-09T17:47:10.565Z</time>
      </trkpt>
      <trkpt lat="48.37942" lon="-4.3277">
        <ele>99.91996</ele>
        <time>2022-12-09T17:47:12.567Z</time>
      </trkpt>
      <trkpt lat="48.37937" lon="-4.32753">
        <ele>99.846065</ele>
        <time>2022-12-09T17:47:15.567Z</time>
      </trkpt>
      <trkpt lat="48.37934" lon="-4.32741">
        <ele>99.789663</ele>
        <time>2022-12-09T17:47:17.549Z</time>
      </trkpt>
      <trkpt lat="48.3793" lon="-4.32727">
        <ele>99.730412</ele>
        <time>2022-12-09T17:47:19.565Z</time>
      </trkpt>
      <trkpt lat="48.37927" lon="-4.32713">
        <ele>99.671741</ele>
        <time>2022-12-09T17:47:21.558Z</time>
      </trkpt>
      <trkpt lat="48.37923" lon="-4.32699">
        <ele>99.610935</ele>
        <time>2022-12-09T17:47:23.555Z</time>
      </trkpt>
      <trkpt lat="48.3792" lon="-4.32686">
        <ele>99.556569</ele>
        <time>2022-12-09T17:47:25.564Z</time>
      </trkpt>
      <trkpt lat="48.37917" lon="-4.32668">
        <ele>99.26031</ele>
        <time>2022-12-09T17:47:28.553Z</time>
      </trkpt>
      <trkpt lat="48.37916" lon="-4.32648">
        <ele>98.578592</ele>
        <time>2022-12-09T17:47:31.551Z</time>
      </trkpt>
      <trkpt lat="48.37914" lon="-4.32634">
        <ele>98.096545</ele>
        <time>2022-12-09T17:47:33.554Z</time>
      </trkpt>
      <trkpt lat="48.37912" lon="-4.32616">
        <ele>97.454343</ele>
        <time>2022-12-09T17:47:36.562Z</time>
      </trkpt>
      <trkpt lat="48.37911" lon="-4.32598">
        <ele>96.859856</ele>
        <time>2022-12-09T17:47:39.546Z</time>
      </trkpt>
      <trkpt lat="48.37911" lon="-4.32579">
        <ele>96.199484</ele>
        <time>2022-12-09T17:47:42.565Z</time>
      </trkpt>
      <trkpt lat="48.37912" lon="-4.32564">
        <ele>95.69783</ele>
        <time>2022-12-09T17:47:44.550Z</time>
      </trkpt>
      <trkpt lat="48.37912" lon="-4.32547">
        <ele>95.105468</ele>
        <time>2022-12-09T17:47:46.567Z</time>
      </trkpt>
      <trkpt lat="48.37912" lon="-4.32528">
        <ele>94.465457</ele>
        <time>2022-12-09T17:47:48.575Z</time>
      </trkpt>
      <trkpt lat="48.37912" lon="-4.32509">
        <ele>93.814328</ele>
        <time>2022-12-09T17:47:50.558Z</time>
      </trkpt>
      <trkpt lat="48.37913" lon="-4.3249">
        <ele>93.176485</ele>
        <time>2022-12-09T17:47:52.570Z</time>
      </trkpt>
      <trkpt lat="48.37913" lon="-4.32471">
        <ele>92.533072</ele>
        <time>2022-12-09T17:47:54.575Z</time>
      </trkpt>
      <trkpt lat="48.37913" lon="-4.32455">
        <ele>91.964417</ele>
        <time>2022-12-09T17:47:56.568Z</time>
      </trkpt>
      <trkpt lat="48.37913" lon="-4.32437">
        <ele>91.375458</ele>
        <time>2022-12-09T17:47:58.567Z</time>
      </trkpt>
      <trkpt lat="48.37914" lon="-4.32421">
        <ele>90.830452</ele>
        <time>2022-12-09T17:48:00.567Z</time>
      </trkpt>
      <trkpt lat="48.37914" lon="-4.32405">
        <ele>90.281439</ele>
        <time>2022-12-09T17:48:02.566Z</time>
      </trkpt>
      <trkpt lat="48.37914" lon="-4.32388">
        <ele>90.062255</ele>
        <time>2022-12-09T17:48:04.576Z</time>
      </trkpt>
      <trkpt lat="48.37914" lon="-4.32372">
        <ele>89.846786</ele>
        <time>2022-12-09T17:48:06.568Z</time>
      </trkpt>
      <trkpt lat="48.37914" lon="-4.32358">
        <ele>89.656927</ele>
        <time>2022-12-09T17:48:08.555Z</time>
      </trkpt>
      <trkpt lat="48.37915" lon="-4.32344">
        <ele>89.464598</ele>
        <time>2022-12-09T17:48:10.567Z</time>
      </trkpt>
      <trkpt lat="48.37914" lon="-4.3233">
        <ele>89.280457</ele>
        <time>2022-12-09T17:48:12.566Z</time>
      </trkpt>
      <trkpt lat="48.37914" lon="-4.32316">
        <ele>89.08494</ele>
        <time>2022-12-09T17:48:14.567Z</time>
      </trkpt>
      <trkpt lat="48.37913" lon="-4.32301">
        <ele>88.885898</ele>
        <time>2022-12-09T17:48:16.558Z</time>
      </trkpt>
      <trkpt lat="48.37912" lon="-4.32287">
        <ele>88.701091</ele>
        <time>2022-12-09T17:48:18.558Z</time>
      </trkpt>
      <trkpt lat="48.37911" lon="-4.32273">
        <ele>88.501909</ele>
        <time>2022-12-09T17:48:20.548Z</time>
      </trkpt>
      <trkpt lat="48.37908" lon="-4.32253">
        <ele>88.226737</ele>
        <time>2022-12-09T17:48:23.569Z</time>
      </trkpt>
      <trkpt lat="48.37906" lon="-4.32239">
        <ele>88.039948</ele>
        <time>2022-12-09T17:48:25.572Z</time>
      </trkpt>
      <trkpt lat="48.37903" lon="-4.32226">
        <ele>87.849776</ele>
        <time>2022-12-09T17:48:27.552Z</time>
      </trkpt>
      <trkpt lat="48.379" lon="-4.32211">
        <ele>87.642524</ele>
        <time>2022-12-09T17:48:29.571Z</time>
      </trkpt>
      <trkpt lat="48.37897" lon="-4.32197">
        <ele>87.448643</ele>
        <time>2022-12-09T17:48:31.564Z</time>
      </trkpt>
      <trkpt lat="48.37893" lon="-4.32183">
        <ele>87.248663</ele>
        <time>2022-12-09T17:48:33.568Z</time>
      </trkpt>
      <trkpt lat="48.37889" lon="-4.32169">
        <ele>87.042178</ele>
        <time>2022-12-09T17:48:35.569Z</time>
      </trkpt>
      <trkpt lat="48.37885" lon="-4.32156">
        <ele>86.840104</ele>
        <time>2022-12-09T17:48:37.551Z</time>
      </trkpt>
      <trkpt lat="48.37879" lon="-4.32141">
        <ele>86.663064</ele>
        <time>2022-12-09T17:48:39.575Z</time>
      </trkpt>
      <trkpt lat="48.37875" lon="-4.32127">
        <ele>86.702301</ele>
        <time>2022-12-09T17:48:41.572Z</time>
      </trkpt>
      <trkpt lat="48.37869" lon="-4.32114">
        <ele>86.742768</ele>
        <time>2022-12-09T17:48:43.567Z</time>
      </trkpt>
      <trkpt lat="48.37863" lon="-4.321">
        <ele>86.783456</ele>
        <time>2022-12-09T17:48:45.546Z</time>
      </trkpt>
      <trkpt lat="48.37857" lon="-4.32088">
        <ele>86.82038</ele>
        <time>2022-12-09T17:48:47.565Z</time>
      </trkpt>
      <trkpt lat="48.37852" lon="-4.32076">
        <ele>86.85651</ele>
        <time>2022-12-09T17:48:49.565Z</time>
      </trkpt>
      <trkpt lat="48.37847" lon="-4.32065">
        <ele>86.891446</ele>
        <time>2022-12-09T17:48:51.565Z</time>
      </trkpt>
      <trkpt lat="48.37841" lon="-4.32053">
        <ele>86.926305</ele>
        <time>2022-12-09T17:48:53.557Z</time>
      </trkpt>
      <trkpt lat="48.37834" lon="-4.32038">
        <ele>86.973863</ele>
        <time>2022-12-09T17:48:56.568Z</time>
      </trkpt>
      <trkpt lat="48.37829" lon="-4.32025">
        <ele>87.012245</ele>
        <time>2022-12-09T17:48:59.556Z</time>
      </trkpt>
      <trkpt lat="48.37823" lon="-4.32009">
        <ele>87.057465</ele>
        <time>2022-12-09T17:49:02.569Z</time>
      </trkpt>
      <trkpt lat="48.37819" lon="-4.31993">
        <ele>87.099544</ele>
        <time>2022-12-09T17:49:05.547Z</time>
      </trkpt>
      <trkpt lat="48.37815" lon="-4.31978">
        <ele>87.140076</ele>
        <time>2022-12-09T17:49:08.561Z</time>
      </trkpt>
      <trkpt lat="48.37811" lon="-4.31964">
        <ele>87.178009</ele>
        <time>2022-12-09T17:49:11.562Z</time>
      </trkpt>
      <trkpt lat="48.37808" lon="-4.31951">
        <ele>87.213538</ele>
        <time>2022-12-09T17:49:14.566Z</time>
      </trkpt>
      <trkpt lat="48.37806" lon="-4.31937">
        <ele>87.248833</ele>
        <time>2022-12-09T17:49:17.566Z</time>
      </trkpt>
      <trkpt lat="48.37804" lon="-4.31919">
        <ele>87.293364</ele>
        <time>2022-12-09T17:49:21.561Z</time>
      </trkpt>
      <trkpt lat="48.37801" lon="-4.31903">
        <ele>87.34904</ele>
        <time>2022-12-09T17:49:25.553Z</time>
      </trkpt>
      <trkpt lat="48.378" lon="-4.3189">
        <ele>87.80075</ele>
        <time>2022-12-09T17:49:29.555Z</time>
      </trkpt>
      <trkpt lat="48.37798" lon="-4.31876">
        <ele>88.249676</ele>
        <time>2022-12-09T17:49:34.555Z</time>
      </trkpt>
      <trkpt lat="48.37797" lon="-4.31861">
        <ele>88.718217</ele>
        <time>2022-12-09T17:49:39.555Z</time>
      </trkpt>
      <trkpt lat="48.37795" lon="-4.31846">
        <ele>89.22766</ele>
        <time>2022-12-09T17:49:44.569Z</time>
      </trkpt>
      <trkpt lat="48.37795" lon="-4.31831">
        <ele>89.692795</ele>
        <time>2022-12-09T17:49:49.555Z</time>
      </trkpt>
      <trkpt lat="48.37794" lon="-4.31816">
        <ele>90.169979</ele>
        <time>2022-12-09T17:49:54.570Z</time>
      </trkpt>
      <trkpt lat="48.37794" lon="-4.31801">
        <ele>90.673951</ele>
        <time>2022-12-09T17:50:00.553Z</time>
      </trkpt>
      <trkpt lat="48.37793" lon="-4.31786">
        <ele>91.133561</ele>
        <time>2022-12-09T17:50:05.553Z</time>
      </trkpt>
      <trkpt lat="48.37791" lon="-4.31771">
        <ele>91.643056</ele>
        <time>2022-12-09T17:50:11.553Z</time>
      </trkpt>
      <trkpt lat="48.37791" lon="-4.31756">
        <ele>92.130716</ele>
        <time>2022-12-09T17:50:17.543Z</time>
      </trkpt>
      <trkpt lat="48.37788" lon="-4.31741">
        <ele>92.627257</ele>
        <time>2022-12-09T17:50:23.549Z</time>
      </trkpt>
      <trkpt lat="48.37786" lon="-4.31728">
        <ele>93.062645</ele>
        <time>2022-12-09T17:50:28.558Z</time>
      </trkpt>
      <trkpt lat="48.37784" lon="-4.31712">
        <ele>93.572276</ele>
        <time>2022-12-09T17:50:34.556Z</time>
      </trkpt>
      <trkpt lat="48.37782" lon="-4.31696">
        <ele>94.085054</ele>
        <time>2022-12-09T17:50:40.566Z</time>
      </trkpt>
      <trkpt lat="48.37781" lon="-4.31683">
        <ele>94.523335</ele>
        <time>2022-12-09T17:50:45.553Z</time>
      </trkpt>
      <trkpt lat="48.3778" lon="-4.31669">
        <ele>94.960886</ele>
        <time>2022-12-09T17:50:50.555Z</time>
      </trkpt>
      <trkpt lat="48.37779" lon="-4.31655">
        <ele>95.420046</ele>
        <time>2022-12-09T17:50:56.556Z</time>
      </trkpt>
      <trkpt lat="48.37779" lon="-4.3164">
        <ele>95.891672</ele>
        <time>2022-12-09T17:51:02.556Z</time>
      </trkpt>
      <trkpt lat="48.37778" lon="-4.31625">
        <ele>96.40314</ele>
        <time>2022-12-09T17:51:08.554Z</time>
      </trkpt>
      <trkpt lat="48.37777" lon="-4.31611">
        <ele>96.910725</ele>
        <time>2022-12-09T17:51:14.546Z</time>
      </trkpt>
      <trkpt lat="48.37776" lon="-4.31596">
        <ele>97.418953</ele>
        <time>2022-12-09T17:51:20.553Z</time>
      </trkpt>
      <trkpt lat="48.37777" lon="-4.3158">
        <ele>97.970498</ele>
        <time>2022-12-09T17:51:26.550Z</time>
      </trkpt>
      <trkpt lat="48.37777" lon="-4.31565">
        <ele>98.484025</ele>
        <time>2022-12-09T17:51:32.559Z</time>
      </trkpt>
      <trkpt lat="48.37778" lon="-4.3155">
        <ele>98.990336</ele>
        <time>2022-12-09T17:51:38.550Z</time>
      </trkpt>
      <trkpt lat="48.3778" lon="-4.31536">
        <ele>99.4817</ele>
        <time>2022-12-09T17:51:44.548Z</time>
      </trkpt>
      <trkpt lat="48.37781" lon="-4.31521">
        <ele>100.031566</ele>
        <time>2022-12-09T17:51:51.550Z</time>
      </trkpt>
      <trkpt lat="48.37781" lon="-4.31506">
        <ele>100.539793</ele>
        <time>2022-12-09T17:51:57.565Z</time>
      </trkpt>
      <trkpt lat="48.37783" lon="-4.31492">
        <ele>101.030307</ele>
        <time>2022-12-09T17:52:03.556Z</time>
      </trkpt>
      <trkpt lat="48.37784" lon="-4.31477">
        <ele>101.561439</ele>
        <time>2022-12-09T17:52:09.549Z</time>
      </trkpt>
      <trkpt lat="48.37785" lon="-4.3146">
        <ele>102.117397</ele>
        <time>2022-12-09T17:52:15.549Z</time>
      </trkpt>
      <trkpt lat="48.37787" lon="-4.31447">
        <ele>102.585643</ele>
        <time>2022-12-09T17:52:20.555Z</time>
      </trkpt>
      <trkpt lat="48.37788" lon="-4.31432">
        <ele>103.095376</ele>
        <time>2022-12-09T17:52:26.556Z</time>
      </trkpt>
      <trkpt lat="48.3779" lon="-4.31418">
        <ele>103.61479</ele>
        <time>2022-12-09T17:52:32.552Z</time>
      </trkpt>
      <trkpt lat="48.37791" lon="-4.31403">
        <ele>104.133243</ele>
        <time>2022-12-09T17:52:38.546Z</time>
      </trkpt>
      <trkpt lat="48.37791" lon="-4.31388">
        <ele>104.639772</ele>
        <time>2022-12-09T17:52:44.556Z</time>
      </trkpt>
      <trkpt lat="48.3779" lon="-4.31374">
        <ele>105.125545</ele>
        <time>2022-12-09T17:52:50.549Z</time>
      </trkpt>
      <trkpt lat="48.37789" lon="-4.3136">
        <ele>105.592247</ele>
        <time>2022-12-09T17:52:55.545Z</time>
      </trkpt>
      <trkpt lat="48.37787" lon="-4.31346">
        <ele>106.015658</ele>
        <time>2022-12-09T17:53:00.554Z</time>
      </trkpt>
      <trkpt lat="48.37786" lon="-4.3133">
        <ele>106.534572</ele>
        <time>2022-12-09T17:53:06.555Z</time>
      </trkpt>
      <trkpt lat="48.37787" lon="-4.31316">
        <ele>106.970664</ele>
        <time>2022-12-09T17:53:10.551Z</time>
      </trkpt>
      <trkpt lat="48.37788" lon="-4.313">
        <ele>107.451075</ele>
        <time>2022-12-09T17:53:15.546Z</time>
      </trkpt>
      <trkpt lat="48.37787" lon="-4.31286">
        <ele>107.904114</ele>
        <time>2022-12-09T17:53:20.556Z</time>
      </trkpt>
      <trkpt lat="48.37787" lon="-4.31269">
        <ele>108.405929</ele>
        <time>2022-12-09T17:53:25.554Z</time>
      </trkpt>
      <trkpt lat="48.37786" lon="-4.31254">
        <ele>108.875468</ele>
        <time>2022-12-09T17:53:30.557Z</time>
      </trkpt>
      <trkpt lat="48.37785" lon="-4.31239">
        <ele>109.357348</ele>
        <time>2022-12-09T17:53:35.565Z</time>
      </trkpt>
      <trkpt lat="48.37785" lon="-4.31224">
        <ele>109.806426</ele>
        <time>2022-12-09T17:53:40.551Z</time>
      </trkpt>
      <trkpt lat="48.37784" lon="-4.31208">
        <ele>110.307688</ele>
        <time>2022-12-09T17:53:45.549Z</time>
      </trkpt>
      <trkpt lat="48.37783" lon="-4.31192">
        <ele>110.820404</ele>
        <time>2022-12-09T17:53:50.569Z</time>
      </trkpt>
      <trkpt lat="48.37782" lon="-4.31177">
        <ele>111.273755</ele>
        <time>2022-12-09T17:53:55.563Z</time>
      </trkpt>
      <trkpt lat="48.37783" lon="-4.31161">
        <ele>111.775018</ele>
        <time>2022-12-09T17:54:01.550Z</time>
      </trkpt>
      <trkpt lat="48.37781" lon="-4.31145">
        <ele>112.274059</ele>
        <time>2022-12-09T17:54:06.564Z</time>
      </trkpt>
      <trkpt lat="48.3778" lon="-4.31131">
        <ele>112.713231</ele>
        <time>2022-12-09T17:54:10.558Z</time>
      </trkpt>
      <trkpt lat="48.37779" lon="-4.31115">
        <ele>113.220656</ele>
        <time>2022-12-09T17:54:15.559Z</time>
      </trkpt>
      <trkpt lat="48.37776" lon="-4.31099">
        <ele>113.736824</ele>
        <time>2022-12-09T17:54:19.566Z</time>
      </trkpt>
      <trkpt lat="48.37773" lon="-4.31084">
        <ele>113.710664</ele>
        <time>2022-12-09T17:54:23.551Z</time>
      </trkpt>
      <trkpt lat="48.37769" lon="-4.31067">
        <ele>113.68213</ele>
        <time>2022-12-09T17:54:27.547Z</time>
      </trkpt>
      <trkpt lat="48.37765" lon="-4.31053">
        <ele>113.655692</ele>
        <time>2022-12-09T17:54:31.546Z</time>
      </trkpt>
      <trkpt lat="48.37761" lon="-4.3104">
        <ele>113.632182</ele>
        <time>2022-12-09T17:54:35.557Z</time>
      </trkpt>
      <trkpt lat="48.37757" lon="-4.31027">
        <ele>113.607944</ele>
        <time>2022-12-09T17:54:39.571Z</time>
      </trkpt>
      <trkpt lat="48.37753" lon="-4.31013">
        <ele>113.582491</ele>
        <time>2022-12-09T17:54:43.555Z</time>
      </trkpt>
      <trkpt lat="48.37747" lon="-4.30999">
        <ele>113.5555</ele>
        <time>2022-12-09T17:54:47.556Z</time>
      </trkpt>
      <trkpt lat="48.37741" lon="-4.30985">
        <ele>113.526417</ele>
        <time>2022-12-09T17:54:51.573Z</time>
      </trkpt>
      <trkpt lat="48.37735" lon="-4.30971">
        <ele>113.498016</ele>
        <time>2022-12-09T17:54:55.547Z</time>
      </trkpt>
      <trkpt lat="48.37729" lon="-4.30957">
        <ele>113.470882</ele>
        <time>2022-12-09T17:54:59.553Z</time>
      </trkpt>
      <trkpt lat="48.37723" lon="-4.30946">
        <ele>113.447138</ele>
        <time>2022-12-09T17:55:02.571Z</time>
      </trkpt>
      <trkpt lat="48.37717" lon="-4.30934">
        <ele>113.423021</ele>
        <time>2022-12-09T17:55:05.565Z</time>
      </trkpt>
      <trkpt lat="48.37712" lon="-4.30923">
        <ele>113.39934</ele>
        <time>2022-12-09T17:55:08.568Z</time>
      </trkpt>
      <trkpt lat="48.37705" lon="-4.3091">
        <ele>113.371743</ele>
        <time>2022-12-09T17:55:12.565Z</time>
      </trkpt>
      <trkpt lat="48.37699" lon="-4.30899">
        <ele>113.34781</ele>
        <time>2022-12-09T17:55:15.565Z</time>
      </trkpt>
      <trkpt lat="48.37693" lon="-4.30889">
        <ele>113.324676</ele>
        <time>2022-12-09T17:55:18.570Z</time>
      </trkpt>
      <trkpt lat="48.37687" lon="-4.30879">
        <ele>113.302123</ele>
        <time>2022-12-09T17:55:21.568Z</time>
      </trkpt>
      <trkpt lat="48.37681" lon="-4.30868">
        <ele>113.284852</ele>
        <time>2022-12-09T17:55:24.567Z</time>
      </trkpt>
      <trkpt lat="48.37674" lon="-4.30858">
        <ele>113.284852</ele>
        <time>2022-12-09T17:55:27.560Z</time>
      </trkpt>
      <trkpt lat="48.37668" lon="-4.30848">
        <ele>113.284852</ele>
        <time>2022-12-09T17:55:30.567Z</time>
      </trkpt>
      <trkpt lat="48.3766" lon="-4.30835">
        <ele>113.284852</ele>
        <time>2022-12-09T17:55:34.566Z</time>
      </trkpt>
      <trkpt lat="48.37653" lon="-4.30822">
        <ele>113.284852</ele>
        <time>2022-12-09T17:55:38.567Z</time>
      </trkpt>
      <trkpt lat="48.37645" lon="-4.3081">
        <ele>113.284852</ele>
        <time>2022-12-09T17:55:42.578Z</time>
      </trkpt>
      <trkpt lat="48.37637" lon="-4.30797">
        <ele>113.284852</ele>
        <time>2022-12-09T17:55:46.549Z</time>
      </trkpt>
      <trkpt lat="48.37634" lon="-4.30784">
        <ele>113.284852</ele>
        <time>2022-12-09T17:55:49.556Z</time>
      </trkpt>
      <trkpt lat="48.37632" lon="-4.3077">
        <ele>113.284852</ele>
        <time>2022-12-09T17:55:52.567Z</time>
      </trkpt>
      <trkpt lat="48.3763" lon="-4.30755">
        <ele>113.284852</ele>
        <time>2022-12-09T17:55:56.571Z</time>
      </trkpt>
      <trkpt lat="48.37625" lon="-4.30741">
        <ele>113.284852</ele>
        <time>2022-12-09T17:56:01.565Z</time>
      </trkpt>
      <trkpt lat="48.37621" lon="-4.30729">
        <ele>113.284852</ele>
        <time>2022-12-09T17:56:08.557Z</time>
      </trkpt>
      <trkpt lat="48.3762" lon="-4.30725">
        <ele>113.284852</ele>
        <time>2022-12-09T17:56:55.502Z</time>
      </trkpt>
    </trkseg>
  </trk>
</gpx>